<?xml version="1.0" encoding="UTF-8" standalone="no" ?>
<gpx xmlns="http://www.topografix.com/GPX/1/1" xmlns:xsi="http://www.w3.org/2001/XMLSchema-instance" xsi:schemaLocation="http://www.topografix.com/GPX/1/1 http://www.topografix.com/GPX/1/1/gpx.xsd" version="1.1" creator="VisuGPX - https://www.visugpx.com">
  <metadata>
    <name>De Vauboyen à Igny par le plateau de Saclay</name>
    <desc><![CDATA[Trace AlpineQuest 03/05/2022 07:09:39]]></desc>
  </metadata>
  <trk>
    <name><![CDATA[De Vauboyen à Igny par le plateau de Saclay]]></name>
    <desc><![CDATA[Trace AlpineQuest 03/05/2022 07:09:39]]></desc>
    <extensions>
      <line xmlns="http://www.topografix.com/GPX/gpx_style/0/2">
        <color>0000FF</color>
        <width>4</width>
      </line>
    </extensions>
    <trkseg>
      <trkpt lat="48.75928" lon="2.19202">
        <ele>86.5</ele>
        <time>2022-05-03T05:09:39Z</time>
      </trkpt>
      <trkpt lat="48.75935" lon="2.19207">
        <ele>86</ele>
        <time>2022-05-03T05:10:18Z</time>
      </trkpt>
      <trkpt lat="48.7594" lon="2.19217">
        <ele>85.6</ele>
        <time>2022-05-03T05:10:23Z</time>
      </trkpt>
      <trkpt lat="48.75944" lon="2.19226">
        <ele>85.2</ele>
        <time>2022-05-03T05:10:29Z</time>
      </trkpt>
      <trkpt lat="48.75951" lon="2.19236">
        <ele>84.6</ele>
        <time>2022-05-03T05:10:34Z</time>
      </trkpt>
      <trkpt lat="48.75955" lon="2.19244">
        <ele>84.3</ele>
        <time>2022-05-03T05:10:40Z</time>
      </trkpt>
      <trkpt lat="48.75963" lon="2.19252">
        <ele>83.7</ele>
        <time>2022-05-03T05:10:45Z</time>
      </trkpt>
      <trkpt lat="48.7597" lon="2.19256">
        <ele>83.3</ele>
        <time>2022-05-03T05:10:50Z</time>
      </trkpt>
      <trkpt lat="48.75977" lon="2.19261">
        <ele>82.9</ele>
        <time>2022-05-03T05:10:56Z</time>
      </trkpt>
      <trkpt lat="48.75985" lon="2.19266">
        <ele>82.5</ele>
        <time>2022-05-03T05:11:01Z</time>
      </trkpt>
      <trkpt lat="48.75993" lon="2.19272">
        <ele>82</ele>
        <time>2022-05-03T05:11:06Z</time>
      </trkpt>
      <trkpt lat="48.76" lon="2.19275">
        <ele>81.7</ele>
        <time>2022-05-03T05:11:11Z</time>
      </trkpt>
      <trkpt lat="48.76006" lon="2.1928">
        <ele>81.5</ele>
        <time>2022-05-03T05:11:17Z</time>
      </trkpt>
      <trkpt lat="48.76013" lon="2.19288">
        <ele>81.2</ele>
        <time>2022-05-03T05:11:22Z</time>
      </trkpt>
      <trkpt lat="48.76019" lon="2.19293">
        <ele>81</ele>
        <time>2022-05-03T05:11:27Z</time>
      </trkpt>
      <trkpt lat="48.76027" lon="2.19297">
        <ele>80.8</ele>
        <time>2022-05-03T05:11:32Z</time>
      </trkpt>
      <trkpt lat="48.76034" lon="2.19307">
        <ele>80.5</ele>
        <time>2022-05-03T05:11:37Z</time>
      </trkpt>
      <trkpt lat="48.7604" lon="2.19316">
        <ele>80.2</ele>
        <time>2022-05-03T05:11:42Z</time>
      </trkpt>
      <trkpt lat="48.76043" lon="2.19327">
        <ele>80</ele>
        <time>2022-05-03T05:11:47Z</time>
      </trkpt>
      <trkpt lat="48.76045" lon="2.19337">
        <ele>79.9</ele>
        <time>2022-05-03T05:11:52Z</time>
      </trkpt>
      <trkpt lat="48.76049" lon="2.19348">
        <ele>79.7</ele>
        <time>2022-05-03T05:11:57Z</time>
      </trkpt>
      <trkpt lat="48.76054" lon="2.19357">
        <ele>79.5</ele>
        <time>2022-05-03T05:12:03Z</time>
      </trkpt>
      <trkpt lat="48.76059" lon="2.19365">
        <ele>79.4</ele>
        <time>2022-05-03T05:12:08Z</time>
      </trkpt>
      <trkpt lat="48.76065" lon="2.19371">
        <ele>79.2</ele>
        <time>2022-05-03T05:12:13Z</time>
      </trkpt>
      <trkpt lat="48.76066" lon="2.19381">
        <ele>79.2</ele>
        <time>2022-05-03T05:12:21Z</time>
      </trkpt>
      <trkpt lat="48.76065" lon="2.19391">
        <ele>79.1</ele>
        <time>2022-05-03T05:12:39Z</time>
      </trkpt>
      <trkpt lat="48.76066" lon="2.19402">
        <ele>79.1</ele>
        <time>2022-05-03T05:12:44Z</time>
      </trkpt>
      <trkpt lat="48.76072" lon="2.1941">
        <ele>79</ele>
        <time>2022-05-03T05:12:49Z</time>
      </trkpt>
      <trkpt lat="48.76074" lon="2.19421">
        <ele>79.2</ele>
        <time>2022-05-03T05:12:54Z</time>
      </trkpt>
      <trkpt lat="48.76077" lon="2.19431">
        <ele>79.6</ele>
        <time>2022-05-03T05:12:59Z</time>
      </trkpt>
      <trkpt lat="48.76081" lon="2.19442">
        <ele>80.2</ele>
        <time>2022-05-03T05:13:04Z</time>
      </trkpt>
      <trkpt lat="48.76085" lon="2.1945">
        <ele>80.8</ele>
        <time>2022-05-03T05:13:10Z</time>
      </trkpt>
      <trkpt lat="48.76087" lon="2.19461">
        <ele>81.6</ele>
        <time>2022-05-03T05:13:16Z</time>
      </trkpt>
      <trkpt lat="48.76091" lon="2.19471">
        <ele>82.5</ele>
        <time>2022-05-03T05:13:22Z</time>
      </trkpt>
      <trkpt lat="48.76095" lon="2.19478">
        <ele>83.3</ele>
        <time>2022-05-03T05:13:31Z</time>
      </trkpt>
      <trkpt lat="48.76101" lon="2.19484">
        <ele>84.2</ele>
        <time>2022-05-03T05:13:37Z</time>
      </trkpt>
      <trkpt lat="48.76106" lon="2.19492">
        <ele>85.1</ele>
        <time>2022-05-03T05:13:43Z</time>
      </trkpt>
      <trkpt lat="48.76111" lon="2.19499">
        <ele>85.9</ele>
        <time>2022-05-03T05:13:48Z</time>
      </trkpt>
      <trkpt lat="48.76117" lon="2.19505">
        <ele>86.7</ele>
        <time>2022-05-03T05:13:54Z</time>
      </trkpt>
      <trkpt lat="48.76125" lon="2.19514">
        <ele>87.6</ele>
        <time>2022-05-03T05:13:59Z</time>
      </trkpt>
      <trkpt lat="48.76131" lon="2.19526">
        <ele>88.3</ele>
        <time>2022-05-03T05:14:04Z</time>
      </trkpt>
      <trkpt lat="48.76133" lon="2.19538">
        <ele>88.6</ele>
        <time>2022-05-03T05:14:09Z</time>
      </trkpt>
      <trkpt lat="48.76136" lon="2.19547">
        <ele>89</ele>
        <time>2022-05-03T05:14:14Z</time>
      </trkpt>
      <trkpt lat="48.76144" lon="2.19546">
        <ele>90</ele>
        <time>2022-05-03T05:14:19Z</time>
      </trkpt>
      <trkpt lat="48.7615" lon="2.1955">
        <ele>90.7</ele>
        <time>2022-05-03T05:14:28Z</time>
      </trkpt>
      <trkpt lat="48.76143" lon="2.19547">
        <ele>89.8</ele>
        <time>2022-05-03T05:14:54Z</time>
      </trkpt>
      <trkpt lat="48.76138" lon="2.19539">
        <ele>89.2</ele>
        <time>2022-05-03T05:15:00Z</time>
      </trkpt>
      <trkpt lat="48.7614" lon="2.19549">
        <ele>89.5</ele>
        <time>2022-05-03T05:15:29Z</time>
      </trkpt>
      <trkpt lat="48.76148" lon="2.19549">
        <ele>90.4</ele>
        <time>2022-05-03T05:15:35Z</time>
      </trkpt>
      <trkpt lat="48.7615" lon="2.1954">
        <ele>90.6</ele>
        <time>2022-05-03T05:15:40Z</time>
      </trkpt>
      <trkpt lat="48.76155" lon="2.19532">
        <ele>91.1</ele>
        <time>2022-05-03T05:15:45Z</time>
      </trkpt>
      <trkpt lat="48.76156" lon="2.1952">
        <ele>91.1</ele>
        <time>2022-05-03T05:15:50Z</time>
      </trkpt>
      <trkpt lat="48.76162" lon="2.19512">
        <ele>91.6</ele>
        <time>2022-05-03T05:15:55Z</time>
      </trkpt>
      <trkpt lat="48.76167" lon="2.19505">
        <ele>92.1</ele>
        <time>2022-05-03T05:16:00Z</time>
      </trkpt>
      <trkpt lat="48.76174" lon="2.19503">
        <ele>93.2</ele>
        <time>2022-05-03T05:16:06Z</time>
      </trkpt>
      <trkpt lat="48.76181" lon="2.19505">
        <ele>94.3</ele>
        <time>2022-05-03T05:16:12Z</time>
      </trkpt>
      <trkpt lat="48.76187" lon="2.19506">
        <ele>95.2</ele>
        <time>2022-05-03T05:16:17Z</time>
      </trkpt>
      <trkpt lat="48.76194" lon="2.19505">
        <ele>96.3</ele>
        <time>2022-05-03T05:16:23Z</time>
      </trkpt>
      <trkpt lat="48.76202" lon="2.19506">
        <ele>97.6</ele>
        <time>2022-05-03T05:16:28Z</time>
      </trkpt>
      <trkpt lat="48.76208" lon="2.19508">
        <ele>98.5</ele>
        <time>2022-05-03T05:16:35Z</time>
      </trkpt>
      <trkpt lat="48.76212" lon="2.19517">
        <ele>99.3</ele>
        <time>2022-05-03T05:16:43Z</time>
      </trkpt>
      <trkpt lat="48.76215" lon="2.19527">
        <ele>99.9</ele>
        <time>2022-05-03T05:16:51Z</time>
      </trkpt>
      <trkpt lat="48.76216" lon="2.19538">
        <ele>100.2</ele>
        <time>2022-05-03T05:16:59Z</time>
      </trkpt>
      <trkpt lat="48.76218" lon="2.19549">
        <ele>100.6</ele>
        <time>2022-05-03T05:17:05Z</time>
      </trkpt>
      <trkpt lat="48.76218" lon="2.1956">
        <ele>100.7</ele>
        <time>2022-05-03T05:17:10Z</time>
      </trkpt>
      <trkpt lat="48.76216" lon="2.19571">
        <ele>100.5</ele>
        <time>2022-05-03T05:17:16Z</time>
      </trkpt>
      <trkpt lat="48.76217" lon="2.19581">
        <ele>100.8</ele>
        <time>2022-05-03T05:17:22Z</time>
      </trkpt>
      <trkpt lat="48.76218" lon="2.19592">
        <ele>101.2</ele>
        <time>2022-05-03T05:17:28Z</time>
      </trkpt>
      <trkpt lat="48.7622" lon="2.19602">
        <ele>101.6</ele>
        <time>2022-05-03T05:17:33Z</time>
      </trkpt>
      <trkpt lat="48.76222" lon="2.19613">
        <ele>102.1</ele>
        <time>2022-05-03T05:17:38Z</time>
      </trkpt>
      <trkpt lat="48.76224" lon="2.19623">
        <ele>102.6</ele>
        <time>2022-05-03T05:17:44Z</time>
      </trkpt>
      <trkpt lat="48.76224" lon="2.19634">
        <ele>102.7</ele>
        <time>2022-05-03T05:17:51Z</time>
      </trkpt>
      <trkpt lat="48.76226" lon="2.19646">
        <ele>103.2</ele>
        <time>2022-05-03T05:18:00Z</time>
      </trkpt>
      <trkpt lat="48.76224" lon="2.19655">
        <ele>103.1</ele>
        <time>2022-05-03T05:18:05Z</time>
      </trkpt>
      <trkpt lat="48.76225" lon="2.19665">
        <ele>103.4</ele>
        <time>2022-05-03T05:18:11Z</time>
      </trkpt>
      <trkpt lat="48.76228" lon="2.19675">
        <ele>104.2</ele>
        <time>2022-05-03T05:18:16Z</time>
      </trkpt>
      <trkpt lat="48.7623" lon="2.19686">
        <ele>105</ele>
        <time>2022-05-03T05:18:21Z</time>
      </trkpt>
      <trkpt lat="48.7623" lon="2.19697">
        <ele>105.5</ele>
        <time>2022-05-03T05:18:32Z</time>
      </trkpt>
      <trkpt lat="48.76231" lon="2.19708">
        <ele>106.1</ele>
        <time>2022-05-03T05:18:37Z</time>
      </trkpt>
      <trkpt lat="48.7623" lon="2.19719">
        <ele>106.5</ele>
        <time>2022-05-03T05:18:42Z</time>
      </trkpt>
      <trkpt lat="48.76231" lon="2.19729">
        <ele>107</ele>
        <time>2022-05-03T05:18:48Z</time>
      </trkpt>
      <trkpt lat="48.76233" lon="2.19739">
        <ele>107.7</ele>
        <time>2022-05-03T05:18:53Z</time>
      </trkpt>
      <trkpt lat="48.76235" lon="2.19749">
        <ele>108.3</ele>
        <time>2022-05-03T05:18:58Z</time>
      </trkpt>
      <trkpt lat="48.76236" lon="2.1976">
        <ele>108.5</ele>
        <time>2022-05-03T05:19:04Z</time>
      </trkpt>
      <trkpt lat="48.76236" lon="2.19771">
        <ele>108.6</ele>
        <time>2022-05-03T05:19:09Z</time>
      </trkpt>
      <trkpt lat="48.76239" lon="2.19781">
        <ele>108.8</ele>
        <time>2022-05-03T05:19:15Z</time>
      </trkpt>
      <trkpt lat="48.76242" lon="2.19791">
        <ele>109</ele>
        <time>2022-05-03T05:19:21Z</time>
      </trkpt>
      <trkpt lat="48.76248" lon="2.19797">
        <ele>109.3</ele>
        <time>2022-05-03T05:19:26Z</time>
      </trkpt>
      <trkpt lat="48.76251" lon="2.19806">
        <ele>109.6</ele>
        <time>2022-05-03T05:19:31Z</time>
      </trkpt>
      <trkpt lat="48.76255" lon="2.19816">
        <ele>110.7</ele>
        <time>2022-05-03T05:19:37Z</time>
      </trkpt>
      <trkpt lat="48.7626" lon="2.19824">
        <ele>112.1</ele>
        <time>2022-05-03T05:19:42Z</time>
      </trkpt>
      <trkpt lat="48.76264" lon="2.19832">
        <ele>113.1</ele>
        <time>2022-05-03T05:19:48Z</time>
      </trkpt>
      <trkpt lat="48.76273" lon="2.19836">
        <ele>115.7</ele>
        <time>2022-05-03T05:19:53Z</time>
      </trkpt>
      <trkpt lat="48.7628" lon="2.1984">
        <ele>117.7</ele>
        <time>2022-05-03T05:19:59Z</time>
      </trkpt>
      <trkpt lat="48.76288" lon="2.1984">
        <ele>119.8</ele>
        <time>2022-05-03T05:20:04Z</time>
      </trkpt>
      <trkpt lat="48.76295" lon="2.1984">
        <ele>121.7</ele>
        <time>2022-05-03T05:20:11Z</time>
      </trkpt>
      <trkpt lat="48.76301" lon="2.19843">
        <ele>123.2</ele>
        <time>2022-05-03T05:20:18Z</time>
      </trkpt>
      <trkpt lat="48.7631" lon="2.19844">
        <ele>125.6</ele>
        <time>2022-05-03T05:20:23Z</time>
      </trkpt>
      <trkpt lat="48.7632" lon="2.19842">
        <ele>128.4</ele>
        <time>2022-05-03T05:20:28Z</time>
      </trkpt>
      <trkpt lat="48.7632" lon="2.19854">
        <ele>127.3</ele>
        <time>2022-05-03T05:20:38Z</time>
      </trkpt>
      <trkpt lat="48.76325" lon="2.19861">
        <ele>127.8</ele>
        <time>2022-05-03T05:20:50Z</time>
      </trkpt>
      <trkpt lat="48.7633" lon="2.19869">
        <ele>128</ele>
        <time>2022-05-03T05:20:56Z</time>
      </trkpt>
      <trkpt lat="48.76329" lon="2.19878">
        <ele>126.8</ele>
        <time>2022-05-03T05:21:06Z</time>
      </trkpt>
      <trkpt lat="48.76324" lon="2.19894">
        <ele>124.3</ele>
        <time>2022-05-03T05:21:18Z</time>
      </trkpt>
      <trkpt lat="48.76327" lon="2.19905">
        <ele>123.6</ele>
        <time>2022-05-03T05:21:30Z</time>
      </trkpt>
      <trkpt lat="48.76331" lon="2.19913">
        <ele>123.2</ele>
        <time>2022-05-03T05:21:35Z</time>
      </trkpt>
      <trkpt lat="48.76337" lon="2.19921">
        <ele>124.2</ele>
        <time>2022-05-03T05:21:40Z</time>
      </trkpt>
      <trkpt lat="48.76337" lon="2.19938">
        <ele>125.3</ele>
        <time>2022-05-03T05:21:45Z</time>
      </trkpt>
      <trkpt lat="48.76336" lon="2.19948">
        <ele>125.6</ele>
        <time>2022-05-03T05:21:51Z</time>
      </trkpt>
      <trkpt lat="48.76333" lon="2.19958">
        <ele>125.5</ele>
        <time>2022-05-03T05:22:02Z</time>
      </trkpt>
      <trkpt lat="48.76333" lon="2.19969">
        <ele>126.1</ele>
        <time>2022-05-03T05:22:17Z</time>
      </trkpt>
      <trkpt lat="48.76331" lon="2.19979">
        <ele>126.6</ele>
        <time>2022-05-03T05:22:25Z</time>
      </trkpt>
      <trkpt lat="48.76331" lon="2.1999">
        <ele>127.3</ele>
        <time>2022-05-03T05:22:34Z</time>
      </trkpt>
      <trkpt lat="48.76328" lon="2.19999">
        <ele>127.8</ele>
        <time>2022-05-03T05:22:42Z</time>
      </trkpt>
      <trkpt lat="48.7633" lon="2.20009">
        <ele>128.8</ele>
        <time>2022-05-03T05:22:48Z</time>
      </trkpt>
      <trkpt lat="48.76328" lon="2.20018">
        <ele>129.7</ele>
        <time>2022-05-03T05:22:58Z</time>
      </trkpt>
      <trkpt lat="48.76329" lon="2.20029">
        <ele>130.8</ele>
        <time>2022-05-03T05:23:07Z</time>
      </trkpt>
      <trkpt lat="48.76333" lon="2.20037">
        <ele>131.6</ele>
        <time>2022-05-03T05:23:20Z</time>
      </trkpt>
      <trkpt lat="48.76337" lon="2.20027">
        <ele>131.6</ele>
        <time>2022-05-03T05:23:30Z</time>
      </trkpt>
      <trkpt lat="48.76333" lon="2.20036">
        <ele>131.5</ele>
        <time>2022-05-03T05:23:43Z</time>
      </trkpt>
      <trkpt lat="48.76327" lon="2.20041">
        <ele>132</ele>
        <time>2022-05-03T05:24:13Z</time>
      </trkpt>
      <trkpt lat="48.7633" lon="2.20031">
        <ele>131</ele>
        <time>2022-05-03T05:25:46Z</time>
      </trkpt>
      <trkpt lat="48.76338" lon="2.20025">
        <ele>131.7</ele>
        <time>2022-05-03T05:25:51Z</time>
      </trkpt>
      <trkpt lat="48.76344" lon="2.2002">
        <ele>133</ele>
        <time>2022-05-03T05:25:56Z</time>
      </trkpt>
      <trkpt lat="48.7635" lon="2.20014">
        <ele>134.2</ele>
        <time>2022-05-03T05:26:04Z</time>
      </trkpt>
      <trkpt lat="48.76355" lon="2.20006">
        <ele>135</ele>
        <time>2022-05-03T05:26:09Z</time>
      </trkpt>
      <trkpt lat="48.7636" lon="2.19999">
        <ele>135.9</ele>
        <time>2022-05-03T05:26:14Z</time>
      </trkpt>
      <trkpt lat="48.76366" lon="2.19993">
        <ele>137.3</ele>
        <time>2022-05-03T05:26:19Z</time>
      </trkpt>
      <trkpt lat="48.76373" lon="2.19989">
        <ele>139.1</ele>
        <time>2022-05-03T05:26:26Z</time>
      </trkpt>
      <trkpt lat="48.76381" lon="2.19986">
        <ele>141.2</ele>
        <time>2022-05-03T05:26:31Z</time>
      </trkpt>
      <trkpt lat="48.7639" lon="2.19982">
        <ele>143.5</ele>
        <time>2022-05-03T05:26:36Z</time>
      </trkpt>
      <trkpt lat="48.76397" lon="2.19976">
        <ele>145</ele>
        <time>2022-05-03T05:26:42Z</time>
      </trkpt>
      <trkpt lat="48.76403" lon="2.19971">
        <ele>146.3</ele>
        <time>2022-05-03T05:26:47Z</time>
      </trkpt>
      <trkpt lat="48.76409" lon="2.19967">
        <ele>147.6</ele>
        <time>2022-05-03T05:26:52Z</time>
      </trkpt>
      <trkpt lat="48.76415" lon="2.19959">
        <ele>148.6</ele>
        <time>2022-05-03T05:26:57Z</time>
      </trkpt>
      <trkpt lat="48.76421" lon="2.19957">
        <ele>149.7</ele>
        <time>2022-05-03T05:27:02Z</time>
      </trkpt>
      <trkpt lat="48.76427" lon="2.1995">
        <ele>150.3</ele>
        <time>2022-05-03T05:27:07Z</time>
      </trkpt>
      <trkpt lat="48.76434" lon="2.19946">
        <ele>151.3</ele>
        <time>2022-05-03T05:27:12Z</time>
      </trkpt>
      <trkpt lat="48.76441" lon="2.19943">
        <ele>152.4</ele>
        <time>2022-05-03T05:27:18Z</time>
      </trkpt>
      <trkpt lat="48.76448" lon="2.19939">
        <ele>153.4</ele>
        <time>2022-05-03T05:27:24Z</time>
      </trkpt>
      <trkpt lat="48.76454" lon="2.19936">
        <ele>154.4</ele>
        <time>2022-05-03T05:27:29Z</time>
      </trkpt>
      <trkpt lat="48.7646" lon="2.19929">
        <ele>154.9</ele>
        <time>2022-05-03T05:27:36Z</time>
      </trkpt>
      <trkpt lat="48.7647" lon="2.19923">
        <ele>156.4</ele>
        <time>2022-05-03T05:27:41Z</time>
      </trkpt>
      <trkpt lat="48.7648" lon="2.1991">
        <ele>158.1</ele>
        <time>2022-05-03T05:27:46Z</time>
      </trkpt>
      <trkpt lat="48.76488" lon="2.199">
        <ele>159.8</ele>
        <time>2022-05-03T05:27:51Z</time>
      </trkpt>
      <trkpt lat="48.76496" lon="2.19893">
        <ele>161.3</ele>
        <time>2022-05-03T05:27:56Z</time>
      </trkpt>
      <trkpt lat="48.76503" lon="2.19886">
        <ele>162.2</ele>
        <time>2022-05-03T05:28:01Z</time>
      </trkpt>
      <trkpt lat="48.76502" lon="2.19875">
        <ele>162.2</ele>
        <time>2022-05-03T05:28:07Z</time>
      </trkpt>
      <trkpt lat="48.765" lon="2.19865">
        <ele>162</ele>
        <time>2022-05-03T05:28:12Z</time>
      </trkpt>
      <trkpt lat="48.76496" lon="2.19854">
        <ele>161.5</ele>
        <time>2022-05-03T05:28:17Z</time>
      </trkpt>
      <trkpt lat="48.76492" lon="2.19844">
        <ele>161</ele>
        <time>2022-05-03T05:28:22Z</time>
      </trkpt>
      <trkpt lat="48.76488" lon="2.19832">
        <ele>160.9</ele>
        <time>2022-05-03T05:28:27Z</time>
      </trkpt>
      <trkpt lat="48.76486" lon="2.1982">
        <ele>162</ele>
        <time>2022-05-03T05:28:32Z</time>
      </trkpt>
      <trkpt lat="48.76483" lon="2.19808">
        <ele>163</ele>
        <time>2022-05-03T05:28:37Z</time>
      </trkpt>
      <trkpt lat="48.76477" lon="2.19793">
        <ele>164.1</ele>
        <time>2022-05-03T05:28:42Z</time>
      </trkpt>
      <trkpt lat="48.76474" lon="2.19781">
        <ele>165.2</ele>
        <time>2022-05-03T05:28:47Z</time>
      </trkpt>
      <trkpt lat="48.76471" lon="2.19772">
        <ele>166</ele>
        <time>2022-05-03T05:28:53Z</time>
      </trkpt>
      <trkpt lat="48.76469" lon="2.19763">
        <ele>166.9</ele>
        <time>2022-05-03T05:28:58Z</time>
      </trkpt>
      <trkpt lat="48.76462" lon="2.19764">
        <ele>166.1</ele>
        <time>2022-05-03T05:29:24Z</time>
      </trkpt>
      <trkpt lat="48.76469" lon="2.1976">
        <ele>167.2</ele>
        <time>2022-05-03T05:29:31Z</time>
      </trkpt>
      <trkpt lat="48.76465" lon="2.19748">
        <ele>168</ele>
        <time>2022-05-03T05:30:20Z</time>
      </trkpt>
      <trkpt lat="48.76464" lon="2.19737">
        <ele>167.6</ele>
        <time>2022-05-03T05:30:26Z</time>
      </trkpt>
      <trkpt lat="48.76464" lon="2.19724">
        <ele>167.2</ele>
        <time>2022-05-03T05:30:31Z</time>
      </trkpt>
      <trkpt lat="48.7646" lon="2.19711">
        <ele>166.5</ele>
        <time>2022-05-03T05:30:36Z</time>
      </trkpt>
      <trkpt lat="48.76456" lon="2.19702">
        <ele>165.8</ele>
        <time>2022-05-03T05:30:41Z</time>
      </trkpt>
      <trkpt lat="48.76459" lon="2.19687">
        <ele>165.7</ele>
        <time>2022-05-03T05:31:12Z</time>
      </trkpt>
      <trkpt lat="48.76453" lon="2.19693">
        <ele>165.3</ele>
        <time>2022-05-03T05:32:00Z</time>
      </trkpt>
      <trkpt lat="48.76446" lon="2.19696">
        <ele>164.7</ele>
        <time>2022-05-03T05:32:05Z</time>
      </trkpt>
      <trkpt lat="48.76438" lon="2.19696">
        <ele>164</ele>
        <time>2022-05-03T05:32:11Z</time>
      </trkpt>
      <trkpt lat="48.76431" lon="2.19697">
        <ele>163.4</ele>
        <time>2022-05-03T05:32:16Z</time>
      </trkpt>
      <trkpt lat="48.76424" lon="2.197">
        <ele>162.9</ele>
        <time>2022-05-03T05:32:22Z</time>
      </trkpt>
      <trkpt lat="48.76421" lon="2.19709">
        <ele>162.9</ele>
        <time>2022-05-03T05:32:32Z</time>
      </trkpt>
      <trkpt lat="48.76425" lon="2.19719">
        <ele>163.6</ele>
        <time>2022-05-03T05:32:37Z</time>
      </trkpt>
      <trkpt lat="48.76423" lon="2.19729">
        <ele>163.8</ele>
        <time>2022-05-03T05:32:43Z</time>
      </trkpt>
      <trkpt lat="48.76419" lon="2.19741">
        <ele>163.9</ele>
        <time>2022-05-03T05:32:48Z</time>
      </trkpt>
      <trkpt lat="48.76419" lon="2.19751">
        <ele>164.1</ele>
        <time>2022-05-03T05:32:53Z</time>
      </trkpt>
      <trkpt lat="48.76414" lon="2.1976">
        <ele>162</ele>
        <time>2022-05-03T05:32:58Z</time>
      </trkpt>
      <trkpt lat="48.76405" lon="2.19759">
        <ele>159.6</ele>
        <time>2022-05-03T05:33:03Z</time>
      </trkpt>
      <trkpt lat="48.76397" lon="2.1976">
        <ele>157.3</ele>
        <time>2022-05-03T05:33:08Z</time>
      </trkpt>
      <trkpt lat="48.76389" lon="2.19758">
        <ele>155.4</ele>
        <time>2022-05-03T05:33:13Z</time>
      </trkpt>
      <trkpt lat="48.76382" lon="2.19757">
        <ele>153.6</ele>
        <time>2022-05-03T05:33:18Z</time>
      </trkpt>
      <trkpt lat="48.76375" lon="2.19754">
        <ele>152</ele>
        <time>2022-05-03T05:33:23Z</time>
      </trkpt>
      <trkpt lat="48.76368" lon="2.19754">
        <ele>150.1</ele>
        <time>2022-05-03T05:33:28Z</time>
      </trkpt>
      <trkpt lat="48.7636" lon="2.19755">
        <ele>147.8</ele>
        <time>2022-05-03T05:33:33Z</time>
      </trkpt>
      <trkpt lat="48.76351" lon="2.19754">
        <ele>145.5</ele>
        <time>2022-05-03T05:33:38Z</time>
      </trkpt>
      <trkpt lat="48.76344" lon="2.19752">
        <ele>143.7</ele>
        <time>2022-05-03T05:33:43Z</time>
      </trkpt>
      <trkpt lat="48.76336" lon="2.19753">
        <ele>141.4</ele>
        <time>2022-05-03T05:33:48Z</time>
      </trkpt>
      <trkpt lat="48.76328" lon="2.19753">
        <ele>138.7</ele>
        <time>2022-05-03T05:33:54Z</time>
      </trkpt>
      <trkpt lat="48.76322" lon="2.19749">
        <ele>136.7</ele>
        <time>2022-05-03T05:33:59Z</time>
      </trkpt>
      <trkpt lat="48.76317" lon="2.19741">
        <ele>134.3</ele>
        <time>2022-05-03T05:34:05Z</time>
      </trkpt>
      <trkpt lat="48.76313" lon="2.19732">
        <ele>132.3</ele>
        <time>2022-05-03T05:34:11Z</time>
      </trkpt>
      <trkpt lat="48.76313" lon="2.19722">
        <ele>131.7</ele>
        <time>2022-05-03T05:34:16Z</time>
      </trkpt>
      <trkpt lat="48.76312" lon="2.19712">
        <ele>130.7</ele>
        <time>2022-05-03T05:34:21Z</time>
      </trkpt>
      <trkpt lat="48.76313" lon="2.197">
        <ele>130.3</ele>
        <time>2022-05-03T05:34:26Z</time>
      </trkpt>
      <trkpt lat="48.76314" lon="2.1969">
        <ele>130</ele>
        <time>2022-05-03T05:34:33Z</time>
      </trkpt>
      <trkpt lat="48.76311" lon="2.19681">
        <ele>128.4</ele>
        <time>2022-05-03T05:34:45Z</time>
      </trkpt>
      <trkpt lat="48.76306" lon="2.19674">
        <ele>126.3</ele>
        <time>2022-05-03T05:34:55Z</time>
      </trkpt>
      <trkpt lat="48.76312" lon="2.19679">
        <ele>128.6</ele>
        <time>2022-05-03T05:35:30Z</time>
      </trkpt>
      <trkpt lat="48.76318" lon="2.19673">
        <ele>130.3</ele>
        <time>2022-05-03T05:35:38Z</time>
      </trkpt>
      <trkpt lat="48.76318" lon="2.19662">
        <ele>129.5</ele>
        <time>2022-05-03T05:35:43Z</time>
      </trkpt>
      <trkpt lat="48.76323" lon="2.19654">
        <ele>130.4</ele>
        <time>2022-05-03T05:35:49Z</time>
      </trkpt>
      <trkpt lat="48.76329" lon="2.1965">
        <ele>132</ele>
        <time>2022-05-03T05:35:55Z</time>
      </trkpt>
      <trkpt lat="48.76333" lon="2.1964">
        <ele>132.3</ele>
        <time>2022-05-03T05:36:01Z</time>
      </trkpt>
      <trkpt lat="48.76335" lon="2.1963">
        <ele>132</ele>
        <time>2022-05-03T05:36:07Z</time>
      </trkpt>
      <trkpt lat="48.76342" lon="2.19628">
        <ele>133.8</ele>
        <time>2022-05-03T05:36:35Z</time>
      </trkpt>
      <trkpt lat="48.76339" lon="2.19618">
        <ele>132</ele>
        <time>2022-05-03T05:36:42Z</time>
      </trkpt>
      <trkpt lat="48.76333" lon="2.19621">
        <ele>130.5</ele>
        <time>2022-05-03T05:36:50Z</time>
      </trkpt>
      <trkpt lat="48.76326" lon="2.19626">
        <ele>128.9</ele>
        <time>2022-05-03T05:37:03Z</time>
      </trkpt>
      <trkpt lat="48.76329" lon="2.19616">
        <ele>128.9</ele>
        <time>2022-05-03T05:37:28Z</time>
      </trkpt>
      <trkpt lat="48.76323" lon="2.19619">
        <ele>127.4</ele>
        <time>2022-05-03T05:37:37Z</time>
      </trkpt>
      <trkpt lat="48.76318" lon="2.19628">
        <ele>126.7</ele>
        <time>2022-05-03T05:37:43Z</time>
      </trkpt>
      <trkpt lat="48.76315" lon="2.19644">
        <ele>127.1</ele>
        <time>2022-05-03T05:38:07Z</time>
      </trkpt>
      <trkpt lat="48.76308" lon="2.19646">
        <ele>125</ele>
        <time>2022-05-03T05:38:15Z</time>
      </trkpt>
      <trkpt lat="48.76302" lon="2.19651">
        <ele>123.5</ele>
        <time>2022-05-03T05:38:21Z</time>
      </trkpt>
      <trkpt lat="48.76297" lon="2.19657">
        <ele>122.2</ele>
        <time>2022-05-03T05:38:28Z</time>
      </trkpt>
      <trkpt lat="48.76294" lon="2.19645">
        <ele>120.6</ele>
        <time>2022-05-03T05:39:04Z</time>
      </trkpt>
      <trkpt lat="48.763" lon="2.19639">
        <ele>122.1</ele>
        <time>2022-05-03T05:39:11Z</time>
      </trkpt>
      <trkpt lat="48.76306" lon="2.19637">
        <ele>123.8</ele>
        <time>2022-05-03T05:39:21Z</time>
      </trkpt>
      <trkpt lat="48.76312" lon="2.19632">
        <ele>125.2</ele>
        <time>2022-05-03T05:39:26Z</time>
      </trkpt>
      <trkpt lat="48.76319" lon="2.19627">
        <ele>126.9</ele>
        <time>2022-05-03T05:39:31Z</time>
      </trkpt>
      <trkpt lat="48.76325" lon="2.1962">
        <ele>128.1</ele>
        <time>2022-05-03T05:39:37Z</time>
      </trkpt>
      <trkpt lat="48.76332" lon="2.19619">
        <ele>130</ele>
        <time>2022-05-03T05:39:45Z</time>
      </trkpt>
      <trkpt lat="48.76339" lon="2.19617">
        <ele>131.9</ele>
        <time>2022-05-03T05:39:51Z</time>
      </trkpt>
      <trkpt lat="48.76346" lon="2.19616">
        <ele>133.8</ele>
        <time>2022-05-03T05:39:56Z</time>
      </trkpt>
      <trkpt lat="48.76353" lon="2.19611">
        <ele>135.3</ele>
        <time>2022-05-03T05:40:02Z</time>
      </trkpt>
      <trkpt lat="48.7636" lon="2.19611">
        <ele>137.3</ele>
        <time>2022-05-03T05:40:07Z</time>
      </trkpt>
      <trkpt lat="48.76367" lon="2.19609">
        <ele>139.1</ele>
        <time>2022-05-03T05:40:12Z</time>
      </trkpt>
      <trkpt lat="48.76371" lon="2.19619">
        <ele>141.4</ele>
        <time>2022-05-03T05:40:20Z</time>
      </trkpt>
      <trkpt lat="48.76375" lon="2.19627">
        <ele>143.5</ele>
        <time>2022-05-03T05:40:33Z</time>
      </trkpt>
      <trkpt lat="48.76382" lon="2.19622">
        <ele>145</ele>
        <time>2022-05-03T05:40:41Z</time>
      </trkpt>
      <trkpt lat="48.76388" lon="2.19618">
        <ele>146.2</ele>
        <time>2022-05-03T05:40:47Z</time>
      </trkpt>
      <trkpt lat="48.76394" lon="2.19613">
        <ele>147.4</ele>
        <time>2022-05-03T05:40:53Z</time>
      </trkpt>
      <trkpt lat="48.76402" lon="2.19612">
        <ele>149.6</ele>
        <time>2022-05-03T05:40:58Z</time>
      </trkpt>
      <trkpt lat="48.7641" lon="2.19608">
        <ele>151.3</ele>
        <time>2022-05-03T05:41:03Z</time>
      </trkpt>
      <trkpt lat="48.76417" lon="2.19606">
        <ele>153</ele>
        <time>2022-05-03T05:41:08Z</time>
      </trkpt>
      <trkpt lat="48.76425" lon="2.19602">
        <ele>153.8</ele>
        <time>2022-05-03T05:41:14Z</time>
      </trkpt>
      <trkpt lat="48.76434" lon="2.196">
        <ele>155</ele>
        <time>2022-05-03T05:41:19Z</time>
      </trkpt>
      <trkpt lat="48.76441" lon="2.196">
        <ele>156.2</ele>
        <time>2022-05-03T05:41:24Z</time>
      </trkpt>
      <trkpt lat="48.76448" lon="2.19603">
        <ele>157.6</ele>
        <time>2022-05-03T05:41:29Z</time>
      </trkpt>
      <trkpt lat="48.76454" lon="2.19609">
        <ele>159.1</ele>
        <time>2022-05-03T05:41:36Z</time>
      </trkpt>
      <trkpt lat="48.76458" lon="2.19601">
        <ele>159</ele>
        <time>2022-05-03T05:41:44Z</time>
      </trkpt>
      <trkpt lat="48.76457" lon="2.1961">
        <ele>159.7</ele>
        <time>2022-05-03T05:42:11Z</time>
      </trkpt>
      <trkpt lat="48.7645" lon="2.1961">
        <ele>158.6</ele>
        <time>2022-05-03T05:42:23Z</time>
      </trkpt>
      <trkpt lat="48.76445" lon="2.19602">
        <ele>157</ele>
        <time>2022-05-03T05:42:34Z</time>
      </trkpt>
      <trkpt lat="48.7645" lon="2.19594">
        <ele>157</ele>
        <time>2022-05-03T05:42:41Z</time>
      </trkpt>
      <trkpt lat="48.76456" lon="2.19594">
        <ele>158.1</ele>
        <time>2022-05-03T05:42:51Z</time>
      </trkpt>
      <trkpt lat="48.76462" lon="2.19589">
        <ele>158.6</ele>
        <time>2022-05-03T05:43:00Z</time>
      </trkpt>
      <trkpt lat="48.76467" lon="2.19582">
        <ele>158.8</ele>
        <time>2022-05-03T05:43:07Z</time>
      </trkpt>
      <trkpt lat="48.76474" lon="2.19575">
        <ele>159</ele>
        <time>2022-05-03T05:43:12Z</time>
      </trkpt>
      <trkpt lat="48.76479" lon="2.19566">
        <ele>158.4</ele>
        <time>2022-05-03T05:43:18Z</time>
      </trkpt>
      <trkpt lat="48.76485" lon="2.19563">
        <ele>158.9</ele>
        <time>2022-05-03T05:43:26Z</time>
      </trkpt>
      <trkpt lat="48.76486" lon="2.19579">
        <ele>161.8</ele>
        <time>2022-05-03T05:43:57Z</time>
      </trkpt>
      <trkpt lat="48.76479" lon="2.19575">
        <ele>159.8</ele>
        <time>2022-05-03T05:44:04Z</time>
      </trkpt>
      <trkpt lat="48.7648" lon="2.19564">
        <ele>158.2</ele>
        <time>2022-05-03T05:44:09Z</time>
      </trkpt>
      <trkpt lat="48.76487" lon="2.19562">
        <ele>159.1</ele>
        <time>2022-05-03T05:44:56Z</time>
      </trkpt>
      <trkpt lat="48.76492" lon="2.19554">
        <ele>158.7</ele>
        <time>2022-05-03T05:45:01Z</time>
      </trkpt>
      <trkpt lat="48.76497" lon="2.19545">
        <ele>158</ele>
        <time>2022-05-03T05:45:07Z</time>
      </trkpt>
      <trkpt lat="48.76503" lon="2.19539">
        <ele>157.8</ele>
        <time>2022-05-03T05:45:12Z</time>
      </trkpt>
      <trkpt lat="48.76508" lon="2.19532">
        <ele>157.1</ele>
        <time>2022-05-03T05:45:17Z</time>
      </trkpt>
      <trkpt lat="48.7651" lon="2.19521">
        <ele>155.6</ele>
        <time>2022-05-03T05:45:22Z</time>
      </trkpt>
      <trkpt lat="48.76513" lon="2.19508">
        <ele>153.9</ele>
        <time>2022-05-03T05:45:27Z</time>
      </trkpt>
      <trkpt lat="48.76516" lon="2.195">
        <ele>153.1</ele>
        <time>2022-05-03T05:45:35Z</time>
      </trkpt>
      <trkpt lat="48.76522" lon="2.19494">
        <ele>153.3</ele>
        <time>2022-05-03T05:45:49Z</time>
      </trkpt>
      <trkpt lat="48.76516" lon="2.19487">
        <ele>151.6</ele>
        <time>2022-05-03T05:46:11Z</time>
      </trkpt>
      <trkpt lat="48.76512" lon="2.19479">
        <ele>150.1</ele>
        <time>2022-05-03T05:46:18Z</time>
      </trkpt>
      <trkpt lat="48.76505" lon="2.19475">
        <ele>148.5</ele>
        <time>2022-05-03T05:46:24Z</time>
      </trkpt>
      <trkpt lat="48.76498" lon="2.19475">
        <ele>147.3</ele>
        <time>2022-05-03T05:46:30Z</time>
      </trkpt>
      <trkpt lat="48.7649" lon="2.19475">
        <ele>145.8</ele>
        <time>2022-05-03T05:46:35Z</time>
      </trkpt>
      <trkpt lat="48.76484" lon="2.19476">
        <ele>144.8</ele>
        <time>2022-05-03T05:46:40Z</time>
      </trkpt>
      <trkpt lat="48.76474" lon="2.19476">
        <ele>142.9</ele>
        <time>2022-05-03T05:46:45Z</time>
      </trkpt>
      <trkpt lat="48.76466" lon="2.19476">
        <ele>141.4</ele>
        <time>2022-05-03T05:46:50Z</time>
      </trkpt>
      <trkpt lat="48.76456" lon="2.19475">
        <ele>139.4</ele>
        <time>2022-05-03T05:46:55Z</time>
      </trkpt>
      <trkpt lat="48.76445" lon="2.19468">
        <ele>136</ele>
        <time>2022-05-03T05:47:00Z</time>
      </trkpt>
      <trkpt lat="48.76437" lon="2.19463">
        <ele>133.5</ele>
        <time>2022-05-03T05:47:05Z</time>
      </trkpt>
      <trkpt lat="48.76426" lon="2.19455">
        <ele>129.8</ele>
        <time>2022-05-03T05:47:10Z</time>
      </trkpt>
      <trkpt lat="48.76417" lon="2.19458">
        <ele>128.5</ele>
        <time>2022-05-03T05:47:15Z</time>
      </trkpt>
      <trkpt lat="48.76406" lon="2.19463">
        <ele>127.2</ele>
        <time>2022-05-03T05:47:20Z</time>
      </trkpt>
      <trkpt lat="48.76395" lon="2.19465">
        <ele>125.3</ele>
        <time>2022-05-03T05:47:25Z</time>
      </trkpt>
      <trkpt lat="48.76386" lon="2.19471">
        <ele>124.4</ele>
        <time>2022-05-03T05:47:30Z</time>
      </trkpt>
      <trkpt lat="48.76377" lon="2.19477">
        <ele>123.4</ele>
        <time>2022-05-03T05:47:35Z</time>
      </trkpt>
      <trkpt lat="48.76371" lon="2.19479">
        <ele>122.3</ele>
        <time>2022-05-03T05:47:41Z</time>
      </trkpt>
      <trkpt lat="48.76364" lon="2.19481">
        <ele>121</ele>
        <time>2022-05-03T05:47:46Z</time>
      </trkpt>
      <trkpt lat="48.76358" lon="2.19479">
        <ele>119.4</ele>
        <time>2022-05-03T05:47:52Z</time>
      </trkpt>
      <trkpt lat="48.76349" lon="2.19483">
        <ele>117.8</ele>
        <time>2022-05-03T05:47:57Z</time>
      </trkpt>
      <trkpt lat="48.76352" lon="2.19474">
        <ele>117.3</ele>
        <time>2022-05-03T05:48:15Z</time>
      </trkpt>
      <trkpt lat="48.76357" lon="2.19463">
        <ele>117</ele>
        <time>2022-05-03T05:48:20Z</time>
      </trkpt>
      <trkpt lat="48.76362" lon="2.19455">
        <ele>116.9</ele>
        <time>2022-05-03T05:48:25Z</time>
      </trkpt>
      <trkpt lat="48.7637" lon="2.19446">
        <ele>117.1</ele>
        <time>2022-05-03T05:48:30Z</time>
      </trkpt>
      <trkpt lat="48.76378" lon="2.19438">
        <ele>117.4</ele>
        <time>2022-05-03T05:48:35Z</time>
      </trkpt>
      <trkpt lat="48.76384" lon="2.19432">
        <ele>117.5</ele>
        <time>2022-05-03T05:48:40Z</time>
      </trkpt>
      <trkpt lat="48.7639" lon="2.19425">
        <ele>117.3</ele>
        <time>2022-05-03T05:48:46Z</time>
      </trkpt>
      <trkpt lat="48.76395" lon="2.19419">
        <ele>117</ele>
        <time>2022-05-03T05:48:52Z</time>
      </trkpt>
      <trkpt lat="48.76394" lon="2.19409">
        <ele>115.9</ele>
        <time>2022-05-03T05:49:03Z</time>
      </trkpt>
      <trkpt lat="48.764" lon="2.19402">
        <ele>116.3</ele>
        <time>2022-05-03T05:49:10Z</time>
      </trkpt>
      <trkpt lat="48.76406" lon="2.19396">
        <ele>116.8</ele>
        <time>2022-05-03T05:49:16Z</time>
      </trkpt>
      <trkpt lat="48.76413" lon="2.19391">
        <ele>117.3</ele>
        <time>2022-05-03T05:49:23Z</time>
      </trkpt>
      <trkpt lat="48.76419" lon="2.19385">
        <ele>117.9</ele>
        <time>2022-05-03T05:49:33Z</time>
      </trkpt>
      <trkpt lat="48.76425" lon="2.19382">
        <ele>119</ele>
        <time>2022-05-03T05:49:39Z</time>
      </trkpt>
      <trkpt lat="48.7643" lon="2.19376">
        <ele>119.6</ele>
        <time>2022-05-03T05:49:44Z</time>
      </trkpt>
      <trkpt lat="48.76434" lon="2.19366">
        <ele>119.7</ele>
        <time>2022-05-03T05:49:49Z</time>
      </trkpt>
      <trkpt lat="48.76441" lon="2.19365">
        <ele>121.1</ele>
        <time>2022-05-03T05:50:19Z</time>
      </trkpt>
      <trkpt lat="48.76444" lon="2.19356">
        <ele>121</ele>
        <time>2022-05-03T05:50:29Z</time>
      </trkpt>
      <trkpt lat="48.76447" lon="2.19346">
        <ele>120.7</ele>
        <time>2022-05-03T05:50:38Z</time>
      </trkpt>
      <trkpt lat="48.7645" lon="2.19337">
        <ele>120.5</ele>
        <time>2022-05-03T05:50:47Z</time>
      </trkpt>
      <trkpt lat="48.76454" lon="2.19329">
        <ele>121.1</ele>
        <time>2022-05-03T05:50:55Z</time>
      </trkpt>
      <trkpt lat="48.76458" lon="2.1932">
        <ele>122.1</ele>
        <time>2022-05-03T05:51:01Z</time>
      </trkpt>
      <trkpt lat="48.7646" lon="2.1931">
        <ele>122.7</ele>
        <time>2022-05-03T05:51:08Z</time>
      </trkpt>
      <trkpt lat="48.76464" lon="2.19302">
        <ele>123.8</ele>
        <time>2022-05-03T05:51:14Z</time>
      </trkpt>
      <trkpt lat="48.7647" lon="2.19299">
        <ele>125.3</ele>
        <time>2022-05-03T05:51:26Z</time>
      </trkpt>
      <trkpt lat="48.76464" lon="2.19304">
        <ele>123.7</ele>
        <time>2022-05-03T05:51:44Z</time>
      </trkpt>
      <trkpt lat="48.76458" lon="2.19298">
        <ele>122.3</ele>
        <time>2022-05-03T05:51:50Z</time>
      </trkpt>
      <trkpt lat="48.76454" lon="2.1929">
        <ele>121.4</ele>
        <time>2022-05-03T05:51:55Z</time>
      </trkpt>
      <trkpt lat="48.76451" lon="2.1928">
        <ele>120.7</ele>
        <time>2022-05-03T05:52:02Z</time>
      </trkpt>
      <trkpt lat="48.76449" lon="2.1927">
        <ele>120.2</ele>
        <time>2022-05-03T05:52:08Z</time>
      </trkpt>
      <trkpt lat="48.76444" lon="2.19262">
        <ele>118.9</ele>
        <time>2022-05-03T05:52:21Z</time>
      </trkpt>
      <trkpt lat="48.76439" lon="2.19256">
        <ele>117.5</ele>
        <time>2022-05-03T05:52:26Z</time>
      </trkpt>
      <trkpt lat="48.76436" lon="2.19247">
        <ele>116.6</ele>
        <time>2022-05-03T05:52:31Z</time>
      </trkpt>
      <trkpt lat="48.76435" lon="2.19236">
        <ele>116.4</ele>
        <time>2022-05-03T05:52:37Z</time>
      </trkpt>
      <trkpt lat="48.76438" lon="2.19226">
        <ele>117.4</ele>
        <time>2022-05-03T05:52:42Z</time>
      </trkpt>
      <trkpt lat="48.76441" lon="2.19214">
        <ele>118.5</ele>
        <time>2022-05-03T05:52:47Z</time>
      </trkpt>
      <trkpt lat="48.76444" lon="2.19202">
        <ele>119.6</ele>
        <time>2022-05-03T05:52:52Z</time>
      </trkpt>
      <trkpt lat="48.76445" lon="2.1919">
        <ele>120.1</ele>
        <time>2022-05-03T05:52:58Z</time>
      </trkpt>
      <trkpt lat="48.76445" lon="2.1918">
        <ele>120.3</ele>
        <time>2022-05-03T05:53:03Z</time>
      </trkpt>
      <trkpt lat="48.76445" lon="2.19168">
        <ele>120.5</ele>
        <time>2022-05-03T05:53:08Z</time>
      </trkpt>
      <trkpt lat="48.76443" lon="2.19156">
        <ele>119.7</ele>
        <time>2022-05-03T05:53:13Z</time>
      </trkpt>
      <trkpt lat="48.76444" lon="2.19144">
        <ele>119.8</ele>
        <time>2022-05-03T05:53:19Z</time>
      </trkpt>
      <trkpt lat="48.76441" lon="2.1913">
        <ele>118.7</ele>
        <time>2022-05-03T05:53:24Z</time>
      </trkpt>
      <trkpt lat="48.7644" lon="2.19115">
        <ele>118.1</ele>
        <time>2022-05-03T05:53:29Z</time>
      </trkpt>
      <trkpt lat="48.76441" lon="2.19102">
        <ele>118.3</ele>
        <time>2022-05-03T05:53:34Z</time>
      </trkpt>
      <trkpt lat="48.76445" lon="2.19087">
        <ele>119.2</ele>
        <time>2022-05-03T05:53:39Z</time>
      </trkpt>
      <trkpt lat="48.76445" lon="2.19076">
        <ele>119.1</ele>
        <time>2022-05-03T05:53:45Z</time>
      </trkpt>
      <trkpt lat="48.76447" lon="2.19065">
        <ele>119.6</ele>
        <time>2022-05-03T05:53:51Z</time>
      </trkpt>
      <trkpt lat="48.7645" lon="2.19056">
        <ele>120.3</ele>
        <time>2022-05-03T05:53:56Z</time>
      </trkpt>
      <trkpt lat="48.76454" lon="2.19049">
        <ele>121.2</ele>
        <time>2022-05-03T05:54:02Z</time>
      </trkpt>
      <trkpt lat="48.76456" lon="2.19038">
        <ele>121.6</ele>
        <time>2022-05-03T05:54:08Z</time>
      </trkpt>
      <trkpt lat="48.76458" lon="2.19028">
        <ele>121.9</ele>
        <time>2022-05-03T05:54:13Z</time>
      </trkpt>
      <trkpt lat="48.76459" lon="2.19017">
        <ele>122</ele>
        <time>2022-05-03T05:54:21Z</time>
      </trkpt>
      <trkpt lat="48.76462" lon="2.19007">
        <ele>122.5</ele>
        <time>2022-05-03T05:54:35Z</time>
      </trkpt>
      <trkpt lat="48.76465" lon="2.18997">
        <ele>122.9</ele>
        <time>2022-05-03T05:54:40Z</time>
      </trkpt>
      <trkpt lat="48.7647" lon="2.18989">
        <ele>123.7</ele>
        <time>2022-05-03T05:54:45Z</time>
      </trkpt>
      <trkpt lat="48.76476" lon="2.18984">
        <ele>124.8</ele>
        <time>2022-05-03T05:54:50Z</time>
      </trkpt>
      <trkpt lat="48.76482" lon="2.18978">
        <ele>125.8</ele>
        <time>2022-05-03T05:54:56Z</time>
      </trkpt>
      <trkpt lat="48.76489" lon="2.18972">
        <ele>127</ele>
        <time>2022-05-03T05:55:03Z</time>
      </trkpt>
      <trkpt lat="48.76494" lon="2.18964">
        <ele>127.6</ele>
        <time>2022-05-03T05:55:08Z</time>
      </trkpt>
      <trkpt lat="48.76497" lon="2.18953">
        <ele>127.6</ele>
        <time>2022-05-03T05:55:13Z</time>
      </trkpt>
      <trkpt lat="48.76502" lon="2.18947">
        <ele>128.4</ele>
        <time>2022-05-03T05:55:18Z</time>
      </trkpt>
      <trkpt lat="48.76507" lon="2.18954">
        <ele>130.3</ele>
        <time>2022-05-03T05:55:31Z</time>
      </trkpt>
      <trkpt lat="48.76513" lon="2.1896">
        <ele>132.5</ele>
        <time>2022-05-03T05:55:40Z</time>
      </trkpt>
      <trkpt lat="48.7651" lon="2.18969">
        <ele>132.2</ele>
        <time>2022-05-03T05:56:37Z</time>
      </trkpt>
      <trkpt lat="48.76503" lon="2.18971">
        <ele>130.2</ele>
        <time>2022-05-03T05:56:44Z</time>
      </trkpt>
      <trkpt lat="48.76499" lon="2.18979">
        <ele>129.5</ele>
        <time>2022-05-03T05:57:00Z</time>
      </trkpt>
      <trkpt lat="48.76498" lon="2.1899">
        <ele>130</ele>
        <time>2022-05-03T05:57:11Z</time>
      </trkpt>
      <trkpt lat="48.76494" lon="2.18998">
        <ele>129.5</ele>
        <time>2022-05-03T05:57:21Z</time>
      </trkpt>
      <trkpt lat="48.76489" lon="2.19004">
        <ele>128.7</ele>
        <time>2022-05-03T05:57:33Z</time>
      </trkpt>
      <trkpt lat="48.76494" lon="2.18998">
        <ele>129.5</ele>
        <time>2022-05-03T05:59:01Z</time>
      </trkpt>
      <trkpt lat="48.76497" lon="2.18989">
        <ele>129.7</ele>
        <time>2022-05-03T05:59:09Z</time>
      </trkpt>
      <trkpt lat="48.76499" lon="2.1898">
        <ele>129.6</ele>
        <time>2022-05-03T05:59:21Z</time>
      </trkpt>
      <trkpt lat="48.76503" lon="2.18971">
        <ele>130.2</ele>
        <time>2022-05-03T05:59:36Z</time>
      </trkpt>
      <trkpt lat="48.76508" lon="2.18964">
        <ele>131.3</ele>
        <time>2022-05-03T05:59:48Z</time>
      </trkpt>
      <trkpt lat="48.76511" lon="2.18955">
        <ele>131.6</ele>
        <time>2022-05-03T05:59:58Z</time>
      </trkpt>
      <trkpt lat="48.76509" lon="2.18944">
        <ele>130.3</ele>
        <time>2022-05-03T06:00:17Z</time>
      </trkpt>
      <trkpt lat="48.76514" lon="2.18937">
        <ele>131.2</ele>
        <time>2022-05-03T06:00:22Z</time>
      </trkpt>
      <trkpt lat="48.76521" lon="2.18931">
        <ele>132.8</ele>
        <time>2022-05-03T06:00:27Z</time>
      </trkpt>
      <trkpt lat="48.76528" lon="2.18928">
        <ele>134.6</ele>
        <time>2022-05-03T06:00:32Z</time>
      </trkpt>
      <trkpt lat="48.76535" lon="2.18928">
        <ele>136.6</ele>
        <time>2022-05-03T06:00:38Z</time>
      </trkpt>
      <trkpt lat="48.76541" lon="2.18922">
        <ele>137.8</ele>
        <time>2022-05-03T06:00:43Z</time>
      </trkpt>
      <trkpt lat="48.7655" lon="2.18919">
        <ele>140</ele>
        <time>2022-05-03T06:00:48Z</time>
      </trkpt>
      <trkpt lat="48.76558" lon="2.18919">
        <ele>142.2</ele>
        <time>2022-05-03T06:01:31Z</time>
      </trkpt>
      <trkpt lat="48.76564" lon="2.18924">
        <ele>144.4</ele>
        <time>2022-05-03T06:01:39Z</time>
      </trkpt>
      <trkpt lat="48.76571" lon="2.18927">
        <ele>146.6</ele>
        <time>2022-05-03T06:01:46Z</time>
      </trkpt>
      <trkpt lat="48.76578" lon="2.18929">
        <ele>148.8</ele>
        <time>2022-05-03T06:01:51Z</time>
      </trkpt>
      <trkpt lat="48.76584" lon="2.18936">
        <ele>151.2</ele>
        <time>2022-05-03T06:01:56Z</time>
      </trkpt>
      <trkpt lat="48.76591" lon="2.1894">
        <ele>152.6</ele>
        <time>2022-05-03T06:02:01Z</time>
      </trkpt>
      <trkpt lat="48.76597" lon="2.18944">
        <ele>153.8</ele>
        <time>2022-05-03T06:02:06Z</time>
      </trkpt>
      <trkpt lat="48.76605" lon="2.18946">
        <ele>155.1</ele>
        <time>2022-05-03T06:02:12Z</time>
      </trkpt>
      <trkpt lat="48.76612" lon="2.18948">
        <ele>156.3</ele>
        <time>2022-05-03T06:02:17Z</time>
      </trkpt>
      <trkpt lat="48.76619" lon="2.18952">
        <ele>157.7</ele>
        <time>2022-05-03T06:02:22Z</time>
      </trkpt>
      <trkpt lat="48.76627" lon="2.18957">
        <ele>159.4</ele>
        <time>2022-05-03T06:02:27Z</time>
      </trkpt>
      <trkpt lat="48.76633" lon="2.18964">
        <ele>161</ele>
        <time>2022-05-03T06:02:32Z</time>
      </trkpt>
      <trkpt lat="48.76641" lon="2.1897">
        <ele>162.8</ele>
        <time>2022-05-03T06:02:37Z</time>
      </trkpt>
      <trkpt lat="48.76647" lon="2.18976">
        <ele>164.4</ele>
        <time>2022-05-03T06:02:43Z</time>
      </trkpt>
      <trkpt lat="48.76654" lon="2.18979">
        <ele>165.7</ele>
        <time>2022-05-03T06:02:48Z</time>
      </trkpt>
      <trkpt lat="48.7666" lon="2.18983">
        <ele>167</ele>
        <time>2022-05-03T06:02:53Z</time>
      </trkpt>
      <trkpt lat="48.76668" lon="2.18988">
        <ele>168.6</ele>
        <time>2022-05-03T06:02:58Z</time>
      </trkpt>
      <trkpt lat="48.76674" lon="2.18994">
        <ele>169.5</ele>
        <time>2022-05-03T06:03:03Z</time>
      </trkpt>
      <trkpt lat="48.76681" lon="2.19001">
        <ele>170.5</ele>
        <time>2022-05-03T06:03:08Z</time>
      </trkpt>
      <trkpt lat="48.76688" lon="2.19009">
        <ele>171.1</ele>
        <time>2022-05-03T06:03:13Z</time>
      </trkpt>
      <trkpt lat="48.76692" lon="2.19017">
        <ele>171.5</ele>
        <time>2022-05-03T06:03:18Z</time>
      </trkpt>
      <trkpt lat="48.76697" lon="2.19026">
        <ele>171.9</ele>
        <time>2022-05-03T06:03:24Z</time>
      </trkpt>
      <trkpt lat="48.76701" lon="2.19035">
        <ele>172.3</ele>
        <time>2022-05-03T06:03:30Z</time>
      </trkpt>
      <trkpt lat="48.76706" lon="2.19043">
        <ele>172.7</ele>
        <time>2022-05-03T06:03:35Z</time>
      </trkpt>
      <trkpt lat="48.76711" lon="2.19052">
        <ele>173.1</ele>
        <time>2022-05-03T06:03:40Z</time>
      </trkpt>
      <trkpt lat="48.76717" lon="2.19061">
        <ele>173.6</ele>
        <time>2022-05-03T06:03:45Z</time>
      </trkpt>
      <trkpt lat="48.76723" lon="2.19069">
        <ele>174</ele>
        <time>2022-05-03T06:03:50Z</time>
      </trkpt>
      <trkpt lat="48.76727" lon="2.19078">
        <ele>174.3</ele>
        <time>2022-05-03T06:03:55Z</time>
      </trkpt>
      <trkpt lat="48.76731" lon="2.19087">
        <ele>174.4</ele>
        <time>2022-05-03T06:04:00Z</time>
      </trkpt>
      <trkpt lat="48.76735" lon="2.19094">
        <ele>174.1</ele>
        <time>2022-05-03T06:04:07Z</time>
      </trkpt>
      <trkpt lat="48.76742" lon="2.19096">
        <ele>174.1</ele>
        <time>2022-05-03T06:04:17Z</time>
      </trkpt>
      <trkpt lat="48.7675" lon="2.19099">
        <ele>174.1</ele>
        <time>2022-05-03T06:04:22Z</time>
      </trkpt>
      <trkpt lat="48.76757" lon="2.191">
        <ele>174.1</ele>
        <time>2022-05-03T06:04:27Z</time>
      </trkpt>
      <trkpt lat="48.76764" lon="2.19101">
        <ele>174.2</ele>
        <time>2022-05-03T06:04:32Z</time>
      </trkpt>
      <trkpt lat="48.76773" lon="2.19099">
        <ele>174.5</ele>
        <time>2022-05-03T06:04:37Z</time>
      </trkpt>
      <trkpt lat="48.7678" lon="2.19096">
        <ele>174.8</ele>
        <time>2022-05-03T06:04:42Z</time>
      </trkpt>
      <trkpt lat="48.76788" lon="2.19097">
        <ele>174.9</ele>
        <time>2022-05-03T06:04:47Z</time>
      </trkpt>
      <trkpt lat="48.76796" lon="2.19095">
        <ele>175.1</ele>
        <time>2022-05-03T06:04:52Z</time>
      </trkpt>
      <trkpt lat="48.76803" lon="2.19094">
        <ele>175.2</ele>
        <time>2022-05-03T06:04:57Z</time>
      </trkpt>
      <trkpt lat="48.76811" lon="2.19093">
        <ele>175.4</ele>
        <time>2022-05-03T06:05:02Z</time>
      </trkpt>
      <trkpt lat="48.76818" lon="2.19097">
        <ele>175.4</ele>
        <time>2022-05-03T06:05:08Z</time>
      </trkpt>
      <trkpt lat="48.76822" lon="2.19107">
        <ele>175.2</ele>
        <time>2022-05-03T06:05:15Z</time>
      </trkpt>
      <trkpt lat="48.76828" lon="2.19114">
        <ele>175.1</ele>
        <time>2022-05-03T06:05:20Z</time>
      </trkpt>
      <trkpt lat="48.76838" lon="2.19113">
        <ele>175</ele>
        <time>2022-05-03T06:05:25Z</time>
      </trkpt>
      <trkpt lat="48.76845" lon="2.19111">
        <ele>174.6</ele>
        <time>2022-05-03T06:05:30Z</time>
      </trkpt>
      <trkpt lat="48.76854" lon="2.19111">
        <ele>174.1</ele>
        <time>2022-05-03T06:05:35Z</time>
      </trkpt>
      <trkpt lat="48.76863" lon="2.19108">
        <ele>173.6</ele>
        <time>2022-05-03T06:05:40Z</time>
      </trkpt>
      <trkpt lat="48.7687" lon="2.19105">
        <ele>173.2</ele>
        <time>2022-05-03T06:05:45Z</time>
      </trkpt>
      <trkpt lat="48.76877" lon="2.19103">
        <ele>172.8</ele>
        <time>2022-05-03T06:05:50Z</time>
      </trkpt>
      <trkpt lat="48.76885" lon="2.19104">
        <ele>172.2</ele>
        <time>2022-05-03T06:05:56Z</time>
      </trkpt>
      <trkpt lat="48.76893" lon="2.19105">
        <ele>171.7</ele>
        <time>2022-05-03T06:06:02Z</time>
      </trkpt>
      <trkpt lat="48.76902" lon="2.19106">
        <ele>171.2</ele>
        <time>2022-05-03T06:06:07Z</time>
      </trkpt>
      <trkpt lat="48.76909" lon="2.19111">
        <ele>170.8</ele>
        <time>2022-05-03T06:06:13Z</time>
      </trkpt>
      <trkpt lat="48.76917" lon="2.19112">
        <ele>170.3</ele>
        <time>2022-05-03T06:06:19Z</time>
      </trkpt>
      <trkpt lat="48.76926" lon="2.1911">
        <ele>170.5</ele>
        <time>2022-05-03T06:06:24Z</time>
      </trkpt>
      <trkpt lat="48.76932" lon="2.19106">
        <ele>170.5</ele>
        <time>2022-05-03T06:06:30Z</time>
      </trkpt>
      <trkpt lat="48.76939" lon="2.19104">
        <ele>170.7</ele>
        <time>2022-05-03T06:06:36Z</time>
      </trkpt>
      <trkpt lat="48.76947" lon="2.19099">
        <ele>170.8</ele>
        <time>2022-05-03T06:06:41Z</time>
      </trkpt>
      <trkpt lat="48.76954" lon="2.19095">
        <ele>170.9</ele>
        <time>2022-05-03T06:06:46Z</time>
      </trkpt>
      <trkpt lat="48.7696" lon="2.19092">
        <ele>171</ele>
        <time>2022-05-03T06:06:52Z</time>
      </trkpt>
      <trkpt lat="48.76967" lon="2.19091">
        <ele>171.2</ele>
        <time>2022-05-03T06:06:57Z</time>
      </trkpt>
      <trkpt lat="48.76974" lon="2.19086">
        <ele>171.4</ele>
        <time>2022-05-03T06:07:02Z</time>
      </trkpt>
      <trkpt lat="48.76982" lon="2.19081">
        <ele>171.5</ele>
        <time>2022-05-03T06:07:07Z</time>
      </trkpt>
      <trkpt lat="48.76989" lon="2.19074">
        <ele>171.5</ele>
        <time>2022-05-03T06:07:12Z</time>
      </trkpt>
      <trkpt lat="48.76995" lon="2.19063">
        <ele>171.3</ele>
        <time>2022-05-03T06:07:17Z</time>
      </trkpt>
      <trkpt lat="48.77001" lon="2.19055">
        <ele>171.4</ele>
        <time>2022-05-03T06:07:22Z</time>
      </trkpt>
      <trkpt lat="48.77005" lon="2.19045">
        <ele>171.4</ele>
        <time>2022-05-03T06:07:28Z</time>
      </trkpt>
      <trkpt lat="48.77011" lon="2.19037">
        <ele>171.6</ele>
        <time>2022-05-03T06:07:33Z</time>
      </trkpt>
      <trkpt lat="48.77015" lon="2.19027">
        <ele>171.7</ele>
        <time>2022-05-03T06:07:38Z</time>
      </trkpt>
      <trkpt lat="48.77018" lon="2.19017">
        <ele>171.7</ele>
        <time>2022-05-03T06:07:45Z</time>
      </trkpt>
      <trkpt lat="48.77019" lon="2.19003">
        <ele>171.4</ele>
        <time>2022-05-03T06:07:50Z</time>
      </trkpt>
      <trkpt lat="48.77021" lon="2.18988">
        <ele>171.4</ele>
        <time>2022-05-03T06:07:55Z</time>
      </trkpt>
      <trkpt lat="48.77022" lon="2.18976">
        <ele>171.4</ele>
        <time>2022-05-03T06:08:00Z</time>
      </trkpt>
      <trkpt lat="48.77022" lon="2.18966">
        <ele>171.4</ele>
        <time>2022-05-03T06:08:05Z</time>
      </trkpt>
      <trkpt lat="48.77024" lon="2.18954">
        <ele>171.4</ele>
        <time>2022-05-03T06:08:10Z</time>
      </trkpt>
      <trkpt lat="48.77027" lon="2.18941">
        <ele>171.5</ele>
        <time>2022-05-03T06:08:15Z</time>
      </trkpt>
      <trkpt lat="48.77028" lon="2.18924">
        <ele>171.4</ele>
        <time>2022-05-03T06:08:20Z</time>
      </trkpt>
      <trkpt lat="48.77029" lon="2.18913">
        <ele>171.2</ele>
        <time>2022-05-03T06:08:25Z</time>
      </trkpt>
      <trkpt lat="48.77031" lon="2.18901">
        <ele>170.6</ele>
        <time>2022-05-03T06:08:30Z</time>
      </trkpt>
      <trkpt lat="48.77034" lon="2.18891">
        <ele>170.3</ele>
        <time>2022-05-03T06:08:38Z</time>
      </trkpt>
      <trkpt lat="48.77037" lon="2.18882">
        <ele>170</ele>
        <time>2022-05-03T06:08:46Z</time>
      </trkpt>
      <trkpt lat="48.77042" lon="2.18872">
        <ele>169.9</ele>
        <time>2022-05-03T06:08:51Z</time>
      </trkpt>
      <trkpt lat="48.77045" lon="2.1886">
        <ele>169.5</ele>
        <time>2022-05-03T06:08:56Z</time>
      </trkpt>
      <trkpt lat="48.77049" lon="2.18851">
        <ele>169.5</ele>
        <time>2022-05-03T06:09:01Z</time>
      </trkpt>
      <trkpt lat="48.77052" lon="2.1884">
        <ele>169.3</ele>
        <time>2022-05-03T06:09:06Z</time>
      </trkpt>
      <trkpt lat="48.77053" lon="2.18823">
        <ele>168.6</ele>
        <time>2022-05-03T06:09:11Z</time>
      </trkpt>
      <trkpt lat="48.77053" lon="2.1881">
        <ele>168</ele>
        <time>2022-05-03T06:09:16Z</time>
      </trkpt>
      <trkpt lat="48.77055" lon="2.18798">
        <ele>167.7</ele>
        <time>2022-05-03T06:09:21Z</time>
      </trkpt>
      <trkpt lat="48.7706" lon="2.18786">
        <ele>167.8</ele>
        <time>2022-05-03T06:09:26Z</time>
      </trkpt>
      <trkpt lat="48.77064" lon="2.18776">
        <ele>168</ele>
        <time>2022-05-03T06:09:31Z</time>
      </trkpt>
      <trkpt lat="48.77065" lon="2.18766">
        <ele>167.7</ele>
        <time>2022-05-03T06:09:36Z</time>
      </trkpt>
      <trkpt lat="48.7707" lon="2.18753">
        <ele>168</ele>
        <time>2022-05-03T06:09:41Z</time>
      </trkpt>
      <trkpt lat="48.77074" lon="2.18744">
        <ele>168.7</ele>
        <time>2022-05-03T06:09:46Z</time>
      </trkpt>
      <trkpt lat="48.77076" lon="2.18734">
        <ele>169.3</ele>
        <time>2022-05-03T06:09:51Z</time>
      </trkpt>
      <trkpt lat="48.77079" lon="2.18725">
        <ele>170</ele>
        <time>2022-05-03T06:09:57Z</time>
      </trkpt>
      <trkpt lat="48.77081" lon="2.18714">
        <ele>170.6</ele>
        <time>2022-05-03T06:10:02Z</time>
      </trkpt>
      <trkpt lat="48.77081" lon="2.18697">
        <ele>171</ele>
        <time>2022-05-03T06:10:07Z</time>
      </trkpt>
      <trkpt lat="48.77082" lon="2.18681">
        <ele>171.5</ele>
        <time>2022-05-03T06:10:12Z</time>
      </trkpt>
      <trkpt lat="48.77085" lon="2.1867">
        <ele>172</ele>
        <time>2022-05-03T06:10:17Z</time>
      </trkpt>
      <trkpt lat="48.77088" lon="2.18659">
        <ele>172.6</ele>
        <time>2022-05-03T06:10:22Z</time>
      </trkpt>
      <trkpt lat="48.77091" lon="2.1865">
        <ele>173.1</ele>
        <time>2022-05-03T06:10:27Z</time>
      </trkpt>
      <trkpt lat="48.77095" lon="2.18638">
        <ele>173.8</ele>
        <time>2022-05-03T06:10:32Z</time>
      </trkpt>
      <trkpt lat="48.771" lon="2.18628">
        <ele>174.3</ele>
        <time>2022-05-03T06:10:37Z</time>
      </trkpt>
      <trkpt lat="48.77103" lon="2.18616">
        <ele>174.8</ele>
        <time>2022-05-03T06:10:42Z</time>
      </trkpt>
      <trkpt lat="48.77106" lon="2.18603">
        <ele>175.2</ele>
        <time>2022-05-03T06:10:47Z</time>
      </trkpt>
      <trkpt lat="48.77106" lon="2.18592">
        <ele>175.5</ele>
        <time>2022-05-03T06:10:52Z</time>
      </trkpt>
      <trkpt lat="48.77102" lon="2.18578">
        <ele>175.6</ele>
        <time>2022-05-03T06:10:57Z</time>
      </trkpt>
      <trkpt lat="48.77098" lon="2.18562">
        <ele>175.1</ele>
        <time>2022-05-03T06:11:02Z</time>
      </trkpt>
      <trkpt lat="48.77095" lon="2.1855">
        <ele>174.7</ele>
        <time>2022-05-03T06:11:07Z</time>
      </trkpt>
      <trkpt lat="48.77092" lon="2.18538">
        <ele>174.3</ele>
        <time>2022-05-03T06:11:12Z</time>
      </trkpt>
      <trkpt lat="48.77091" lon="2.18528">
        <ele>174</ele>
        <time>2022-05-03T06:11:17Z</time>
      </trkpt>
      <trkpt lat="48.77092" lon="2.18515">
        <ele>173.5</ele>
        <time>2022-05-03T06:11:22Z</time>
      </trkpt>
      <trkpt lat="48.77093" lon="2.18504">
        <ele>173.1</ele>
        <time>2022-05-03T06:11:27Z</time>
      </trkpt>
      <trkpt lat="48.77093" lon="2.18493">
        <ele>172.8</ele>
        <time>2022-05-03T06:11:34Z</time>
      </trkpt>
      <trkpt lat="48.77094" lon="2.18482">
        <ele>172.4</ele>
        <time>2022-05-03T06:11:39Z</time>
      </trkpt>
      <trkpt lat="48.77095" lon="2.18472">
        <ele>172</ele>
        <time>2022-05-03T06:11:45Z</time>
      </trkpt>
      <trkpt lat="48.77097" lon="2.18462">
        <ele>171.7</ele>
        <time>2022-05-03T06:11:51Z</time>
      </trkpt>
      <trkpt lat="48.77103" lon="2.18456">
        <ele>171.5</ele>
        <time>2022-05-03T06:11:56Z</time>
      </trkpt>
      <trkpt lat="48.7711" lon="2.1845">
        <ele>171.4</ele>
        <time>2022-05-03T06:12:01Z</time>
      </trkpt>
      <trkpt lat="48.77116" lon="2.18445">
        <ele>171.3</ele>
        <time>2022-05-03T06:12:06Z</time>
      </trkpt>
      <trkpt lat="48.77123" lon="2.18438">
        <ele>171.1</ele>
        <time>2022-05-03T06:12:11Z</time>
      </trkpt>
      <trkpt lat="48.77128" lon="2.18431">
        <ele>171</ele>
        <time>2022-05-03T06:12:16Z</time>
      </trkpt>
      <trkpt lat="48.77135" lon="2.18423">
        <ele>170.8</ele>
        <time>2022-05-03T06:12:21Z</time>
      </trkpt>
      <trkpt lat="48.77143" lon="2.1841">
        <ele>170.4</ele>
        <time>2022-05-03T06:12:26Z</time>
      </trkpt>
      <trkpt lat="48.7715" lon="2.18398">
        <ele>169.9</ele>
        <time>2022-05-03T06:12:31Z</time>
      </trkpt>
      <trkpt lat="48.77155" lon="2.1839">
        <ele>169.5</ele>
        <time>2022-05-03T06:12:36Z</time>
      </trkpt>
      <trkpt lat="48.77159" lon="2.1838">
        <ele>169.1</ele>
        <time>2022-05-03T06:12:41Z</time>
      </trkpt>
      <trkpt lat="48.77164" lon="2.18372">
        <ele>168.8</ele>
        <time>2022-05-03T06:12:46Z</time>
      </trkpt>
      <trkpt lat="48.77169" lon="2.18364">
        <ele>168.6</ele>
        <time>2022-05-03T06:12:51Z</time>
      </trkpt>
      <trkpt lat="48.77175" lon="2.1836">
        <ele>168.9</ele>
        <time>2022-05-03T06:12:57Z</time>
      </trkpt>
      <trkpt lat="48.77183" lon="2.18356">
        <ele>169.3</ele>
        <time>2022-05-03T06:13:02Z</time>
      </trkpt>
      <trkpt lat="48.7719" lon="2.18349">
        <ele>169.4</ele>
        <time>2022-05-03T06:13:08Z</time>
      </trkpt>
      <trkpt lat="48.77194" lon="2.18341">
        <ele>169.3</ele>
        <time>2022-05-03T06:13:20Z</time>
      </trkpt>
      <trkpt lat="48.7719" lon="2.18333">
        <ele>168.6</ele>
        <time>2022-05-03T06:13:33Z</time>
      </trkpt>
      <trkpt lat="48.77187" lon="2.18324">
        <ele>167.6</ele>
        <time>2022-05-03T06:13:38Z</time>
      </trkpt>
      <trkpt lat="48.77183" lon="2.18314">
        <ele>166.3</ele>
        <time>2022-05-03T06:13:45Z</time>
      </trkpt>
      <trkpt lat="48.77183" lon="2.18304">
        <ele>165.4</ele>
        <time>2022-05-03T06:13:50Z</time>
      </trkpt>
      <trkpt lat="48.7718" lon="2.18293">
        <ele>164</ele>
        <time>2022-05-03T06:13:56Z</time>
      </trkpt>
      <trkpt lat="48.77175" lon="2.18285">
        <ele>162.7</ele>
        <time>2022-05-03T06:14:09Z</time>
      </trkpt>
      <trkpt lat="48.7717" lon="2.18277">
        <ele>161.3</ele>
        <time>2022-05-03T06:14:16Z</time>
      </trkpt>
      <trkpt lat="48.77164" lon="2.1827">
        <ele>160.1</ele>
        <time>2022-05-03T06:14:22Z</time>
      </trkpt>
      <trkpt lat="48.77158" lon="2.18263">
        <ele>159.1</ele>
        <time>2022-05-03T06:14:27Z</time>
      </trkpt>
      <trkpt lat="48.77155" lon="2.18254">
        <ele>158</ele>
        <time>2022-05-03T06:14:32Z</time>
      </trkpt>
      <trkpt lat="48.77151" lon="2.18246">
        <ele>157.1</ele>
        <time>2022-05-03T06:14:39Z</time>
      </trkpt>
      <trkpt lat="48.77146" lon="2.18238">
        <ele>156.3</ele>
        <time>2022-05-03T06:14:44Z</time>
      </trkpt>
      <trkpt lat="48.77142" lon="2.18228">
        <ele>155.3</ele>
        <time>2022-05-03T06:14:49Z</time>
      </trkpt>
      <trkpt lat="48.77141" lon="2.18218">
        <ele>154.4</ele>
        <time>2022-05-03T06:14:54Z</time>
      </trkpt>
      <trkpt lat="48.77146" lon="2.18209">
        <ele>153.9</ele>
        <time>2022-05-03T06:14:59Z</time>
      </trkpt>
      <trkpt lat="48.77152" lon="2.18201">
        <ele>153.6</ele>
        <time>2022-05-03T06:15:04Z</time>
      </trkpt>
      <trkpt lat="48.77159" lon="2.18195">
        <ele>153.6</ele>
        <time>2022-05-03T06:15:09Z</time>
      </trkpt>
      <trkpt lat="48.77162" lon="2.18184">
        <ele>152.9</ele>
        <time>2022-05-03T06:15:14Z</time>
      </trkpt>
      <trkpt lat="48.77164" lon="2.18171">
        <ele>152.1</ele>
        <time>2022-05-03T06:15:19Z</time>
      </trkpt>
      <trkpt lat="48.77162" lon="2.18157">
        <ele>152.6</ele>
        <time>2022-05-03T06:15:24Z</time>
      </trkpt>
      <trkpt lat="48.7716" lon="2.18143">
        <ele>153.7</ele>
        <time>2022-05-03T06:15:29Z</time>
      </trkpt>
      <trkpt lat="48.77158" lon="2.18131">
        <ele>154.7</ele>
        <time>2022-05-03T06:15:34Z</time>
      </trkpt>
      <trkpt lat="48.77158" lon="2.18119">
        <ele>155.8</ele>
        <time>2022-05-03T06:15:39Z</time>
      </trkpt>
      <trkpt lat="48.77158" lon="2.18105">
        <ele>157.1</ele>
        <time>2022-05-03T06:15:44Z</time>
      </trkpt>
      <trkpt lat="48.77164" lon="2.18093">
        <ele>158.8</ele>
        <time>2022-05-03T06:15:49Z</time>
      </trkpt>
      <trkpt lat="48.7717" lon="2.18085">
        <ele>160.1</ele>
        <time>2022-05-03T06:15:54Z</time>
      </trkpt>
      <trkpt lat="48.77169" lon="2.18073">
        <ele>161.3</ele>
        <time>2022-05-03T06:16:00Z</time>
      </trkpt>
      <trkpt lat="48.77165" lon="2.18063">
        <ele>162.1</ele>
        <time>2022-05-03T06:16:05Z</time>
      </trkpt>
      <trkpt lat="48.77158" lon="2.18058">
        <ele>162</ele>
        <time>2022-05-03T06:16:12Z</time>
      </trkpt>
      <trkpt lat="48.77153" lon="2.18049">
        <ele>162.6</ele>
        <time>2022-05-03T06:16:17Z</time>
      </trkpt>
      <trkpt lat="48.77146" lon="2.18041">
        <ele>163</ele>
        <time>2022-05-03T06:16:22Z</time>
      </trkpt>
      <trkpt lat="48.77139" lon="2.18032">
        <ele>163.5</ele>
        <time>2022-05-03T06:16:27Z</time>
      </trkpt>
      <trkpt lat="48.77134" lon="2.18022">
        <ele>164.4</ele>
        <time>2022-05-03T06:16:33Z</time>
      </trkpt>
      <trkpt lat="48.77129" lon="2.18013">
        <ele>165.1</ele>
        <time>2022-05-03T06:16:42Z</time>
      </trkpt>
      <trkpt lat="48.77122" lon="2.18002">
        <ele>166.1</ele>
        <time>2022-05-03T06:16:47Z</time>
      </trkpt>
      <trkpt lat="48.77116" lon="2.17996">
        <ele>166.2</ele>
        <time>2022-05-03T06:16:53Z</time>
      </trkpt>
      <trkpt lat="48.77115" lon="2.17984">
        <ele>167.1</ele>
        <time>2022-05-03T06:16:59Z</time>
      </trkpt>
      <trkpt lat="48.77113" lon="2.17974">
        <ele>167.7</ele>
        <time>2022-05-03T06:17:06Z</time>
      </trkpt>
      <trkpt lat="48.77115" lon="2.17963">
        <ele>168.6</ele>
        <time>2022-05-03T06:17:13Z</time>
      </trkpt>
      <trkpt lat="48.7712" lon="2.17951">
        <ele>169.7</ele>
        <time>2022-05-03T06:17:18Z</time>
      </trkpt>
      <trkpt lat="48.77111" lon="2.17952">
        <ele>169.1</ele>
        <time>2022-05-03T06:17:43Z</time>
      </trkpt>
      <trkpt lat="48.77104" lon="2.17954">
        <ele>168.6</ele>
        <time>2022-05-03T06:17:50Z</time>
      </trkpt>
      <trkpt lat="48.77098" lon="2.17959">
        <ele>167.8</ele>
        <time>2022-05-03T06:17:55Z</time>
      </trkpt>
      <trkpt lat="48.77093" lon="2.17965">
        <ele>167.1</ele>
        <time>2022-05-03T06:18:00Z</time>
      </trkpt>
      <trkpt lat="48.77088" lon="2.17972">
        <ele>166.3</ele>
        <time>2022-05-03T06:18:17Z</time>
      </trkpt>
      <trkpt lat="48.77082" lon="2.17979">
        <ele>165.4</ele>
        <time>2022-05-03T06:18:25Z</time>
      </trkpt>
      <trkpt lat="48.77077" lon="2.17986">
        <ele>164.2</ele>
        <time>2022-05-03T06:18:30Z</time>
      </trkpt>
      <trkpt lat="48.77071" lon="2.17992">
        <ele>162.9</ele>
        <time>2022-05-03T06:18:36Z</time>
      </trkpt>
      <trkpt lat="48.77066" lon="2.18">
        <ele>161.5</ele>
        <time>2022-05-03T06:18:41Z</time>
      </trkpt>
      <trkpt lat="48.77057" lon="2.1801">
        <ele>158.6</ele>
        <time>2022-05-03T06:18:46Z</time>
      </trkpt>
      <trkpt lat="48.77052" lon="2.18017">
        <ele>156.7</ele>
        <time>2022-05-03T06:18:53Z</time>
      </trkpt>
      <trkpt lat="48.77045" lon="2.18022">
        <ele>154.7</ele>
        <time>2022-05-03T06:18:59Z</time>
      </trkpt>
      <trkpt lat="48.77036" lon="2.18026">
        <ele>152.6</ele>
        <time>2022-05-03T06:19:04Z</time>
      </trkpt>
      <trkpt lat="48.77025" lon="2.18035">
        <ele>149.1</ele>
        <time>2022-05-03T06:19:09Z</time>
      </trkpt>
      <trkpt lat="48.77017" lon="2.18037">
        <ele>147.4</ele>
        <time>2022-05-03T06:19:14Z</time>
      </trkpt>
      <trkpt lat="48.77011" lon="2.18034">
        <ele>146.9</ele>
        <time>2022-05-03T06:19:20Z</time>
      </trkpt>
      <trkpt lat="48.77004" lon="2.18031">
        <ele>146.3</ele>
        <time>2022-05-03T06:19:30Z</time>
      </trkpt>
      <trkpt lat="48.76998" lon="2.18031">
        <ele>145.4</ele>
        <time>2022-05-03T06:19:37Z</time>
      </trkpt>
      <trkpt lat="48.76991" lon="2.18028">
        <ele>145.2</ele>
        <time>2022-05-03T06:19:44Z</time>
      </trkpt>
      <trkpt lat="48.76984" lon="2.18029">
        <ele>144.1</ele>
        <time>2022-05-03T06:19:51Z</time>
      </trkpt>
      <trkpt lat="48.76978" lon="2.18022">
        <ele>144.7</ele>
        <time>2022-05-03T06:19:59Z</time>
      </trkpt>
      <trkpt lat="48.76971" lon="2.18017">
        <ele>144.7</ele>
        <time>2022-05-03T06:20:04Z</time>
      </trkpt>
      <trkpt lat="48.76964" lon="2.18014">
        <ele>144.3</ele>
        <time>2022-05-03T06:20:09Z</time>
      </trkpt>
      <trkpt lat="48.76956" lon="2.18008">
        <ele>144.3</ele>
        <time>2022-05-03T06:20:14Z</time>
      </trkpt>
      <trkpt lat="48.76949" lon="2.18006">
        <ele>143.7</ele>
        <time>2022-05-03T06:20:19Z</time>
      </trkpt>
      <trkpt lat="48.76941" lon="2.18004">
        <ele>142.9</ele>
        <time>2022-05-03T06:20:24Z</time>
      </trkpt>
      <trkpt lat="48.76933" lon="2.18006">
        <ele>141.4</ele>
        <time>2022-05-03T06:20:29Z</time>
      </trkpt>
      <trkpt lat="48.76925" lon="2.18007">
        <ele>140.1</ele>
        <time>2022-05-03T06:20:35Z</time>
      </trkpt>
      <trkpt lat="48.76917" lon="2.18004">
        <ele>139.5</ele>
        <time>2022-05-03T06:20:42Z</time>
      </trkpt>
      <trkpt lat="48.7691" lon="2.18005">
        <ele>138</ele>
        <time>2022-05-03T06:20:50Z</time>
      </trkpt>
      <trkpt lat="48.76907" lon="2.17994">
        <ele>139</ele>
        <time>2022-05-03T06:21:00Z</time>
      </trkpt>
      <trkpt lat="48.76906" lon="2.17984">
        <ele>140.3</ele>
        <time>2022-05-03T06:21:13Z</time>
      </trkpt>
      <trkpt lat="48.76902" lon="2.17976">
        <ele>140.7</ele>
        <time>2022-05-03T06:21:21Z</time>
      </trkpt>
      <trkpt lat="48.76895" lon="2.17973">
        <ele>139.6</ele>
        <time>2022-05-03T06:21:29Z</time>
      </trkpt>
      <trkpt lat="48.76893" lon="2.17963">
        <ele>140.6</ele>
        <time>2022-05-03T06:21:44Z</time>
      </trkpt>
      <trkpt lat="48.76893" lon="2.17953">
        <ele>142</ele>
        <time>2022-05-03T06:21:51Z</time>
      </trkpt>
      <trkpt lat="48.76893" lon="2.17943">
        <ele>143.4</ele>
        <time>2022-05-03T06:22:01Z</time>
      </trkpt>
      <trkpt lat="48.76891" lon="2.17934">
        <ele>144.1</ele>
        <time>2022-05-03T06:22:09Z</time>
      </trkpt>
      <trkpt lat="48.76888" lon="2.17924">
        <ele>144.8</ele>
        <time>2022-05-03T06:22:15Z</time>
      </trkpt>
      <trkpt lat="48.76889" lon="2.17914">
        <ele>146.4</ele>
        <time>2022-05-03T06:22:22Z</time>
      </trkpt>
      <trkpt lat="48.7689" lon="2.17903">
        <ele>148.4</ele>
        <time>2022-05-03T06:22:27Z</time>
      </trkpt>
      <trkpt lat="48.76891" lon="2.17892">
        <ele>150.3</ele>
        <time>2022-05-03T06:22:35Z</time>
      </trkpt>
      <trkpt lat="48.76892" lon="2.17881">
        <ele>152.2</ele>
        <time>2022-05-03T06:22:41Z</time>
      </trkpt>
      <trkpt lat="48.76896" lon="2.17872">
        <ele>154.5</ele>
        <time>2022-05-03T06:22:47Z</time>
      </trkpt>
      <trkpt lat="48.76898" lon="2.17861">
        <ele>156.6</ele>
        <time>2022-05-03T06:22:53Z</time>
      </trkpt>
      <trkpt lat="48.769" lon="2.1785">
        <ele>158.7</ele>
        <time>2022-05-03T06:22:58Z</time>
      </trkpt>
      <trkpt lat="48.76903" lon="2.1784">
        <ele>160.9</ele>
        <time>2022-05-03T06:23:03Z</time>
      </trkpt>
      <trkpt lat="48.76905" lon="2.17828">
        <ele>162.6</ele>
        <time>2022-05-03T06:23:08Z</time>
      </trkpt>
      <trkpt lat="48.76906" lon="2.17814">
        <ele>163.4</ele>
        <time>2022-05-03T06:23:13Z</time>
      </trkpt>
      <trkpt lat="48.76907" lon="2.17803">
        <ele>164.1</ele>
        <time>2022-05-03T06:23:18Z</time>
      </trkpt>
      <trkpt lat="48.76906" lon="2.17793">
        <ele>164.4</ele>
        <time>2022-05-03T06:23:27Z</time>
      </trkpt>
      <trkpt lat="48.76902" lon="2.17783">
        <ele>164.1</ele>
        <time>2022-05-03T06:23:42Z</time>
      </trkpt>
      <trkpt lat="48.76896" lon="2.17775">
        <ele>163.4</ele>
        <time>2022-05-03T06:23:47Z</time>
      </trkpt>
      <trkpt lat="48.76888" lon="2.17769">
        <ele>162.4</ele>
        <time>2022-05-03T06:23:52Z</time>
      </trkpt>
      <trkpt lat="48.76884" lon="2.1776">
        <ele>162.3</ele>
        <time>2022-05-03T06:23:57Z</time>
      </trkpt>
      <trkpt lat="48.76877" lon="2.17754">
        <ele>161.5</ele>
        <time>2022-05-03T06:24:02Z</time>
      </trkpt>
      <trkpt lat="48.7687" lon="2.1775">
        <ele>160.7</ele>
        <time>2022-05-03T06:24:07Z</time>
      </trkpt>
      <trkpt lat="48.76861" lon="2.17743">
        <ele>159.6</ele>
        <time>2022-05-03T06:24:12Z</time>
      </trkpt>
      <trkpt lat="48.76853" lon="2.17738">
        <ele>158.7</ele>
        <time>2022-05-03T06:24:17Z</time>
      </trkpt>
      <trkpt lat="48.76848" lon="2.1773">
        <ele>158.4</ele>
        <time>2022-05-03T06:24:22Z</time>
      </trkpt>
      <trkpt lat="48.76843" lon="2.17721">
        <ele>158.3</ele>
        <time>2022-05-03T06:24:27Z</time>
      </trkpt>
      <trkpt lat="48.76836" lon="2.17715">
        <ele>157.8</ele>
        <time>2022-05-03T06:24:32Z</time>
      </trkpt>
      <trkpt lat="48.76831" lon="2.17704">
        <ele>157.5</ele>
        <time>2022-05-03T06:24:37Z</time>
      </trkpt>
      <trkpt lat="48.76824" lon="2.17694">
        <ele>155.6</ele>
        <time>2022-05-03T06:24:42Z</time>
      </trkpt>
      <trkpt lat="48.7682" lon="2.17685">
        <ele>154.8</ele>
        <time>2022-05-03T06:24:47Z</time>
      </trkpt>
      <trkpt lat="48.76816" lon="2.17675">
        <ele>154</ele>
        <time>2022-05-03T06:24:52Z</time>
      </trkpt>
      <trkpt lat="48.76811" lon="2.17663">
        <ele>152.8</ele>
        <time>2022-05-03T06:24:57Z</time>
      </trkpt>
      <trkpt lat="48.76804" lon="2.17653">
        <ele>150.4</ele>
        <time>2022-05-03T06:25:02Z</time>
      </trkpt>
      <trkpt lat="48.76797" lon="2.17649">
        <ele>147.9</ele>
        <time>2022-05-03T06:25:07Z</time>
      </trkpt>
      <trkpt lat="48.76793" lon="2.1764">
        <ele>146.8</ele>
        <time>2022-05-03T06:25:15Z</time>
      </trkpt>
      <trkpt lat="48.76791" lon="2.17629">
        <ele>146.4</ele>
        <time>2022-05-03T06:25:20Z</time>
      </trkpt>
      <trkpt lat="48.76789" lon="2.17618">
        <ele>146.1</ele>
        <time>2022-05-03T06:25:25Z</time>
      </trkpt>
      <trkpt lat="48.76788" lon="2.17607">
        <ele>146.1</ele>
        <time>2022-05-03T06:25:30Z</time>
      </trkpt>
      <trkpt lat="48.76786" lon="2.17597">
        <ele>145.8</ele>
        <time>2022-05-03T06:25:36Z</time>
      </trkpt>
      <trkpt lat="48.76785" lon="2.17586">
        <ele>145.8</ele>
        <time>2022-05-03T06:25:41Z</time>
      </trkpt>
      <trkpt lat="48.76789" lon="2.17574">
        <ele>147</ele>
        <time>2022-05-03T06:25:46Z</time>
      </trkpt>
      <trkpt lat="48.76793" lon="2.17565">
        <ele>148.1</ele>
        <time>2022-05-03T06:25:51Z</time>
      </trkpt>
      <trkpt lat="48.76796" lon="2.17555">
        <ele>148.8</ele>
        <time>2022-05-03T06:25:56Z</time>
      </trkpt>
      <trkpt lat="48.76798" lon="2.17544">
        <ele>149.2</ele>
        <time>2022-05-03T06:26:01Z</time>
      </trkpt>
      <trkpt lat="48.76803" lon="2.17535">
        <ele>150.4</ele>
        <time>2022-05-03T06:26:06Z</time>
      </trkpt>
      <trkpt lat="48.7681" lon="2.1753">
        <ele>152.3</ele>
        <time>2022-05-03T06:26:11Z</time>
      </trkpt>
      <trkpt lat="48.76817" lon="2.17528">
        <ele>154.3</ele>
        <time>2022-05-03T06:26:16Z</time>
      </trkpt>
      <trkpt lat="48.76823" lon="2.17534">
        <ele>156.2</ele>
        <time>2022-05-03T06:26:21Z</time>
      </trkpt>
      <trkpt lat="48.76831" lon="2.1754">
        <ele>158.8</ele>
        <time>2022-05-03T06:26:26Z</time>
      </trkpt>
      <trkpt lat="48.76837" lon="2.17545">
        <ele>159.6</ele>
        <time>2022-05-03T06:26:31Z</time>
      </trkpt>
      <trkpt lat="48.76842" lon="2.1755">
        <ele>159.9</ele>
        <time>2022-05-03T06:26:36Z</time>
      </trkpt>
      <trkpt lat="48.76849" lon="2.17557">
        <ele>160.2</ele>
        <time>2022-05-03T06:26:41Z</time>
      </trkpt>
      <trkpt lat="48.76858" lon="2.17559">
        <ele>160.5</ele>
        <time>2022-05-03T06:26:46Z</time>
      </trkpt>
      <trkpt lat="48.76867" lon="2.17559">
        <ele>160.6</ele>
        <time>2022-05-03T06:26:51Z</time>
      </trkpt>
      <trkpt lat="48.76876" lon="2.17559">
        <ele>160.7</ele>
        <time>2022-05-03T06:26:56Z</time>
      </trkpt>
      <trkpt lat="48.76883" lon="2.17559">
        <ele>160.8</ele>
        <time>2022-05-03T06:27:01Z</time>
      </trkpt>
      <trkpt lat="48.76893" lon="2.17558">
        <ele>160.9</ele>
        <time>2022-05-03T06:27:06Z</time>
      </trkpt>
      <trkpt lat="48.76901" lon="2.17558">
        <ele>161</ele>
        <time>2022-05-03T06:27:11Z</time>
      </trkpt>
      <trkpt lat="48.76909" lon="2.17559">
        <ele>161.1</ele>
        <time>2022-05-03T06:27:16Z</time>
      </trkpt>
      <trkpt lat="48.76917" lon="2.17558">
        <ele>161.2</ele>
        <time>2022-05-03T06:27:21Z</time>
      </trkpt>
      <trkpt lat="48.76925" lon="2.17561">
        <ele>161.4</ele>
        <time>2022-05-03T06:27:26Z</time>
      </trkpt>
      <trkpt lat="48.76932" lon="2.17563">
        <ele>161.5</ele>
        <time>2022-05-03T06:27:31Z</time>
      </trkpt>
      <trkpt lat="48.76938" lon="2.17566">
        <ele>161.8</ele>
        <time>2022-05-03T06:27:36Z</time>
      </trkpt>
      <trkpt lat="48.76946" lon="2.17566">
        <ele>161.8</ele>
        <time>2022-05-03T06:27:41Z</time>
      </trkpt>
      <trkpt lat="48.76954" lon="2.17566">
        <ele>161.8</ele>
        <time>2022-05-03T06:27:46Z</time>
      </trkpt>
      <trkpt lat="48.76961" lon="2.17571">
        <ele>162.3</ele>
        <time>2022-05-03T06:27:51Z</time>
      </trkpt>
      <trkpt lat="48.76968" lon="2.17578">
        <ele>163.1</ele>
        <time>2022-05-03T06:27:56Z</time>
      </trkpt>
      <trkpt lat="48.76975" lon="2.17582">
        <ele>163.6</ele>
        <time>2022-05-03T06:28:01Z</time>
      </trkpt>
      <trkpt lat="48.76981" lon="2.17589">
        <ele>164.1</ele>
        <time>2022-05-03T06:28:07Z</time>
      </trkpt>
      <trkpt lat="48.76988" lon="2.17599">
        <ele>164.7</ele>
        <time>2022-05-03T06:28:12Z</time>
      </trkpt>
      <trkpt lat="48.76994" lon="2.17605">
        <ele>165.2</ele>
        <time>2022-05-03T06:28:17Z</time>
      </trkpt>
      <trkpt lat="48.77" lon="2.17614">
        <ele>165.8</ele>
        <time>2022-05-03T06:28:22Z</time>
      </trkpt>
      <trkpt lat="48.77007" lon="2.17623">
        <ele>166.5</ele>
        <time>2022-05-03T06:28:27Z</time>
      </trkpt>
      <trkpt lat="48.77013" lon="2.17629">
        <ele>166.9</ele>
        <time>2022-05-03T06:28:32Z</time>
      </trkpt>
      <trkpt lat="48.77017" lon="2.17639">
        <ele>167.7</ele>
        <time>2022-05-03T06:28:38Z</time>
      </trkpt>
      <trkpt lat="48.77023" lon="2.17645">
        <ele>168.4</ele>
        <time>2022-05-03T06:28:43Z</time>
      </trkpt>
      <trkpt lat="48.77031" lon="2.1765">
        <ele>169</ele>
        <time>2022-05-03T06:28:48Z</time>
      </trkpt>
      <trkpt lat="48.77039" lon="2.17656">
        <ele>169.9</ele>
        <time>2022-05-03T06:28:53Z</time>
      </trkpt>
      <trkpt lat="48.77046" lon="2.17659">
        <ele>170.4</ele>
        <time>2022-05-03T06:28:58Z</time>
      </trkpt>
      <trkpt lat="48.77053" lon="2.17666">
        <ele>171.5</ele>
        <time>2022-05-03T06:29:03Z</time>
      </trkpt>
      <trkpt lat="48.77062" lon="2.17671">
        <ele>172.1</ele>
        <time>2022-05-03T06:29:08Z</time>
      </trkpt>
      <trkpt lat="48.77069" lon="2.17678">
        <ele>172.7</ele>
        <time>2022-05-03T06:29:13Z</time>
      </trkpt>
      <trkpt lat="48.77075" lon="2.17686">
        <ele>173.2</ele>
        <time>2022-05-03T06:29:18Z</time>
      </trkpt>
      <trkpt lat="48.77081" lon="2.17694">
        <ele>173.9</ele>
        <time>2022-05-03T06:29:23Z</time>
      </trkpt>
      <trkpt lat="48.77088" lon="2.177">
        <ele>174.2</ele>
        <time>2022-05-03T06:29:28Z</time>
      </trkpt>
      <trkpt lat="48.77096" lon="2.17708">
        <ele>174.5</ele>
        <time>2022-05-03T06:29:33Z</time>
      </trkpt>
      <trkpt lat="48.77104" lon="2.17715">
        <ele>174.8</ele>
        <time>2022-05-03T06:29:38Z</time>
      </trkpt>
      <trkpt lat="48.77111" lon="2.1772">
        <ele>175.1</ele>
        <time>2022-05-03T06:29:43Z</time>
      </trkpt>
      <trkpt lat="48.77119" lon="2.17727">
        <ele>175.6</ele>
        <time>2022-05-03T06:29:48Z</time>
      </trkpt>
      <trkpt lat="48.77125" lon="2.17731">
        <ele>175.9</ele>
        <time>2022-05-03T06:29:59Z</time>
      </trkpt>
      <trkpt lat="48.77131" lon="2.17736">
        <ele>176.3</ele>
        <time>2022-05-03T06:30:07Z</time>
      </trkpt>
      <trkpt lat="48.77137" lon="2.17744">
        <ele>176.9</ele>
        <time>2022-05-03T06:30:12Z</time>
      </trkpt>
      <trkpt lat="48.77143" lon="2.17752">
        <ele>177.4</ele>
        <time>2022-05-03T06:30:17Z</time>
      </trkpt>
      <trkpt lat="48.77149" lon="2.17756">
        <ele>177.5</ele>
        <time>2022-05-03T06:30:22Z</time>
      </trkpt>
      <trkpt lat="48.77157" lon="2.17762">
        <ele>177.7</ele>
        <time>2022-05-03T06:30:27Z</time>
      </trkpt>
      <trkpt lat="48.77164" lon="2.17769">
        <ele>177.9</ele>
        <time>2022-05-03T06:30:32Z</time>
      </trkpt>
      <trkpt lat="48.77171" lon="2.17775">
        <ele>177.9</ele>
        <time>2022-05-03T06:30:38Z</time>
      </trkpt>
      <trkpt lat="48.77179" lon="2.1778">
        <ele>177.9</ele>
        <time>2022-05-03T06:30:43Z</time>
      </trkpt>
      <trkpt lat="48.77186" lon="2.17787">
        <ele>177.8</ele>
        <time>2022-05-03T06:30:48Z</time>
      </trkpt>
      <trkpt lat="48.77192" lon="2.17794">
        <ele>177.9</ele>
        <time>2022-05-03T06:30:54Z</time>
      </trkpt>
      <trkpt lat="48.77197" lon="2.17802">
        <ele>178</ele>
        <time>2022-05-03T06:30:59Z</time>
      </trkpt>
      <trkpt lat="48.77204" lon="2.17806">
        <ele>178</ele>
        <time>2022-05-03T06:31:06Z</time>
      </trkpt>
      <trkpt lat="48.77212" lon="2.17801">
        <ele>177.9</ele>
        <time>2022-05-03T06:31:49Z</time>
      </trkpt>
      <trkpt lat="48.77216" lon="2.17791">
        <ele>177.7</ele>
        <time>2022-05-03T06:31:57Z</time>
      </trkpt>
      <trkpt lat="48.77222" lon="2.17787">
        <ele>177.6</ele>
        <time>2022-05-03T06:32:04Z</time>
      </trkpt>
      <trkpt lat="48.77231" lon="2.1778">
        <ele>177.3</ele>
        <time>2022-05-03T06:32:09Z</time>
      </trkpt>
      <trkpt lat="48.77242" lon="2.17773">
        <ele>176.9</ele>
        <time>2022-05-03T06:32:14Z</time>
      </trkpt>
      <trkpt lat="48.7725" lon="2.17764">
        <ele>176.5</ele>
        <time>2022-05-03T06:32:19Z</time>
      </trkpt>
      <trkpt lat="48.77256" lon="2.17758">
        <ele>176.2</ele>
        <time>2022-05-03T06:32:24Z</time>
      </trkpt>
      <trkpt lat="48.77263" lon="2.17756">
        <ele>176</ele>
        <time>2022-05-03T06:32:30Z</time>
      </trkpt>
      <trkpt lat="48.77264" lon="2.17746">
        <ele>175.6</ele>
        <time>2022-05-03T06:32:37Z</time>
      </trkpt>
      <trkpt lat="48.77264" lon="2.17732">
        <ele>174.8</ele>
        <time>2022-05-03T06:32:42Z</time>
      </trkpt>
      <trkpt lat="48.77267" lon="2.17724">
        <ele>174.4</ele>
        <time>2022-05-03T06:32:48Z</time>
      </trkpt>
      <trkpt lat="48.77271" lon="2.17732">
        <ele>174.8</ele>
        <time>2022-05-03T06:32:56Z</time>
      </trkpt>
      <trkpt lat="48.77274" lon="2.17741">
        <ele>175.2</ele>
        <time>2022-05-03T06:33:02Z</time>
      </trkpt>
      <trkpt lat="48.77274" lon="2.17752">
        <ele>175.8</ele>
        <time>2022-05-03T06:33:08Z</time>
      </trkpt>
      <trkpt lat="48.77278" lon="2.1776">
        <ele>176</ele>
        <time>2022-05-03T06:33:13Z</time>
      </trkpt>
      <trkpt lat="48.77283" lon="2.17767">
        <ele>176.1</ele>
        <time>2022-05-03T06:33:18Z</time>
      </trkpt>
      <trkpt lat="48.77289" lon="2.17771">
        <ele>176.2</ele>
        <time>2022-05-03T06:33:23Z</time>
      </trkpt>
      <trkpt lat="48.77296" lon="2.17775">
        <ele>176.2</ele>
        <time>2022-05-03T06:33:28Z</time>
      </trkpt>
      <trkpt lat="48.77303" lon="2.1778">
        <ele>176.2</ele>
        <time>2022-05-03T06:33:33Z</time>
      </trkpt>
      <trkpt lat="48.7731" lon="2.17786">
        <ele>176.3</ele>
        <time>2022-05-03T06:33:38Z</time>
      </trkpt>
      <trkpt lat="48.77315" lon="2.17795">
        <ele>176.4</ele>
        <time>2022-05-03T06:34:31Z</time>
      </trkpt>
      <trkpt lat="48.77316" lon="2.17805">
        <ele>176.7</ele>
        <time>2022-05-03T06:34:36Z</time>
      </trkpt>
      <trkpt lat="48.77317" lon="2.17817">
        <ele>177</ele>
        <time>2022-05-03T06:34:42Z</time>
      </trkpt>
      <trkpt lat="48.77316" lon="2.17828">
        <ele>177.3</ele>
        <time>2022-05-03T06:34:47Z</time>
      </trkpt>
      <trkpt lat="48.77321" lon="2.17839">
        <ele>177.3</ele>
        <time>2022-05-03T06:34:52Z</time>
      </trkpt>
      <trkpt lat="48.77327" lon="2.17849">
        <ele>177.1</ele>
        <time>2022-05-03T06:34:57Z</time>
      </trkpt>
      <trkpt lat="48.77334" lon="2.17845">
        <ele>177</ele>
        <time>2022-05-03T06:35:19Z</time>
      </trkpt>
      <trkpt lat="48.7734" lon="2.17842">
        <ele>176.7</ele>
        <time>2022-05-03T06:35:29Z</time>
      </trkpt>
      <trkpt lat="48.77346" lon="2.17836">
        <ele>176.4</ele>
        <time>2022-05-03T06:35:45Z</time>
      </trkpt>
      <trkpt lat="48.77352" lon="2.1783">
        <ele>176</ele>
        <time>2022-05-03T06:35:50Z</time>
      </trkpt>
      <trkpt lat="48.77357" lon="2.17822">
        <ele>175.6</ele>
        <time>2022-05-03T06:35:55Z</time>
      </trkpt>
      <trkpt lat="48.7736" lon="2.17812">
        <ele>175.3</ele>
        <time>2022-05-03T06:36:00Z</time>
      </trkpt>
      <trkpt lat="48.77367" lon="2.17805">
        <ele>174.8</ele>
        <time>2022-05-03T06:36:05Z</time>
      </trkpt>
      <trkpt lat="48.77369" lon="2.17795">
        <ele>174.6</ele>
        <time>2022-05-03T06:36:10Z</time>
      </trkpt>
      <trkpt lat="48.7737" lon="2.17784">
        <ele>174.3</ele>
        <time>2022-05-03T06:36:15Z</time>
      </trkpt>
      <trkpt lat="48.77372" lon="2.17772">
        <ele>174</ele>
        <time>2022-05-03T06:36:20Z</time>
      </trkpt>
      <trkpt lat="48.77375" lon="2.17762">
        <ele>173.7</ele>
        <time>2022-05-03T06:36:25Z</time>
      </trkpt>
      <trkpt lat="48.77378" lon="2.17751">
        <ele>173.4</ele>
        <time>2022-05-03T06:36:31Z</time>
      </trkpt>
      <trkpt lat="48.77382" lon="2.17739">
        <ele>173.1</ele>
        <time>2022-05-03T06:36:36Z</time>
      </trkpt>
      <trkpt lat="48.77386" lon="2.17731">
        <ele>172.9</ele>
        <time>2022-05-03T06:36:41Z</time>
      </trkpt>
      <trkpt lat="48.7739" lon="2.17721">
        <ele>172.6</ele>
        <time>2022-05-03T06:36:46Z</time>
      </trkpt>
      <trkpt lat="48.77393" lon="2.17709">
        <ele>172.4</ele>
        <time>2022-05-03T06:36:51Z</time>
      </trkpt>
      <trkpt lat="48.77395" lon="2.17698">
        <ele>172.3</ele>
        <time>2022-05-03T06:36:56Z</time>
      </trkpt>
      <trkpt lat="48.77396" lon="2.17688">
        <ele>172.2</ele>
        <time>2022-05-03T06:37:03Z</time>
      </trkpt>
      <trkpt lat="48.77392" lon="2.17678">
        <ele>172.1</ele>
        <time>2022-05-03T06:37:23Z</time>
      </trkpt>
      <trkpt lat="48.77387" lon="2.17671">
        <ele>172.1</ele>
        <time>2022-05-03T06:37:29Z</time>
      </trkpt>
      <trkpt lat="48.77377" lon="2.17667">
        <ele>172</ele>
        <time>2022-05-03T06:38:58Z</time>
      </trkpt>
      <trkpt lat="48.77372" lon="2.17673">
        <ele>172.1</ele>
        <time>2022-05-03T06:39:17Z</time>
      </trkpt>
      <trkpt lat="48.77365" lon="2.17679">
        <ele>172.3</ele>
        <time>2022-05-03T06:39:24Z</time>
      </trkpt>
      <trkpt lat="48.77358" lon="2.17684">
        <ele>172.4</ele>
        <time>2022-05-03T06:39:30Z</time>
      </trkpt>
      <trkpt lat="48.77354" lon="2.17692">
        <ele>172.7</ele>
        <time>2022-05-03T06:39:36Z</time>
      </trkpt>
      <trkpt lat="48.77347" lon="2.17701">
        <ele>173</ele>
        <time>2022-05-03T06:40:04Z</time>
      </trkpt>
      <trkpt lat="48.77341" lon="2.17703">
        <ele>173.2</ele>
        <time>2022-05-03T06:40:10Z</time>
      </trkpt>
      <trkpt lat="48.77333" lon="2.17706">
        <ele>173.4</ele>
        <time>2022-05-03T06:40:15Z</time>
      </trkpt>
      <trkpt lat="48.77328" lon="2.17711">
        <ele>173.6</ele>
        <time>2022-05-03T06:40:20Z</time>
      </trkpt>
      <trkpt lat="48.77322" lon="2.17714">
        <ele>173.7</ele>
        <time>2022-05-03T06:40:25Z</time>
      </trkpt>
      <trkpt lat="48.77315" lon="2.17717">
        <ele>173.9</ele>
        <time>2022-05-03T06:40:30Z</time>
      </trkpt>
      <trkpt lat="48.7731" lon="2.1771">
        <ele>173.6</ele>
        <time>2022-05-03T06:40:42Z</time>
      </trkpt>
      <trkpt lat="48.77303" lon="2.17706">
        <ele>173.4</ele>
        <time>2022-05-03T06:40:54Z</time>
      </trkpt>
      <trkpt lat="48.77296" lon="2.17709">
        <ele>173.5</ele>
        <time>2022-05-03T06:41:07Z</time>
      </trkpt>
      <trkpt lat="48.77289" lon="2.17709">
        <ele>173.5</ele>
        <time>2022-05-03T06:41:14Z</time>
      </trkpt>
      <trkpt lat="48.77291" lon="2.17699">
        <ele>173.1</ele>
        <time>2022-05-03T06:41:22Z</time>
      </trkpt>
      <trkpt lat="48.77298" lon="2.17691">
        <ele>172.7</ele>
        <time>2022-05-03T06:41:27Z</time>
      </trkpt>
      <trkpt lat="48.77305" lon="2.17681">
        <ele>172.3</ele>
        <time>2022-05-03T06:41:49Z</time>
      </trkpt>
      <trkpt lat="48.77307" lon="2.17671">
        <ele>171.9</ele>
        <time>2022-05-03T06:41:57Z</time>
      </trkpt>
      <trkpt lat="48.77313" lon="2.17664">
        <ele>171.5</ele>
        <time>2022-05-03T06:42:03Z</time>
      </trkpt>
      <trkpt lat="48.77318" lon="2.17658">
        <ele>171.1</ele>
        <time>2022-05-03T06:42:08Z</time>
      </trkpt>
      <trkpt lat="48.77323" lon="2.17648">
        <ele>170.4</ele>
        <time>2022-05-03T06:42:13Z</time>
      </trkpt>
      <trkpt lat="48.77328" lon="2.17639">
        <ele>169.8</ele>
        <time>2022-05-03T06:42:18Z</time>
      </trkpt>
      <trkpt lat="48.77334" lon="2.17636">
        <ele>169.8</ele>
        <time>2022-05-03T06:42:25Z</time>
      </trkpt>
      <trkpt lat="48.77341" lon="2.17635">
        <ele>169.9</ele>
        <time>2022-05-03T06:42:31Z</time>
      </trkpt>
      <trkpt lat="48.77348" lon="2.17632">
        <ele>169.9</ele>
        <time>2022-05-03T06:42:36Z</time>
      </trkpt>
      <trkpt lat="48.77355" lon="2.1763">
        <ele>169.9</ele>
        <time>2022-05-03T06:42:41Z</time>
      </trkpt>
      <trkpt lat="48.77363" lon="2.17627">
        <ele>170</ele>
        <time>2022-05-03T06:42:46Z</time>
      </trkpt>
      <trkpt lat="48.7737" lon="2.17623">
        <ele>170</ele>
        <time>2022-05-03T06:42:51Z</time>
      </trkpt>
      <trkpt lat="48.77376" lon="2.17616">
        <ele>169.9</ele>
        <time>2022-05-03T06:42:56Z</time>
      </trkpt>
      <trkpt lat="48.77383" lon="2.17608">
        <ele>169.9</ele>
        <time>2022-05-03T06:43:01Z</time>
      </trkpt>
      <trkpt lat="48.77388" lon="2.17596">
        <ele>169.7</ele>
        <time>2022-05-03T06:43:06Z</time>
      </trkpt>
      <trkpt lat="48.77392" lon="2.17588">
        <ele>169.7</ele>
        <time>2022-05-03T06:43:11Z</time>
      </trkpt>
      <trkpt lat="48.77398" lon="2.17582">
        <ele>169.7</ele>
        <time>2022-05-03T06:43:18Z</time>
      </trkpt>
      <trkpt lat="48.77406" lon="2.17576">
        <ele>169.5</ele>
        <time>2022-05-03T06:43:24Z</time>
      </trkpt>
      <trkpt lat="48.77415" lon="2.17569">
        <ele>169.3</ele>
        <time>2022-05-03T06:43:29Z</time>
      </trkpt>
      <trkpt lat="48.77421" lon="2.17562">
        <ele>168.8</ele>
        <time>2022-05-03T06:43:34Z</time>
      </trkpt>
      <trkpt lat="48.77426" lon="2.17556">
        <ele>168.3</ele>
        <time>2022-05-03T06:43:40Z</time>
      </trkpt>
      <trkpt lat="48.77433" lon="2.17547">
        <ele>167.7</ele>
        <time>2022-05-03T06:43:45Z</time>
      </trkpt>
      <trkpt lat="48.77439" lon="2.17541">
        <ele>167.4</ele>
        <time>2022-05-03T06:43:51Z</time>
      </trkpt>
      <trkpt lat="48.77445" lon="2.17546">
        <ele>168.1</ele>
        <time>2022-05-03T06:44:02Z</time>
      </trkpt>
      <trkpt lat="48.77449" lon="2.17554">
        <ele>168.9</ele>
        <time>2022-05-03T06:44:08Z</time>
      </trkpt>
      <trkpt lat="48.77454" lon="2.17561">
        <ele>169.6</ele>
        <time>2022-05-03T06:44:24Z</time>
      </trkpt>
      <trkpt lat="48.77458" lon="2.17569">
        <ele>170.4</ele>
        <time>2022-05-03T06:44:32Z</time>
      </trkpt>
      <trkpt lat="48.77458" lon="2.17581">
        <ele>171.3</ele>
        <time>2022-05-03T06:44:38Z</time>
      </trkpt>
      <trkpt lat="48.77464" lon="2.17587">
        <ele>171.6</ele>
        <time>2022-05-03T06:44:49Z</time>
      </trkpt>
      <trkpt lat="48.77465" lon="2.17597">
        <ele>171.6</ele>
        <time>2022-05-03T06:44:54Z</time>
      </trkpt>
      <trkpt lat="48.77466" lon="2.17607">
        <ele>171.5</ele>
        <time>2022-05-03T06:45:00Z</time>
      </trkpt>
      <trkpt lat="48.7747" lon="2.17617">
        <ele>171.5</ele>
        <time>2022-05-03T06:45:06Z</time>
      </trkpt>
      <trkpt lat="48.77474" lon="2.17629">
        <ele>171.5</ele>
        <time>2022-05-03T06:45:11Z</time>
      </trkpt>
      <trkpt lat="48.7748" lon="2.17636">
        <ele>171.4</ele>
        <time>2022-05-03T06:45:16Z</time>
      </trkpt>
      <trkpt lat="48.77486" lon="2.17653">
        <ele>171.3</ele>
        <time>2022-05-03T06:45:21Z</time>
      </trkpt>
      <trkpt lat="48.77485" lon="2.17667">
        <ele>171.2</ele>
        <time>2022-05-03T06:45:26Z</time>
      </trkpt>
      <trkpt lat="48.77485" lon="2.17681">
        <ele>171.9</ele>
        <time>2022-05-03T06:45:31Z</time>
      </trkpt>
      <trkpt lat="48.77487" lon="2.17692">
        <ele>172.4</ele>
        <time>2022-05-03T06:45:36Z</time>
      </trkpt>
      <trkpt lat="48.77489" lon="2.17704">
        <ele>173.1</ele>
        <time>2022-05-03T06:45:43Z</time>
      </trkpt>
      <trkpt lat="48.77487" lon="2.17714">
        <ele>173.6</ele>
        <time>2022-05-03T06:45:48Z</time>
      </trkpt>
      <trkpt lat="48.7749" lon="2.17724">
        <ele>174.1</ele>
        <time>2022-05-03T06:45:53Z</time>
      </trkpt>
      <trkpt lat="48.77494" lon="2.17733">
        <ele>174.8</ele>
        <time>2022-05-03T06:45:59Z</time>
      </trkpt>
      <trkpt lat="48.77499" lon="2.17742">
        <ele>175.5</ele>
        <time>2022-05-03T06:46:04Z</time>
      </trkpt>
      <trkpt lat="48.77493" lon="2.17737">
        <ele>174.9</ele>
        <time>2022-05-03T06:46:38Z</time>
      </trkpt>
      <trkpt lat="48.77499" lon="2.17738">
        <ele>175.2</ele>
        <time>2022-05-03T06:47:34Z</time>
      </trkpt>
      <trkpt lat="48.77505" lon="2.17732">
        <ele>174.9</ele>
        <time>2022-05-03T06:47:42Z</time>
      </trkpt>
      <trkpt lat="48.77512" lon="2.17725">
        <ele>174.6</ele>
        <time>2022-05-03T06:47:48Z</time>
      </trkpt>
      <trkpt lat="48.77519" lon="2.17727">
        <ele>174.7</ele>
        <time>2022-05-03T06:47:54Z</time>
      </trkpt>
      <trkpt lat="48.77527" lon="2.1773">
        <ele>175</ele>
        <time>2022-05-03T06:47:59Z</time>
      </trkpt>
      <trkpt lat="48.77534" lon="2.17732">
        <ele>175.1</ele>
        <time>2022-05-03T06:48:06Z</time>
      </trkpt>
      <trkpt lat="48.77541" lon="2.17739">
        <ele>175.5</ele>
        <time>2022-05-03T06:48:11Z</time>
      </trkpt>
      <trkpt lat="48.77547" lon="2.17746">
        <ele>175.8</ele>
        <time>2022-05-03T06:48:16Z</time>
      </trkpt>
      <trkpt lat="48.77555" lon="2.17748">
        <ele>175.9</ele>
        <time>2022-05-03T06:48:21Z</time>
      </trkpt>
      <trkpt lat="48.77563" lon="2.17742">
        <ele>175.7</ele>
        <time>2022-05-03T06:48:26Z</time>
      </trkpt>
      <trkpt lat="48.77569" lon="2.17736">
        <ele>175.4</ele>
        <time>2022-05-03T06:48:33Z</time>
      </trkpt>
      <trkpt lat="48.77574" lon="2.17729">
        <ele>175.2</ele>
        <time>2022-05-03T06:48:38Z</time>
      </trkpt>
      <trkpt lat="48.7757" lon="2.17721">
        <ele>174.8</ele>
        <time>2022-05-03T06:48:47Z</time>
      </trkpt>
      <trkpt lat="48.77565" lon="2.17713">
        <ele>174.5</ele>
        <time>2022-05-03T06:48:52Z</time>
      </trkpt>
      <trkpt lat="48.77565" lon="2.17695">
        <ele>173.7</ele>
        <time>2022-05-03T06:49:15Z</time>
      </trkpt>
      <trkpt lat="48.77573" lon="2.1769">
        <ele>173.7</ele>
        <time>2022-05-03T06:49:20Z</time>
      </trkpt>
      <trkpt lat="48.77583" lon="2.17698">
        <ele>174.1</ele>
        <time>2022-05-03T06:49:25Z</time>
      </trkpt>
      <trkpt lat="48.77591" lon="2.17699">
        <ele>174.2</ele>
        <time>2022-05-03T06:49:32Z</time>
      </trkpt>
      <trkpt lat="48.77598" lon="2.17702">
        <ele>174.3</ele>
        <time>2022-05-03T06:49:38Z</time>
      </trkpt>
      <trkpt lat="48.77607" lon="2.17705">
        <ele>174.3</ele>
        <time>2022-05-03T06:49:43Z</time>
      </trkpt>
      <trkpt lat="48.77614" lon="2.17709">
        <ele>174.3</ele>
        <time>2022-05-03T06:49:50Z</time>
      </trkpt>
      <trkpt lat="48.77607" lon="2.17708">
        <ele>174.4</ele>
        <time>2022-05-03T06:49:59Z</time>
      </trkpt>
      <trkpt lat="48.77605" lon="2.17697">
        <ele>174.1</ele>
        <time>2022-05-03T06:50:04Z</time>
      </trkpt>
      <trkpt lat="48.77601" lon="2.17689">
        <ele>173.9</ele>
        <time>2022-05-03T06:50:09Z</time>
      </trkpt>
      <trkpt lat="48.77596" lon="2.17683">
        <ele>173.7</ele>
        <time>2022-05-03T06:50:14Z</time>
      </trkpt>
      <trkpt lat="48.77591" lon="2.17675">
        <ele>173.4</ele>
        <time>2022-05-03T06:50:19Z</time>
      </trkpt>
      <trkpt lat="48.77587" lon="2.17665">
        <ele>173</ele>
        <time>2022-05-03T06:50:24Z</time>
      </trkpt>
      <trkpt lat="48.77584" lon="2.17655">
        <ele>172.5</ele>
        <time>2022-05-03T06:50:30Z</time>
      </trkpt>
      <trkpt lat="48.77582" lon="2.17645">
        <ele>171.9</ele>
        <time>2022-05-03T06:50:44Z</time>
      </trkpt>
      <trkpt lat="48.7759" lon="2.17642">
        <ele>172.1</ele>
        <time>2022-05-03T06:51:17Z</time>
      </trkpt>
      <trkpt lat="48.77593" lon="2.17633">
        <ele>171.8</ele>
        <time>2022-05-03T06:51:23Z</time>
      </trkpt>
      <trkpt lat="48.77597" lon="2.17625">
        <ele>171.7</ele>
        <time>2022-05-03T06:51:31Z</time>
      </trkpt>
      <trkpt lat="48.77601" lon="2.17615">
        <ele>171.5</ele>
        <time>2022-05-03T06:51:37Z</time>
      </trkpt>
      <trkpt lat="48.77606" lon="2.17608">
        <ele>171.5</ele>
        <time>2022-05-03T06:51:50Z</time>
      </trkpt>
      <trkpt lat="48.77612" lon="2.17614">
        <ele>172</ele>
        <time>2022-05-03T06:52:26Z</time>
      </trkpt>
      <trkpt lat="48.77617" lon="2.17624">
        <ele>172.6</ele>
        <time>2022-05-03T06:52:31Z</time>
      </trkpt>
      <trkpt lat="48.77619" lon="2.17637">
        <ele>173</ele>
        <time>2022-05-03T06:52:36Z</time>
      </trkpt>
      <trkpt lat="48.77621" lon="2.17647">
        <ele>173.4</ele>
        <time>2022-05-03T06:52:43Z</time>
      </trkpt>
      <trkpt lat="48.77618" lon="2.1766">
        <ele>173.6</ele>
        <time>2022-05-03T06:52:48Z</time>
      </trkpt>
      <trkpt lat="48.77616" lon="2.17671">
        <ele>173.8</ele>
        <time>2022-05-03T06:52:54Z</time>
      </trkpt>
      <trkpt lat="48.77616" lon="2.17681">
        <ele>174</ele>
        <time>2022-05-03T06:52:59Z</time>
      </trkpt>
      <trkpt lat="48.77616" lon="2.17691">
        <ele>174.1</ele>
        <time>2022-05-03T06:53:05Z</time>
      </trkpt>
      <trkpt lat="48.77613" lon="2.17704">
        <ele>174.3</ele>
        <time>2022-05-03T06:53:10Z</time>
      </trkpt>
      <trkpt lat="48.77608" lon="2.17716">
        <ele>174.5</ele>
        <time>2022-05-03T06:53:15Z</time>
      </trkpt>
      <trkpt lat="48.77608" lon="2.17727">
        <ele>174.7</ele>
        <time>2022-05-03T06:53:22Z</time>
      </trkpt>
      <trkpt lat="48.77605" lon="2.17736">
        <ele>174.9</ele>
        <time>2022-05-03T06:53:28Z</time>
      </trkpt>
      <trkpt lat="48.77601" lon="2.17746">
        <ele>175.3</ele>
        <time>2022-05-03T06:53:35Z</time>
      </trkpt>
      <trkpt lat="48.776" lon="2.17757">
        <ele>175.4</ele>
        <time>2022-05-03T06:53:41Z</time>
      </trkpt>
      <trkpt lat="48.77605" lon="2.17764">
        <ele>175.2</ele>
        <time>2022-05-03T06:53:46Z</time>
      </trkpt>
      <trkpt lat="48.77612" lon="2.17768">
        <ele>175</ele>
        <time>2022-05-03T06:53:53Z</time>
      </trkpt>
      <trkpt lat="48.77618" lon="2.17773">
        <ele>174.8</ele>
        <time>2022-05-03T06:53:58Z</time>
      </trkpt>
      <trkpt lat="48.77611" lon="2.17778">
        <ele>175</ele>
        <time>2022-05-03T06:54:15Z</time>
      </trkpt>
      <trkpt lat="48.77618" lon="2.17781">
        <ele>174.8</ele>
        <time>2022-05-03T06:54:20Z</time>
      </trkpt>
      <trkpt lat="48.77621" lon="2.17773">
        <ele>174.6</ele>
        <time>2022-05-03T06:54:25Z</time>
      </trkpt>
      <trkpt lat="48.77625" lon="2.17764">
        <ele>174.5</ele>
        <time>2022-05-03T06:54:31Z</time>
      </trkpt>
      <trkpt lat="48.77625" lon="2.17754">
        <ele>174.5</ele>
        <time>2022-05-03T06:54:44Z</time>
      </trkpt>
      <trkpt lat="48.77623" lon="2.17744">
        <ele>174.5</ele>
        <time>2022-05-03T06:54:50Z</time>
      </trkpt>
      <trkpt lat="48.77621" lon="2.17735">
        <ele>174.5</ele>
        <time>2022-05-03T06:54:56Z</time>
      </trkpt>
      <trkpt lat="48.77618" lon="2.17724">
        <ele>174.5</ele>
        <time>2022-05-03T06:55:02Z</time>
      </trkpt>
      <trkpt lat="48.77614" lon="2.17711">
        <ele>174.4</ele>
        <time>2022-05-03T06:55:07Z</time>
      </trkpt>
      <trkpt lat="48.77614" lon="2.17701">
        <ele>174.2</ele>
        <time>2022-05-03T06:55:21Z</time>
      </trkpt>
      <trkpt lat="48.77612" lon="2.17691">
        <ele>174.1</ele>
        <time>2022-05-03T06:55:28Z</time>
      </trkpt>
      <trkpt lat="48.77614" lon="2.17681">
        <ele>173.9</ele>
        <time>2022-05-03T06:55:33Z</time>
      </trkpt>
      <trkpt lat="48.77618" lon="2.17672">
        <ele>173.9</ele>
        <time>2022-05-03T06:55:39Z</time>
      </trkpt>
      <trkpt lat="48.77624" lon="2.17663">
        <ele>173.9</ele>
        <time>2022-05-03T06:55:44Z</time>
      </trkpt>
      <trkpt lat="48.7763" lon="2.17657">
        <ele>173.9</ele>
        <time>2022-05-03T06:55:49Z</time>
      </trkpt>
      <trkpt lat="48.77634" lon="2.17647">
        <ele>173.8</ele>
        <time>2022-05-03T06:55:54Z</time>
      </trkpt>
      <trkpt lat="48.77636" lon="2.17637">
        <ele>173.7</ele>
        <time>2022-05-03T06:56:02Z</time>
      </trkpt>
      <trkpt lat="48.77643" lon="2.17637">
        <ele>174</ele>
        <time>2022-05-03T06:56:17Z</time>
      </trkpt>
      <trkpt lat="48.77649" lon="2.17637">
        <ele>174.3</ele>
        <time>2022-05-03T06:56:32Z</time>
      </trkpt>
      <trkpt lat="48.77656" lon="2.17643">
        <ele>174.6</ele>
        <time>2022-05-03T06:56:42Z</time>
      </trkpt>
      <trkpt lat="48.77663" lon="2.17647">
        <ele>174.9</ele>
        <time>2022-05-03T06:56:50Z</time>
      </trkpt>
      <trkpt lat="48.7767" lon="2.17645">
        <ele>175.2</ele>
        <time>2022-05-03T06:56:55Z</time>
      </trkpt>
      <trkpt lat="48.77674" lon="2.17654">
        <ele>175.5</ele>
        <time>2022-05-03T06:57:09Z</time>
      </trkpt>
      <trkpt lat="48.7768" lon="2.17652">
        <ele>175.9</ele>
        <time>2022-05-03T06:57:21Z</time>
      </trkpt>
      <trkpt lat="48.77687" lon="2.17649">
        <ele>176.4</ele>
        <time>2022-05-03T06:57:27Z</time>
      </trkpt>
      <trkpt lat="48.77694" lon="2.17649">
        <ele>176.8</ele>
        <time>2022-05-03T06:57:32Z</time>
      </trkpt>
      <trkpt lat="48.77702" lon="2.17649">
        <ele>177.4</ele>
        <time>2022-05-03T06:57:37Z</time>
      </trkpt>
      <trkpt lat="48.77709" lon="2.17651">
        <ele>177.8</ele>
        <time>2022-05-03T06:57:50Z</time>
      </trkpt>
      <trkpt lat="48.77707" lon="2.1766">
        <ele>177.5</ele>
        <time>2022-05-03T06:58:04Z</time>
      </trkpt>
      <trkpt lat="48.77701" lon="2.17667">
        <ele>177.1</ele>
        <time>2022-05-03T06:58:10Z</time>
      </trkpt>
      <trkpt lat="48.77693" lon="2.17658">
        <ele>176.7</ele>
        <time>2022-05-03T06:58:15Z</time>
      </trkpt>
      <trkpt lat="48.77683" lon="2.17647">
        <ele>176.1</ele>
        <time>2022-05-03T06:58:20Z</time>
      </trkpt>
      <trkpt lat="48.77657" lon="2.17611">
        <ele>174.5</ele>
        <time>2022-05-03T06:58:25Z</time>
      </trkpt>
      <trkpt lat="48.7768" lon="2.17653">
        <ele>175.9</ele>
        <time>2022-05-03T06:58:58Z</time>
      </trkpt>
      <trkpt lat="48.77665" lon="2.17586">
        <ele>174.9</ele>
        <time>2022-05-03T06:59:03Z</time>
      </trkpt>
      <trkpt lat="48.77661" lon="2.17574">
        <ele>174.6</ele>
        <time>2022-05-03T06:59:08Z</time>
      </trkpt>
      <trkpt lat="48.77659" lon="2.17586">
        <ele>174.5</ele>
        <time>2022-05-03T06:59:13Z</time>
      </trkpt>
      <trkpt lat="48.77677" lon="2.17575">
        <ele>176</ele>
        <time>2022-05-03T06:59:18Z</time>
      </trkpt>
      <trkpt lat="48.77708" lon="2.17618">
        <ele>178.3</ele>
        <time>2022-05-03T06:59:23Z</time>
      </trkpt>
      <trkpt lat="48.77714" lon="2.17653">
        <ele>178.1</ele>
        <time>2022-05-03T06:59:28Z</time>
      </trkpt>
      <trkpt lat="48.7771" lon="2.17643">
        <ele>178</ele>
        <time>2022-05-03T06:59:34Z</time>
      </trkpt>
      <trkpt lat="48.77706" lon="2.17652">
        <ele>177.6</ele>
        <time>2022-05-03T06:59:55Z</time>
      </trkpt>
      <trkpt lat="48.77699" lon="2.17655">
        <ele>177.1</ele>
        <time>2022-05-03T07:00:06Z</time>
      </trkpt>
      <trkpt lat="48.77694" lon="2.1766">
        <ele>176.7</ele>
        <time>2022-05-03T07:00:14Z</time>
      </trkpt>
      <trkpt lat="48.77701" lon="2.17662">
        <ele>177.1</ele>
        <time>2022-05-03T07:00:30Z</time>
      </trkpt>
      <trkpt lat="48.77707" lon="2.17663">
        <ele>177.5</ele>
        <time>2022-05-03T07:00:35Z</time>
      </trkpt>
      <trkpt lat="48.77721" lon="2.17668">
        <ele>178.2</ele>
        <time>2022-05-03T07:00:40Z</time>
      </trkpt>
      <trkpt lat="48.77737" lon="2.17672">
        <ele>179</ele>
        <time>2022-05-03T07:00:45Z</time>
      </trkpt>
      <trkpt lat="48.77704" lon="2.17681">
        <ele>176.8</ele>
        <time>2022-05-03T07:00:50Z</time>
      </trkpt>
      <trkpt lat="48.77696" lon="2.17694">
        <ele>176</ele>
        <time>2022-05-03T07:00:55Z</time>
      </trkpt>
      <trkpt lat="48.77697" lon="2.17684">
        <ele>176.3</ele>
        <time>2022-05-03T07:01:35Z</time>
      </trkpt>
      <trkpt lat="48.77704" lon="2.17683">
        <ele>176.8</ele>
        <time>2022-05-03T07:01:42Z</time>
      </trkpt>
      <trkpt lat="48.7771" lon="2.17681">
        <ele>177.2</ele>
        <time>2022-05-03T07:01:59Z</time>
      </trkpt>
      <trkpt lat="48.77708" lon="2.1769">
        <ele>176.8</ele>
        <time>2022-05-03T07:02:14Z</time>
      </trkpt>
      <trkpt lat="48.77709" lon="2.1768">
        <ele>177.1</ele>
        <time>2022-05-03T07:02:24Z</time>
      </trkpt>
      <trkpt lat="48.77716" lon="2.17681">
        <ele>177.5</ele>
        <time>2022-05-03T07:02:58Z</time>
      </trkpt>
      <trkpt lat="48.77722" lon="2.17675">
        <ele>178.1</ele>
        <time>2022-05-03T07:03:07Z</time>
      </trkpt>
      <trkpt lat="48.77724" lon="2.17665">
        <ele>178.5</ele>
        <time>2022-05-03T07:03:18Z</time>
      </trkpt>
      <trkpt lat="48.77718" lon="2.17659">
        <ele>178.3</ele>
        <time>2022-05-03T07:03:25Z</time>
      </trkpt>
      <trkpt lat="48.77714" lon="2.17649">
        <ele>178.2</ele>
        <time>2022-05-03T07:03:32Z</time>
      </trkpt>
      <trkpt lat="48.7771" lon="2.17641">
        <ele>178.1</ele>
        <time>2022-05-03T07:03:37Z</time>
      </trkpt>
      <trkpt lat="48.77705" lon="2.17632">
        <ele>177.9</ele>
        <time>2022-05-03T07:03:43Z</time>
      </trkpt>
      <trkpt lat="48.77707" lon="2.17621">
        <ele>178.2</ele>
        <time>2022-05-03T07:03:49Z</time>
      </trkpt>
      <trkpt lat="48.77709" lon="2.17606">
        <ele>178.6</ele>
        <time>2022-05-03T07:03:54Z</time>
      </trkpt>
      <trkpt lat="48.77714" lon="2.17599">
        <ele>179.2</ele>
        <time>2022-05-03T07:04:00Z</time>
      </trkpt>
      <trkpt lat="48.77721" lon="2.17595">
        <ele>179.9</ele>
        <time>2022-05-03T07:04:07Z</time>
      </trkpt>
      <trkpt lat="48.77729" lon="2.17592">
        <ele>180.8</ele>
        <time>2022-05-03T07:04:12Z</time>
      </trkpt>
      <trkpt lat="48.77737" lon="2.1759">
        <ele>181.5</ele>
        <time>2022-05-03T07:04:17Z</time>
      </trkpt>
      <trkpt lat="48.77747" lon="2.17585">
        <ele>182.7</ele>
        <time>2022-05-03T07:04:22Z</time>
      </trkpt>
      <trkpt lat="48.77754" lon="2.1758">
        <ele>183</ele>
        <time>2022-05-03T07:04:27Z</time>
      </trkpt>
      <trkpt lat="48.77761" lon="2.17575">
        <ele>183</ele>
        <time>2022-05-03T07:04:32Z</time>
      </trkpt>
      <trkpt lat="48.77767" lon="2.17566">
        <ele>182.9</ele>
        <time>2022-05-03T07:04:37Z</time>
      </trkpt>
      <trkpt lat="48.77775" lon="2.17563">
        <ele>183</ele>
        <time>2022-05-03T07:04:44Z</time>
      </trkpt>
      <trkpt lat="48.77786" lon="2.17555">
        <ele>183.2</ele>
        <time>2022-05-03T07:04:49Z</time>
      </trkpt>
      <trkpt lat="48.77795" lon="2.17548">
        <ele>183.4</ele>
        <time>2022-05-03T07:04:54Z</time>
      </trkpt>
      <trkpt lat="48.77802" lon="2.17546">
        <ele>183.6</ele>
        <time>2022-05-03T07:04:59Z</time>
      </trkpt>
      <trkpt lat="48.77808" lon="2.1754">
        <ele>183.7</ele>
        <time>2022-05-03T07:05:11Z</time>
      </trkpt>
      <trkpt lat="48.77814" lon="2.1753">
        <ele>184</ele>
        <time>2022-05-03T07:05:16Z</time>
      </trkpt>
      <trkpt lat="48.77819" lon="2.17524">
        <ele>184.2</ele>
        <time>2022-05-03T07:05:23Z</time>
      </trkpt>
      <trkpt lat="48.77827" lon="2.17517">
        <ele>184.5</ele>
        <time>2022-05-03T07:05:28Z</time>
      </trkpt>
      <trkpt lat="48.77833" lon="2.17512">
        <ele>184.8</ele>
        <time>2022-05-03T07:05:35Z</time>
      </trkpt>
      <trkpt lat="48.77838" lon="2.17506">
        <ele>184.8</ele>
        <time>2022-05-03T07:05:58Z</time>
      </trkpt>
      <trkpt lat="48.77845" lon="2.17507">
        <ele>184.7</ele>
        <time>2022-05-03T07:06:06Z</time>
      </trkpt>
      <trkpt lat="48.77852" lon="2.17507">
        <ele>184.5</ele>
        <time>2022-05-03T07:06:14Z</time>
      </trkpt>
      <trkpt lat="48.77859" lon="2.17505">
        <ele>184.4</ele>
        <time>2022-05-03T07:06:20Z</time>
      </trkpt>
      <trkpt lat="48.77866" lon="2.17501">
        <ele>184.2</ele>
        <time>2022-05-03T07:06:27Z</time>
      </trkpt>
      <trkpt lat="48.77874" lon="2.17495">
        <ele>184</ele>
        <time>2022-05-03T07:06:38Z</time>
      </trkpt>
      <trkpt lat="48.77883" lon="2.17496">
        <ele>183.8</ele>
        <time>2022-05-03T07:06:43Z</time>
      </trkpt>
      <trkpt lat="48.7789" lon="2.17499">
        <ele>183.6</ele>
        <time>2022-05-03T07:06:48Z</time>
      </trkpt>
      <trkpt lat="48.77895" lon="2.1751">
        <ele>183.6</ele>
        <time>2022-05-03T07:06:53Z</time>
      </trkpt>
      <trkpt lat="48.77898" lon="2.17518">
        <ele>183.6</ele>
        <time>2022-05-03T07:06:58Z</time>
      </trkpt>
      <trkpt lat="48.77901" lon="2.17527">
        <ele>183.6</ele>
        <time>2022-05-03T07:07:03Z</time>
      </trkpt>
      <trkpt lat="48.77889" lon="2.17529">
        <ele>183.8</ele>
        <time>2022-05-03T07:07:26Z</time>
      </trkpt>
      <trkpt lat="48.77895" lon="2.17523">
        <ele>183.7</ele>
        <time>2022-05-03T07:07:53Z</time>
      </trkpt>
      <trkpt lat="48.77893" lon="2.17512">
        <ele>183.6</ele>
        <time>2022-05-03T07:08:16Z</time>
      </trkpt>
      <trkpt lat="48.77892" lon="2.17501">
        <ele>183.6</ele>
        <time>2022-05-03T07:08:24Z</time>
      </trkpt>
      <trkpt lat="48.77893" lon="2.17491">
        <ele>183.6</ele>
        <time>2022-05-03T07:08:30Z</time>
      </trkpt>
      <trkpt lat="48.77895" lon="2.17479">
        <ele>183.6</ele>
        <time>2022-05-03T07:08:35Z</time>
      </trkpt>
      <trkpt lat="48.77896" lon="2.17467">
        <ele>183.6</ele>
        <time>2022-05-03T07:08:40Z</time>
      </trkpt>
      <trkpt lat="48.77896" lon="2.17455">
        <ele>183.6</ele>
        <time>2022-05-03T07:08:45Z</time>
      </trkpt>
      <trkpt lat="48.77893" lon="2.17444">
        <ele>183.7</ele>
        <time>2022-05-03T07:08:50Z</time>
      </trkpt>
      <trkpt lat="48.77889" lon="2.17435">
        <ele>183.7</ele>
        <time>2022-05-03T07:08:55Z</time>
      </trkpt>
      <trkpt lat="48.77884" lon="2.17426">
        <ele>183.6</ele>
        <time>2022-05-03T07:09:00Z</time>
      </trkpt>
      <trkpt lat="48.7788" lon="2.17415">
        <ele>183.5</ele>
        <time>2022-05-03T07:09:05Z</time>
      </trkpt>
      <trkpt lat="48.7788" lon="2.17404">
        <ele>183.1</ele>
        <time>2022-05-03T07:09:10Z</time>
      </trkpt>
      <trkpt lat="48.77883" lon="2.17391">
        <ele>182.7</ele>
        <time>2022-05-03T07:09:15Z</time>
      </trkpt>
      <trkpt lat="48.77885" lon="2.17378">
        <ele>182.3</ele>
        <time>2022-05-03T07:09:20Z</time>
      </trkpt>
      <trkpt lat="48.77888" lon="2.17366">
        <ele>182</ele>
        <time>2022-05-03T07:09:25Z</time>
      </trkpt>
      <trkpt lat="48.77889" lon="2.17356">
        <ele>181.7</ele>
        <time>2022-05-03T07:09:31Z</time>
      </trkpt>
      <trkpt lat="48.77883" lon="2.17362">
        <ele>181.8</ele>
        <time>2022-05-03T07:10:01Z</time>
      </trkpt>
      <trkpt lat="48.77876" lon="2.17366">
        <ele>181.7</ele>
        <time>2022-05-03T07:10:18Z</time>
      </trkpt>
      <trkpt lat="48.77886" lon="2.17361">
        <ele>181.8</ele>
        <time>2022-05-03T07:10:26Z</time>
      </trkpt>
      <trkpt lat="48.77893" lon="2.17357">
        <ele>181.9</ele>
        <time>2022-05-03T07:10:35Z</time>
      </trkpt>
      <trkpt lat="48.77889" lon="2.1734">
        <ele>181.2</ele>
        <time>2022-05-03T07:10:40Z</time>
      </trkpt>
      <trkpt lat="48.77892" lon="2.17326">
        <ele>180.7</ele>
        <time>2022-05-03T07:10:45Z</time>
      </trkpt>
      <trkpt lat="48.77895" lon="2.17317">
        <ele>180.4</ele>
        <time>2022-05-03T07:10:50Z</time>
      </trkpt>
      <trkpt lat="48.77895" lon="2.17307">
        <ele>179.9</ele>
        <time>2022-05-03T07:10:55Z</time>
      </trkpt>
      <trkpt lat="48.77891" lon="2.17297">
        <ele>179.2</ele>
        <time>2022-05-03T07:11:00Z</time>
      </trkpt>
      <trkpt lat="48.7789" lon="2.17285">
        <ele>178.5</ele>
        <time>2022-05-03T07:11:06Z</time>
      </trkpt>
      <trkpt lat="48.77893" lon="2.17275">
        <ele>178.1</ele>
        <time>2022-05-03T07:11:11Z</time>
      </trkpt>
      <trkpt lat="48.77901" lon="2.17266">
        <ele>178.1</ele>
        <time>2022-05-03T07:11:40Z</time>
      </trkpt>
      <trkpt lat="48.77904" lon="2.17257">
        <ele>177.7</ele>
        <time>2022-05-03T07:11:47Z</time>
      </trkpt>
      <trkpt lat="48.77906" lon="2.17248">
        <ele>177.4</ele>
        <time>2022-05-03T07:11:52Z</time>
      </trkpt>
      <trkpt lat="48.77909" lon="2.17238">
        <ele>177.3</ele>
        <time>2022-05-03T07:11:57Z</time>
      </trkpt>
      <trkpt lat="48.77911" lon="2.17225">
        <ele>177</ele>
        <time>2022-05-03T07:12:02Z</time>
      </trkpt>
      <trkpt lat="48.77912" lon="2.17215">
        <ele>176.8</ele>
        <time>2022-05-03T07:12:07Z</time>
      </trkpt>
      <trkpt lat="48.77915" lon="2.17205">
        <ele>176.8</ele>
        <time>2022-05-03T07:12:12Z</time>
      </trkpt>
      <trkpt lat="48.7792" lon="2.17196">
        <ele>176.7</ele>
        <time>2022-05-03T07:12:17Z</time>
      </trkpt>
      <trkpt lat="48.77924" lon="2.17184">
        <ele>176.5</ele>
        <time>2022-05-03T07:12:22Z</time>
      </trkpt>
      <trkpt lat="48.77928" lon="2.17172">
        <ele>176.3</ele>
        <time>2022-05-03T07:12:27Z</time>
      </trkpt>
      <trkpt lat="48.77936" lon="2.17162">
        <ele>176.1</ele>
        <time>2022-05-03T07:12:32Z</time>
      </trkpt>
      <trkpt lat="48.77943" lon="2.17152">
        <ele>175.8</ele>
        <time>2022-05-03T07:12:37Z</time>
      </trkpt>
      <trkpt lat="48.77949" lon="2.17147">
        <ele>175.7</ele>
        <time>2022-05-03T07:12:57Z</time>
      </trkpt>
      <trkpt lat="48.77955" lon="2.17143">
        <ele>175.6</ele>
        <time>2022-05-03T07:13:03Z</time>
      </trkpt>
      <trkpt lat="48.77959" lon="2.17134">
        <ele>175.3</ele>
        <time>2022-05-03T07:13:21Z</time>
      </trkpt>
      <trkpt lat="48.77965" lon="2.17126">
        <ele>175.1</ele>
        <time>2022-05-03T07:13:26Z</time>
      </trkpt>
      <trkpt lat="48.7797" lon="2.17119">
        <ele>174.9</ele>
        <time>2022-05-03T07:13:31Z</time>
      </trkpt>
      <trkpt lat="48.77981" lon="2.17113">
        <ele>174.8</ele>
        <time>2022-05-03T07:13:36Z</time>
      </trkpt>
      <trkpt lat="48.77987" lon="2.17112">
        <ele>174.9</ele>
        <time>2022-05-03T07:13:41Z</time>
      </trkpt>
      <trkpt lat="48.77995" lon="2.17106">
        <ele>174.8</ele>
        <time>2022-05-03T07:13:52Z</time>
      </trkpt>
      <trkpt lat="48.78003" lon="2.171">
        <ele>174.5</ele>
        <time>2022-05-03T07:13:57Z</time>
      </trkpt>
      <trkpt lat="48.78007" lon="2.17091">
        <ele>174.1</ele>
        <time>2022-05-03T07:14:03Z</time>
      </trkpt>
      <trkpt lat="48.7801" lon="2.1708">
        <ele>173.7</ele>
        <time>2022-05-03T07:14:10Z</time>
      </trkpt>
      <trkpt lat="48.78014" lon="2.17067">
        <ele>173.2</ele>
        <time>2022-05-03T07:14:15Z</time>
      </trkpt>
      <trkpt lat="48.7802" lon="2.17055">
        <ele>172.7</ele>
        <time>2022-05-03T07:14:20Z</time>
      </trkpt>
      <trkpt lat="48.78024" lon="2.17046">
        <ele>172.5</ele>
        <time>2022-05-03T07:14:25Z</time>
      </trkpt>
      <trkpt lat="48.78029" lon="2.17035">
        <ele>172.2</ele>
        <time>2022-05-03T07:14:30Z</time>
      </trkpt>
      <trkpt lat="48.78032" lon="2.17024">
        <ele>171.9</ele>
        <time>2022-05-03T07:14:36Z</time>
      </trkpt>
      <trkpt lat="48.78036" lon="2.17012">
        <ele>171.7</ele>
        <time>2022-05-03T07:14:41Z</time>
      </trkpt>
      <trkpt lat="48.78039" lon="2.17">
        <ele>171.5</ele>
        <time>2022-05-03T07:14:46Z</time>
      </trkpt>
      <trkpt lat="48.78037" lon="2.16989">
        <ele>171.5</ele>
        <time>2022-05-03T07:14:52Z</time>
      </trkpt>
      <trkpt lat="48.78039" lon="2.16973">
        <ele>171.6</ele>
        <time>2022-05-03T07:14:57Z</time>
      </trkpt>
      <trkpt lat="48.78038" lon="2.16959">
        <ele>171.7</ele>
        <time>2022-05-03T07:15:02Z</time>
      </trkpt>
      <trkpt lat="48.78041" lon="2.1695">
        <ele>171.8</ele>
        <time>2022-05-03T07:15:07Z</time>
      </trkpt>
      <trkpt lat="48.78041" lon="2.16939">
        <ele>171.9</ele>
        <time>2022-05-03T07:15:12Z</time>
      </trkpt>
      <trkpt lat="48.78037" lon="2.16931">
        <ele>171.8</ele>
        <time>2022-05-03T07:15:18Z</time>
      </trkpt>
      <trkpt lat="48.78031" lon="2.16923">
        <ele>171.7</ele>
        <time>2022-05-03T07:15:24Z</time>
      </trkpt>
      <trkpt lat="48.78025" lon="2.16918">
        <ele>171.6</ele>
        <time>2022-05-03T07:15:30Z</time>
      </trkpt>
      <trkpt lat="48.78021" lon="2.16909">
        <ele>171.8</ele>
        <time>2022-05-03T07:15:43Z</time>
      </trkpt>
      <trkpt lat="48.78022" lon="2.16894">
        <ele>172.6</ele>
        <time>2022-05-03T07:15:48Z</time>
      </trkpt>
      <trkpt lat="48.78024" lon="2.16883">
        <ele>173.1</ele>
        <time>2022-05-03T07:15:53Z</time>
      </trkpt>
      <trkpt lat="48.7802" lon="2.16875">
        <ele>173.3</ele>
        <time>2022-05-03T07:16:06Z</time>
      </trkpt>
      <trkpt lat="48.78015" lon="2.16867">
        <ele>173.5</ele>
        <time>2022-05-03T07:16:19Z</time>
      </trkpt>
      <trkpt lat="48.78011" lon="2.16859">
        <ele>173.6</ele>
        <time>2022-05-03T07:16:26Z</time>
      </trkpt>
      <trkpt lat="48.78009" lon="2.16849">
        <ele>173.9</ele>
        <time>2022-05-03T07:16:33Z</time>
      </trkpt>
      <trkpt lat="48.78007" lon="2.16839">
        <ele>174.2</ele>
        <time>2022-05-03T07:16:38Z</time>
      </trkpt>
      <trkpt lat="48.78003" lon="2.16829">
        <ele>174.4</ele>
        <time>2022-05-03T07:16:43Z</time>
      </trkpt>
      <trkpt lat="48.77993" lon="2.16821">
        <ele>174.3</ele>
        <time>2022-05-03T07:16:48Z</time>
      </trkpt>
      <trkpt lat="48.7799" lon="2.16812">
        <ele>174.7</ele>
        <time>2022-05-03T07:16:53Z</time>
      </trkpt>
      <trkpt lat="48.77987" lon="2.16801">
        <ele>175.1</ele>
        <time>2022-05-03T07:16:58Z</time>
      </trkpt>
      <trkpt lat="48.77982" lon="2.16791">
        <ele>175.4</ele>
        <time>2022-05-03T07:17:03Z</time>
      </trkpt>
      <trkpt lat="48.77978" lon="2.1678">
        <ele>175.8</ele>
        <time>2022-05-03T07:17:08Z</time>
      </trkpt>
      <trkpt lat="48.77977" lon="2.16769">
        <ele>176.3</ele>
        <time>2022-05-03T07:17:13Z</time>
      </trkpt>
      <trkpt lat="48.77978" lon="2.16758">
        <ele>176.8</ele>
        <time>2022-05-03T07:17:18Z</time>
      </trkpt>
      <trkpt lat="48.77978" lon="2.16744">
        <ele>177.5</ele>
        <time>2022-05-03T07:17:23Z</time>
      </trkpt>
      <trkpt lat="48.77978" lon="2.16734">
        <ele>177.9</ele>
        <time>2022-05-03T07:17:28Z</time>
      </trkpt>
      <trkpt lat="48.77977" lon="2.16722">
        <ele>178.4</ele>
        <time>2022-05-03T07:17:35Z</time>
      </trkpt>
      <trkpt lat="48.77979" lon="2.1671">
        <ele>178.9</ele>
        <time>2022-05-03T07:17:40Z</time>
      </trkpt>
      <trkpt lat="48.77975" lon="2.16701">
        <ele>179.2</ele>
        <time>2022-05-03T07:17:46Z</time>
      </trkpt>
      <trkpt lat="48.7797" lon="2.16692">
        <ele>179.5</ele>
        <time>2022-05-03T07:17:51Z</time>
      </trkpt>
      <trkpt lat="48.7797" lon="2.16681">
        <ele>180</ele>
        <time>2022-05-03T07:17:59Z</time>
      </trkpt>
      <trkpt lat="48.77971" lon="2.16671">
        <ele>180.5</ele>
        <time>2022-05-03T07:18:05Z</time>
      </trkpt>
      <trkpt lat="48.77971" lon="2.1666">
        <ele>180.8</ele>
        <time>2022-05-03T07:18:10Z</time>
      </trkpt>
      <trkpt lat="48.77972" lon="2.16649">
        <ele>181.1</ele>
        <time>2022-05-03T07:18:17Z</time>
      </trkpt>
      <trkpt lat="48.77971" lon="2.16638">
        <ele>181.3</ele>
        <time>2022-05-03T07:18:24Z</time>
      </trkpt>
      <trkpt lat="48.77974" lon="2.16628">
        <ele>181.6</ele>
        <time>2022-05-03T07:18:30Z</time>
      </trkpt>
      <trkpt lat="48.77979" lon="2.16615">
        <ele>182</ele>
        <time>2022-05-03T07:18:35Z</time>
      </trkpt>
      <trkpt lat="48.77975" lon="2.16601">
        <ele>182.3</ele>
        <time>2022-05-03T07:18:40Z</time>
      </trkpt>
      <trkpt lat="48.77969" lon="2.16589">
        <ele>182.5</ele>
        <time>2022-05-03T07:18:45Z</time>
      </trkpt>
      <trkpt lat="48.77964" lon="2.16584">
        <ele>182.6</ele>
        <time>2022-05-03T07:18:53Z</time>
      </trkpt>
      <trkpt lat="48.7796" lon="2.16573">
        <ele>182.5</ele>
        <time>2022-05-03T07:18:58Z</time>
      </trkpt>
      <trkpt lat="48.77956" lon="2.16566">
        <ele>182.4</ele>
        <time>2022-05-03T07:19:03Z</time>
      </trkpt>
      <trkpt lat="48.77948" lon="2.16557">
        <ele>182.3</ele>
        <time>2022-05-03T07:19:08Z</time>
      </trkpt>
      <trkpt lat="48.77941" lon="2.16552">
        <ele>182.3</ele>
        <time>2022-05-03T07:19:13Z</time>
      </trkpt>
      <trkpt lat="48.77936" lon="2.16545">
        <ele>182.4</ele>
        <time>2022-05-03T07:19:19Z</time>
      </trkpt>
      <trkpt lat="48.77936" lon="2.16535">
        <ele>182.4</ele>
        <time>2022-05-03T07:19:27Z</time>
      </trkpt>
      <trkpt lat="48.7794" lon="2.16528">
        <ele>182.4</ele>
        <time>2022-05-03T07:19:33Z</time>
      </trkpt>
      <trkpt lat="48.7794" lon="2.16516">
        <ele>182.4</ele>
        <time>2022-05-03T07:19:43Z</time>
      </trkpt>
      <trkpt lat="48.77938" lon="2.16502">
        <ele>182.5</ele>
        <time>2022-05-03T07:19:48Z</time>
      </trkpt>
      <trkpt lat="48.77935" lon="2.1649">
        <ele>182.6</ele>
        <time>2022-05-03T07:19:53Z</time>
      </trkpt>
      <trkpt lat="48.77933" lon="2.16478">
        <ele>182.8</ele>
        <time>2022-05-03T07:19:58Z</time>
      </trkpt>
      <trkpt lat="48.77929" lon="2.16468">
        <ele>182.9</ele>
        <time>2022-05-03T07:20:07Z</time>
      </trkpt>
      <trkpt lat="48.77923" lon="2.16464">
        <ele>182.9</ele>
        <time>2022-05-03T07:20:15Z</time>
      </trkpt>
      <trkpt lat="48.77916" lon="2.16462">
        <ele>183</ele>
        <time>2022-05-03T07:20:21Z</time>
      </trkpt>
      <trkpt lat="48.77909" lon="2.16461">
        <ele>183</ele>
        <time>2022-05-03T07:20:28Z</time>
      </trkpt>
      <trkpt lat="48.77899" lon="2.16457">
        <ele>183</ele>
        <time>2022-05-03T07:20:33Z</time>
      </trkpt>
      <trkpt lat="48.77891" lon="2.16454">
        <ele>183</ele>
        <time>2022-05-03T07:20:38Z</time>
      </trkpt>
      <trkpt lat="48.7788" lon="2.16453">
        <ele>183</ele>
        <time>2022-05-03T07:20:43Z</time>
      </trkpt>
      <trkpt lat="48.77876" lon="2.16443">
        <ele>183</ele>
        <time>2022-05-03T07:20:48Z</time>
      </trkpt>
      <trkpt lat="48.7788" lon="2.16431">
        <ele>183</ele>
        <time>2022-05-03T07:20:53Z</time>
      </trkpt>
      <trkpt lat="48.77885" lon="2.16423">
        <ele>183</ele>
        <time>2022-05-03T07:20:59Z</time>
      </trkpt>
      <trkpt lat="48.77881" lon="2.1641">
        <ele>183.1</ele>
        <time>2022-05-03T07:21:04Z</time>
      </trkpt>
      <trkpt lat="48.77881" lon="2.16396">
        <ele>183.4</ele>
        <time>2022-05-03T07:21:09Z</time>
      </trkpt>
      <trkpt lat="48.77886" lon="2.16386">
        <ele>183.5</ele>
        <time>2022-05-03T07:21:14Z</time>
      </trkpt>
      <trkpt lat="48.7789" lon="2.16375">
        <ele>183.7</ele>
        <time>2022-05-03T07:21:19Z</time>
      </trkpt>
      <trkpt lat="48.77892" lon="2.16364">
        <ele>183.8</ele>
        <time>2022-05-03T07:21:24Z</time>
      </trkpt>
      <trkpt lat="48.77893" lon="2.1635">
        <ele>184</ele>
        <time>2022-05-03T07:21:29Z</time>
      </trkpt>
      <trkpt lat="48.77898" lon="2.16343">
        <ele>184.1</ele>
        <time>2022-05-03T07:21:38Z</time>
      </trkpt>
      <trkpt lat="48.77904" lon="2.16341">
        <ele>184</ele>
        <time>2022-05-03T07:21:45Z</time>
      </trkpt>
      <trkpt lat="48.7791" lon="2.16334">
        <ele>184.1</ele>
        <time>2022-05-03T07:21:52Z</time>
      </trkpt>
      <trkpt lat="48.77915" lon="2.16326">
        <ele>184.2</ele>
        <time>2022-05-03T07:21:59Z</time>
      </trkpt>
      <trkpt lat="48.77908" lon="2.16331">
        <ele>184.2</ele>
        <time>2022-05-03T07:22:31Z</time>
      </trkpt>
      <trkpt lat="48.77914" lon="2.16323">
        <ele>184.3</ele>
        <time>2022-05-03T07:24:23Z</time>
      </trkpt>
      <trkpt lat="48.77916" lon="2.16333">
        <ele>184</ele>
        <time>2022-05-03T07:24:31Z</time>
      </trkpt>
      <trkpt lat="48.77912" lon="2.16341">
        <ele>184</ele>
        <time>2022-05-03T07:24:38Z</time>
      </trkpt>
      <trkpt lat="48.77906" lon="2.16346">
        <ele>184</ele>
        <time>2022-05-03T07:24:45Z</time>
      </trkpt>
      <trkpt lat="48.779" lon="2.1634">
        <ele>184.1</ele>
        <time>2022-05-03T07:24:56Z</time>
      </trkpt>
      <trkpt lat="48.77897" lon="2.1633">
        <ele>184.3</ele>
        <time>2022-05-03T07:25:01Z</time>
      </trkpt>
      <trkpt lat="48.779" lon="2.16321">
        <ele>184.4</ele>
        <time>2022-05-03T07:25:06Z</time>
      </trkpt>
      <trkpt lat="48.779" lon="2.16309">
        <ele>184.6</ele>
        <time>2022-05-03T07:25:11Z</time>
      </trkpt>
      <trkpt lat="48.77902" lon="2.16297">
        <ele>184.8</ele>
        <time>2022-05-03T07:25:16Z</time>
      </trkpt>
      <trkpt lat="48.77905" lon="2.16286">
        <ele>185</ele>
        <time>2022-05-03T07:25:21Z</time>
      </trkpt>
      <trkpt lat="48.77907" lon="2.16276">
        <ele>185.3</ele>
        <time>2022-05-03T07:25:27Z</time>
      </trkpt>
      <trkpt lat="48.77904" lon="2.16286">
        <ele>185</ele>
        <time>2022-05-03T07:25:42Z</time>
      </trkpt>
      <trkpt lat="48.77901" lon="2.16295">
        <ele>184.8</ele>
        <time>2022-05-03T07:25:48Z</time>
      </trkpt>
      <trkpt lat="48.77898" lon="2.16304">
        <ele>184.7</ele>
        <time>2022-05-03T07:25:53Z</time>
      </trkpt>
      <trkpt lat="48.77891" lon="2.16316">
        <ele>184.5</ele>
        <time>2022-05-03T07:26:19Z</time>
      </trkpt>
      <trkpt lat="48.77892" lon="2.16305">
        <ele>184.7</ele>
        <time>2022-05-03T07:26:46Z</time>
      </trkpt>
      <trkpt lat="48.77897" lon="2.16293">
        <ele>184.9</ele>
        <time>2022-05-03T07:26:51Z</time>
      </trkpt>
      <trkpt lat="48.77903" lon="2.16294">
        <ele>184.9</ele>
        <time>2022-05-03T07:26:57Z</time>
      </trkpt>
      <trkpt lat="48.77907" lon="2.16285">
        <ele>185.1</ele>
        <time>2022-05-03T07:27:04Z</time>
      </trkpt>
      <trkpt lat="48.77905" lon="2.16271">
        <ele>185.3</ele>
        <time>2022-05-03T07:27:09Z</time>
      </trkpt>
      <trkpt lat="48.77907" lon="2.16262">
        <ele>185.5</ele>
        <time>2022-05-03T07:27:14Z</time>
      </trkpt>
      <trkpt lat="48.77909" lon="2.1625">
        <ele>185.8</ele>
        <time>2022-05-03T07:27:20Z</time>
      </trkpt>
      <trkpt lat="48.77911" lon="2.16236">
        <ele>185.6</ele>
        <time>2022-05-03T07:27:25Z</time>
      </trkpt>
      <trkpt lat="48.77913" lon="2.16226">
        <ele>185.4</ele>
        <time>2022-05-03T07:27:32Z</time>
      </trkpt>
      <trkpt lat="48.77911" lon="2.16216">
        <ele>185.1</ele>
        <time>2022-05-03T07:27:40Z</time>
      </trkpt>
      <trkpt lat="48.77913" lon="2.16205">
        <ele>184.9</ele>
        <time>2022-05-03T07:27:45Z</time>
      </trkpt>
      <trkpt lat="48.77916" lon="2.16192">
        <ele>184.6</ele>
        <time>2022-05-03T07:27:50Z</time>
      </trkpt>
      <trkpt lat="48.77917" lon="2.1618">
        <ele>184.3</ele>
        <time>2022-05-03T07:27:55Z</time>
      </trkpt>
      <trkpt lat="48.77916" lon="2.16169">
        <ele>184.1</ele>
        <time>2022-05-03T07:28:00Z</time>
      </trkpt>
      <trkpt lat="48.7792" lon="2.16158">
        <ele>183.9</ele>
        <time>2022-05-03T07:28:05Z</time>
      </trkpt>
      <trkpt lat="48.77922" lon="2.16148">
        <ele>183.9</ele>
        <time>2022-05-03T07:28:10Z</time>
      </trkpt>
      <trkpt lat="48.77921" lon="2.16137">
        <ele>183.9</ele>
        <time>2022-05-03T07:28:23Z</time>
      </trkpt>
      <trkpt lat="48.77923" lon="2.16126">
        <ele>183.8</ele>
        <time>2022-05-03T07:28:29Z</time>
      </trkpt>
      <trkpt lat="48.7792" lon="2.16116">
        <ele>183.9</ele>
        <time>2022-05-03T07:28:40Z</time>
      </trkpt>
      <trkpt lat="48.77913" lon="2.16109">
        <ele>184</ele>
        <time>2022-05-03T07:29:09Z</time>
      </trkpt>
      <trkpt lat="48.77919" lon="2.16114">
        <ele>183.9</ele>
        <time>2022-05-03T07:29:20Z</time>
      </trkpt>
      <trkpt lat="48.77926" lon="2.1611">
        <ele>183.8</ele>
        <time>2022-05-03T07:29:25Z</time>
      </trkpt>
      <trkpt lat="48.77934" lon="2.16102">
        <ele>183.6</ele>
        <time>2022-05-03T07:29:30Z</time>
      </trkpt>
      <trkpt lat="48.77935" lon="2.16092">
        <ele>183.6</ele>
        <time>2022-05-03T07:29:35Z</time>
      </trkpt>
      <trkpt lat="48.77938" lon="2.16081">
        <ele>183.4</ele>
        <time>2022-05-03T07:29:41Z</time>
      </trkpt>
      <trkpt lat="48.7794" lon="2.16071">
        <ele>183</ele>
        <time>2022-05-03T07:29:46Z</time>
      </trkpt>
      <trkpt lat="48.77941" lon="2.1606">
        <ele>182.6</ele>
        <time>2022-05-03T07:29:51Z</time>
      </trkpt>
      <trkpt lat="48.77943" lon="2.16044">
        <ele>182</ele>
        <time>2022-05-03T07:29:56Z</time>
      </trkpt>
      <trkpt lat="48.77946" lon="2.16031">
        <ele>181.4</ele>
        <time>2022-05-03T07:30:01Z</time>
      </trkpt>
      <trkpt lat="48.77947" lon="2.16018">
        <ele>180.9</ele>
        <time>2022-05-03T07:30:06Z</time>
      </trkpt>
      <trkpt lat="48.77951" lon="2.16007">
        <ele>180.4</ele>
        <time>2022-05-03T07:30:12Z</time>
      </trkpt>
      <trkpt lat="48.77954" lon="2.15997">
        <ele>179.9</ele>
        <time>2022-05-03T07:30:17Z</time>
      </trkpt>
      <trkpt lat="48.77956" lon="2.15986">
        <ele>179</ele>
        <time>2022-05-03T07:30:23Z</time>
      </trkpt>
      <trkpt lat="48.77957" lon="2.15976">
        <ele>178.2</ele>
        <time>2022-05-03T07:30:28Z</time>
      </trkpt>
      <trkpt lat="48.77958" lon="2.15965">
        <ele>177.3</ele>
        <time>2022-05-03T07:30:36Z</time>
      </trkpt>
      <trkpt lat="48.7796" lon="2.15953">
        <ele>176.3</ele>
        <time>2022-05-03T07:30:42Z</time>
      </trkpt>
      <trkpt lat="48.77961" lon="2.15942">
        <ele>175.3</ele>
        <time>2022-05-03T07:30:47Z</time>
      </trkpt>
      <trkpt lat="48.77958" lon="2.15932">
        <ele>174.7</ele>
        <time>2022-05-03T07:30:56Z</time>
      </trkpt>
      <trkpt lat="48.7796" lon="2.15922">
        <ele>173.8</ele>
        <time>2022-05-03T07:31:03Z</time>
      </trkpt>
      <trkpt lat="48.77967" lon="2.15916">
        <ele>172.9</ele>
        <time>2022-05-03T07:31:09Z</time>
      </trkpt>
      <trkpt lat="48.77973" lon="2.15912">
        <ele>172.2</ele>
        <time>2022-05-03T07:31:14Z</time>
      </trkpt>
      <trkpt lat="48.77983" lon="2.15899">
        <ele>170.4</ele>
        <time>2022-05-03T07:31:19Z</time>
      </trkpt>
      <trkpt lat="48.77988" lon="2.15885">
        <ele>168.7</ele>
        <time>2022-05-03T07:31:24Z</time>
      </trkpt>
      <trkpt lat="48.77991" lon="2.15876">
        <ele>167.7</ele>
        <time>2022-05-03T07:31:32Z</time>
      </trkpt>
      <trkpt lat="48.77988" lon="2.15867">
        <ele>167</ele>
        <time>2022-05-03T07:31:42Z</time>
      </trkpt>
      <trkpt lat="48.77981" lon="2.15862">
        <ele>167</ele>
        <time>2022-05-03T07:31:48Z</time>
      </trkpt>
      <trkpt lat="48.77988" lon="2.1586">
        <ele>166.4</ele>
        <time>2022-05-03T07:31:57Z</time>
      </trkpt>
      <trkpt lat="48.77994" lon="2.15856">
        <ele>165.6</ele>
        <time>2022-05-03T07:32:03Z</time>
      </trkpt>
      <trkpt lat="48.77997" lon="2.15846">
        <ele>164.4</ele>
        <time>2022-05-03T07:32:23Z</time>
      </trkpt>
      <trkpt lat="48.78001" lon="2.15838">
        <ele>163.4</ele>
        <time>2022-05-03T07:32:29Z</time>
      </trkpt>
      <trkpt lat="48.78006" lon="2.1583">
        <ele>162.7</ele>
        <time>2022-05-03T07:32:36Z</time>
      </trkpt>
      <trkpt lat="48.78001" lon="2.15822">
        <ele>162</ele>
        <time>2022-05-03T07:32:51Z</time>
      </trkpt>
      <trkpt lat="48.78" lon="2.1581">
        <ele>161</ele>
        <time>2022-05-03T07:32:59Z</time>
      </trkpt>
      <trkpt lat="48.78004" lon="2.15801">
        <ele>160.3</ele>
        <time>2022-05-03T07:33:05Z</time>
      </trkpt>
      <trkpt lat="48.78005" lon="2.15789">
        <ele>159.2</ele>
        <time>2022-05-03T07:33:10Z</time>
      </trkpt>
      <trkpt lat="48.77995" lon="2.15783">
        <ele>159.3</ele>
        <time>2022-05-03T07:33:15Z</time>
      </trkpt>
      <trkpt lat="48.77985" lon="2.15773">
        <ele>159.5</ele>
        <time>2022-05-03T07:33:20Z</time>
      </trkpt>
      <trkpt lat="48.77982" lon="2.15762">
        <ele>159</ele>
        <time>2022-05-03T07:33:25Z</time>
      </trkpt>
      <trkpt lat="48.77977" lon="2.15755">
        <ele>159.1</ele>
        <time>2022-05-03T07:33:33Z</time>
      </trkpt>
      <trkpt lat="48.77978" lon="2.15745">
        <ele>158.4</ele>
        <time>2022-05-03T07:33:49Z</time>
      </trkpt>
      <trkpt lat="48.77974" lon="2.15736">
        <ele>158.4</ele>
        <time>2022-05-03T07:33:59Z</time>
      </trkpt>
      <trkpt lat="48.77968" lon="2.15738">
        <ele>159.2</ele>
        <time>2022-05-03T07:34:09Z</time>
      </trkpt>
      <trkpt lat="48.77962" lon="2.15734">
        <ele>159.8</ele>
        <time>2022-05-03T07:34:15Z</time>
      </trkpt>
      <trkpt lat="48.77956" lon="2.15728">
        <ele>160.2</ele>
        <time>2022-05-03T07:34:21Z</time>
      </trkpt>
      <trkpt lat="48.7795" lon="2.15718">
        <ele>160.5</ele>
        <time>2022-05-03T07:34:27Z</time>
      </trkpt>
      <trkpt lat="48.77943" lon="2.15707">
        <ele>161</ele>
        <time>2022-05-03T07:34:32Z</time>
      </trkpt>
      <trkpt lat="48.77938" lon="2.15698">
        <ele>161.2</ele>
        <time>2022-05-03T07:34:37Z</time>
      </trkpt>
      <trkpt lat="48.77934" lon="2.15688">
        <ele>161.4</ele>
        <time>2022-05-03T07:34:42Z</time>
      </trkpt>
      <trkpt lat="48.77927" lon="2.15677">
        <ele>161.9</ele>
        <time>2022-05-03T07:34:47Z</time>
      </trkpt>
      <trkpt lat="48.77922" lon="2.1567">
        <ele>162.4</ele>
        <time>2022-05-03T07:34:53Z</time>
      </trkpt>
      <trkpt lat="48.77917" lon="2.15661">
        <ele>162.5</ele>
        <time>2022-05-03T07:35:00Z</time>
      </trkpt>
      <trkpt lat="48.77911" lon="2.15655">
        <ele>162.4</ele>
        <time>2022-05-03T07:35:05Z</time>
      </trkpt>
      <trkpt lat="48.77905" lon="2.15649">
        <ele>162.2</ele>
        <time>2022-05-03T07:35:11Z</time>
      </trkpt>
      <trkpt lat="48.77898" lon="2.15648">
        <ele>162.5</ele>
        <time>2022-05-03T07:35:16Z</time>
      </trkpt>
      <trkpt lat="48.77891" lon="2.15646">
        <ele>162.6</ele>
        <time>2022-05-03T07:35:22Z</time>
      </trkpt>
      <trkpt lat="48.77885" lon="2.15643">
        <ele>162.6</ele>
        <time>2022-05-03T07:35:27Z</time>
      </trkpt>
      <trkpt lat="48.77878" lon="2.15644">
        <ele>163</ele>
        <time>2022-05-03T07:35:33Z</time>
      </trkpt>
      <trkpt lat="48.77871" lon="2.15647">
        <ele>163.5</ele>
        <time>2022-05-03T07:35:39Z</time>
      </trkpt>
      <trkpt lat="48.77864" lon="2.15646">
        <ele>163.7</ele>
        <time>2022-05-03T07:35:46Z</time>
      </trkpt>
      <trkpt lat="48.77857" lon="2.15648">
        <ele>164.2</ele>
        <time>2022-05-03T07:35:53Z</time>
      </trkpt>
      <trkpt lat="48.77849" lon="2.15649">
        <ele>164.6</ele>
        <time>2022-05-03T07:36:02Z</time>
      </trkpt>
      <trkpt lat="48.77841" lon="2.15647">
        <ele>164.8</ele>
        <time>2022-05-03T07:36:07Z</time>
      </trkpt>
      <trkpt lat="48.77834" lon="2.15645">
        <ele>164.9</ele>
        <time>2022-05-03T07:36:13Z</time>
      </trkpt>
      <trkpt lat="48.77827" lon="2.15643">
        <ele>165</ele>
        <time>2022-05-03T07:36:21Z</time>
      </trkpt>
      <trkpt lat="48.7782" lon="2.15641">
        <ele>165</ele>
        <time>2022-05-03T07:36:30Z</time>
      </trkpt>
      <trkpt lat="48.77813" lon="2.15644">
        <ele>165.6</ele>
        <time>2022-05-03T07:36:40Z</time>
      </trkpt>
      <trkpt lat="48.77809" lon="2.15653">
        <ele>166.6</ele>
        <time>2022-05-03T07:36:48Z</time>
      </trkpt>
      <trkpt lat="48.77803" lon="2.1566">
        <ele>167.5</ele>
        <time>2022-05-03T07:36:53Z</time>
      </trkpt>
      <trkpt lat="48.77798" lon="2.15666">
        <ele>168.2</ele>
        <time>2022-05-03T07:36:59Z</time>
      </trkpt>
      <trkpt lat="48.77791" lon="2.15672">
        <ele>168.8</ele>
        <time>2022-05-03T07:37:06Z</time>
      </trkpt>
      <trkpt lat="48.77785" lon="2.15678">
        <ele>169.4</ele>
        <time>2022-05-03T07:37:12Z</time>
      </trkpt>
      <trkpt lat="48.7778" lon="2.15686">
        <ele>170.1</ele>
        <time>2022-05-03T07:37:19Z</time>
      </trkpt>
      <trkpt lat="48.77772" lon="2.15685">
        <ele>170.3</ele>
        <time>2022-05-03T07:37:26Z</time>
      </trkpt>
      <trkpt lat="48.77765" lon="2.1568">
        <ele>170.3</ele>
        <time>2022-05-03T07:37:31Z</time>
      </trkpt>
      <trkpt lat="48.7776" lon="2.15673">
        <ele>170</ele>
        <time>2022-05-03T07:37:37Z</time>
      </trkpt>
      <trkpt lat="48.77755" lon="2.15665">
        <ele>169.7</ele>
        <time>2022-05-03T07:37:42Z</time>
      </trkpt>
      <trkpt lat="48.7775" lon="2.15659">
        <ele>169.3</ele>
        <time>2022-05-03T07:37:47Z</time>
      </trkpt>
      <trkpt lat="48.77742" lon="2.15657">
        <ele>169.5</ele>
        <time>2022-05-03T07:37:52Z</time>
      </trkpt>
      <trkpt lat="48.77734" lon="2.15654">
        <ele>169.6</ele>
        <time>2022-05-03T07:37:57Z</time>
      </trkpt>
      <trkpt lat="48.77725" lon="2.15652">
        <ele>169.9</ele>
        <time>2022-05-03T07:38:02Z</time>
      </trkpt>
      <trkpt lat="48.77718" lon="2.1565">
        <ele>170.1</ele>
        <time>2022-05-03T07:38:07Z</time>
      </trkpt>
      <trkpt lat="48.77711" lon="2.15644">
        <ele>170</ele>
        <time>2022-05-03T07:38:12Z</time>
      </trkpt>
      <trkpt lat="48.77704" lon="2.15634">
        <ele>169.5</ele>
        <time>2022-05-03T07:38:17Z</time>
      </trkpt>
      <trkpt lat="48.77697" lon="2.15631">
        <ele>169.7</ele>
        <time>2022-05-03T07:38:24Z</time>
      </trkpt>
      <trkpt lat="48.7769" lon="2.15625">
        <ele>169.6</ele>
        <time>2022-05-03T07:38:30Z</time>
      </trkpt>
      <trkpt lat="48.77684" lon="2.15621">
        <ele>169.7</ele>
        <time>2022-05-03T07:38:35Z</time>
      </trkpt>
      <trkpt lat="48.77676" lon="2.15613">
        <ele>169.5</ele>
        <time>2022-05-03T07:38:40Z</time>
      </trkpt>
      <trkpt lat="48.77668" lon="2.15608">
        <ele>169.7</ele>
        <time>2022-05-03T07:38:45Z</time>
      </trkpt>
      <trkpt lat="48.7766" lon="2.15604">
        <ele>169.7</ele>
        <time>2022-05-03T07:38:51Z</time>
      </trkpt>
      <trkpt lat="48.77654" lon="2.156">
        <ele>169.6</ele>
        <time>2022-05-03T07:38:56Z</time>
      </trkpt>
      <trkpt lat="48.77649" lon="2.15593">
        <ele>169.3</ele>
        <time>2022-05-03T07:39:01Z</time>
      </trkpt>
      <trkpt lat="48.77642" lon="2.15593">
        <ele>169.5</ele>
        <time>2022-05-03T07:39:12Z</time>
      </trkpt>
      <trkpt lat="48.77635" lon="2.15592">
        <ele>169.6</ele>
        <time>2022-05-03T07:39:20Z</time>
      </trkpt>
      <trkpt lat="48.77626" lon="2.15585">
        <ele>169.6</ele>
        <time>2022-05-03T07:39:42Z</time>
      </trkpt>
      <trkpt lat="48.77618" lon="2.15581">
        <ele>169.5</ele>
        <time>2022-05-03T07:39:47Z</time>
      </trkpt>
      <trkpt lat="48.77612" lon="2.15578">
        <ele>169.5</ele>
        <time>2022-05-03T07:39:53Z</time>
      </trkpt>
      <trkpt lat="48.77605" lon="2.15573">
        <ele>169.3</ele>
        <time>2022-05-03T07:39:59Z</time>
      </trkpt>
      <trkpt lat="48.77599" lon="2.15568">
        <ele>169</ele>
        <time>2022-05-03T07:40:04Z</time>
      </trkpt>
      <trkpt lat="48.77591" lon="2.15563">
        <ele>168.8</ele>
        <time>2022-05-03T07:40:09Z</time>
      </trkpt>
      <trkpt lat="48.77585" lon="2.15555">
        <ele>168.2</ele>
        <time>2022-05-03T07:40:15Z</time>
      </trkpt>
      <trkpt lat="48.77578" lon="2.15549">
        <ele>168</ele>
        <time>2022-05-03T07:40:20Z</time>
      </trkpt>
      <trkpt lat="48.77568" lon="2.15547">
        <ele>168.5</ele>
        <time>2022-05-03T07:40:25Z</time>
      </trkpt>
      <trkpt lat="48.7756" lon="2.15548">
        <ele>169</ele>
        <time>2022-05-03T07:40:30Z</time>
      </trkpt>
      <trkpt lat="48.77552" lon="2.15549">
        <ele>169.6</ele>
        <time>2022-05-03T07:40:35Z</time>
      </trkpt>
      <trkpt lat="48.77546" lon="2.15551">
        <ele>170.1</ele>
        <time>2022-05-03T07:40:42Z</time>
      </trkpt>
      <trkpt lat="48.77539" lon="2.15554">
        <ele>170.7</ele>
        <time>2022-05-03T07:40:53Z</time>
      </trkpt>
      <trkpt lat="48.77532" lon="2.15555">
        <ele>171.2</ele>
        <time>2022-05-03T07:41:00Z</time>
      </trkpt>
      <trkpt lat="48.77525" lon="2.15558">
        <ele>171.7</ele>
        <time>2022-05-03T07:41:08Z</time>
      </trkpt>
      <trkpt lat="48.77518" lon="2.15559">
        <ele>172.2</ele>
        <time>2022-05-03T07:41:15Z</time>
      </trkpt>
      <trkpt lat="48.77509" lon="2.15561">
        <ele>172.7</ele>
        <time>2022-05-03T07:41:20Z</time>
      </trkpt>
      <trkpt lat="48.77498" lon="2.15562">
        <ele>173.2</ele>
        <time>2022-05-03T07:41:25Z</time>
      </trkpt>
      <trkpt lat="48.77488" lon="2.1556">
        <ele>173</ele>
        <time>2022-05-03T07:41:30Z</time>
      </trkpt>
      <trkpt lat="48.77481" lon="2.15558">
        <ele>172.8</ele>
        <time>2022-05-03T07:41:35Z</time>
      </trkpt>
      <trkpt lat="48.77474" lon="2.15556">
        <ele>172.6</ele>
        <time>2022-05-03T07:41:40Z</time>
      </trkpt>
      <trkpt lat="48.77466" lon="2.15553">
        <ele>172.4</ele>
        <time>2022-05-03T07:41:45Z</time>
      </trkpt>
      <trkpt lat="48.77461" lon="2.15547">
        <ele>172.2</ele>
        <time>2022-05-03T07:41:52Z</time>
      </trkpt>
      <trkpt lat="48.77459" lon="2.15538">
        <ele>171.9</ele>
        <time>2022-05-03T07:41:59Z</time>
      </trkpt>
      <trkpt lat="48.77457" lon="2.15528">
        <ele>171.7</ele>
        <time>2022-05-03T07:42:09Z</time>
      </trkpt>
      <trkpt lat="48.77454" lon="2.15517">
        <ele>171.4</ele>
        <time>2022-05-03T07:42:14Z</time>
      </trkpt>
      <trkpt lat="48.77446" lon="2.15505">
        <ele>171.1</ele>
        <time>2022-05-03T07:42:19Z</time>
      </trkpt>
      <trkpt lat="48.77441" lon="2.15493">
        <ele>170.7</ele>
        <time>2022-05-03T07:42:24Z</time>
      </trkpt>
      <trkpt lat="48.77437" lon="2.15484">
        <ele>170.4</ele>
        <time>2022-05-03T07:42:29Z</time>
      </trkpt>
      <trkpt lat="48.77432" lon="2.1547">
        <ele>170</ele>
        <time>2022-05-03T07:42:34Z</time>
      </trkpt>
      <trkpt lat="48.77425" lon="2.15461">
        <ele>169.9</ele>
        <time>2022-05-03T07:42:39Z</time>
      </trkpt>
      <trkpt lat="48.77421" lon="2.1545">
        <ele>169.7</ele>
        <time>2022-05-03T07:42:44Z</time>
      </trkpt>
      <trkpt lat="48.77417" lon="2.1544">
        <ele>169.5</ele>
        <time>2022-05-03T07:42:49Z</time>
      </trkpt>
      <trkpt lat="48.77412" lon="2.15431">
        <ele>169.2</ele>
        <time>2022-05-03T07:42:54Z</time>
      </trkpt>
      <trkpt lat="48.77406" lon="2.15426">
        <ele>168.9</ele>
        <time>2022-05-03T07:42:59Z</time>
      </trkpt>
      <trkpt lat="48.77401" lon="2.15419">
        <ele>168.5</ele>
        <time>2022-05-03T07:43:04Z</time>
      </trkpt>
      <trkpt lat="48.77395" lon="2.15412">
        <ele>168</ele>
        <time>2022-05-03T07:43:09Z</time>
      </trkpt>
      <trkpt lat="48.7739" lon="2.15401">
        <ele>167.5</ele>
        <time>2022-05-03T07:43:16Z</time>
      </trkpt>
      <trkpt lat="48.77382" lon="2.15395">
        <ele>167</ele>
        <time>2022-05-03T07:43:21Z</time>
      </trkpt>
      <trkpt lat="48.77376" lon="2.15385">
        <ele>166.6</ele>
        <time>2022-05-03T07:43:26Z</time>
      </trkpt>
      <trkpt lat="48.7737" lon="2.15375">
        <ele>166.2</ele>
        <time>2022-05-03T07:43:31Z</time>
      </trkpt>
      <trkpt lat="48.77364" lon="2.15364">
        <ele>165.8</ele>
        <time>2022-05-03T07:43:36Z</time>
      </trkpt>
      <trkpt lat="48.77357" lon="2.15356">
        <ele>165.5</ele>
        <time>2022-05-03T07:43:41Z</time>
      </trkpt>
      <trkpt lat="48.77351" lon="2.1535">
        <ele>165.3</ele>
        <time>2022-05-03T07:43:46Z</time>
      </trkpt>
      <trkpt lat="48.77345" lon="2.15339">
        <ele>165.1</ele>
        <time>2022-05-03T07:43:51Z</time>
      </trkpt>
      <trkpt lat="48.77337" lon="2.15331">
        <ele>164.9</ele>
        <time>2022-05-03T07:43:56Z</time>
      </trkpt>
      <trkpt lat="48.7733" lon="2.15324">
        <ele>164.7</ele>
        <time>2022-05-03T07:44:01Z</time>
      </trkpt>
      <trkpt lat="48.77323" lon="2.15324">
        <ele>164.4</ele>
        <time>2022-05-03T07:44:09Z</time>
      </trkpt>
      <trkpt lat="48.77316" lon="2.15322">
        <ele>164.1</ele>
        <time>2022-05-03T07:44:16Z</time>
      </trkpt>
      <trkpt lat="48.77309" lon="2.15315">
        <ele>163.7</ele>
        <time>2022-05-03T07:44:21Z</time>
      </trkpt>
      <trkpt lat="48.77302" lon="2.15307">
        <ele>163.2</ele>
        <time>2022-05-03T07:44:26Z</time>
      </trkpt>
      <trkpt lat="48.77297" lon="2.153">
        <ele>162.9</ele>
        <time>2022-05-03T07:44:31Z</time>
      </trkpt>
      <trkpt lat="48.77295" lon="2.15288">
        <ele>162.5</ele>
        <time>2022-05-03T07:44:37Z</time>
      </trkpt>
      <trkpt lat="48.7729" lon="2.15278">
        <ele>162.1</ele>
        <time>2022-05-03T07:44:42Z</time>
      </trkpt>
      <trkpt lat="48.77285" lon="2.15268">
        <ele>161.7</ele>
        <time>2022-05-03T07:44:47Z</time>
      </trkpt>
      <trkpt lat="48.7728" lon="2.1526">
        <ele>161.3</ele>
        <time>2022-05-03T07:44:52Z</time>
      </trkpt>
      <trkpt lat="48.77272" lon="2.15252">
        <ele>160.8</ele>
        <time>2022-05-03T07:44:57Z</time>
      </trkpt>
      <trkpt lat="48.77265" lon="2.15244">
        <ele>160.5</ele>
        <time>2022-05-03T07:45:02Z</time>
      </trkpt>
      <trkpt lat="48.77261" lon="2.15235">
        <ele>160.3</ele>
        <time>2022-05-03T07:45:08Z</time>
      </trkpt>
      <trkpt lat="48.77257" lon="2.15227">
        <ele>160.1</ele>
        <time>2022-05-03T07:45:14Z</time>
      </trkpt>
      <trkpt lat="48.77252" lon="2.15214">
        <ele>160</ele>
        <time>2022-05-03T07:45:19Z</time>
      </trkpt>
      <trkpt lat="48.77249" lon="2.15203">
        <ele>160</ele>
        <time>2022-05-03T07:45:24Z</time>
      </trkpt>
      <trkpt lat="48.77242" lon="2.15188">
        <ele>159.9</ele>
        <time>2022-05-03T07:45:29Z</time>
      </trkpt>
      <trkpt lat="48.77233" lon="2.15174">
        <ele>159.8</ele>
        <time>2022-05-03T07:45:34Z</time>
      </trkpt>
      <trkpt lat="48.77232" lon="2.15164">
        <ele>159.7</ele>
        <time>2022-05-03T07:45:39Z</time>
      </trkpt>
      <trkpt lat="48.77229" lon="2.15149">
        <ele>159.4</ele>
        <time>2022-05-03T07:45:44Z</time>
      </trkpt>
      <trkpt lat="48.77225" lon="2.15138">
        <ele>159.1</ele>
        <time>2022-05-03T07:45:49Z</time>
      </trkpt>
      <trkpt lat="48.77219" lon="2.15123">
        <ele>158.7</ele>
        <time>2022-05-03T07:45:54Z</time>
      </trkpt>
      <trkpt lat="48.77217" lon="2.15112">
        <ele>158.4</ele>
        <time>2022-05-03T07:45:59Z</time>
      </trkpt>
      <trkpt lat="48.77214" lon="2.15102">
        <ele>158.1</ele>
        <time>2022-05-03T07:46:04Z</time>
      </trkpt>
      <trkpt lat="48.77209" lon="2.15093">
        <ele>157.8</ele>
        <time>2022-05-03T07:46:11Z</time>
      </trkpt>
      <trkpt lat="48.77203" lon="2.15091">
        <ele>157.5</ele>
        <time>2022-05-03T07:46:16Z</time>
      </trkpt>
      <trkpt lat="48.77196" lon="2.1509">
        <ele>157.2</ele>
        <time>2022-05-03T07:46:22Z</time>
      </trkpt>
      <trkpt lat="48.77189" lon="2.15089">
        <ele>157</ele>
        <time>2022-05-03T07:46:27Z</time>
      </trkpt>
      <trkpt lat="48.77181" lon="2.15089">
        <ele>156.7</ele>
        <time>2022-05-03T07:46:32Z</time>
      </trkpt>
      <trkpt lat="48.77173" lon="2.15089">
        <ele>156.4</ele>
        <time>2022-05-03T07:46:37Z</time>
      </trkpt>
      <trkpt lat="48.77165" lon="2.15086">
        <ele>155.7</ele>
        <time>2022-05-03T07:46:42Z</time>
      </trkpt>
      <trkpt lat="48.77155" lon="2.15081">
        <ele>153</ele>
        <time>2022-05-03T07:46:47Z</time>
      </trkpt>
      <trkpt lat="48.77147" lon="2.1508">
        <ele>151</ele>
        <time>2022-05-03T07:46:52Z</time>
      </trkpt>
      <trkpt lat="48.7714" lon="2.15077">
        <ele>149.1</ele>
        <time>2022-05-03T07:46:57Z</time>
      </trkpt>
      <trkpt lat="48.77132" lon="2.15075">
        <ele>147</ele>
        <time>2022-05-03T07:47:02Z</time>
      </trkpt>
      <trkpt lat="48.77126" lon="2.15071">
        <ele>145.2</ele>
        <time>2022-05-03T07:47:10Z</time>
      </trkpt>
      <trkpt lat="48.7712" lon="2.15067">
        <ele>143.4</ele>
        <time>2022-05-03T07:47:19Z</time>
      </trkpt>
      <trkpt lat="48.77112" lon="2.15067">
        <ele>141.4</ele>
        <time>2022-05-03T07:47:25Z</time>
      </trkpt>
      <trkpt lat="48.77104" lon="2.15068">
        <ele>139.5</ele>
        <time>2022-05-03T07:47:30Z</time>
      </trkpt>
      <trkpt lat="48.77096" lon="2.15071">
        <ele>137.8</ele>
        <time>2022-05-03T07:47:35Z</time>
      </trkpt>
      <trkpt lat="48.77089" lon="2.15073">
        <ele>136.3</ele>
        <time>2022-05-03T07:47:40Z</time>
      </trkpt>
      <trkpt lat="48.77083" lon="2.15071">
        <ele>134.6</ele>
        <time>2022-05-03T07:47:45Z</time>
      </trkpt>
      <trkpt lat="48.77074" lon="2.15068">
        <ele>131.4</ele>
        <time>2022-05-03T07:47:50Z</time>
      </trkpt>
      <trkpt lat="48.77067" lon="2.15062">
        <ele>128.5</ele>
        <time>2022-05-03T07:47:55Z</time>
      </trkpt>
      <trkpt lat="48.7706" lon="2.15059">
        <ele>126</ele>
        <time>2022-05-03T07:48:00Z</time>
      </trkpt>
      <trkpt lat="48.77053" lon="2.1506">
        <ele>123.9</ele>
        <time>2022-05-03T07:48:06Z</time>
      </trkpt>
      <trkpt lat="48.77047" lon="2.1506">
        <ele>122</ele>
        <time>2022-05-03T07:48:11Z</time>
      </trkpt>
      <trkpt lat="48.77038" lon="2.15058">
        <ele>118.9</ele>
        <time>2022-05-03T07:48:16Z</time>
      </trkpt>
      <trkpt lat="48.77031" lon="2.15053">
        <ele>116.2</ele>
        <time>2022-05-03T07:48:21Z</time>
      </trkpt>
      <trkpt lat="48.77023" lon="2.15049">
        <ele>113.3</ele>
        <time>2022-05-03T07:48:26Z</time>
      </trkpt>
      <trkpt lat="48.77016" lon="2.15047">
        <ele>111</ele>
        <time>2022-05-03T07:48:32Z</time>
      </trkpt>
      <trkpt lat="48.7701" lon="2.15051">
        <ele>109.4</ele>
        <time>2022-05-03T07:48:38Z</time>
      </trkpt>
      <trkpt lat="48.77007" lon="2.15061">
        <ele>109.3</ele>
        <time>2022-05-03T07:48:44Z</time>
      </trkpt>
      <trkpt lat="48.77007" lon="2.15073">
        <ele>110.4</ele>
        <time>2022-05-03T07:48:49Z</time>
      </trkpt>
      <trkpt lat="48.77008" lon="2.15083">
        <ele>111.6</ele>
        <time>2022-05-03T07:48:55Z</time>
      </trkpt>
      <trkpt lat="48.77009" lon="2.15094">
        <ele>111.8</ele>
        <time>2022-05-03T07:49:00Z</time>
      </trkpt>
      <trkpt lat="48.7701" lon="2.15104">
        <ele>112.1</ele>
        <time>2022-05-03T07:49:07Z</time>
      </trkpt>
      <trkpt lat="48.7701" lon="2.15115">
        <ele>112</ele>
        <time>2022-05-03T07:49:12Z</time>
      </trkpt>
      <trkpt lat="48.7701" lon="2.15125">
        <ele>112</ele>
        <time>2022-05-03T07:49:17Z</time>
      </trkpt>
      <trkpt lat="48.77009" lon="2.15136">
        <ele>111.6</ele>
        <time>2022-05-03T07:49:22Z</time>
      </trkpt>
      <trkpt lat="48.77012" lon="2.15147">
        <ele>112.6</ele>
        <time>2022-05-03T07:49:28Z</time>
      </trkpt>
      <trkpt lat="48.77015" lon="2.15159">
        <ele>113.6</ele>
        <time>2022-05-03T07:49:33Z</time>
      </trkpt>
      <trkpt lat="48.77017" lon="2.15169">
        <ele>114.3</ele>
        <time>2022-05-03T07:49:49Z</time>
      </trkpt>
      <trkpt lat="48.77017" lon="2.15179">
        <ele>114.4</ele>
        <time>2022-05-03T07:49:56Z</time>
      </trkpt>
      <trkpt lat="48.77018" lon="2.15169">
        <ele>114.7</ele>
        <time>2022-05-03T07:50:15Z</time>
      </trkpt>
      <trkpt lat="48.77021" lon="2.1516">
        <ele>115.8</ele>
        <time>2022-05-03T07:50:24Z</time>
      </trkpt>
      <trkpt lat="48.77008" lon="2.15157">
        <ele>111</ele>
        <time>2022-05-03T07:50:38Z</time>
      </trkpt>
      <trkpt lat="48.77009" lon="2.15147">
        <ele>111.5</ele>
        <time>2022-05-03T07:50:46Z</time>
      </trkpt>
      <trkpt lat="48.7701" lon="2.15135">
        <ele>111.9</ele>
        <time>2022-05-03T07:50:52Z</time>
      </trkpt>
      <trkpt lat="48.7701" lon="2.15123">
        <ele>112</ele>
        <time>2022-05-03T07:50:57Z</time>
      </trkpt>
      <trkpt lat="48.77009" lon="2.15111">
        <ele>111.7</ele>
        <time>2022-05-03T07:51:02Z</time>
      </trkpt>
      <trkpt lat="48.77008" lon="2.15097">
        <ele>111.5</ele>
        <time>2022-05-03T07:51:07Z</time>
      </trkpt>
      <trkpt lat="48.77006" lon="2.15082">
        <ele>110.8</ele>
        <time>2022-05-03T07:51:12Z</time>
      </trkpt>
      <trkpt lat="48.77006" lon="2.1507">
        <ele>109.8</ele>
        <time>2022-05-03T07:51:17Z</time>
      </trkpt>
      <trkpt lat="48.77006" lon="2.15056">
        <ele>108.6</ele>
        <time>2022-05-03T07:51:22Z</time>
      </trkpt>
      <trkpt lat="48.77008" lon="2.15043">
        <ele>108.1</ele>
        <time>2022-05-03T07:51:27Z</time>
      </trkpt>
      <trkpt lat="48.77011" lon="2.15032">
        <ele>108.1</ele>
        <time>2022-05-03T07:51:32Z</time>
      </trkpt>
      <trkpt lat="48.77013" lon="2.15022">
        <ele>107.8</ele>
        <time>2022-05-03T07:51:38Z</time>
      </trkpt>
      <trkpt lat="48.77015" lon="2.1501">
        <ele>107.4</ele>
        <time>2022-05-03T07:51:44Z</time>
      </trkpt>
      <trkpt lat="48.77019" lon="2.15">
        <ele>107.7</ele>
        <time>2022-05-03T07:51:49Z</time>
      </trkpt>
      <trkpt lat="48.77022" lon="2.14989">
        <ele>107.8</ele>
        <time>2022-05-03T07:51:54Z</time>
      </trkpt>
      <trkpt lat="48.77023" lon="2.14978">
        <ele>107.2</ele>
        <time>2022-05-03T07:51:59Z</time>
      </trkpt>
      <trkpt lat="48.77026" lon="2.14966">
        <ele>107</ele>
        <time>2022-05-03T07:52:04Z</time>
      </trkpt>
      <trkpt lat="48.77029" lon="2.14958">
        <ele>107.1</ele>
        <time>2022-05-03T07:52:10Z</time>
      </trkpt>
      <trkpt lat="48.77033" lon="2.14949">
        <ele>107.3</ele>
        <time>2022-05-03T07:52:15Z</time>
      </trkpt>
      <trkpt lat="48.77039" lon="2.14944">
        <ele>108.2</ele>
        <time>2022-05-03T07:52:27Z</time>
      </trkpt>
      <trkpt lat="48.77042" lon="2.14935">
        <ele>107.9</ele>
        <time>2022-05-03T07:52:38Z</time>
      </trkpt>
      <trkpt lat="48.77041" lon="2.14923">
        <ele>106.5</ele>
        <time>2022-05-03T07:52:45Z</time>
      </trkpt>
      <trkpt lat="48.77044" lon="2.14914">
        <ele>106.2</ele>
        <time>2022-05-03T07:53:07Z</time>
      </trkpt>
      <trkpt lat="48.77048" lon="2.14905">
        <ele>106.2</ele>
        <time>2022-05-03T07:53:12Z</time>
      </trkpt>
      <trkpt lat="48.77053" lon="2.14896">
        <ele>106.2</ele>
        <time>2022-05-03T07:53:18Z</time>
      </trkpt>
      <trkpt lat="48.77059" lon="2.14888">
        <ele>106.3</ele>
        <time>2022-05-03T07:53:23Z</time>
      </trkpt>
      <trkpt lat="48.77062" lon="2.14878">
        <ele>105.6</ele>
        <time>2022-05-03T07:53:29Z</time>
      </trkpt>
      <trkpt lat="48.77067" lon="2.1487">
        <ele>105.4</ele>
        <time>2022-05-03T07:53:34Z</time>
      </trkpt>
      <trkpt lat="48.77072" lon="2.14861">
        <ele>104.8</ele>
        <time>2022-05-03T07:53:40Z</time>
      </trkpt>
      <trkpt lat="48.77076" lon="2.14852">
        <ele>104</ele>
        <time>2022-05-03T07:53:45Z</time>
      </trkpt>
      <trkpt lat="48.77085" lon="2.1484">
        <ele>103.3</ele>
        <time>2022-05-03T07:53:50Z</time>
      </trkpt>
      <trkpt lat="48.77088" lon="2.14831">
        <ele>102.9</ele>
        <time>2022-05-03T07:53:55Z</time>
      </trkpt>
      <trkpt lat="48.7709" lon="2.14821">
        <ele>103</ele>
        <time>2022-05-03T07:54:01Z</time>
      </trkpt>
      <trkpt lat="48.77096" lon="2.14816">
        <ele>103.9</ele>
        <time>2022-05-03T07:54:07Z</time>
      </trkpt>
      <trkpt lat="48.77104" lon="2.14803">
        <ele>104.7</ele>
        <time>2022-05-03T07:54:12Z</time>
      </trkpt>
      <trkpt lat="48.77109" lon="2.14795">
        <ele>105.1</ele>
        <time>2022-05-03T07:54:17Z</time>
      </trkpt>
      <trkpt lat="48.77116" lon="2.14789">
        <ele>105.7</ele>
        <time>2022-05-03T07:54:26Z</time>
      </trkpt>
      <trkpt lat="48.77124" lon="2.14788">
        <ele>106.6</ele>
        <time>2022-05-03T07:54:33Z</time>
      </trkpt>
      <trkpt lat="48.77131" lon="2.14788">
        <ele>107.5</ele>
        <time>2022-05-03T07:54:38Z</time>
      </trkpt>
      <trkpt lat="48.77137" lon="2.14794">
        <ele>108.8</ele>
        <time>2022-05-03T07:54:43Z</time>
      </trkpt>
      <trkpt lat="48.77144" lon="2.14797">
        <ele>110</ele>
        <time>2022-05-03T07:54:48Z</time>
      </trkpt>
      <trkpt lat="48.77153" lon="2.14795">
        <ele>111.1</ele>
        <time>2022-05-03T07:54:53Z</time>
      </trkpt>
      <trkpt lat="48.77161" lon="2.14779">
        <ele>110.2</ele>
        <time>2022-05-03T07:54:58Z</time>
      </trkpt>
      <trkpt lat="48.7716" lon="2.1477">
        <ele>109</ele>
        <time>2022-05-03T07:55:03Z</time>
      </trkpt>
      <trkpt lat="48.77154" lon="2.14764">
        <ele>107.7</ele>
        <time>2022-05-03T07:55:09Z</time>
      </trkpt>
      <trkpt lat="48.77147" lon="2.14757">
        <ele>106.3</ele>
        <time>2022-05-03T07:55:14Z</time>
      </trkpt>
      <trkpt lat="48.77141" lon="2.14754">
        <ele>105.5</ele>
        <time>2022-05-03T07:55:22Z</time>
      </trkpt>
      <trkpt lat="48.77134" lon="2.14753">
        <ele>104.9</ele>
        <time>2022-05-03T07:55:28Z</time>
      </trkpt>
      <trkpt lat="48.77128" lon="2.14747">
        <ele>104.2</ele>
        <time>2022-05-03T07:55:33Z</time>
      </trkpt>
      <trkpt lat="48.77122" lon="2.14741">
        <ele>103.7</ele>
        <time>2022-05-03T07:55:39Z</time>
      </trkpt>
      <trkpt lat="48.77115" lon="2.1473">
        <ele>103.2</ele>
        <time>2022-05-03T07:55:44Z</time>
      </trkpt>
      <trkpt lat="48.77111" lon="2.14722">
        <ele>102.9</ele>
        <time>2022-05-03T07:55:49Z</time>
      </trkpt>
      <trkpt lat="48.77105" lon="2.14717">
        <ele>102.5</ele>
        <time>2022-05-03T07:55:55Z</time>
      </trkpt>
      <trkpt lat="48.77098" lon="2.14717">
        <ele>102</ele>
        <time>2022-05-03T07:56:01Z</time>
      </trkpt>
      <trkpt lat="48.77086" lon="2.14709">
        <ele>101.2</ele>
        <time>2022-05-03T07:56:06Z</time>
      </trkpt>
      <trkpt lat="48.77068" lon="2.14705">
        <ele>100.7</ele>
        <time>2022-05-03T07:56:11Z</time>
      </trkpt>
      <trkpt lat="48.77062" lon="2.14703">
        <ele>100.6</ele>
        <time>2022-05-03T07:56:16Z</time>
      </trkpt>
      <trkpt lat="48.77081" lon="2.14677">
        <ele>101</ele>
        <time>2022-05-03T07:56:21Z</time>
      </trkpt>
      <trkpt lat="48.7708" lon="2.14667">
        <ele>101</ele>
        <time>2022-05-03T07:56:26Z</time>
      </trkpt>
      <trkpt lat="48.77077" lon="2.14658">
        <ele>100.7</ele>
        <time>2022-05-03T07:56:31Z</time>
      </trkpt>
      <trkpt lat="48.7708" lon="2.14648">
        <ele>100.5</ele>
        <time>2022-05-03T07:56:36Z</time>
      </trkpt>
      <trkpt lat="48.77084" lon="2.14634">
        <ele>100.3</ele>
        <time>2022-05-03T07:56:41Z</time>
      </trkpt>
      <trkpt lat="48.77085" lon="2.14624">
        <ele>100.2</ele>
        <time>2022-05-03T07:56:47Z</time>
      </trkpt>
      <trkpt lat="48.77081" lon="2.14613">
        <ele>99.7</ele>
        <time>2022-05-03T07:56:54Z</time>
      </trkpt>
      <trkpt lat="48.77082" lon="2.14602">
        <ele>99.4</ele>
        <time>2022-05-03T07:57:01Z</time>
      </trkpt>
      <trkpt lat="48.77083" lon="2.1459">
        <ele>99.2</ele>
        <time>2022-05-03T07:57:06Z</time>
      </trkpt>
      <trkpt lat="48.77085" lon="2.14578">
        <ele>99.5</ele>
        <time>2022-05-03T07:57:11Z</time>
      </trkpt>
      <trkpt lat="48.77091" lon="2.14582">
        <ele>100.5</ele>
        <time>2022-05-03T07:57:44Z</time>
      </trkpt>
      <trkpt lat="48.77093" lon="2.14592">
        <ele>100.9</ele>
        <time>2022-05-03T07:57:52Z</time>
      </trkpt>
      <trkpt lat="48.77099" lon="2.14598">
        <ele>102</ele>
        <time>2022-05-03T07:58:14Z</time>
      </trkpt>
      <trkpt lat="48.77105" lon="2.14604">
        <ele>102.9</ele>
        <time>2022-05-03T07:58:34Z</time>
      </trkpt>
      <trkpt lat="48.7711" lon="2.14611">
        <ele>103.6</ele>
        <time>2022-05-03T07:58:40Z</time>
      </trkpt>
      <trkpt lat="48.77116" lon="2.14617">
        <ele>104.3</ele>
        <time>2022-05-03T07:58:45Z</time>
      </trkpt>
      <trkpt lat="48.77123" lon="2.14623">
        <ele>105.1</ele>
        <time>2022-05-03T07:58:50Z</time>
      </trkpt>
      <trkpt lat="48.7713" lon="2.14628">
        <ele>105.7</ele>
        <time>2022-05-03T07:58:55Z</time>
      </trkpt>
      <trkpt lat="48.77135" lon="2.14635">
        <ele>105.9</ele>
        <time>2022-05-03T07:59:00Z</time>
      </trkpt>
      <trkpt lat="48.7714" lon="2.14643">
        <ele>106</ele>
        <time>2022-05-03T07:59:06Z</time>
      </trkpt>
      <trkpt lat="48.77145" lon="2.14651">
        <ele>105.9</ele>
        <time>2022-05-03T07:59:11Z</time>
      </trkpt>
      <trkpt lat="48.7715" lon="2.14657">
        <ele>105.8</ele>
        <time>2022-05-03T07:59:17Z</time>
      </trkpt>
      <trkpt lat="48.77155" lon="2.14665">
        <ele>105.4</ele>
        <time>2022-05-03T07:59:23Z</time>
      </trkpt>
      <trkpt lat="48.77161" lon="2.1467">
        <ele>105.7</ele>
        <time>2022-05-03T07:59:29Z</time>
      </trkpt>
      <trkpt lat="48.7717" lon="2.14676">
        <ele>106.6</ele>
        <time>2022-05-03T07:59:34Z</time>
      </trkpt>
      <trkpt lat="48.77178" lon="2.14681">
        <ele>107.8</ele>
        <time>2022-05-03T07:59:39Z</time>
      </trkpt>
      <trkpt lat="48.77186" lon="2.14683">
        <ele>108.9</ele>
        <time>2022-05-03T07:59:44Z</time>
      </trkpt>
      <trkpt lat="48.77192" lon="2.14684">
        <ele>109.7</ele>
        <time>2022-05-03T07:59:49Z</time>
      </trkpt>
      <trkpt lat="48.772" lon="2.1469">
        <ele>110.7</ele>
        <time>2022-05-03T07:59:54Z</time>
      </trkpt>
      <trkpt lat="48.77206" lon="2.14695">
        <ele>111.4</ele>
        <time>2022-05-03T08:00:00Z</time>
      </trkpt>
      <trkpt lat="48.77214" lon="2.14693">
        <ele>112.4</ele>
        <time>2022-05-03T08:00:06Z</time>
      </trkpt>
      <trkpt lat="48.7722" lon="2.14698">
        <ele>113</ele>
        <time>2022-05-03T08:00:12Z</time>
      </trkpt>
      <trkpt lat="48.77229" lon="2.14703">
        <ele>113.9</ele>
        <time>2022-05-03T08:00:17Z</time>
      </trkpt>
      <trkpt lat="48.77235" lon="2.14711">
        <ele>114.1</ele>
        <time>2022-05-03T08:00:23Z</time>
      </trkpt>
      <trkpt lat="48.77241" lon="2.14716">
        <ele>114.5</ele>
        <time>2022-05-03T08:00:28Z</time>
      </trkpt>
      <trkpt lat="48.77248" lon="2.14716">
        <ele>115.2</ele>
        <time>2022-05-03T08:00:33Z</time>
      </trkpt>
      <trkpt lat="48.77258" lon="2.14715">
        <ele>116.1</ele>
        <time>2022-05-03T08:00:38Z</time>
      </trkpt>
      <trkpt lat="48.77266" lon="2.14714">
        <ele>116.7</ele>
        <time>2022-05-03T08:00:45Z</time>
      </trkpt>
      <trkpt lat="48.77276" lon="2.14714">
        <ele>117.4</ele>
        <time>2022-05-03T08:00:50Z</time>
      </trkpt>
      <trkpt lat="48.77283" lon="2.14713">
        <ele>118</ele>
        <time>2022-05-03T08:00:55Z</time>
      </trkpt>
      <trkpt lat="48.77291" lon="2.14714">
        <ele>118.4</ele>
        <time>2022-05-03T08:01:02Z</time>
      </trkpt>
      <trkpt lat="48.773" lon="2.14715">
        <ele>118.9</ele>
        <time>2022-05-03T08:01:07Z</time>
      </trkpt>
      <trkpt lat="48.77309" lon="2.14715">
        <ele>119.5</ele>
        <time>2022-05-03T08:01:12Z</time>
      </trkpt>
      <trkpt lat="48.77318" lon="2.14713">
        <ele>120.4</ele>
        <time>2022-05-03T08:01:18Z</time>
      </trkpt>
      <trkpt lat="48.77325" lon="2.14716">
        <ele>120.5</ele>
        <time>2022-05-03T08:01:24Z</time>
      </trkpt>
      <trkpt lat="48.77332" lon="2.14717">
        <ele>120.9</ele>
        <time>2022-05-03T08:01:32Z</time>
      </trkpt>
      <trkpt lat="48.77339" lon="2.14721">
        <ele>121.3</ele>
        <time>2022-05-03T08:01:37Z</time>
      </trkpt>
      <trkpt lat="48.77346" lon="2.14721">
        <ele>122.3</ele>
        <time>2022-05-03T08:01:44Z</time>
      </trkpt>
      <trkpt lat="48.77352" lon="2.1472">
        <ele>123.2</ele>
        <time>2022-05-03T08:01:53Z</time>
      </trkpt>
      <trkpt lat="48.7736" lon="2.14721">
        <ele>124.2</ele>
        <time>2022-05-03T08:02:00Z</time>
      </trkpt>
      <trkpt lat="48.77366" lon="2.14724">
        <ele>124.7</ele>
        <time>2022-05-03T08:02:07Z</time>
      </trkpt>
      <trkpt lat="48.77372" lon="2.14718">
        <ele>126.3</ele>
        <time>2022-05-03T08:02:17Z</time>
      </trkpt>
      <trkpt lat="48.77375" lon="2.14709">
        <ele>127.9</ele>
        <time>2022-05-03T08:02:26Z</time>
      </trkpt>
      <trkpt lat="48.77381" lon="2.14702">
        <ele>129.7</ele>
        <time>2022-05-03T08:02:36Z</time>
      </trkpt>
      <trkpt lat="48.77382" lon="2.14692">
        <ele>131.2</ele>
        <time>2022-05-03T08:02:46Z</time>
      </trkpt>
      <trkpt lat="48.77384" lon="2.14682">
        <ele>132.8</ele>
        <time>2022-05-03T08:02:58Z</time>
      </trkpt>
      <trkpt lat="48.7739" lon="2.14677">
        <ele>134.4</ele>
        <time>2022-05-03T08:03:05Z</time>
      </trkpt>
      <trkpt lat="48.77398" lon="2.14674">
        <ele>136.1</ele>
        <time>2022-05-03T08:03:13Z</time>
      </trkpt>
      <trkpt lat="48.77401" lon="2.14665">
        <ele>137.8</ele>
        <time>2022-05-03T08:03:25Z</time>
      </trkpt>
      <trkpt lat="48.77401" lon="2.14655">
        <ele>139.1</ele>
        <time>2022-05-03T08:03:32Z</time>
      </trkpt>
      <trkpt lat="48.77402" lon="2.14645">
        <ele>140.5</ele>
        <time>2022-05-03T08:03:45Z</time>
      </trkpt>
      <trkpt lat="48.77406" lon="2.14637">
        <ele>142.1</ele>
        <time>2022-05-03T08:03:59Z</time>
      </trkpt>
      <trkpt lat="48.7741" lon="2.14629">
        <ele>143.7</ele>
        <time>2022-05-03T08:04:11Z</time>
      </trkpt>
      <trkpt lat="48.77409" lon="2.14618">
        <ele>144.9</ele>
        <time>2022-05-03T08:04:24Z</time>
      </trkpt>
      <trkpt lat="48.77412" lon="2.14608">
        <ele>146.5</ele>
        <time>2022-05-03T08:04:34Z</time>
      </trkpt>
      <trkpt lat="48.77414" lon="2.14598">
        <ele>148</ele>
        <time>2022-05-03T08:04:43Z</time>
      </trkpt>
      <trkpt lat="48.77417" lon="2.14588">
        <ele>149.5</ele>
        <time>2022-05-03T08:04:51Z</time>
      </trkpt>
      <trkpt lat="48.77421" lon="2.14579">
        <ele>150.5</ele>
        <time>2022-05-03T08:04:57Z</time>
      </trkpt>
      <trkpt lat="48.77425" lon="2.1457">
        <ele>151.2</ele>
        <time>2022-05-03T08:05:04Z</time>
      </trkpt>
      <trkpt lat="48.77426" lon="2.1456">
        <ele>151.8</ele>
        <time>2022-05-03T08:05:11Z</time>
      </trkpt>
      <trkpt lat="48.77429" lon="2.14551">
        <ele>152.4</ele>
        <time>2022-05-03T08:05:18Z</time>
      </trkpt>
      <trkpt lat="48.77434" lon="2.14543">
        <ele>153.1</ele>
        <time>2022-05-03T08:05:24Z</time>
      </trkpt>
      <trkpt lat="48.77439" lon="2.14536">
        <ele>153.6</ele>
        <time>2022-05-03T08:05:31Z</time>
      </trkpt>
      <trkpt lat="48.77446" lon="2.14528">
        <ele>154.3</ele>
        <time>2022-05-03T08:05:36Z</time>
      </trkpt>
      <trkpt lat="48.7745" lon="2.14519">
        <ele>154.8</ele>
        <time>2022-05-03T08:05:42Z</time>
      </trkpt>
      <trkpt lat="48.77452" lon="2.14509">
        <ele>155.4</ele>
        <time>2022-05-03T08:05:47Z</time>
      </trkpt>
      <trkpt lat="48.77449" lon="2.14499">
        <ele>155.8</ele>
        <time>2022-05-03T08:05:54Z</time>
      </trkpt>
      <trkpt lat="48.77444" lon="2.14493">
        <ele>155.5</ele>
        <time>2022-05-03T08:06:03Z</time>
      </trkpt>
      <trkpt lat="48.77451" lon="2.14493">
        <ele>155.6</ele>
        <time>2022-05-03T08:06:16Z</time>
      </trkpt>
      <trkpt lat="48.77458" lon="2.14492">
        <ele>155.8</ele>
        <time>2022-05-03T08:06:23Z</time>
      </trkpt>
      <trkpt lat="48.77468" lon="2.14479">
        <ele>155.5</ele>
        <time>2022-05-03T08:07:21Z</time>
      </trkpt>
      <trkpt lat="48.77476" lon="2.14479">
        <ele>155.6</ele>
        <time>2022-05-03T08:08:13Z</time>
      </trkpt>
      <trkpt lat="48.77483" lon="2.14476">
        <ele>155.6</ele>
        <time>2022-05-03T08:08:25Z</time>
      </trkpt>
      <trkpt lat="48.77497" lon="2.14475">
        <ele>155.8</ele>
        <time>2022-05-03T08:08:39Z</time>
      </trkpt>
      <trkpt lat="48.77505" lon="2.14477">
        <ele>155.8</ele>
        <time>2022-05-03T08:08:52Z</time>
      </trkpt>
      <trkpt lat="48.77513" lon="2.1448">
        <ele>155.8</ele>
        <time>2022-05-03T08:08:57Z</time>
      </trkpt>
      <trkpt lat="48.77519" lon="2.14475">
        <ele>155.4</ele>
        <time>2022-05-03T08:09:06Z</time>
      </trkpt>
      <trkpt lat="48.77528" lon="2.14475">
        <ele>155.2</ele>
        <time>2022-05-03T08:09:13Z</time>
      </trkpt>
      <trkpt lat="48.77539" lon="2.14475">
        <ele>154.9</ele>
        <time>2022-05-03T08:09:18Z</time>
      </trkpt>
      <trkpt lat="48.7755" lon="2.14469">
        <ele>154.2</ele>
        <time>2022-05-03T08:09:23Z</time>
      </trkpt>
      <trkpt lat="48.77554" lon="2.1446">
        <ele>153.5</ele>
        <time>2022-05-03T08:09:28Z</time>
      </trkpt>
      <trkpt lat="48.77557" lon="2.14451">
        <ele>152.8</ele>
        <time>2022-05-03T08:09:34Z</time>
      </trkpt>
      <trkpt lat="48.77561" lon="2.14441">
        <ele>151.9</ele>
        <time>2022-05-03T08:09:41Z</time>
      </trkpt>
      <trkpt lat="48.77563" lon="2.14431">
        <ele>151.1</ele>
        <time>2022-05-03T08:09:48Z</time>
      </trkpt>
      <trkpt lat="48.77562" lon="2.14419">
        <ele>150.2</ele>
        <time>2022-05-03T08:09:56Z</time>
      </trkpt>
      <trkpt lat="48.77557" lon="2.14413">
        <ele>150.1</ele>
        <time>2022-05-03T08:10:05Z</time>
      </trkpt>
      <trkpt lat="48.77555" lon="2.14401">
        <ele>149.5</ele>
        <time>2022-05-03T08:10:10Z</time>
      </trkpt>
      <trkpt lat="48.77556" lon="2.14389">
        <ele>148.8</ele>
        <time>2022-05-03T08:10:16Z</time>
      </trkpt>
      <trkpt lat="48.77555" lon="2.14378">
        <ele>148.2</ele>
        <time>2022-05-03T08:10:22Z</time>
      </trkpt>
      <trkpt lat="48.77557" lon="2.14364">
        <ele>147.4</ele>
        <time>2022-05-03T08:10:27Z</time>
      </trkpt>
      <trkpt lat="48.77555" lon="2.14352">
        <ele>146.7</ele>
        <time>2022-05-03T08:10:32Z</time>
      </trkpt>
      <trkpt lat="48.77554" lon="2.14341">
        <ele>146</ele>
        <time>2022-05-03T08:10:38Z</time>
      </trkpt>
      <trkpt lat="48.77553" lon="2.1433">
        <ele>145.5</ele>
        <time>2022-05-03T08:10:43Z</time>
      </trkpt>
      <trkpt lat="48.77552" lon="2.14319">
        <ele>145.1</ele>
        <time>2022-05-03T08:10:48Z</time>
      </trkpt>
      <trkpt lat="48.77549" lon="2.14307">
        <ele>144.6</ele>
        <time>2022-05-03T08:10:53Z</time>
      </trkpt>
      <trkpt lat="48.77547" lon="2.14295">
        <ele>144</ele>
        <time>2022-05-03T08:10:58Z</time>
      </trkpt>
      <trkpt lat="48.77545" lon="2.14283">
        <ele>143.3</ele>
        <time>2022-05-03T08:11:03Z</time>
      </trkpt>
      <trkpt lat="48.77546" lon="2.14273">
        <ele>143.1</ele>
        <time>2022-05-03T08:11:09Z</time>
      </trkpt>
      <trkpt lat="48.77544" lon="2.14259">
        <ele>142.3</ele>
        <time>2022-05-03T08:11:14Z</time>
      </trkpt>
      <trkpt lat="48.77544" lon="2.14249">
        <ele>142</ele>
        <time>2022-05-03T08:11:20Z</time>
      </trkpt>
      <trkpt lat="48.77544" lon="2.14238">
        <ele>142.6</ele>
        <time>2022-05-03T08:11:25Z</time>
      </trkpt>
      <trkpt lat="48.77542" lon="2.14227">
        <ele>142.9</ele>
        <time>2022-05-03T08:11:30Z</time>
      </trkpt>
      <trkpt lat="48.77541" lon="2.14216">
        <ele>143.4</ele>
        <time>2022-05-03T08:11:36Z</time>
      </trkpt>
      <trkpt lat="48.77535" lon="2.14209">
        <ele>142.7</ele>
        <time>2022-05-03T08:11:43Z</time>
      </trkpt>
      <trkpt lat="48.7753" lon="2.14197">
        <ele>142.4</ele>
        <time>2022-05-03T08:11:48Z</time>
      </trkpt>
      <trkpt lat="48.77525" lon="2.14181">
        <ele>142.3</ele>
        <time>2022-05-03T08:11:53Z</time>
      </trkpt>
      <trkpt lat="48.77519" lon="2.14172">
        <ele>141.6</ele>
        <time>2022-05-03T08:11:58Z</time>
      </trkpt>
      <trkpt lat="48.77511" lon="2.14163">
        <ele>140.6</ele>
        <time>2022-05-03T08:12:03Z</time>
      </trkpt>
      <trkpt lat="48.77507" lon="2.1415">
        <ele>141.3</ele>
        <time>2022-05-03T08:12:08Z</time>
      </trkpt>
      <trkpt lat="48.77502" lon="2.14141">
        <ele>141.4</ele>
        <time>2022-05-03T08:12:13Z</time>
      </trkpt>
      <trkpt lat="48.77496" lon="2.14131">
        <ele>141.5</ele>
        <time>2022-05-03T08:12:18Z</time>
      </trkpt>
      <trkpt lat="48.77488" lon="2.14122">
        <ele>141</ele>
        <time>2022-05-03T08:12:23Z</time>
      </trkpt>
      <trkpt lat="48.77484" lon="2.14113">
        <ele>141.3</ele>
        <time>2022-05-03T08:12:28Z</time>
      </trkpt>
      <trkpt lat="48.77478" lon="2.14104">
        <ele>141</ele>
        <time>2022-05-03T08:12:33Z</time>
      </trkpt>
      <trkpt lat="48.77471" lon="2.14097">
        <ele>140.3</ele>
        <time>2022-05-03T08:12:40Z</time>
      </trkpt>
      <trkpt lat="48.77465" lon="2.14089">
        <ele>139.9</ele>
        <time>2022-05-03T08:12:45Z</time>
      </trkpt>
      <trkpt lat="48.77459" lon="2.14077">
        <ele>139.2</ele>
        <time>2022-05-03T08:12:50Z</time>
      </trkpt>
      <trkpt lat="48.77454" lon="2.14067">
        <ele>138.1</ele>
        <time>2022-05-03T08:12:55Z</time>
      </trkpt>
      <trkpt lat="48.77459" lon="2.14075">
        <ele>139.2</ele>
        <time>2022-05-03T08:13:32Z</time>
      </trkpt>
      <trkpt lat="48.77456" lon="2.14066">
        <ele>138.6</ele>
        <time>2022-05-03T08:13:41Z</time>
      </trkpt>
      <trkpt lat="48.77451" lon="2.14058">
        <ele>137.5</ele>
        <time>2022-05-03T08:13:48Z</time>
      </trkpt>
      <trkpt lat="48.77448" lon="2.14049">
        <ele>136.8</ele>
        <time>2022-05-03T08:13:54Z</time>
      </trkpt>
      <trkpt lat="48.77449" lon="2.1404">
        <ele>137.1</ele>
        <time>2022-05-03T08:13:59Z</time>
      </trkpt>
      <trkpt lat="48.77453" lon="2.1403">
        <ele>138</ele>
        <time>2022-05-03T08:14:06Z</time>
      </trkpt>
      <trkpt lat="48.77455" lon="2.1402">
        <ele>138.6</ele>
        <time>2022-05-03T08:14:12Z</time>
      </trkpt>
      <trkpt lat="48.7746" lon="2.14011">
        <ele>139.8</ele>
        <time>2022-05-03T08:14:18Z</time>
      </trkpt>
      <trkpt lat="48.77463" lon="2.14002">
        <ele>140.7</ele>
        <time>2022-05-03T08:14:23Z</time>
      </trkpt>
      <trkpt lat="48.77469" lon="2.13995">
        <ele>141.7</ele>
        <time>2022-05-03T08:14:28Z</time>
      </trkpt>
      <trkpt lat="48.77475" lon="2.13987">
        <ele>142.4</ele>
        <time>2022-05-03T08:14:33Z</time>
      </trkpt>
      <trkpt lat="48.7748" lon="2.13979">
        <ele>142.8</ele>
        <time>2022-05-03T08:14:38Z</time>
      </trkpt>
      <trkpt lat="48.77485" lon="2.13968">
        <ele>143</ele>
        <time>2022-05-03T08:14:43Z</time>
      </trkpt>
      <trkpt lat="48.7749" lon="2.13957">
        <ele>143.2</ele>
        <time>2022-05-03T08:14:48Z</time>
      </trkpt>
      <trkpt lat="48.77494" lon="2.13947">
        <ele>143.3</ele>
        <time>2022-05-03T08:14:53Z</time>
      </trkpt>
      <trkpt lat="48.77499" lon="2.13938">
        <ele>143.8</ele>
        <time>2022-05-03T08:14:58Z</time>
      </trkpt>
      <trkpt lat="48.77504" lon="2.13927">
        <ele>143.7</ele>
        <time>2022-05-03T08:15:03Z</time>
      </trkpt>
      <trkpt lat="48.77506" lon="2.13916">
        <ele>143.1</ele>
        <time>2022-05-03T08:15:08Z</time>
      </trkpt>
      <trkpt lat="48.77512" lon="2.13909">
        <ele>143.4</ele>
        <time>2022-05-03T08:15:13Z</time>
      </trkpt>
      <trkpt lat="48.77514" lon="2.13898">
        <ele>142.6</ele>
        <time>2022-05-03T08:15:20Z</time>
      </trkpt>
      <trkpt lat="48.77514" lon="2.13887">
        <ele>141.4</ele>
        <time>2022-05-03T08:15:25Z</time>
      </trkpt>
      <trkpt lat="48.77515" lon="2.13877">
        <ele>140.5</ele>
        <time>2022-05-03T08:15:30Z</time>
      </trkpt>
      <trkpt lat="48.77516" lon="2.13867">
        <ele>139.6</ele>
        <time>2022-05-03T08:15:35Z</time>
      </trkpt>
      <trkpt lat="48.77515" lon="2.13856">
        <ele>138.1</ele>
        <time>2022-05-03T08:15:41Z</time>
      </trkpt>
      <trkpt lat="48.77516" lon="2.13845">
        <ele>137.1</ele>
        <time>2022-05-03T08:15:48Z</time>
      </trkpt>
      <trkpt lat="48.77515" lon="2.13831">
        <ele>135.6</ele>
        <time>2022-05-03T08:15:53Z</time>
      </trkpt>
      <trkpt lat="48.77515" lon="2.1382">
        <ele>135.6</ele>
        <time>2022-05-03T08:15:58Z</time>
      </trkpt>
      <trkpt lat="48.77515" lon="2.13807">
        <ele>135.6</ele>
        <time>2022-05-03T08:16:05Z</time>
      </trkpt>
      <trkpt lat="48.77513" lon="2.13798">
        <ele>135.1</ele>
        <time>2022-05-03T08:16:10Z</time>
      </trkpt>
      <trkpt lat="48.77507" lon="2.13783">
        <ele>133.7</ele>
        <time>2022-05-03T08:16:15Z</time>
      </trkpt>
      <trkpt lat="48.77501" lon="2.13768">
        <ele>132.2</ele>
        <time>2022-05-03T08:16:20Z</time>
      </trkpt>
      <trkpt lat="48.77496" lon="2.13759">
        <ele>130.9</ele>
        <time>2022-05-03T08:16:25Z</time>
      </trkpt>
      <trkpt lat="48.77494" lon="2.13747">
        <ele>130.3</ele>
        <time>2022-05-03T08:16:30Z</time>
      </trkpt>
      <trkpt lat="48.77496" lon="2.13737">
        <ele>130.7</ele>
        <time>2022-05-03T08:16:36Z</time>
      </trkpt>
      <trkpt lat="48.77499" lon="2.13727">
        <ele>131.5</ele>
        <time>2022-05-03T08:16:43Z</time>
      </trkpt>
      <trkpt lat="48.77501" lon="2.13714">
        <ele>131.8</ele>
        <time>2022-05-03T08:16:48Z</time>
      </trkpt>
      <trkpt lat="48.77503" lon="2.13703">
        <ele>132.2</ele>
        <time>2022-05-03T08:16:53Z</time>
      </trkpt>
      <trkpt lat="48.77507" lon="2.13693">
        <ele>133</ele>
        <time>2022-05-03T08:17:01Z</time>
      </trkpt>
      <trkpt lat="48.7751" lon="2.13678">
        <ele>133.5</ele>
        <time>2022-05-03T08:17:21Z</time>
      </trkpt>
      <trkpt lat="48.77516" lon="2.13672">
        <ele>134.9</ele>
        <time>2022-05-03T08:17:27Z</time>
      </trkpt>
      <trkpt lat="48.77523" lon="2.13665">
        <ele>136.4</ele>
        <time>2022-05-03T08:17:32Z</time>
      </trkpt>
      <trkpt lat="48.77529" lon="2.1366">
        <ele>137.6</ele>
        <time>2022-05-03T08:17:37Z</time>
      </trkpt>
      <trkpt lat="48.77534" lon="2.13653">
        <ele>138.3</ele>
        <time>2022-05-03T08:17:44Z</time>
      </trkpt>
      <trkpt lat="48.7754" lon="2.13648">
        <ele>139.5</ele>
        <time>2022-05-03T08:17:53Z</time>
      </trkpt>
      <trkpt lat="48.77545" lon="2.1364">
        <ele>140.2</ele>
        <time>2022-05-03T08:17:58Z</time>
      </trkpt>
      <trkpt lat="48.77545" lon="2.1363">
        <ele>139.6</ele>
        <time>2022-05-03T08:18:03Z</time>
      </trkpt>
      <trkpt lat="48.77545" lon="2.13619">
        <ele>138.9</ele>
        <time>2022-05-03T08:18:08Z</time>
      </trkpt>
      <trkpt lat="48.77547" lon="2.13609">
        <ele>138.8</ele>
        <time>2022-05-03T08:18:14Z</time>
      </trkpt>
      <trkpt lat="48.7755" lon="2.13595">
        <ele>138.7</ele>
        <time>2022-05-03T08:18:19Z</time>
      </trkpt>
      <trkpt lat="48.77553" lon="2.13585">
        <ele>138.8</ele>
        <time>2022-05-03T08:18:25Z</time>
      </trkpt>
      <trkpt lat="48.77561" lon="2.13575">
        <ele>140</ele>
        <time>2022-05-03T08:18:30Z</time>
      </trkpt>
      <trkpt lat="48.77565" lon="2.13565">
        <ele>140.1</ele>
        <time>2022-05-03T08:18:37Z</time>
      </trkpt>
      <trkpt lat="48.7757" lon="2.1355">
        <ele>140.1</ele>
        <time>2022-05-03T08:18:42Z</time>
      </trkpt>
      <trkpt lat="48.77571" lon="2.1354">
        <ele>139.5</ele>
        <time>2022-05-03T08:18:47Z</time>
      </trkpt>
      <trkpt lat="48.77572" lon="2.1353">
        <ele>138.9</ele>
        <time>2022-05-03T08:18:52Z</time>
      </trkpt>
      <trkpt lat="48.7757" lon="2.13518">
        <ele>137.4</ele>
        <time>2022-05-03T08:18:58Z</time>
      </trkpt>
      <trkpt lat="48.77569" lon="2.13506">
        <ele>136.2</ele>
        <time>2022-05-03T08:19:03Z</time>
      </trkpt>
      <trkpt lat="48.77566" lon="2.13495">
        <ele>134.8</ele>
        <time>2022-05-03T08:19:08Z</time>
      </trkpt>
      <trkpt lat="48.77561" lon="2.13481">
        <ele>133.2</ele>
        <time>2022-05-03T08:19:13Z</time>
      </trkpt>
      <trkpt lat="48.77559" lon="2.1347">
        <ele>132.3</ele>
        <time>2022-05-03T08:19:18Z</time>
      </trkpt>
      <trkpt lat="48.7756" lon="2.1346">
        <ele>132.2</ele>
        <time>2022-05-03T08:19:23Z</time>
      </trkpt>
      <trkpt lat="48.77562" lon="2.1345">
        <ele>132.2</ele>
        <time>2022-05-03T08:19:33Z</time>
      </trkpt>
      <trkpt lat="48.77564" lon="2.1344">
        <ele>132.2</ele>
        <time>2022-05-03T08:19:44Z</time>
      </trkpt>
      <trkpt lat="48.77566" lon="2.1343">
        <ele>132.2</ele>
        <time>2022-05-03T08:19:51Z</time>
      </trkpt>
      <trkpt lat="48.77566" lon="2.13419">
        <ele>131.8</ele>
        <time>2022-05-03T08:19:57Z</time>
      </trkpt>
      <trkpt lat="48.77568" lon="2.13409">
        <ele>131.6</ele>
        <time>2022-05-03T08:20:05Z</time>
      </trkpt>
      <trkpt lat="48.77574" lon="2.13402">
        <ele>132.3</ele>
        <time>2022-05-03T08:20:15Z</time>
      </trkpt>
      <trkpt lat="48.77583" lon="2.13405">
        <ele>134.1</ele>
        <time>2022-05-03T08:20:20Z</time>
      </trkpt>
      <trkpt lat="48.7759" lon="2.13407">
        <ele>136.1</ele>
        <time>2022-05-03T08:20:27Z</time>
      </trkpt>
      <trkpt lat="48.77597" lon="2.13413">
        <ele>138.3</ele>
        <time>2022-05-03T08:20:34Z</time>
      </trkpt>
      <trkpt lat="48.77605" lon="2.1342">
        <ele>140.8</ele>
        <time>2022-05-03T08:20:41Z</time>
      </trkpt>
      <trkpt lat="48.77612" lon="2.13429">
        <ele>142.9</ele>
        <time>2022-05-03T08:20:46Z</time>
      </trkpt>
      <trkpt lat="48.77612" lon="2.13439">
        <ele>143.2</ele>
        <time>2022-05-03T08:20:57Z</time>
      </trkpt>
      <trkpt lat="48.77606" lon="2.13446">
        <ele>141.9</ele>
        <time>2022-05-03T08:21:20Z</time>
      </trkpt>
      <trkpt lat="48.77608" lon="2.13435">
        <ele>142.1</ele>
        <time>2022-05-03T08:21:29Z</time>
      </trkpt>
      <trkpt lat="48.77606" lon="2.13426">
        <ele>141.3</ele>
        <time>2022-05-03T08:21:34Z</time>
      </trkpt>
      <trkpt lat="48.776" lon="2.13422">
        <ele>139.6</ele>
        <time>2022-05-03T08:21:40Z</time>
      </trkpt>
      <trkpt lat="48.77591" lon="2.13418">
        <ele>137.1</ele>
        <time>2022-05-03T08:21:57Z</time>
      </trkpt>
      <trkpt lat="48.77584" lon="2.13414">
        <ele>135</ele>
        <time>2022-05-03T08:22:05Z</time>
      </trkpt>
      <trkpt lat="48.77578" lon="2.13408">
        <ele>133.4</ele>
        <time>2022-05-03T08:22:12Z</time>
      </trkpt>
      <trkpt lat="48.77571" lon="2.13403">
        <ele>131.8</ele>
        <time>2022-05-03T08:22:19Z</time>
      </trkpt>
      <trkpt lat="48.77567" lon="2.13395">
        <ele>130.6</ele>
        <time>2022-05-03T08:22:34Z</time>
      </trkpt>
      <trkpt lat="48.77562" lon="2.13388">
        <ele>129.4</ele>
        <time>2022-05-03T08:22:49Z</time>
      </trkpt>
      <trkpt lat="48.77555" lon="2.13387">
        <ele>128.2</ele>
        <time>2022-05-03T08:22:58Z</time>
      </trkpt>
      <trkpt lat="48.77546" lon="2.13389">
        <ele>126.7</ele>
        <time>2022-05-03T08:23:03Z</time>
      </trkpt>
      <trkpt lat="48.77539" lon="2.13392">
        <ele>125.7</ele>
        <time>2022-05-03T08:23:10Z</time>
      </trkpt>
      <trkpt lat="48.77532" lon="2.13394">
        <ele>124.5</ele>
        <time>2022-05-03T08:23:16Z</time>
      </trkpt>
      <trkpt lat="48.77527" lon="2.13401">
        <ele>123.8</ele>
        <time>2022-05-03T08:23:24Z</time>
      </trkpt>
      <trkpt lat="48.77521" lon="2.13418">
        <ele>123.1</ele>
        <time>2022-05-03T08:23:48Z</time>
      </trkpt>
      <trkpt lat="48.7752" lon="2.1343">
        <ele>123.1</ele>
        <time>2022-05-03T08:24:17Z</time>
      </trkpt>
      <trkpt lat="48.7752" lon="2.1344">
        <ele>123.3</ele>
        <time>2022-05-03T08:24:27Z</time>
      </trkpt>
      <trkpt lat="48.77524" lon="2.1345">
        <ele>124.4</ele>
        <time>2022-05-03T08:24:34Z</time>
      </trkpt>
      <trkpt lat="48.77526" lon="2.1346">
        <ele>125</ele>
        <time>2022-05-03T08:24:39Z</time>
      </trkpt>
      <trkpt lat="48.77527" lon="2.13471">
        <ele>125.5</ele>
        <time>2022-05-03T08:24:44Z</time>
      </trkpt>
      <trkpt lat="48.77526" lon="2.13482">
        <ele>125.5</ele>
        <time>2022-05-03T08:24:50Z</time>
      </trkpt>
      <trkpt lat="48.77521" lon="2.13493">
        <ele>124.6</ele>
        <time>2022-05-03T08:24:55Z</time>
      </trkpt>
      <trkpt lat="48.77516" lon="2.13504">
        <ele>123.9</ele>
        <time>2022-05-03T08:25:00Z</time>
      </trkpt>
      <trkpt lat="48.77507" lon="2.13506">
        <ele>122</ele>
        <time>2022-05-03T08:25:07Z</time>
      </trkpt>
      <trkpt lat="48.775" lon="2.13502">
        <ele>120.1</ele>
        <time>2022-05-03T08:25:12Z</time>
      </trkpt>
      <trkpt lat="48.77493" lon="2.13501">
        <ele>118.9</ele>
        <time>2022-05-03T08:25:18Z</time>
      </trkpt>
      <trkpt lat="48.77486" lon="2.13504">
        <ele>117.9</ele>
        <time>2022-05-03T08:25:23Z</time>
      </trkpt>
      <trkpt lat="48.77479" lon="2.13504">
        <ele>116.7</ele>
        <time>2022-05-03T08:25:30Z</time>
      </trkpt>
      <trkpt lat="48.77478" lon="2.13492">
        <ele>116.4</ele>
        <time>2022-05-03T08:25:40Z</time>
      </trkpt>
      <trkpt lat="48.77481" lon="2.13483">
        <ele>116.9</ele>
        <time>2022-05-03T08:25:47Z</time>
      </trkpt>
      <trkpt lat="48.77482" lon="2.13471">
        <ele>117.1</ele>
        <time>2022-05-03T08:25:52Z</time>
      </trkpt>
      <trkpt lat="48.77483" lon="2.1346">
        <ele>117.3</ele>
        <time>2022-05-03T08:25:57Z</time>
      </trkpt>
      <trkpt lat="48.77483" lon="2.13449">
        <ele>117.3</ele>
        <time>2022-05-03T08:26:02Z</time>
      </trkpt>
      <trkpt lat="48.77479" lon="2.13438">
        <ele>116.9</ele>
        <time>2022-05-03T08:26:28Z</time>
      </trkpt>
      <trkpt lat="48.77476" lon="2.13428">
        <ele>116.6</ele>
        <time>2022-05-03T08:26:33Z</time>
      </trkpt>
      <trkpt lat="48.77472" lon="2.13418">
        <ele>116.3</ele>
        <time>2022-05-03T08:26:41Z</time>
      </trkpt>
      <trkpt lat="48.7747" lon="2.13408">
        <ele>116.3</ele>
        <time>2022-05-03T08:26:47Z</time>
      </trkpt>
      <trkpt lat="48.7747" lon="2.13398">
        <ele>116.6</ele>
        <time>2022-05-03T08:26:54Z</time>
      </trkpt>
      <trkpt lat="48.77468" lon="2.13383">
        <ele>116.9</ele>
        <time>2022-05-03T08:27:25Z</time>
      </trkpt>
      <trkpt lat="48.77468" lon="2.13372">
        <ele>117.2</ele>
        <time>2022-05-03T08:27:32Z</time>
      </trkpt>
      <trkpt lat="48.77463" lon="2.13366">
        <ele>117.1</ele>
        <time>2022-05-03T08:27:38Z</time>
      </trkpt>
      <trkpt lat="48.77468" lon="2.13359">
        <ele>117.5</ele>
        <time>2022-05-03T08:28:18Z</time>
      </trkpt>
      <trkpt lat="48.77475" lon="2.13352">
        <ele>118</ele>
        <time>2022-05-03T08:28:25Z</time>
      </trkpt>
      <trkpt lat="48.77483" lon="2.13344">
        <ele>118.4</ele>
        <time>2022-05-03T08:28:30Z</time>
      </trkpt>
      <trkpt lat="48.77491" lon="2.13337">
        <ele>118.8</ele>
        <time>2022-05-03T08:28:35Z</time>
      </trkpt>
      <trkpt lat="48.77495" lon="2.1333">
        <ele>118.7</ele>
        <time>2022-05-03T08:28:40Z</time>
      </trkpt>
      <trkpt lat="48.77504" lon="2.13325">
        <ele>118.9</ele>
        <time>2022-05-03T08:28:45Z</time>
      </trkpt>
      <trkpt lat="48.77509" lon="2.13316">
        <ele>118.9</ele>
        <time>2022-05-03T08:28:51Z</time>
      </trkpt>
      <trkpt lat="48.77514" lon="2.13308">
        <ele>118.8</ele>
        <time>2022-05-03T08:28:56Z</time>
      </trkpt>
      <trkpt lat="48.7752" lon="2.133">
        <ele>118.6</ele>
        <time>2022-05-03T08:29:01Z</time>
      </trkpt>
      <trkpt lat="48.77522" lon="2.13291">
        <ele>118</ele>
        <time>2022-05-03T08:29:06Z</time>
      </trkpt>
      <trkpt lat="48.77525" lon="2.1328">
        <ele>117.3</ele>
        <time>2022-05-03T08:29:11Z</time>
      </trkpt>
      <trkpt lat="48.77528" lon="2.13271">
        <ele>116.6</ele>
        <time>2022-05-03T08:29:16Z</time>
      </trkpt>
      <trkpt lat="48.7753" lon="2.1326">
        <ele>115.7</ele>
        <time>2022-05-03T08:29:21Z</time>
      </trkpt>
      <trkpt lat="48.77531" lon="2.13249">
        <ele>114.7</ele>
        <time>2022-05-03T08:29:26Z</time>
      </trkpt>
      <trkpt lat="48.77539" lon="2.13241">
        <ele>114.2</ele>
        <time>2022-05-03T08:29:31Z</time>
      </trkpt>
      <trkpt lat="48.77541" lon="2.13228">
        <ele>113.1</ele>
        <time>2022-05-03T08:29:36Z</time>
      </trkpt>
      <trkpt lat="48.77546" lon="2.13219">
        <ele>112.4</ele>
        <time>2022-05-03T08:29:41Z</time>
      </trkpt>
      <trkpt lat="48.77551" lon="2.13206">
        <ele>111.3</ele>
        <time>2022-05-03T08:29:46Z</time>
      </trkpt>
      <trkpt lat="48.77558" lon="2.132">
        <ele>110.7</ele>
        <time>2022-05-03T08:29:51Z</time>
      </trkpt>
      <trkpt lat="48.7756" lon="2.13191">
        <ele>109.9</ele>
        <time>2022-05-03T08:29:56Z</time>
      </trkpt>
      <trkpt lat="48.7756" lon="2.13176">
        <ele>108.4</ele>
        <time>2022-05-03T08:30:01Z</time>
      </trkpt>
      <trkpt lat="48.77561" lon="2.13164">
        <ele>107.5</ele>
        <time>2022-05-03T08:30:06Z</time>
      </trkpt>
      <trkpt lat="48.77564" lon="2.13151">
        <ele>107</ele>
        <time>2022-05-03T08:30:11Z</time>
      </trkpt>
      <trkpt lat="48.77569" lon="2.13141">
        <ele>106.7</ele>
        <time>2022-05-03T08:30:16Z</time>
      </trkpt>
      <trkpt lat="48.77576" lon="2.13131">
        <ele>106.3</ele>
        <time>2022-05-03T08:30:21Z</time>
      </trkpt>
      <trkpt lat="48.7758" lon="2.13119">
        <ele>105.9</ele>
        <time>2022-05-03T08:30:26Z</time>
      </trkpt>
      <trkpt lat="48.77583" lon="2.13105">
        <ele>105.5</ele>
        <time>2022-05-03T08:30:31Z</time>
      </trkpt>
      <trkpt lat="48.77586" lon="2.1309">
        <ele>105.4</ele>
        <time>2022-05-03T08:30:36Z</time>
      </trkpt>
      <trkpt lat="48.77591" lon="2.13077">
        <ele>105.8</ele>
        <time>2022-05-03T08:30:41Z</time>
      </trkpt>
      <trkpt lat="48.77595" lon="2.13065">
        <ele>106.1</ele>
        <time>2022-05-03T08:30:46Z</time>
      </trkpt>
      <trkpt lat="48.77591" lon="2.13055">
        <ele>105.8</ele>
        <time>2022-05-03T08:30:51Z</time>
      </trkpt>
      <trkpt lat="48.77584" lon="2.13046">
        <ele>105.5</ele>
        <time>2022-05-03T08:30:56Z</time>
      </trkpt>
      <trkpt lat="48.77577" lon="2.13045">
        <ele>105.6</ele>
        <time>2022-05-03T08:31:03Z</time>
      </trkpt>
      <trkpt lat="48.7757" lon="2.13041">
        <ele>105.9</ele>
        <time>2022-05-03T08:31:08Z</time>
      </trkpt>
      <trkpt lat="48.77561" lon="2.13039">
        <ele>106.2</ele>
        <time>2022-05-03T08:31:13Z</time>
      </trkpt>
      <trkpt lat="48.77555" lon="2.13031">
        <ele>106.6</ele>
        <time>2022-05-03T08:31:18Z</time>
      </trkpt>
      <trkpt lat="48.7755" lon="2.13038">
        <ele>106.6</ele>
        <time>2022-05-03T08:31:28Z</time>
      </trkpt>
      <trkpt lat="48.77546" lon="2.13047">
        <ele>106.5</ele>
        <time>2022-05-03T08:31:33Z</time>
      </trkpt>
      <trkpt lat="48.77542" lon="2.13056">
        <ele>106.3</ele>
        <time>2022-05-03T08:31:39Z</time>
      </trkpt>
      <trkpt lat="48.77534" lon="2.13064">
        <ele>106.2</ele>
        <time>2022-05-03T08:31:44Z</time>
      </trkpt>
      <trkpt lat="48.77527" lon="2.13063">
        <ele>106.4</ele>
        <time>2022-05-03T08:31:50Z</time>
      </trkpt>
      <trkpt lat="48.77521" lon="2.13053">
        <ele>106.9</ele>
        <time>2022-05-03T08:31:55Z</time>
      </trkpt>
      <trkpt lat="48.77517" lon="2.13042">
        <ele>107.5</ele>
        <time>2022-05-03T08:32:00Z</time>
      </trkpt>
      <trkpt lat="48.77511" lon="2.13031">
        <ele>108.1</ele>
        <time>2022-05-03T08:32:05Z</time>
      </trkpt>
      <trkpt lat="48.77506" lon="2.13023">
        <ele>108.7</ele>
        <time>2022-05-03T08:32:10Z</time>
      </trkpt>
      <trkpt lat="48.77499" lon="2.13019">
        <ele>109.2</ele>
        <time>2022-05-03T08:32:17Z</time>
      </trkpt>
      <trkpt lat="48.77493" lon="2.13011">
        <ele>110</ele>
        <time>2022-05-03T08:32:22Z</time>
      </trkpt>
      <trkpt lat="48.77485" lon="2.13012">
        <ele>110.5</ele>
        <time>2022-05-03T08:32:29Z</time>
      </trkpt>
      <trkpt lat="48.77482" lon="2.13022">
        <ele>110.2</ele>
        <time>2022-05-03T08:32:35Z</time>
      </trkpt>
      <trkpt lat="48.77475" lon="2.13031">
        <ele>110.3</ele>
        <time>2022-05-03T08:32:40Z</time>
      </trkpt>
      <trkpt lat="48.77473" lon="2.13041">
        <ele>110</ele>
        <time>2022-05-03T08:32:45Z</time>
      </trkpt>
      <trkpt lat="48.77469" lon="2.13052">
        <ele>109.7</ele>
        <time>2022-05-03T08:32:50Z</time>
      </trkpt>
      <trkpt lat="48.77459" lon="2.13062">
        <ele>110</ele>
        <time>2022-05-03T08:32:55Z</time>
      </trkpt>
      <trkpt lat="48.77463" lon="2.13075">
        <ele>109.1</ele>
        <time>2022-05-03T08:33:00Z</time>
      </trkpt>
      <trkpt lat="48.77466" lon="2.13089">
        <ele>108.6</ele>
        <time>2022-05-03T08:33:05Z</time>
      </trkpt>
      <trkpt lat="48.77463" lon="2.13102">
        <ele>109</ele>
        <time>2022-05-03T08:33:10Z</time>
      </trkpt>
      <trkpt lat="48.77458" lon="2.13108">
        <ele>109.5</ele>
        <time>2022-05-03T08:33:23Z</time>
      </trkpt>
      <trkpt lat="48.7745" lon="2.13107">
        <ele>109.9</ele>
        <time>2022-05-03T08:33:35Z</time>
      </trkpt>
      <trkpt lat="48.77443" lon="2.13112">
        <ele>110.4</ele>
        <time>2022-05-03T08:33:44Z</time>
      </trkpt>
      <trkpt lat="48.77436" lon="2.13109">
        <ele>110.8</ele>
        <time>2022-05-03T08:33:50Z</time>
      </trkpt>
      <trkpt lat="48.7743" lon="2.13108">
        <ele>111.2</ele>
        <time>2022-05-03T08:33:57Z</time>
      </trkpt>
      <trkpt lat="48.77423" lon="2.13107">
        <ele>111.6</ele>
        <time>2022-05-03T08:34:03Z</time>
      </trkpt>
      <trkpt lat="48.77415" lon="2.13107">
        <ele>112.2</ele>
        <time>2022-05-03T08:34:08Z</time>
      </trkpt>
      <trkpt lat="48.77408" lon="2.13108">
        <ele>112.8</ele>
        <time>2022-05-03T08:34:14Z</time>
      </trkpt>
      <trkpt lat="48.774" lon="2.1311">
        <ele>113.6</ele>
        <time>2022-05-03T08:34:37Z</time>
      </trkpt>
      <trkpt lat="48.77392" lon="2.13106">
        <ele>114.4</ele>
        <time>2022-05-03T08:34:42Z</time>
      </trkpt>
      <trkpt lat="48.77386" lon="2.13111">
        <ele>114.9</ele>
        <time>2022-05-03T08:35:01Z</time>
      </trkpt>
      <trkpt lat="48.77381" lon="2.13122">
        <ele>115.4</ele>
        <time>2022-05-03T08:35:30Z</time>
      </trkpt>
      <trkpt lat="48.77374" lon="2.13122">
        <ele>116.1</ele>
        <time>2022-05-03T08:35:39Z</time>
      </trkpt>
      <trkpt lat="48.77369" lon="2.13115">
        <ele>116.6</ele>
        <time>2022-05-03T08:35:47Z</time>
      </trkpt>
      <trkpt lat="48.77374" lon="2.13108">
        <ele>116.1</ele>
        <time>2022-05-03T08:36:08Z</time>
      </trkpt>
      <trkpt lat="48.77368" lon="2.13114">
        <ele>116.7</ele>
        <time>2022-05-03T08:36:24Z</time>
      </trkpt>
      <trkpt lat="48.77365" lon="2.13123">
        <ele>117</ele>
        <time>2022-05-03T08:36:33Z</time>
      </trkpt>
      <trkpt lat="48.7736" lon="2.1313">
        <ele>117.4</ele>
        <time>2022-05-03T08:36:40Z</time>
      </trkpt>
      <trkpt lat="48.77349" lon="2.13147">
        <ele>118.5</ele>
        <time>2022-05-03T08:37:09Z</time>
      </trkpt>
      <trkpt lat="48.77343" lon="2.13156">
        <ele>119.1</ele>
        <time>2022-05-03T08:37:14Z</time>
      </trkpt>
      <trkpt lat="48.77338" lon="2.13163">
        <ele>119.6</ele>
        <time>2022-05-03T08:37:22Z</time>
      </trkpt>
      <trkpt lat="48.77338" lon="2.13153">
        <ele>119.6</ele>
        <time>2022-05-03T08:37:52Z</time>
      </trkpt>
      <trkpt lat="48.77341" lon="2.13164">
        <ele>119.3</ele>
        <time>2022-05-03T08:38:10Z</time>
      </trkpt>
      <trkpt lat="48.77344" lon="2.13178">
        <ele>119.2</ele>
        <time>2022-05-03T08:38:52Z</time>
      </trkpt>
      <trkpt lat="48.77338" lon="2.13186">
        <ele>119.8</ele>
        <time>2022-05-03T08:38:58Z</time>
      </trkpt>
      <trkpt lat="48.77332" lon="2.13192">
        <ele>120.4</ele>
        <time>2022-05-03T08:39:03Z</time>
      </trkpt>
      <trkpt lat="48.77326" lon="2.13195">
        <ele>120.7</ele>
        <time>2022-05-03T08:39:08Z</time>
      </trkpt>
      <trkpt lat="48.77322" lon="2.13203">
        <ele>121</ele>
        <time>2022-05-03T08:39:15Z</time>
      </trkpt>
      <trkpt lat="48.77322" lon="2.13217">
        <ele>121.1</ele>
        <time>2022-05-03T08:39:44Z</time>
      </trkpt>
      <trkpt lat="48.77314" lon="2.13217">
        <ele>121.4</ele>
        <time>2022-05-03T08:39:49Z</time>
      </trkpt>
      <trkpt lat="48.77308" lon="2.13209">
        <ele>121.7</ele>
        <time>2022-05-03T08:39:54Z</time>
      </trkpt>
      <trkpt lat="48.77301" lon="2.13207">
        <ele>122.1</ele>
        <time>2022-05-03T08:40:12Z</time>
      </trkpt>
      <trkpt lat="48.77304" lon="2.13197">
        <ele>122</ele>
        <time>2022-05-03T08:40:27Z</time>
      </trkpt>
      <trkpt lat="48.773" lon="2.13189">
        <ele>122.2</ele>
        <time>2022-05-03T08:40:57Z</time>
      </trkpt>
      <trkpt lat="48.77298" lon="2.13178">
        <ele>122.4</ele>
        <time>2022-05-03T08:41:02Z</time>
      </trkpt>
      <trkpt lat="48.773" lon="2.13168">
        <ele>122.4</ele>
        <time>2022-05-03T08:41:15Z</time>
      </trkpt>
      <trkpt lat="48.773" lon="2.13178">
        <ele>122.3</ele>
        <time>2022-05-03T08:41:33Z</time>
      </trkpt>
      <trkpt lat="48.77301" lon="2.13189">
        <ele>122.2</ele>
        <time>2022-05-03T08:41:38Z</time>
      </trkpt>
      <trkpt lat="48.77298" lon="2.13179">
        <ele>122.4</ele>
        <time>2022-05-03T08:41:49Z</time>
      </trkpt>
      <trkpt lat="48.77299" lon="2.13168">
        <ele>122.5</ele>
        <time>2022-05-03T08:41:55Z</time>
      </trkpt>
      <trkpt lat="48.77301" lon="2.13156">
        <ele>122.3</ele>
        <time>2022-05-03T08:42:00Z</time>
      </trkpt>
      <trkpt lat="48.77301" lon="2.13144">
        <ele>122.2</ele>
        <time>2022-05-03T08:42:05Z</time>
      </trkpt>
      <trkpt lat="48.77301" lon="2.13133">
        <ele>122.2</ele>
        <time>2022-05-03T08:42:10Z</time>
      </trkpt>
      <trkpt lat="48.77298" lon="2.13123">
        <ele>122.3</ele>
        <time>2022-05-03T08:42:18Z</time>
      </trkpt>
      <trkpt lat="48.77292" lon="2.13115">
        <ele>122.7</ele>
        <time>2022-05-03T08:42:39Z</time>
      </trkpt>
      <trkpt lat="48.77291" lon="2.13105">
        <ele>122.7</ele>
        <time>2022-05-03T08:42:51Z</time>
      </trkpt>
      <trkpt lat="48.77296" lon="2.13097">
        <ele>122.3</ele>
        <time>2022-05-03T08:43:12Z</time>
      </trkpt>
      <trkpt lat="48.77292" lon="2.13088">
        <ele>122.5</ele>
        <time>2022-05-03T08:43:20Z</time>
      </trkpt>
      <trkpt lat="48.77293" lon="2.13077">
        <ele>122.7</ele>
        <time>2022-05-03T08:43:28Z</time>
      </trkpt>
      <trkpt lat="48.77296" lon="2.13066">
        <ele>123.1</ele>
        <time>2022-05-03T08:43:33Z</time>
      </trkpt>
      <trkpt lat="48.77292" lon="2.13059">
        <ele>123.7</ele>
        <time>2022-05-03T08:43:38Z</time>
      </trkpt>
      <trkpt lat="48.77291" lon="2.13045">
        <ele>124.4</ele>
        <time>2022-05-03T08:43:43Z</time>
      </trkpt>
      <trkpt lat="48.77288" lon="2.13035">
        <ele>124.9</ele>
        <time>2022-05-03T08:43:48Z</time>
      </trkpt>
      <trkpt lat="48.77284" lon="2.13025">
        <ele>125.4</ele>
        <time>2022-05-03T08:43:55Z</time>
      </trkpt>
      <trkpt lat="48.7728" lon="2.13015">
        <ele>125.8</ele>
        <time>2022-05-03T08:44:01Z</time>
      </trkpt>
      <trkpt lat="48.77275" lon="2.1302">
        <ele>125.6</ele>
        <time>2022-05-03T08:44:10Z</time>
      </trkpt>
      <trkpt lat="48.77269" lon="2.13026">
        <ele>125.5</ele>
        <time>2022-05-03T08:44:18Z</time>
      </trkpt>
      <trkpt lat="48.77266" lon="2.13036">
        <ele>125.3</ele>
        <time>2022-05-03T08:44:25Z</time>
      </trkpt>
      <trkpt lat="48.77266" lon="2.13047">
        <ele>125</ele>
        <time>2022-05-03T08:44:31Z</time>
      </trkpt>
      <trkpt lat="48.77261" lon="2.13056">
        <ele>124.9</ele>
        <time>2022-05-03T08:44:36Z</time>
      </trkpt>
      <trkpt lat="48.7726" lon="2.13071">
        <ele>124.7</ele>
        <time>2022-05-03T08:44:41Z</time>
      </trkpt>
      <trkpt lat="48.77252" lon="2.13071">
        <ele>125</ele>
        <time>2022-05-03T08:44:47Z</time>
      </trkpt>
      <trkpt lat="48.77246" lon="2.13067">
        <ele>125.8</ele>
        <time>2022-05-03T08:44:57Z</time>
      </trkpt>
      <trkpt lat="48.77239" lon="2.13064">
        <ele>126.9</ele>
        <time>2022-05-03T08:45:03Z</time>
      </trkpt>
      <trkpt lat="48.77232" lon="2.13058">
        <ele>127.9</ele>
        <time>2022-05-03T08:45:12Z</time>
      </trkpt>
      <trkpt lat="48.77225" lon="2.13052">
        <ele>128.9</ele>
        <time>2022-05-03T08:45:17Z</time>
      </trkpt>
      <trkpt lat="48.77219" lon="2.13048">
        <ele>129.7</ele>
        <time>2022-05-03T08:45:22Z</time>
      </trkpt>
      <trkpt lat="48.7721" lon="2.13047">
        <ele>130.9</ele>
        <time>2022-05-03T08:45:27Z</time>
      </trkpt>
      <trkpt lat="48.77202" lon="2.13042">
        <ele>131.8</ele>
        <time>2022-05-03T08:45:32Z</time>
      </trkpt>
      <trkpt lat="48.77198" lon="2.13033">
        <ele>132.1</ele>
        <time>2022-05-03T08:45:38Z</time>
      </trkpt>
      <trkpt lat="48.77189" lon="2.13034">
        <ele>133.2</ele>
        <time>2022-05-03T08:46:00Z</time>
      </trkpt>
      <trkpt lat="48.77178" lon="2.13034">
        <ele>134.6</ele>
        <time>2022-05-03T08:46:05Z</time>
      </trkpt>
      <trkpt lat="48.77172" lon="2.13037">
        <ele>135.5</ele>
        <time>2022-05-03T08:46:10Z</time>
      </trkpt>
      <trkpt lat="48.77164" lon="2.13042">
        <ele>136.9</ele>
        <time>2022-05-03T08:46:15Z</time>
      </trkpt>
      <trkpt lat="48.77157" lon="2.13045">
        <ele>138.2</ele>
        <time>2022-05-03T08:46:20Z</time>
      </trkpt>
      <trkpt lat="48.7715" lon="2.13051">
        <ele>139.7</ele>
        <time>2022-05-03T08:46:26Z</time>
      </trkpt>
      <trkpt lat="48.77144" lon="2.13055">
        <ele>140.9</ele>
        <time>2022-05-03T08:46:35Z</time>
      </trkpt>
      <trkpt lat="48.77138" lon="2.13059">
        <ele>142.2</ele>
        <time>2022-05-03T08:46:49Z</time>
      </trkpt>
      <trkpt lat="48.77136" lon="2.13068">
        <ele>143.3</ele>
        <time>2022-05-03T08:47:02Z</time>
      </trkpt>
      <trkpt lat="48.77138" lon="2.13079">
        <ele>143.8</ele>
        <time>2022-05-03T08:47:12Z</time>
      </trkpt>
      <trkpt lat="48.7714" lon="2.13089">
        <ele>143.9</ele>
        <time>2022-05-03T08:47:18Z</time>
      </trkpt>
      <trkpt lat="48.77141" lon="2.13103">
        <ele>143.9</ele>
        <time>2022-05-03T08:47:23Z</time>
      </trkpt>
      <trkpt lat="48.77141" lon="2.13114">
        <ele>144</ele>
        <time>2022-05-03T08:47:31Z</time>
      </trkpt>
      <trkpt lat="48.7714" lon="2.13125">
        <ele>144.3</ele>
        <time>2022-05-03T08:47:37Z</time>
      </trkpt>
      <trkpt lat="48.77137" lon="2.13134">
        <ele>144.9</ele>
        <time>2022-05-03T08:47:47Z</time>
      </trkpt>
      <trkpt lat="48.7714" lon="2.13144">
        <ele>144.6</ele>
        <time>2022-05-03T08:48:02Z</time>
      </trkpt>
      <trkpt lat="48.77143" lon="2.13154">
        <ele>144.4</ele>
        <time>2022-05-03T08:48:07Z</time>
      </trkpt>
      <trkpt lat="48.77145" lon="2.13166">
        <ele>144.3</ele>
        <time>2022-05-03T08:48:12Z</time>
      </trkpt>
      <trkpt lat="48.77143" lon="2.13175">
        <ele>144</ele>
        <time>2022-05-03T08:48:28Z</time>
      </trkpt>
      <trkpt lat="48.77148" lon="2.13185">
        <ele>142.8</ele>
        <time>2022-05-03T08:48:34Z</time>
      </trkpt>
      <trkpt lat="48.77152" lon="2.13194">
        <ele>141.8</ele>
        <time>2022-05-03T08:48:39Z</time>
      </trkpt>
      <trkpt lat="48.77155" lon="2.13203">
        <ele>141</ele>
        <time>2022-05-03T08:48:44Z</time>
      </trkpt>
      <trkpt lat="48.7716" lon="2.13216">
        <ele>139.7</ele>
        <time>2022-05-03T08:48:49Z</time>
      </trkpt>
      <trkpt lat="48.77167" lon="2.13223">
        <ele>138.6</ele>
        <time>2022-05-03T08:48:54Z</time>
      </trkpt>
      <trkpt lat="48.7716" lon="2.13223">
        <ele>139.2</ele>
        <time>2022-05-03T08:49:02Z</time>
      </trkpt>
      <trkpt lat="48.77151" lon="2.13227">
        <ele>139.8</ele>
        <time>2022-05-03T08:49:07Z</time>
      </trkpt>
      <trkpt lat="48.77146" lon="2.13233">
        <ele>139.9</ele>
        <time>2022-05-03T08:49:12Z</time>
      </trkpt>
      <trkpt lat="48.77143" lon="2.13235">
        <ele>140</ele>
        <time>2022-05-03T08:50:05Z</time>
      </trkpt>
      <trkpt lat="48.77151" lon="2.13235">
        <ele>139.3</ele>
        <time>2022-05-03T08:50:10Z</time>
      </trkpt>
      <trkpt lat="48.77143" lon="2.13239">
        <ele>139.7</ele>
        <time>2022-05-03T08:50:42Z</time>
      </trkpt>
      <trkpt lat="48.77136" lon="2.13237">
        <ele>140.5</ele>
        <time>2022-05-03T08:50:55Z</time>
      </trkpt>
      <trkpt lat="48.77129" lon="2.13236">
        <ele>141.2</ele>
        <time>2022-05-03T08:51:00Z</time>
      </trkpt>
      <trkpt lat="48.77123" lon="2.13236">
        <ele>141.7</ele>
        <time>2022-05-03T08:51:23Z</time>
      </trkpt>
      <trkpt lat="48.77116" lon="2.13239">
        <ele>142.1</ele>
        <time>2022-05-03T08:51:33Z</time>
      </trkpt>
      <trkpt lat="48.77109" lon="2.13237">
        <ele>142.8</ele>
        <time>2022-05-03T08:51:58Z</time>
      </trkpt>
      <trkpt lat="48.77115" lon="2.13229">
        <ele>142.9</ele>
        <time>2022-05-03T08:52:37Z</time>
      </trkpt>
      <trkpt lat="48.77122" lon="2.13225">
        <ele>142.6</ele>
        <time>2022-05-03T08:52:58Z</time>
      </trkpt>
      <trkpt lat="48.77119" lon="2.13235">
        <ele>142.1</ele>
        <time>2022-05-03T08:53:06Z</time>
      </trkpt>
      <trkpt lat="48.77116" lon="2.13243">
        <ele>141.8</ele>
        <time>2022-05-03T08:53:28Z</time>
      </trkpt>
      <trkpt lat="48.77124" lon="2.13236">
        <ele>141.6</ele>
        <time>2022-05-03T08:53:59Z</time>
      </trkpt>
      <trkpt lat="48.7713" lon="2.13235">
        <ele>141.1</ele>
        <time>2022-05-03T08:54:07Z</time>
      </trkpt>
      <trkpt lat="48.77135" lon="2.13237">
        <ele>140.6</ele>
        <time>2022-05-03T08:54:18Z</time>
      </trkpt>
      <trkpt lat="48.77144" lon="2.13236">
        <ele>139.8</ele>
        <time>2022-05-03T08:54:55Z</time>
      </trkpt>
      <trkpt lat="48.77141" lon="2.13245">
        <ele>139.5</ele>
        <time>2022-05-03T08:55:03Z</time>
      </trkpt>
      <trkpt lat="48.77136" lon="2.13263">
        <ele>138.5</ele>
        <time>2022-05-03T08:55:08Z</time>
      </trkpt>
      <trkpt lat="48.77134" lon="2.13276">
        <ele>137.6</ele>
        <time>2022-05-03T08:55:13Z</time>
      </trkpt>
      <trkpt lat="48.77129" lon="2.13288">
        <ele>137</ele>
        <time>2022-05-03T08:55:18Z</time>
      </trkpt>
      <trkpt lat="48.77126" lon="2.13298">
        <ele>136.4</ele>
        <time>2022-05-03T08:55:23Z</time>
      </trkpt>
      <trkpt lat="48.77123" lon="2.13307">
        <ele>135.9</ele>
        <time>2022-05-03T08:55:28Z</time>
      </trkpt>
      <trkpt lat="48.77118" lon="2.13316">
        <ele>135.5</ele>
        <time>2022-05-03T08:55:33Z</time>
      </trkpt>
      <trkpt lat="48.77113" lon="2.13327">
        <ele>135</ele>
        <time>2022-05-03T08:55:38Z</time>
      </trkpt>
      <trkpt lat="48.77113" lon="2.13342">
        <ele>133.8</ele>
        <time>2022-05-03T08:55:43Z</time>
      </trkpt>
      <trkpt lat="48.77115" lon="2.13356">
        <ele>132.5</ele>
        <time>2022-05-03T08:55:48Z</time>
      </trkpt>
      <trkpt lat="48.77111" lon="2.1337">
        <ele>131.7</ele>
        <time>2022-05-03T08:55:53Z</time>
      </trkpt>
      <trkpt lat="48.77108" lon="2.1338">
        <ele>131.3</ele>
        <time>2022-05-03T08:56:00Z</time>
      </trkpt>
      <trkpt lat="48.77103" lon="2.13386">
        <ele>131.4</ele>
        <time>2022-05-03T08:56:05Z</time>
      </trkpt>
      <trkpt lat="48.77101" lon="2.13396">
        <ele>131</ele>
        <time>2022-05-03T08:56:13Z</time>
      </trkpt>
      <trkpt lat="48.771" lon="2.13406">
        <ele>130.4</ele>
        <time>2022-05-03T08:56:20Z</time>
      </trkpt>
      <trkpt lat="48.77099" lon="2.1342">
        <ele>129.7</ele>
        <time>2022-05-03T08:56:25Z</time>
      </trkpt>
      <trkpt lat="48.77094" lon="2.13429">
        <ele>130.5</ele>
        <time>2022-05-03T08:56:33Z</time>
      </trkpt>
      <trkpt lat="48.77089" lon="2.13441">
        <ele>131.3</ele>
        <time>2022-05-03T08:56:38Z</time>
      </trkpt>
      <trkpt lat="48.77089" lon="2.13458">
        <ele>131.4</ele>
        <time>2022-05-03T08:56:43Z</time>
      </trkpt>
      <trkpt lat="48.77085" lon="2.1347">
        <ele>132.3</ele>
        <time>2022-05-03T08:56:48Z</time>
      </trkpt>
      <trkpt lat="48.77083" lon="2.13483">
        <ele>132.8</ele>
        <time>2022-05-03T08:56:53Z</time>
      </trkpt>
      <trkpt lat="48.7708" lon="2.13495">
        <ele>133.4</ele>
        <time>2022-05-03T08:56:58Z</time>
      </trkpt>
      <trkpt lat="48.77075" lon="2.13511">
        <ele>134</ele>
        <time>2022-05-03T08:57:03Z</time>
      </trkpt>
      <trkpt lat="48.7707" lon="2.13519">
        <ele>134.6</ele>
        <time>2022-05-03T08:57:08Z</time>
      </trkpt>
      <trkpt lat="48.77073" lon="2.13528">
        <ele>134.1</ele>
        <time>2022-05-03T08:57:14Z</time>
      </trkpt>
      <trkpt lat="48.77071" lon="2.13538">
        <ele>134.3</ele>
        <time>2022-05-03T08:57:21Z</time>
      </trkpt>
      <trkpt lat="48.77071" lon="2.13549">
        <ele>134.2</ele>
        <time>2022-05-03T08:57:26Z</time>
      </trkpt>
      <trkpt lat="48.77072" lon="2.13559">
        <ele>134</ele>
        <time>2022-05-03T08:57:31Z</time>
      </trkpt>
      <trkpt lat="48.77071" lon="2.13572">
        <ele>134</ele>
        <time>2022-05-03T08:57:36Z</time>
      </trkpt>
      <trkpt lat="48.7707" lon="2.13585">
        <ele>133.9</ele>
        <time>2022-05-03T08:57:41Z</time>
      </trkpt>
      <trkpt lat="48.77072" lon="2.13596">
        <ele>132.6</ele>
        <time>2022-05-03T08:57:48Z</time>
      </trkpt>
      <trkpt lat="48.7707" lon="2.13605">
        <ele>132.1</ele>
        <time>2022-05-03T08:57:53Z</time>
      </trkpt>
      <trkpt lat="48.77066" lon="2.13616">
        <ele>131.7</ele>
        <time>2022-05-03T08:57:58Z</time>
      </trkpt>
      <trkpt lat="48.77064" lon="2.13628">
        <ele>131</ele>
        <time>2022-05-03T08:58:03Z</time>
      </trkpt>
      <trkpt lat="48.77065" lon="2.13639">
        <ele>129.8</ele>
        <time>2022-05-03T08:58:08Z</time>
      </trkpt>
      <trkpt lat="48.77062" lon="2.13652">
        <ele>129.2</ele>
        <time>2022-05-03T08:58:13Z</time>
      </trkpt>
      <trkpt lat="48.77063" lon="2.13662">
        <ele>128.1</ele>
        <time>2022-05-03T08:58:19Z</time>
      </trkpt>
      <trkpt lat="48.77059" lon="2.13674">
        <ele>128</ele>
        <time>2022-05-03T08:58:24Z</time>
      </trkpt>
      <trkpt lat="48.77055" lon="2.13685">
        <ele>128.1</ele>
        <time>2022-05-03T08:58:29Z</time>
      </trkpt>
      <trkpt lat="48.77052" lon="2.13696">
        <ele>128.1</ele>
        <time>2022-05-03T08:59:07Z</time>
      </trkpt>
      <trkpt lat="48.77051" lon="2.13706">
        <ele>127.8</ele>
        <time>2022-05-03T08:59:12Z</time>
      </trkpt>
      <trkpt lat="48.77047" lon="2.13715">
        <ele>128.1</ele>
        <time>2022-05-03T08:59:19Z</time>
      </trkpt>
      <trkpt lat="48.77041" lon="2.1372">
        <ele>129.1</ele>
        <time>2022-05-03T08:59:24Z</time>
      </trkpt>
      <trkpt lat="48.77035" lon="2.13725">
        <ele>130</ele>
        <time>2022-05-03T08:59:30Z</time>
      </trkpt>
      <trkpt lat="48.77027" lon="2.13724">
        <ele>131.6</ele>
        <time>2022-05-03T08:59:37Z</time>
      </trkpt>
      <trkpt lat="48.77018" lon="2.13723">
        <ele>133.4</ele>
        <time>2022-05-03T08:59:42Z</time>
      </trkpt>
      <trkpt lat="48.77011" lon="2.13722">
        <ele>134.9</ele>
        <time>2022-05-03T08:59:48Z</time>
      </trkpt>
      <trkpt lat="48.77005" lon="2.13726">
        <ele>135.9</ele>
        <time>2022-05-03T08:59:54Z</time>
      </trkpt>
      <trkpt lat="48.76998" lon="2.13731">
        <ele>136.8</ele>
        <time>2022-05-03T08:59:59Z</time>
      </trkpt>
      <trkpt lat="48.76992" lon="2.1374">
        <ele>136.8</ele>
        <time>2022-05-03T09:00:04Z</time>
      </trkpt>
      <trkpt lat="48.76986" lon="2.13751">
        <ele>136.6</ele>
        <time>2022-05-03T09:00:13Z</time>
      </trkpt>
      <trkpt lat="48.76982" lon="2.13758">
        <ele>136.1</ele>
        <time>2022-05-03T09:00:22Z</time>
      </trkpt>
      <trkpt lat="48.76974" lon="2.13757">
        <ele>136.6</ele>
        <time>2022-05-03T09:00:42Z</time>
      </trkpt>
      <trkpt lat="48.76968" lon="2.13755">
        <ele>137.1</ele>
        <time>2022-05-03T09:00:47Z</time>
      </trkpt>
      <trkpt lat="48.76962" lon="2.13751">
        <ele>137.7</ele>
        <time>2022-05-03T09:00:54Z</time>
      </trkpt>
      <trkpt lat="48.76956" lon="2.13743">
        <ele>138.5</ele>
        <time>2022-05-03T09:01:05Z</time>
      </trkpt>
      <trkpt lat="48.76951" lon="2.13736">
        <ele>139.3</ele>
        <time>2022-05-03T09:01:15Z</time>
      </trkpt>
      <trkpt lat="48.76945" lon="2.1373">
        <ele>140</ele>
        <time>2022-05-03T09:01:24Z</time>
      </trkpt>
      <trkpt lat="48.7694" lon="2.13723">
        <ele>140.8</ele>
        <time>2022-05-03T09:01:36Z</time>
      </trkpt>
      <trkpt lat="48.76936" lon="2.13715">
        <ele>141.6</ele>
        <time>2022-05-03T09:01:47Z</time>
      </trkpt>
      <trkpt lat="48.76929" lon="2.13712">
        <ele>142.3</ele>
        <time>2022-05-03T09:01:56Z</time>
      </trkpt>
      <trkpt lat="48.76922" lon="2.13707">
        <ele>143.2</ele>
        <time>2022-05-03T09:02:04Z</time>
      </trkpt>
      <trkpt lat="48.76917" lon="2.13701">
        <ele>144.1</ele>
        <time>2022-05-03T09:02:12Z</time>
      </trkpt>
      <trkpt lat="48.76912" lon="2.13694">
        <ele>144.8</ele>
        <time>2022-05-03T09:02:21Z</time>
      </trkpt>
      <trkpt lat="48.76906" lon="2.13688">
        <ele>145.3</ele>
        <time>2022-05-03T09:02:34Z</time>
      </trkpt>
      <trkpt lat="48.76901" lon="2.13681">
        <ele>145.8</ele>
        <time>2022-05-03T09:02:41Z</time>
      </trkpt>
      <trkpt lat="48.76906" lon="2.13673">
        <ele>146.4</ele>
        <time>2022-05-03T09:03:13Z</time>
      </trkpt>
      <trkpt lat="48.769" lon="2.13679">
        <ele>145.9</ele>
        <time>2022-05-03T09:04:08Z</time>
      </trkpt>
      <trkpt lat="48.76893" lon="2.1368">
        <ele>145.9</ele>
        <time>2022-05-03T09:04:18Z</time>
      </trkpt>
      <trkpt lat="48.76889" lon="2.13671">
        <ele>146.4</ele>
        <time>2022-05-03T09:04:25Z</time>
      </trkpt>
      <trkpt lat="48.76884" lon="2.13663">
        <ele>146.7</ele>
        <time>2022-05-03T09:04:32Z</time>
      </trkpt>
      <trkpt lat="48.76878" lon="2.13658">
        <ele>146.8</ele>
        <time>2022-05-03T09:04:39Z</time>
      </trkpt>
      <trkpt lat="48.76873" lon="2.13652">
        <ele>146.8</ele>
        <time>2022-05-03T09:04:46Z</time>
      </trkpt>
      <trkpt lat="48.76865" lon="2.13648">
        <ele>146.7</ele>
        <time>2022-05-03T09:04:52Z</time>
      </trkpt>
      <trkpt lat="48.76862" lon="2.13638">
        <ele>146.7</ele>
        <time>2022-05-03T09:04:58Z</time>
      </trkpt>
      <trkpt lat="48.76856" lon="2.1363">
        <ele>146.6</ele>
        <time>2022-05-03T09:05:04Z</time>
      </trkpt>
      <trkpt lat="48.7685" lon="2.13624">
        <ele>146.3</ele>
        <time>2022-05-03T09:05:11Z</time>
      </trkpt>
      <trkpt lat="48.76843" lon="2.13628">
        <ele>146</ele>
        <time>2022-05-03T09:05:22Z</time>
      </trkpt>
      <trkpt lat="48.76838" lon="2.13634">
        <ele>145.8</ele>
        <time>2022-05-03T09:05:27Z</time>
      </trkpt>
      <trkpt lat="48.76832" lon="2.13643">
        <ele>145.7</ele>
        <time>2022-05-03T09:05:32Z</time>
      </trkpt>
      <trkpt lat="48.76826" lon="2.1365">
        <ele>145.8</ele>
        <time>2022-05-03T09:05:37Z</time>
      </trkpt>
      <trkpt lat="48.76823" lon="2.1366">
        <ele>145.9</ele>
        <time>2022-05-03T09:05:43Z</time>
      </trkpt>
      <trkpt lat="48.76818" lon="2.13669">
        <ele>146</ele>
        <time>2022-05-03T09:05:48Z</time>
      </trkpt>
      <trkpt lat="48.76811" lon="2.13679">
        <ele>145.9</ele>
        <time>2022-05-03T09:05:53Z</time>
      </trkpt>
      <trkpt lat="48.76804" lon="2.13689">
        <ele>145.7</ele>
        <time>2022-05-03T09:05:58Z</time>
      </trkpt>
      <trkpt lat="48.76798" lon="2.13698">
        <ele>145.6</ele>
        <time>2022-05-03T09:06:03Z</time>
      </trkpt>
      <trkpt lat="48.76798" lon="2.13708">
        <ele>145.5</ele>
        <time>2022-05-03T09:06:09Z</time>
      </trkpt>
      <trkpt lat="48.768" lon="2.13717">
        <ele>145.4</ele>
        <time>2022-05-03T09:06:16Z</time>
      </trkpt>
      <trkpt lat="48.76799" lon="2.13728">
        <ele>145.3</ele>
        <time>2022-05-03T09:07:54Z</time>
      </trkpt>
      <trkpt lat="48.76802" lon="2.13736">
        <ele>145.2</ele>
        <time>2022-05-03T09:08:00Z</time>
      </trkpt>
      <trkpt lat="48.76803" lon="2.13746">
        <ele>145</ele>
        <time>2022-05-03T09:08:05Z</time>
      </trkpt>
      <trkpt lat="48.76803" lon="2.13757">
        <ele>145</ele>
        <time>2022-05-03T09:08:16Z</time>
      </trkpt>
      <trkpt lat="48.76801" lon="2.13766">
        <ele>145</ele>
        <time>2022-05-03T09:08:21Z</time>
      </trkpt>
      <trkpt lat="48.76799" lon="2.13777">
        <ele>144.9</ele>
        <time>2022-05-03T09:08:26Z</time>
      </trkpt>
      <trkpt lat="48.76801" lon="2.13789">
        <ele>144.9</ele>
        <time>2022-05-03T09:08:31Z</time>
      </trkpt>
      <trkpt lat="48.76803" lon="2.13799">
        <ele>144.8</ele>
        <time>2022-05-03T09:08:37Z</time>
      </trkpt>
      <trkpt lat="48.76803" lon="2.1381">
        <ele>144.8</ele>
        <time>2022-05-03T09:08:43Z</time>
      </trkpt>
      <trkpt lat="48.76803" lon="2.13825">
        <ele>144.8</ele>
        <time>2022-05-03T09:08:48Z</time>
      </trkpt>
      <trkpt lat="48.76805" lon="2.13836">
        <ele>144.7</ele>
        <time>2022-05-03T09:08:53Z</time>
      </trkpt>
      <trkpt lat="48.76803" lon="2.13847">
        <ele>144.7</ele>
        <time>2022-05-03T09:08:59Z</time>
      </trkpt>
      <trkpt lat="48.76803" lon="2.13857">
        <ele>144.8</ele>
        <time>2022-05-03T09:09:04Z</time>
      </trkpt>
      <trkpt lat="48.76803" lon="2.13868">
        <ele>144.8</ele>
        <time>2022-05-03T09:09:09Z</time>
      </trkpt>
      <trkpt lat="48.76799" lon="2.13877">
        <ele>144.9</ele>
        <time>2022-05-03T09:09:14Z</time>
      </trkpt>
      <trkpt lat="48.76797" lon="2.13888">
        <ele>145.1</ele>
        <time>2022-05-03T09:09:19Z</time>
      </trkpt>
      <trkpt lat="48.76796" lon="2.13901">
        <ele>145.2</ele>
        <time>2022-05-03T09:09:24Z</time>
      </trkpt>
      <trkpt lat="48.76796" lon="2.13914">
        <ele>145.2</ele>
        <time>2022-05-03T09:09:29Z</time>
      </trkpt>
      <trkpt lat="48.76797" lon="2.13924">
        <ele>145.1</ele>
        <time>2022-05-03T09:09:36Z</time>
      </trkpt>
      <trkpt lat="48.76802" lon="2.13934">
        <ele>144.6</ele>
        <time>2022-05-03T09:09:42Z</time>
      </trkpt>
      <trkpt lat="48.76808" lon="2.13942">
        <ele>144</ele>
        <time>2022-05-03T09:09:47Z</time>
      </trkpt>
      <trkpt lat="48.76814" lon="2.13948">
        <ele>143.4</ele>
        <time>2022-05-03T09:09:54Z</time>
      </trkpt>
      <trkpt lat="48.7682" lon="2.13953">
        <ele>142.8</ele>
        <time>2022-05-03T09:10:03Z</time>
      </trkpt>
      <trkpt lat="48.76826" lon="2.1395">
        <ele>142.4</ele>
        <time>2022-05-03T09:10:24Z</time>
      </trkpt>
      <trkpt lat="48.76833" lon="2.13952">
        <ele>141.8</ele>
        <time>2022-05-03T09:10:31Z</time>
      </trkpt>
      <trkpt lat="48.76841" lon="2.13958">
        <ele>140.5</ele>
        <time>2022-05-03T09:10:38Z</time>
      </trkpt>
      <trkpt lat="48.76844" lon="2.13967">
        <ele>139.7</ele>
        <time>2022-05-03T09:10:43Z</time>
      </trkpt>
      <trkpt lat="48.76846" lon="2.13977">
        <ele>139</ele>
        <time>2022-05-03T09:10:48Z</time>
      </trkpt>
      <trkpt lat="48.76843" lon="2.13986">
        <ele>139.1</ele>
        <time>2022-05-03T09:10:53Z</time>
      </trkpt>
      <trkpt lat="48.76838" lon="2.13994">
        <ele>139.5</ele>
        <time>2022-05-03T09:10:58Z</time>
      </trkpt>
      <trkpt lat="48.76831" lon="2.13997">
        <ele>140.4</ele>
        <time>2022-05-03T09:11:05Z</time>
      </trkpt>
      <trkpt lat="48.76825" lon="2.14001">
        <ele>140.8</ele>
        <time>2022-05-03T09:11:10Z</time>
      </trkpt>
      <trkpt lat="48.76817" lon="2.14006">
        <ele>141.4</ele>
        <time>2022-05-03T09:11:15Z</time>
      </trkpt>
      <trkpt lat="48.7681" lon="2.1401">
        <ele>142</ele>
        <time>2022-05-03T09:11:20Z</time>
      </trkpt>
      <trkpt lat="48.76805" lon="2.14017">
        <ele>142.1</ele>
        <time>2022-05-03T09:11:27Z</time>
      </trkpt>
      <trkpt lat="48.76803" lon="2.14027">
        <ele>141.7</ele>
        <time>2022-05-03T09:11:33Z</time>
      </trkpt>
      <trkpt lat="48.76808" lon="2.14033">
        <ele>140.9</ele>
        <time>2022-05-03T09:11:39Z</time>
      </trkpt>
      <trkpt lat="48.76815" lon="2.14038">
        <ele>140</ele>
        <time>2022-05-03T09:11:50Z</time>
      </trkpt>
      <trkpt lat="48.76825" lon="2.14047">
        <ele>138.5</ele>
        <time>2022-05-03T09:12:48Z</time>
      </trkpt>
      <trkpt lat="48.76828" lon="2.14055">
        <ele>137.9</ele>
        <time>2022-05-03T09:12:54Z</time>
      </trkpt>
      <trkpt lat="48.76826" lon="2.14066">
        <ele>137.5</ele>
        <time>2022-05-03T09:13:02Z</time>
      </trkpt>
      <trkpt lat="48.76827" lon="2.14077">
        <ele>136.8</ele>
        <time>2022-05-03T09:13:22Z</time>
      </trkpt>
      <trkpt lat="48.76825" lon="2.14087">
        <ele>136.2</ele>
        <time>2022-05-03T09:13:27Z</time>
      </trkpt>
      <trkpt lat="48.76823" lon="2.14098">
        <ele>134.9</ele>
        <time>2022-05-03T09:13:37Z</time>
      </trkpt>
      <trkpt lat="48.76819" lon="2.14107">
        <ele>134</ele>
        <time>2022-05-03T09:13:43Z</time>
      </trkpt>
      <trkpt lat="48.76813" lon="2.14113">
        <ele>133.7</ele>
        <time>2022-05-03T09:13:48Z</time>
      </trkpt>
      <trkpt lat="48.7681" lon="2.14122">
        <ele>132.7</ele>
        <time>2022-05-03T09:13:54Z</time>
      </trkpt>
      <trkpt lat="48.76803" lon="2.14128">
        <ele>132.5</ele>
        <time>2022-05-03T09:13:59Z</time>
      </trkpt>
      <trkpt lat="48.76798" lon="2.14136">
        <ele>131.7</ele>
        <time>2022-05-03T09:14:07Z</time>
      </trkpt>
      <trkpt lat="48.76793" lon="2.14143">
        <ele>131.2</ele>
        <time>2022-05-03T09:14:13Z</time>
      </trkpt>
      <trkpt lat="48.76785" lon="2.14151">
        <ele>130.7</ele>
        <time>2022-05-03T09:14:18Z</time>
      </trkpt>
      <trkpt lat="48.76779" lon="2.14157">
        <ele>130.3</ele>
        <time>2022-05-03T09:14:25Z</time>
      </trkpt>
      <trkpt lat="48.76773" lon="2.14161">
        <ele>130.1</ele>
        <time>2022-05-03T09:14:30Z</time>
      </trkpt>
      <trkpt lat="48.76767" lon="2.14165">
        <ele>130</ele>
        <time>2022-05-03T09:14:35Z</time>
      </trkpt>
      <trkpt lat="48.76761" lon="2.14169">
        <ele>130</ele>
        <time>2022-05-03T09:14:52Z</time>
      </trkpt>
      <trkpt lat="48.76755" lon="2.14174">
        <ele>130.1</ele>
        <time>2022-05-03T09:14:57Z</time>
      </trkpt>
      <trkpt lat="48.76748" lon="2.14177">
        <ele>130.5</ele>
        <time>2022-05-03T09:15:02Z</time>
      </trkpt>
      <trkpt lat="48.76741" lon="2.14178">
        <ele>131.2</ele>
        <time>2022-05-03T09:15:07Z</time>
      </trkpt>
      <trkpt lat="48.76735" lon="2.14172">
        <ele>132.3</ele>
        <time>2022-05-03T09:15:13Z</time>
      </trkpt>
      <trkpt lat="48.76728" lon="2.14174">
        <ele>133</ele>
        <time>2022-05-03T09:15:28Z</time>
      </trkpt>
      <trkpt lat="48.76717" lon="2.14189">
        <ele>133.6</ele>
        <time>2022-05-03T09:15:33Z</time>
      </trkpt>
      <trkpt lat="48.7672" lon="2.14199">
        <ele>132.8</ele>
        <time>2022-05-03T09:15:38Z</time>
      </trkpt>
      <trkpt lat="48.76725" lon="2.14205">
        <ele>131.8</ele>
        <time>2022-05-03T09:15:44Z</time>
      </trkpt>
      <trkpt lat="48.76731" lon="2.14213">
        <ele>130.5</ele>
        <time>2022-05-03T09:15:49Z</time>
      </trkpt>
      <trkpt lat="48.76737" lon="2.14225">
        <ele>128.9</ele>
        <time>2022-05-03T09:15:54Z</time>
      </trkpt>
      <trkpt lat="48.76743" lon="2.14234">
        <ele>127.3</ele>
        <time>2022-05-03T09:15:59Z</time>
      </trkpt>
      <trkpt lat="48.76748" lon="2.14241">
        <ele>126</ele>
        <time>2022-05-03T09:16:04Z</time>
      </trkpt>
      <trkpt lat="48.76755" lon="2.14248">
        <ele>124.5</ele>
        <time>2022-05-03T09:16:09Z</time>
      </trkpt>
      <trkpt lat="48.7676" lon="2.14256">
        <ele>123.8</ele>
        <time>2022-05-03T09:16:16Z</time>
      </trkpt>
      <trkpt lat="48.76766" lon="2.14265">
        <ele>123</ele>
        <time>2022-05-03T09:16:21Z</time>
      </trkpt>
      <trkpt lat="48.76773" lon="2.14272">
        <ele>122.1</ele>
        <time>2022-05-03T09:16:26Z</time>
      </trkpt>
      <trkpt lat="48.76778" lon="2.14279">
        <ele>121.4</ele>
        <time>2022-05-03T09:16:31Z</time>
      </trkpt>
      <trkpt lat="48.76785" lon="2.14287">
        <ele>120.4</ele>
        <time>2022-05-03T09:16:36Z</time>
      </trkpt>
      <trkpt lat="48.76793" lon="2.14294">
        <ele>119.3</ele>
        <time>2022-05-03T09:16:41Z</time>
      </trkpt>
      <trkpt lat="48.76799" lon="2.14301">
        <ele>118.4</ele>
        <time>2022-05-03T09:16:46Z</time>
      </trkpt>
      <trkpt lat="48.76805" lon="2.14308">
        <ele>117.5</ele>
        <time>2022-05-03T09:16:51Z</time>
      </trkpt>
      <trkpt lat="48.76811" lon="2.14313">
        <ele>116.6</ele>
        <time>2022-05-03T09:16:56Z</time>
      </trkpt>
      <trkpt lat="48.76815" lon="2.14323">
        <ele>115.8</ele>
        <time>2022-05-03T09:17:02Z</time>
      </trkpt>
      <trkpt lat="48.7682" lon="2.14331">
        <ele>115</ele>
        <time>2022-05-03T09:17:07Z</time>
      </trkpt>
      <trkpt lat="48.76826" lon="2.1434">
        <ele>113.8</ele>
        <time>2022-05-03T09:17:12Z</time>
      </trkpt>
      <trkpt lat="48.76832" lon="2.14346">
        <ele>112.7</ele>
        <time>2022-05-03T09:17:17Z</time>
      </trkpt>
      <trkpt lat="48.76838" lon="2.14353">
        <ele>111.9</ele>
        <time>2022-05-03T09:17:22Z</time>
      </trkpt>
      <trkpt lat="48.76844" lon="2.14353">
        <ele>111.4</ele>
        <time>2022-05-03T09:17:28Z</time>
      </trkpt>
      <trkpt lat="48.76851" lon="2.14358">
        <ele>110.6</ele>
        <time>2022-05-03T09:17:42Z</time>
      </trkpt>
      <trkpt lat="48.76858" lon="2.14361">
        <ele>109.9</ele>
        <time>2022-05-03T09:17:48Z</time>
      </trkpt>
      <trkpt lat="48.76865" lon="2.14363">
        <ele>109.3</ele>
        <time>2022-05-03T09:18:04Z</time>
      </trkpt>
      <trkpt lat="48.76861" lon="2.14373">
        <ele>109.4</ele>
        <time>2022-05-03T09:18:11Z</time>
      </trkpt>
      <trkpt lat="48.76855" lon="2.14378">
        <ele>109.7</ele>
        <time>2022-05-03T09:18:16Z</time>
      </trkpt>
      <trkpt lat="48.76854" lon="2.14388">
        <ele>109.5</ele>
        <time>2022-05-03T09:18:26Z</time>
      </trkpt>
      <trkpt lat="48.76851" lon="2.14398">
        <ele>109.5</ele>
        <time>2022-05-03T09:18:32Z</time>
      </trkpt>
      <trkpt lat="48.76851" lon="2.14408">
        <ele>109.2</ele>
        <time>2022-05-03T09:18:41Z</time>
      </trkpt>
      <trkpt lat="48.76849" lon="2.14419">
        <ele>109</ele>
        <time>2022-05-03T09:18:47Z</time>
      </trkpt>
      <trkpt lat="48.76844" lon="2.1443">
        <ele>109</ele>
        <time>2022-05-03T09:18:54Z</time>
      </trkpt>
      <trkpt lat="48.7684" lon="2.14444">
        <ele>108.9</ele>
        <time>2022-05-03T09:18:59Z</time>
      </trkpt>
      <trkpt lat="48.76837" lon="2.14458">
        <ele>108.8</ele>
        <time>2022-05-03T09:19:04Z</time>
      </trkpt>
      <trkpt lat="48.76832" lon="2.14467">
        <ele>109</ele>
        <time>2022-05-03T09:19:10Z</time>
      </trkpt>
      <trkpt lat="48.76833" lon="2.14477">
        <ele>108.6</ele>
        <time>2022-05-03T09:19:21Z</time>
      </trkpt>
      <trkpt lat="48.76829" lon="2.14487">
        <ele>108.9</ele>
        <time>2022-05-03T09:19:29Z</time>
      </trkpt>
      <trkpt lat="48.76826" lon="2.14496">
        <ele>109</ele>
        <time>2022-05-03T09:20:05Z</time>
      </trkpt>
      <trkpt lat="48.76821" lon="2.14505">
        <ele>109.5</ele>
        <time>2022-05-03T09:20:10Z</time>
      </trkpt>
      <trkpt lat="48.76818" lon="2.14515">
        <ele>110</ele>
        <time>2022-05-03T09:20:16Z</time>
      </trkpt>
      <trkpt lat="48.76816" lon="2.14526">
        <ele>110.2</ele>
        <time>2022-05-03T09:20:21Z</time>
      </trkpt>
      <trkpt lat="48.76815" lon="2.14538">
        <ele>110.4</ele>
        <time>2022-05-03T09:20:26Z</time>
      </trkpt>
      <trkpt lat="48.76813" lon="2.14549">
        <ele>110.6</ele>
        <time>2022-05-03T09:20:31Z</time>
      </trkpt>
      <trkpt lat="48.7681" lon="2.1456">
        <ele>110.8</ele>
        <time>2022-05-03T09:20:37Z</time>
      </trkpt>
      <trkpt lat="48.76807" lon="2.14568">
        <ele>111</ele>
        <time>2022-05-03T09:20:42Z</time>
      </trkpt>
      <trkpt lat="48.76804" lon="2.14578">
        <ele>111.1</ele>
        <time>2022-05-03T09:20:47Z</time>
      </trkpt>
      <trkpt lat="48.7681" lon="2.14587">
        <ele>110.7</ele>
        <time>2022-05-03T09:21:21Z</time>
      </trkpt>
      <trkpt lat="48.76805" lon="2.14595">
        <ele>110.6</ele>
        <time>2022-05-03T09:21:28Z</time>
      </trkpt>
      <trkpt lat="48.768" lon="2.14607">
        <ele>110.2</ele>
        <time>2022-05-03T09:21:33Z</time>
      </trkpt>
      <trkpt lat="48.76795" lon="2.14618">
        <ele>109.9</ele>
        <time>2022-05-03T09:21:38Z</time>
      </trkpt>
      <trkpt lat="48.76789" lon="2.1462">
        <ele>110</ele>
        <time>2022-05-03T09:22:17Z</time>
      </trkpt>
      <trkpt lat="48.76788" lon="2.1463">
        <ele>109.6</ele>
        <time>2022-05-03T09:22:22Z</time>
      </trkpt>
      <trkpt lat="48.76796" lon="2.14639">
        <ele>109</ele>
        <time>2022-05-03T09:22:27Z</time>
      </trkpt>
      <trkpt lat="48.76785" lon="2.14641">
        <ele>109.3</ele>
        <time>2022-05-03T09:22:32Z</time>
      </trkpt>
      <trkpt lat="48.7679" lon="2.14632">
        <ele>109.5</ele>
        <time>2022-05-03T09:22:37Z</time>
      </trkpt>
      <trkpt lat="48.76783" lon="2.14627">
        <ele>109.9</ele>
        <time>2022-05-03T09:22:50Z</time>
      </trkpt>
      <trkpt lat="48.76777" lon="2.14622">
        <ele>110.3</ele>
        <time>2022-05-03T09:22:55Z</time>
      </trkpt>
      <trkpt lat="48.76772" lon="2.14616">
        <ele>110.7</ele>
        <time>2022-05-03T09:23:00Z</time>
      </trkpt>
      <trkpt lat="48.76767" lon="2.1461">
        <ele>111.2</ele>
        <time>2022-05-03T09:23:09Z</time>
      </trkpt>
      <trkpt lat="48.7676" lon="2.14606">
        <ele>111.6</ele>
        <time>2022-05-03T09:23:15Z</time>
      </trkpt>
      <trkpt lat="48.76754" lon="2.146">
        <ele>112.1</ele>
        <time>2022-05-03T09:23:20Z</time>
      </trkpt>
      <trkpt lat="48.76746" lon="2.14596">
        <ele>112.6</ele>
        <time>2022-05-03T09:23:25Z</time>
      </trkpt>
      <trkpt lat="48.7674" lon="2.1459">
        <ele>113.3</ele>
        <time>2022-05-03T09:23:31Z</time>
      </trkpt>
      <trkpt lat="48.76736" lon="2.14582">
        <ele>113.9</ele>
        <time>2022-05-03T09:23:36Z</time>
      </trkpt>
      <trkpt lat="48.7673" lon="2.14577">
        <ele>114.7</ele>
        <time>2022-05-03T09:23:42Z</time>
      </trkpt>
      <trkpt lat="48.76722" lon="2.14572">
        <ele>115.6</ele>
        <time>2022-05-03T09:23:47Z</time>
      </trkpt>
      <trkpt lat="48.76717" lon="2.14566">
        <ele>116.4</ele>
        <time>2022-05-03T09:23:52Z</time>
      </trkpt>
      <trkpt lat="48.76712" lon="2.14557">
        <ele>117.6</ele>
        <time>2022-05-03T09:23:58Z</time>
      </trkpt>
      <trkpt lat="48.76708" lon="2.14547">
        <ele>118.8</ele>
        <time>2022-05-03T09:24:05Z</time>
      </trkpt>
      <trkpt lat="48.76703" lon="2.14541">
        <ele>119.8</ele>
        <time>2022-05-03T09:24:11Z</time>
      </trkpt>
      <trkpt lat="48.76696" lon="2.14536">
        <ele>120.9</ele>
        <time>2022-05-03T09:24:17Z</time>
      </trkpt>
      <trkpt lat="48.7669" lon="2.14533">
        <ele>121.8</ele>
        <time>2022-05-03T09:24:22Z</time>
      </trkpt>
      <trkpt lat="48.76684" lon="2.14529">
        <ele>122.8</ele>
        <time>2022-05-03T09:24:27Z</time>
      </trkpt>
      <trkpt lat="48.76678" lon="2.14522">
        <ele>124.2</ele>
        <time>2022-05-03T09:24:32Z</time>
      </trkpt>
      <trkpt lat="48.76671" lon="2.14515">
        <ele>125.7</ele>
        <time>2022-05-03T09:24:37Z</time>
      </trkpt>
      <trkpt lat="48.76665" lon="2.14511">
        <ele>126.9</ele>
        <time>2022-05-03T09:24:43Z</time>
      </trkpt>
      <trkpt lat="48.76662" lon="2.14502">
        <ele>128.4</ele>
        <time>2022-05-03T09:24:55Z</time>
      </trkpt>
      <trkpt lat="48.76655" lon="2.14497">
        <ele>129.9</ele>
        <time>2022-05-03T09:25:01Z</time>
      </trkpt>
      <trkpt lat="48.7665" lon="2.14489">
        <ele>131.5</ele>
        <time>2022-05-03T09:25:07Z</time>
      </trkpt>
      <trkpt lat="48.76642" lon="2.14484">
        <ele>133</ele>
        <time>2022-05-03T09:25:16Z</time>
      </trkpt>
      <trkpt lat="48.76636" lon="2.14483">
        <ele>133.8</ele>
        <time>2022-05-03T09:25:23Z</time>
      </trkpt>
      <trkpt lat="48.76629" lon="2.14483">
        <ele>134.6</ele>
        <time>2022-05-03T09:25:33Z</time>
      </trkpt>
      <trkpt lat="48.76629" lon="2.14473">
        <ele>135.5</ele>
        <time>2022-05-03T09:25:56Z</time>
      </trkpt>
      <trkpt lat="48.76629" lon="2.14462">
        <ele>136.5</ele>
        <time>2022-05-03T09:26:02Z</time>
      </trkpt>
      <trkpt lat="48.76627" lon="2.14453">
        <ele>137.6</ele>
        <time>2022-05-03T09:26:09Z</time>
      </trkpt>
      <trkpt lat="48.76622" lon="2.14445">
        <ele>138.7</ele>
        <time>2022-05-03T09:26:36Z</time>
      </trkpt>
      <trkpt lat="48.76615" lon="2.14445">
        <ele>139.2</ele>
        <time>2022-05-03T09:26:46Z</time>
      </trkpt>
      <trkpt lat="48.76609" lon="2.14443">
        <ele>139.8</ele>
        <time>2022-05-03T09:26:57Z</time>
      </trkpt>
      <trkpt lat="48.76603" lon="2.14438">
        <ele>140.6</ele>
        <time>2022-05-03T09:27:05Z</time>
      </trkpt>
      <trkpt lat="48.76596" lon="2.14433">
        <ele>141.4</ele>
        <time>2022-05-03T09:27:16Z</time>
      </trkpt>
      <trkpt lat="48.76589" lon="2.14432">
        <ele>141.9</ele>
        <time>2022-05-03T09:27:23Z</time>
      </trkpt>
      <trkpt lat="48.76582" lon="2.14429">
        <ele>142.4</ele>
        <time>2022-05-03T09:27:31Z</time>
      </trkpt>
      <trkpt lat="48.76574" lon="2.14425">
        <ele>142.8</ele>
        <time>2022-05-03T09:27:39Z</time>
      </trkpt>
      <trkpt lat="48.76568" lon="2.14421">
        <ele>143</ele>
        <time>2022-05-03T09:27:45Z</time>
      </trkpt>
      <trkpt lat="48.76562" lon="2.14416">
        <ele>143.3</ele>
        <time>2022-05-03T09:27:51Z</time>
      </trkpt>
      <trkpt lat="48.76555" lon="2.14413">
        <ele>143.5</ele>
        <time>2022-05-03T09:27:57Z</time>
      </trkpt>
      <trkpt lat="48.76549" lon="2.14409">
        <ele>143.8</ele>
        <time>2022-05-03T09:28:03Z</time>
      </trkpt>
      <trkpt lat="48.76544" lon="2.14401">
        <ele>144.3</ele>
        <time>2022-05-03T09:28:08Z</time>
      </trkpt>
      <trkpt lat="48.76537" lon="2.14402">
        <ele>144.3</ele>
        <time>2022-05-03T09:28:17Z</time>
      </trkpt>
      <trkpt lat="48.7653" lon="2.14399">
        <ele>144.6</ele>
        <time>2022-05-03T09:28:23Z</time>
      </trkpt>
      <trkpt lat="48.76524" lon="2.14394">
        <ele>144.9</ele>
        <time>2022-05-03T09:28:28Z</time>
      </trkpt>
      <trkpt lat="48.76517" lon="2.14391">
        <ele>145.1</ele>
        <time>2022-05-03T09:28:33Z</time>
      </trkpt>
      <trkpt lat="48.76508" lon="2.14395">
        <ele>145</ele>
        <time>2022-05-03T09:28:38Z</time>
      </trkpt>
      <trkpt lat="48.76499" lon="2.14403">
        <ele>144.7</ele>
        <time>2022-05-03T09:28:43Z</time>
      </trkpt>
      <trkpt lat="48.76492" lon="2.14408">
        <ele>144.7</ele>
        <time>2022-05-03T09:28:48Z</time>
      </trkpt>
      <trkpt lat="48.76484" lon="2.14409">
        <ele>144.9</ele>
        <time>2022-05-03T09:28:53Z</time>
      </trkpt>
      <trkpt lat="48.76477" lon="2.14408">
        <ele>145.2</ele>
        <time>2022-05-03T09:28:58Z</time>
      </trkpt>
      <trkpt lat="48.76467" lon="2.14407">
        <ele>145.6</ele>
        <time>2022-05-03T09:29:03Z</time>
      </trkpt>
      <trkpt lat="48.7646" lon="2.14407">
        <ele>145.8</ele>
        <time>2022-05-03T09:29:11Z</time>
      </trkpt>
      <trkpt lat="48.76455" lon="2.14399">
        <ele>146.2</ele>
        <time>2022-05-03T09:29:17Z</time>
      </trkpt>
      <trkpt lat="48.76454" lon="2.14389">
        <ele>146.6</ele>
        <time>2022-05-03T09:29:22Z</time>
      </trkpt>
      <trkpt lat="48.76451" lon="2.14378">
        <ele>147.1</ele>
        <time>2022-05-03T09:29:28Z</time>
      </trkpt>
      <trkpt lat="48.76449" lon="2.14367">
        <ele>147.5</ele>
        <time>2022-05-03T09:29:33Z</time>
      </trkpt>
      <trkpt lat="48.76449" lon="2.14358">
        <ele>147.8</ele>
        <time>2022-05-03T09:29:38Z</time>
      </trkpt>
      <trkpt lat="48.76448" lon="2.14347">
        <ele>148.2</ele>
        <time>2022-05-03T09:29:44Z</time>
      </trkpt>
      <trkpt lat="48.76447" lon="2.14337">
        <ele>148.5</ele>
        <time>2022-05-03T09:29:49Z</time>
      </trkpt>
      <trkpt lat="48.76445" lon="2.14327">
        <ele>148.8</ele>
        <time>2022-05-03T09:29:54Z</time>
      </trkpt>
      <trkpt lat="48.76444" lon="2.14312">
        <ele>149</ele>
        <time>2022-05-03T09:29:59Z</time>
      </trkpt>
      <trkpt lat="48.76442" lon="2.14297">
        <ele>149.3</ele>
        <time>2022-05-03T09:30:04Z</time>
      </trkpt>
      <trkpt lat="48.76436" lon="2.1429">
        <ele>149.4</ele>
        <time>2022-05-03T09:30:16Z</time>
      </trkpt>
      <trkpt lat="48.76429" lon="2.14288">
        <ele>149.5</ele>
        <time>2022-05-03T09:30:21Z</time>
      </trkpt>
      <trkpt lat="48.76422" lon="2.14292">
        <ele>149.5</ele>
        <time>2022-05-03T09:30:27Z</time>
      </trkpt>
      <trkpt lat="48.76411" lon="2.14298">
        <ele>149.4</ele>
        <time>2022-05-03T09:30:32Z</time>
      </trkpt>
      <trkpt lat="48.76401" lon="2.14301">
        <ele>149.3</ele>
        <time>2022-05-03T09:30:37Z</time>
      </trkpt>
      <trkpt lat="48.76397" lon="2.14292">
        <ele>149.4</ele>
        <time>2022-05-03T09:30:45Z</time>
      </trkpt>
      <trkpt lat="48.76389" lon="2.14294">
        <ele>149.3</ele>
        <time>2022-05-03T09:30:58Z</time>
      </trkpt>
      <trkpt lat="48.76382" lon="2.14296">
        <ele>149.2</ele>
        <time>2022-05-03T09:31:03Z</time>
      </trkpt>
      <trkpt lat="48.76374" lon="2.14294">
        <ele>149.2</ele>
        <time>2022-05-03T09:31:08Z</time>
      </trkpt>
      <trkpt lat="48.76366" lon="2.14289">
        <ele>149.2</ele>
        <time>2022-05-03T09:31:13Z</time>
      </trkpt>
      <trkpt lat="48.76358" lon="2.14288">
        <ele>149.2</ele>
        <time>2022-05-03T09:31:18Z</time>
      </trkpt>
      <trkpt lat="48.7635" lon="2.14289">
        <ele>149.2</ele>
        <time>2022-05-03T09:31:23Z</time>
      </trkpt>
      <trkpt lat="48.76343" lon="2.1429">
        <ele>149.1</ele>
        <time>2022-05-03T09:31:30Z</time>
      </trkpt>
      <trkpt lat="48.76336" lon="2.1429">
        <ele>149.1</ele>
        <time>2022-05-03T09:31:38Z</time>
      </trkpt>
      <trkpt lat="48.7633" lon="2.14288">
        <ele>149.1</ele>
        <time>2022-05-03T09:31:51Z</time>
      </trkpt>
      <trkpt lat="48.76323" lon="2.14285">
        <ele>149.3</ele>
        <time>2022-05-03T09:31:56Z</time>
      </trkpt>
      <trkpt lat="48.76316" lon="2.14284">
        <ele>149.5</ele>
        <time>2022-05-03T09:32:01Z</time>
      </trkpt>
      <trkpt lat="48.76309" lon="2.14286">
        <ele>149.6</ele>
        <time>2022-05-03T09:32:08Z</time>
      </trkpt>
      <trkpt lat="48.76302" lon="2.14287">
        <ele>149.7</ele>
        <time>2022-05-03T09:32:14Z</time>
      </trkpt>
      <trkpt lat="48.76296" lon="2.14288">
        <ele>149.7</ele>
        <time>2022-05-03T09:32:19Z</time>
      </trkpt>
      <trkpt lat="48.76289" lon="2.14288">
        <ele>149.9</ele>
        <time>2022-05-03T09:32:24Z</time>
      </trkpt>
      <trkpt lat="48.76282" lon="2.14289">
        <ele>150</ele>
        <time>2022-05-03T09:32:30Z</time>
      </trkpt>
      <trkpt lat="48.76275" lon="2.14291">
        <ele>150.1</ele>
        <time>2022-05-03T09:32:35Z</time>
      </trkpt>
      <trkpt lat="48.76268" lon="2.14295">
        <ele>150.1</ele>
        <time>2022-05-03T09:32:40Z</time>
      </trkpt>
      <trkpt lat="48.76261" lon="2.143">
        <ele>150.2</ele>
        <time>2022-05-03T09:32:56Z</time>
      </trkpt>
      <trkpt lat="48.76255" lon="2.14303">
        <ele>150.3</ele>
        <time>2022-05-03T09:33:02Z</time>
      </trkpt>
      <trkpt lat="48.76248" lon="2.14301">
        <ele>150.4</ele>
        <time>2022-05-03T09:33:10Z</time>
      </trkpt>
      <trkpt lat="48.76241" lon="2.14296">
        <ele>150.5</ele>
        <time>2022-05-03T09:33:16Z</time>
      </trkpt>
      <trkpt lat="48.76234" lon="2.14294">
        <ele>150.6</ele>
        <time>2022-05-03T09:33:21Z</time>
      </trkpt>
      <trkpt lat="48.76226" lon="2.14292">
        <ele>150.6</ele>
        <time>2022-05-03T09:33:26Z</time>
      </trkpt>
      <trkpt lat="48.76217" lon="2.14291">
        <ele>150.7</ele>
        <time>2022-05-03T09:33:31Z</time>
      </trkpt>
      <trkpt lat="48.7621" lon="2.14287">
        <ele>150.8</ele>
        <time>2022-05-03T09:33:37Z</time>
      </trkpt>
      <trkpt lat="48.76202" lon="2.14284">
        <ele>150.8</ele>
        <time>2022-05-03T09:33:42Z</time>
      </trkpt>
      <trkpt lat="48.76193" lon="2.14284">
        <ele>150.9</ele>
        <time>2022-05-03T09:33:47Z</time>
      </trkpt>
      <trkpt lat="48.76186" lon="2.14283">
        <ele>150.9</ele>
        <time>2022-05-03T09:33:52Z</time>
      </trkpt>
      <trkpt lat="48.76179" lon="2.14281">
        <ele>150.9</ele>
        <time>2022-05-03T09:34:01Z</time>
      </trkpt>
      <trkpt lat="48.76172" lon="2.14281">
        <ele>151</ele>
        <time>2022-05-03T09:34:10Z</time>
      </trkpt>
      <trkpt lat="48.76165" lon="2.14277">
        <ele>151</ele>
        <time>2022-05-03T09:34:17Z</time>
      </trkpt>
      <trkpt lat="48.76158" lon="2.14278">
        <ele>151.2</ele>
        <time>2022-05-03T09:34:22Z</time>
      </trkpt>
      <trkpt lat="48.76149" lon="2.1428">
        <ele>151.3</ele>
        <time>2022-05-03T09:34:27Z</time>
      </trkpt>
      <trkpt lat="48.7614" lon="2.14282">
        <ele>151.5</ele>
        <time>2022-05-03T09:34:32Z</time>
      </trkpt>
      <trkpt lat="48.76132" lon="2.14283">
        <ele>151.7</ele>
        <time>2022-05-03T09:34:37Z</time>
      </trkpt>
      <trkpt lat="48.76125" lon="2.14284">
        <ele>151.8</ele>
        <time>2022-05-03T09:34:42Z</time>
      </trkpt>
      <trkpt lat="48.76118" lon="2.14284">
        <ele>151.9</ele>
        <time>2022-05-03T09:34:47Z</time>
      </trkpt>
      <trkpt lat="48.7611" lon="2.14278">
        <ele>152.1</ele>
        <time>2022-05-03T09:34:52Z</time>
      </trkpt>
      <trkpt lat="48.76103" lon="2.14277">
        <ele>152.3</ele>
        <time>2022-05-03T09:34:57Z</time>
      </trkpt>
      <trkpt lat="48.76096" lon="2.14278">
        <ele>152.4</ele>
        <time>2022-05-03T09:35:06Z</time>
      </trkpt>
      <trkpt lat="48.76089" lon="2.14278">
        <ele>152.6</ele>
        <time>2022-05-03T09:35:11Z</time>
      </trkpt>
      <trkpt lat="48.76082" lon="2.1428">
        <ele>152.7</ele>
        <time>2022-05-03T09:35:16Z</time>
      </trkpt>
      <trkpt lat="48.76074" lon="2.14283">
        <ele>152.7</ele>
        <time>2022-05-03T09:35:21Z</time>
      </trkpt>
      <trkpt lat="48.76067" lon="2.14281">
        <ele>152.8</ele>
        <time>2022-05-03T09:35:27Z</time>
      </trkpt>
      <trkpt lat="48.76058" lon="2.14282">
        <ele>152.8</ele>
        <time>2022-05-03T09:35:32Z</time>
      </trkpt>
      <trkpt lat="48.76049" lon="2.14282">
        <ele>152.9</ele>
        <time>2022-05-03T09:35:37Z</time>
      </trkpt>
      <trkpt lat="48.76041" lon="2.14284">
        <ele>153</ele>
        <time>2022-05-03T09:35:42Z</time>
      </trkpt>
      <trkpt lat="48.76033" lon="2.14283">
        <ele>153.1</ele>
        <time>2022-05-03T09:35:48Z</time>
      </trkpt>
      <trkpt lat="48.76026" lon="2.14283">
        <ele>153.1</ele>
        <time>2022-05-03T09:35:53Z</time>
      </trkpt>
      <trkpt lat="48.76018" lon="2.14286">
        <ele>153.2</ele>
        <time>2022-05-03T09:35:58Z</time>
      </trkpt>
      <trkpt lat="48.7601" lon="2.14291">
        <ele>153.4</ele>
        <time>2022-05-03T09:36:03Z</time>
      </trkpt>
      <trkpt lat="48.76003" lon="2.14292">
        <ele>153.5</ele>
        <time>2022-05-03T09:36:08Z</time>
      </trkpt>
      <trkpt lat="48.75995" lon="2.14294">
        <ele>153.3</ele>
        <time>2022-05-03T09:36:13Z</time>
      </trkpt>
      <trkpt lat="48.75988" lon="2.14292">
        <ele>153.1</ele>
        <time>2022-05-03T09:36:18Z</time>
      </trkpt>
      <trkpt lat="48.75981" lon="2.1429">
        <ele>152.8</ele>
        <time>2022-05-03T09:36:23Z</time>
      </trkpt>
      <trkpt lat="48.75974" lon="2.14286">
        <ele>152.6</ele>
        <time>2022-05-03T09:36:28Z</time>
      </trkpt>
      <trkpt lat="48.75969" lon="2.1428">
        <ele>152.5</ele>
        <time>2022-05-03T09:36:35Z</time>
      </trkpt>
      <trkpt lat="48.75961" lon="2.14282">
        <ele>152.2</ele>
        <time>2022-05-03T09:36:42Z</time>
      </trkpt>
      <trkpt lat="48.75952" lon="2.14279">
        <ele>152</ele>
        <time>2022-05-03T09:36:47Z</time>
      </trkpt>
      <trkpt lat="48.75945" lon="2.14277">
        <ele>151.8</ele>
        <time>2022-05-03T09:36:52Z</time>
      </trkpt>
      <trkpt lat="48.7595" lon="2.14284">
        <ele>151.8</ele>
        <time>2022-05-03T09:37:05Z</time>
      </trkpt>
      <trkpt lat="48.75948" lon="2.14293">
        <ele>151.6</ele>
        <time>2022-05-03T09:37:10Z</time>
      </trkpt>
      <trkpt lat="48.75943" lon="2.14299">
        <ele>151.3</ele>
        <time>2022-05-03T09:37:16Z</time>
      </trkpt>
      <trkpt lat="48.75938" lon="2.14308">
        <ele>150.9</ele>
        <time>2022-05-03T09:37:25Z</time>
      </trkpt>
      <trkpt lat="48.75935" lon="2.14317">
        <ele>150.5</ele>
        <time>2022-05-03T09:37:30Z</time>
      </trkpt>
      <trkpt lat="48.75933" lon="2.14327">
        <ele>150.1</ele>
        <time>2022-05-03T09:37:38Z</time>
      </trkpt>
      <trkpt lat="48.75929" lon="2.1432">
        <ele>150.1</ele>
        <time>2022-05-03T09:37:52Z</time>
      </trkpt>
      <trkpt lat="48.75922" lon="2.14319">
        <ele>149.8</ele>
        <time>2022-05-03T09:37:59Z</time>
      </trkpt>
      <trkpt lat="48.75916" lon="2.14322">
        <ele>149.2</ele>
        <time>2022-05-03T09:38:05Z</time>
      </trkpt>
      <trkpt lat="48.75909" lon="2.14325">
        <ele>147.2</ele>
        <time>2022-05-03T09:38:14Z</time>
      </trkpt>
      <trkpt lat="48.75917" lon="2.14321">
        <ele>149.5</ele>
        <time>2022-05-03T09:38:27Z</time>
      </trkpt>
      <trkpt lat="48.75924" lon="2.14322">
        <ele>149.8</ele>
        <time>2022-05-03T09:38:35Z</time>
      </trkpt>
      <trkpt lat="48.75928" lon="2.14333">
        <ele>149.7</ele>
        <time>2022-05-03T09:38:40Z</time>
      </trkpt>
      <trkpt lat="48.75931" lon="2.14345">
        <ele>149.1</ele>
        <time>2022-05-03T09:38:45Z</time>
      </trkpt>
      <trkpt lat="48.75932" lon="2.14355">
        <ele>148.5</ele>
        <time>2022-05-03T09:38:52Z</time>
      </trkpt>
      <trkpt lat="48.75936" lon="2.14346">
        <ele>149.4</ele>
        <time>2022-05-03T09:39:12Z</time>
      </trkpt>
      <trkpt lat="48.75933" lon="2.14333">
        <ele>150</ele>
        <time>2022-05-03T09:39:17Z</time>
      </trkpt>
      <trkpt lat="48.75932" lon="2.14323">
        <ele>150.2</ele>
        <time>2022-05-03T09:39:24Z</time>
      </trkpt>
      <trkpt lat="48.75924" lon="2.14324">
        <ele>149.7</ele>
        <time>2022-05-03T09:39:30Z</time>
      </trkpt>
      <trkpt lat="48.75916" lon="2.1433">
        <ele>148.9</ele>
        <time>2022-05-03T09:39:35Z</time>
      </trkpt>
      <trkpt lat="48.7591" lon="2.14338">
        <ele>146.7</ele>
        <time>2022-05-03T09:39:40Z</time>
      </trkpt>
      <trkpt lat="48.75902" lon="2.14344">
        <ele>143.9</ele>
        <time>2022-05-03T09:39:45Z</time>
      </trkpt>
      <trkpt lat="48.759" lon="2.14354">
        <ele>142.5</ele>
        <time>2022-05-03T09:39:50Z</time>
      </trkpt>
      <trkpt lat="48.75902" lon="2.14365">
        <ele>142.1</ele>
        <time>2022-05-03T09:39:56Z</time>
      </trkpt>
      <trkpt lat="48.759" lon="2.14375">
        <ele>140.7</ele>
        <time>2022-05-03T09:40:07Z</time>
      </trkpt>
      <trkpt lat="48.75899" lon="2.14387">
        <ele>139.4</ele>
        <time>2022-05-03T09:40:13Z</time>
      </trkpt>
      <trkpt lat="48.75901" lon="2.14397">
        <ele>139.1</ele>
        <time>2022-05-03T09:40:18Z</time>
      </trkpt>
      <trkpt lat="48.75899" lon="2.14407">
        <ele>137.7</ele>
        <time>2022-05-03T09:40:23Z</time>
      </trkpt>
      <trkpt lat="48.75902" lon="2.14397">
        <ele>139.4</ele>
        <time>2022-05-03T09:40:41Z</time>
      </trkpt>
      <trkpt lat="48.75896" lon="2.14391">
        <ele>138.2</ele>
        <time>2022-05-03T09:40:54Z</time>
      </trkpt>
      <trkpt lat="48.75893" lon="2.14381">
        <ele>138.2</ele>
        <time>2022-05-03T09:41:01Z</time>
      </trkpt>
      <trkpt lat="48.75894" lon="2.14371">
        <ele>139.3</ele>
        <time>2022-05-03T09:41:06Z</time>
      </trkpt>
      <trkpt lat="48.75895" lon="2.14359">
        <ele>140.6</ele>
        <time>2022-05-03T09:41:11Z</time>
      </trkpt>
      <trkpt lat="48.75897" lon="2.14348">
        <ele>142.1</ele>
        <time>2022-05-03T09:41:23Z</time>
      </trkpt>
      <trkpt lat="48.75898" lon="2.14336">
        <ele>143.4</ele>
        <time>2022-05-03T09:41:29Z</time>
      </trkpt>
      <trkpt lat="48.75903" lon="2.14329">
        <ele>145.3</ele>
        <time>2022-05-03T09:41:34Z</time>
      </trkpt>
      <trkpt lat="48.75907" lon="2.14321">
        <ele>146.8</ele>
        <time>2022-05-03T09:41:39Z</time>
      </trkpt>
      <trkpt lat="48.75915" lon="2.14319">
        <ele>149.1</ele>
        <time>2022-05-03T09:41:45Z</time>
      </trkpt>
      <trkpt lat="48.75921" lon="2.14314">
        <ele>149.9</ele>
        <time>2022-05-03T09:41:54Z</time>
      </trkpt>
      <trkpt lat="48.75923" lon="2.14324">
        <ele>149.7</ele>
        <time>2022-05-03T09:42:03Z</time>
      </trkpt>
      <trkpt lat="48.75926" lon="2.14337">
        <ele>149.3</ele>
        <time>2022-05-03T09:42:08Z</time>
      </trkpt>
      <trkpt lat="48.75928" lon="2.14352">
        <ele>148.4</ele>
        <time>2022-05-03T09:42:13Z</time>
      </trkpt>
      <trkpt lat="48.75934" lon="2.14366">
        <ele>147.9</ele>
        <time>2022-05-03T09:42:18Z</time>
      </trkpt>
      <trkpt lat="48.75936" lon="2.14378">
        <ele>147.4</ele>
        <time>2022-05-03T09:42:25Z</time>
      </trkpt>
      <trkpt lat="48.75938" lon="2.14388">
        <ele>147</ele>
        <time>2022-05-03T09:42:31Z</time>
      </trkpt>
      <trkpt lat="48.75936" lon="2.144">
        <ele>146</ele>
        <time>2022-05-03T09:42:36Z</time>
      </trkpt>
      <trkpt lat="48.75934" lon="2.14415">
        <ele>144.8</ele>
        <time>2022-05-03T09:42:41Z</time>
      </trkpt>
      <trkpt lat="48.75931" lon="2.14426">
        <ele>143.3</ele>
        <time>2022-05-03T09:42:46Z</time>
      </trkpt>
      <trkpt lat="48.75928" lon="2.14439">
        <ele>141.5</ele>
        <time>2022-05-03T09:42:51Z</time>
      </trkpt>
      <trkpt lat="48.75929" lon="2.14454">
        <ele>140.1</ele>
        <time>2022-05-03T09:42:56Z</time>
      </trkpt>
      <trkpt lat="48.75933" lon="2.14465">
        <ele>139.7</ele>
        <time>2022-05-03T09:43:01Z</time>
      </trkpt>
      <trkpt lat="48.75936" lon="2.14477">
        <ele>139</ele>
        <time>2022-05-03T09:43:06Z</time>
      </trkpt>
      <trkpt lat="48.75939" lon="2.14488">
        <ele>138.5</ele>
        <time>2022-05-03T09:43:11Z</time>
      </trkpt>
      <trkpt lat="48.7594" lon="2.14498">
        <ele>137.7</ele>
        <time>2022-05-03T09:43:16Z</time>
      </trkpt>
      <trkpt lat="48.75939" lon="2.14513">
        <ele>136.8</ele>
        <time>2022-05-03T09:43:21Z</time>
      </trkpt>
      <trkpt lat="48.7594" lon="2.14527">
        <ele>136.5</ele>
        <time>2022-05-03T09:43:26Z</time>
      </trkpt>
      <trkpt lat="48.75943" lon="2.14539">
        <ele>136.6</ele>
        <time>2022-05-03T09:43:31Z</time>
      </trkpt>
      <trkpt lat="48.75944" lon="2.14552">
        <ele>136.4</ele>
        <time>2022-05-03T09:43:36Z</time>
      </trkpt>
      <trkpt lat="48.75944" lon="2.14563">
        <ele>136</ele>
        <time>2022-05-03T09:43:41Z</time>
      </trkpt>
      <trkpt lat="48.75945" lon="2.14574">
        <ele>135.8</ele>
        <time>2022-05-03T09:43:46Z</time>
      </trkpt>
      <trkpt lat="48.75947" lon="2.1459">
        <ele>135.8</ele>
        <time>2022-05-03T09:43:51Z</time>
      </trkpt>
      <trkpt lat="48.75949" lon="2.14603">
        <ele>136.1</ele>
        <time>2022-05-03T09:43:56Z</time>
      </trkpt>
      <trkpt lat="48.75948" lon="2.14614">
        <ele>135.7</ele>
        <time>2022-05-03T09:44:01Z</time>
      </trkpt>
      <trkpt lat="48.75945" lon="2.14626">
        <ele>134.8</ele>
        <time>2022-05-03T09:44:06Z</time>
      </trkpt>
      <trkpt lat="48.75943" lon="2.14635">
        <ele>134.2</ele>
        <time>2022-05-03T09:44:11Z</time>
      </trkpt>
      <trkpt lat="48.75944" lon="2.14645">
        <ele>134.2</ele>
        <time>2022-05-03T09:44:16Z</time>
      </trkpt>
      <trkpt lat="48.75946" lon="2.14658">
        <ele>134.5</ele>
        <time>2022-05-03T09:44:21Z</time>
      </trkpt>
      <trkpt lat="48.7595" lon="2.14671">
        <ele>135.3</ele>
        <time>2022-05-03T09:44:26Z</time>
      </trkpt>
      <trkpt lat="48.75952" lon="2.1468">
        <ele>135.6</ele>
        <time>2022-05-03T09:44:31Z</time>
      </trkpt>
      <trkpt lat="48.75959" lon="2.14675">
        <ele>137.5</ele>
        <time>2022-05-03T09:44:44Z</time>
      </trkpt>
      <trkpt lat="48.75963" lon="2.14665">
        <ele>138.7</ele>
        <time>2022-05-03T09:44:49Z</time>
      </trkpt>
      <trkpt lat="48.75967" lon="2.14654">
        <ele>139.8</ele>
        <time>2022-05-03T09:44:55Z</time>
      </trkpt>
      <trkpt lat="48.75967" lon="2.14644">
        <ele>139.9</ele>
        <time>2022-05-03T09:45:09Z</time>
      </trkpt>
      <trkpt lat="48.75966" lon="2.14633">
        <ele>139.8</ele>
        <time>2022-05-03T09:45:22Z</time>
      </trkpt>
      <trkpt lat="48.75959" lon="2.14631">
        <ele>138.1</ele>
        <time>2022-05-03T09:45:34Z</time>
      </trkpt>
      <trkpt lat="48.75955" lon="2.1464">
        <ele>137</ele>
        <time>2022-05-03T09:45:50Z</time>
      </trkpt>
      <trkpt lat="48.75961" lon="2.14634">
        <ele>138.5</ele>
        <time>2022-05-03T09:46:14Z</time>
      </trkpt>
      <trkpt lat="48.75954" lon="2.14635">
        <ele>136.8</ele>
        <time>2022-05-03T09:46:45Z</time>
      </trkpt>
      <trkpt lat="48.75962" lon="2.14628">
        <ele>138.8</ele>
        <time>2022-05-03T09:47:18Z</time>
      </trkpt>
      <trkpt lat="48.7597" lon="2.14618">
        <ele>140.9</ele>
        <time>2022-05-03T09:47:57Z</time>
      </trkpt>
      <trkpt lat="48.75973" lon="2.14595">
        <ele>141.8</ele>
        <time>2022-05-03T09:48:02Z</time>
      </trkpt>
      <trkpt lat="48.75969" lon="2.14604">
        <ele>140.7</ele>
        <time>2022-05-03T09:48:09Z</time>
      </trkpt>
      <trkpt lat="48.75968" lon="2.14623">
        <ele>140.3</ele>
        <time>2022-05-03T09:48:22Z</time>
      </trkpt>
      <trkpt lat="48.75966" lon="2.14633">
        <ele>139.8</ele>
        <time>2022-05-03T09:48:29Z</time>
      </trkpt>
      <trkpt lat="48.7596" lon="2.14639">
        <ele>138.2</ele>
        <time>2022-05-03T09:48:39Z</time>
      </trkpt>
      <trkpt lat="48.75961" lon="2.14649">
        <ele>138.4</ele>
        <time>2022-05-03T09:49:33Z</time>
      </trkpt>
      <trkpt lat="48.75962" lon="2.1466">
        <ele>138.5</ele>
        <time>2022-05-03T09:49:41Z</time>
      </trkpt>
      <trkpt lat="48.7596" lon="2.14672">
        <ele>137.8</ele>
        <time>2022-05-03T09:49:47Z</time>
      </trkpt>
      <trkpt lat="48.75955" lon="2.14679">
        <ele>136.4</ele>
        <time>2022-05-03T09:49:53Z</time>
      </trkpt>
      <trkpt lat="48.7595" lon="2.14687">
        <ele>135</ele>
        <time>2022-05-03T09:50:00Z</time>
      </trkpt>
      <trkpt lat="48.75945" lon="2.14697">
        <ele>133.6</ele>
        <time>2022-05-03T09:50:08Z</time>
      </trkpt>
      <trkpt lat="48.75942" lon="2.14707">
        <ele>132.8</ele>
        <time>2022-05-03T09:50:14Z</time>
      </trkpt>
      <trkpt lat="48.75939" lon="2.14716">
        <ele>132</ele>
        <time>2022-05-03T09:50:22Z</time>
      </trkpt>
      <trkpt lat="48.75934" lon="2.14727">
        <ele>130.8</ele>
        <time>2022-05-03T09:50:28Z</time>
      </trkpt>
      <trkpt lat="48.75929" lon="2.14735">
        <ele>129.6</ele>
        <time>2022-05-03T09:50:33Z</time>
      </trkpt>
      <trkpt lat="48.75927" lon="2.14745">
        <ele>129.1</ele>
        <time>2022-05-03T09:50:38Z</time>
      </trkpt>
      <trkpt lat="48.75932" lon="2.14753">
        <ele>130.1</ele>
        <time>2022-05-03T09:50:46Z</time>
      </trkpt>
      <trkpt lat="48.75934" lon="2.14763">
        <ele>130.2</ele>
        <time>2022-05-03T09:50:53Z</time>
      </trkpt>
      <trkpt lat="48.75934" lon="2.14773">
        <ele>130</ele>
        <time>2022-05-03T09:50:58Z</time>
      </trkpt>
      <trkpt lat="48.75937" lon="2.14785">
        <ele>130.3</ele>
        <time>2022-05-03T09:51:03Z</time>
      </trkpt>
      <trkpt lat="48.75942" lon="2.14798">
        <ele>131</ele>
        <time>2022-05-03T09:51:08Z</time>
      </trkpt>
      <trkpt lat="48.75946" lon="2.14807">
        <ele>131.6</ele>
        <time>2022-05-03T09:51:13Z</time>
      </trkpt>
      <trkpt lat="48.75949" lon="2.1482">
        <ele>131.9</ele>
        <time>2022-05-03T09:51:18Z</time>
      </trkpt>
      <trkpt lat="48.7595" lon="2.14833">
        <ele>131.8</ele>
        <time>2022-05-03T09:51:23Z</time>
      </trkpt>
      <trkpt lat="48.7595" lon="2.14844">
        <ele>131.4</ele>
        <time>2022-05-03T09:51:28Z</time>
      </trkpt>
      <trkpt lat="48.7595" lon="2.14859">
        <ele>130.9</ele>
        <time>2022-05-03T09:51:33Z</time>
      </trkpt>
      <trkpt lat="48.75953" lon="2.14868">
        <ele>131.3</ele>
        <time>2022-05-03T09:51:38Z</time>
      </trkpt>
      <trkpt lat="48.75954" lon="2.1488">
        <ele>131.1</ele>
        <time>2022-05-03T09:51:43Z</time>
      </trkpt>
      <trkpt lat="48.75957" lon="2.1489">
        <ele>131.5</ele>
        <time>2022-05-03T09:51:48Z</time>
      </trkpt>
      <trkpt lat="48.7596" lon="2.14902">
        <ele>131.8</ele>
        <time>2022-05-03T09:51:54Z</time>
      </trkpt>
      <trkpt lat="48.75962" lon="2.14917">
        <ele>131.9</ele>
        <time>2022-05-03T09:51:59Z</time>
      </trkpt>
      <trkpt lat="48.75963" lon="2.1493">
        <ele>131.6</ele>
        <time>2022-05-03T09:52:04Z</time>
      </trkpt>
      <trkpt lat="48.75964" lon="2.14941">
        <ele>131.4</ele>
        <time>2022-05-03T09:52:10Z</time>
      </trkpt>
      <trkpt lat="48.75965" lon="2.14952">
        <ele>131.1</ele>
        <time>2022-05-03T09:52:17Z</time>
      </trkpt>
      <trkpt lat="48.75969" lon="2.14962">
        <ele>131.7</ele>
        <time>2022-05-03T09:52:22Z</time>
      </trkpt>
      <trkpt lat="48.75972" lon="2.14974">
        <ele>132</ele>
        <time>2022-05-03T09:52:27Z</time>
      </trkpt>
      <trkpt lat="48.75972" lon="2.14986">
        <ele>131.5</ele>
        <time>2022-05-03T09:52:32Z</time>
      </trkpt>
      <trkpt lat="48.75975" lon="2.14998">
        <ele>131.8</ele>
        <time>2022-05-03T09:52:38Z</time>
      </trkpt>
      <trkpt lat="48.75978" lon="2.15009">
        <ele>132.1</ele>
        <time>2022-05-03T09:52:43Z</time>
      </trkpt>
      <trkpt lat="48.7598" lon="2.15022">
        <ele>132</ele>
        <time>2022-05-03T09:52:48Z</time>
      </trkpt>
      <trkpt lat="48.75985" lon="2.15031">
        <ele>132.9</ele>
        <time>2022-05-03T09:52:53Z</time>
      </trkpt>
      <trkpt lat="48.75989" lon="2.15039">
        <ele>133.5</ele>
        <time>2022-05-03T09:52:59Z</time>
      </trkpt>
      <trkpt lat="48.75992" lon="2.15054">
        <ele>133.5</ele>
        <time>2022-05-03T09:53:04Z</time>
      </trkpt>
      <trkpt lat="48.75996" lon="2.15067">
        <ele>133.9</ele>
        <time>2022-05-03T09:53:09Z</time>
      </trkpt>
      <trkpt lat="48.76001" lon="2.15079">
        <ele>134.4</ele>
        <time>2022-05-03T09:53:14Z</time>
      </trkpt>
      <trkpt lat="48.76006" lon="2.15085">
        <ele>135</ele>
        <time>2022-05-03T09:53:19Z</time>
      </trkpt>
      <trkpt lat="48.76012" lon="2.15091">
        <ele>135.7</ele>
        <time>2022-05-03T09:53:25Z</time>
      </trkpt>
      <trkpt lat="48.76008" lon="2.15102">
        <ele>134.2</ele>
        <time>2022-05-03T09:53:33Z</time>
      </trkpt>
      <trkpt lat="48.7601" lon="2.15111">
        <ele>134.1</ele>
        <time>2022-05-03T09:53:38Z</time>
      </trkpt>
      <trkpt lat="48.76011" lon="2.15124">
        <ele>133.5</ele>
        <time>2022-05-03T09:53:43Z</time>
      </trkpt>
      <trkpt lat="48.76013" lon="2.15137">
        <ele>133.2</ele>
        <time>2022-05-03T09:53:48Z</time>
      </trkpt>
      <trkpt lat="48.76015" lon="2.15148">
        <ele>133</ele>
        <time>2022-05-03T09:53:53Z</time>
      </trkpt>
      <trkpt lat="48.76018" lon="2.15159">
        <ele>133.2</ele>
        <time>2022-05-03T09:53:58Z</time>
      </trkpt>
      <trkpt lat="48.76022" lon="2.15167">
        <ele>133.8</ele>
        <time>2022-05-03T09:54:04Z</time>
      </trkpt>
      <trkpt lat="48.76026" lon="2.15178">
        <ele>133.5</ele>
        <time>2022-05-03T09:54:10Z</time>
      </trkpt>
      <trkpt lat="48.76032" lon="2.1519">
        <ele>133.6</ele>
        <time>2022-05-03T09:54:15Z</time>
      </trkpt>
      <trkpt lat="48.76036" lon="2.15201">
        <ele>133.4</ele>
        <time>2022-05-03T09:54:23Z</time>
      </trkpt>
      <trkpt lat="48.76039" lon="2.15217">
        <ele>132.3</ele>
        <time>2022-05-03T09:54:28Z</time>
      </trkpt>
      <trkpt lat="48.76045" lon="2.15224">
        <ele>133</ele>
        <time>2022-05-03T09:54:33Z</time>
      </trkpt>
      <trkpt lat="48.76048" lon="2.15236">
        <ele>132.4</ele>
        <time>2022-05-03T09:54:42Z</time>
      </trkpt>
      <trkpt lat="48.76052" lon="2.15249">
        <ele>131.8</ele>
        <time>2022-05-03T09:54:47Z</time>
      </trkpt>
      <trkpt lat="48.76057" lon="2.15258">
        <ele>131.8</ele>
        <time>2022-05-03T09:54:52Z</time>
      </trkpt>
      <trkpt lat="48.76062" lon="2.15266">
        <ele>131.9</ele>
        <time>2022-05-03T09:54:58Z</time>
      </trkpt>
      <trkpt lat="48.76069" lon="2.1527">
        <ele>133</ele>
        <time>2022-05-03T09:55:03Z</time>
      </trkpt>
      <trkpt lat="48.76074" lon="2.15277">
        <ele>133.1</ele>
        <time>2022-05-03T09:55:08Z</time>
      </trkpt>
      <trkpt lat="48.7608" lon="2.15286">
        <ele>133.1</ele>
        <time>2022-05-03T09:55:13Z</time>
      </trkpt>
      <trkpt lat="48.76086" lon="2.15297">
        <ele>132.5</ele>
        <time>2022-05-03T09:55:18Z</time>
      </trkpt>
      <trkpt lat="48.76092" lon="2.15306">
        <ele>132</ele>
        <time>2022-05-03T09:55:23Z</time>
      </trkpt>
      <trkpt lat="48.76097" lon="2.15299">
        <ele>133.8</ele>
        <time>2022-05-03T09:55:28Z</time>
      </trkpt>
      <trkpt lat="48.76104" lon="2.15298">
        <ele>135</ele>
        <time>2022-05-03T09:55:35Z</time>
      </trkpt>
      <trkpt lat="48.76108" lon="2.15307">
        <ele>134.4</ele>
        <time>2022-05-03T09:55:41Z</time>
      </trkpt>
      <trkpt lat="48.76113" lon="2.15313">
        <ele>134.5</ele>
        <time>2022-05-03T09:55:49Z</time>
      </trkpt>
      <trkpt lat="48.76118" lon="2.15321">
        <ele>134.5</ele>
        <time>2022-05-03T09:55:54Z</time>
      </trkpt>
      <trkpt lat="48.76125" lon="2.15324">
        <ele>135.5</ele>
        <time>2022-05-03T09:55:59Z</time>
      </trkpt>
      <trkpt lat="48.76135" lon="2.15333">
        <ele>136.6</ele>
        <time>2022-05-03T09:56:04Z</time>
      </trkpt>
      <trkpt lat="48.76141" lon="2.15336">
        <ele>137.5</ele>
        <time>2022-05-03T09:56:11Z</time>
      </trkpt>
      <trkpt lat="48.76134" lon="2.1534">
        <ele>135.6</ele>
        <time>2022-05-03T09:56:49Z</time>
      </trkpt>
      <trkpt lat="48.76126" lon="2.15337">
        <ele>134.3</ele>
        <time>2022-05-03T09:56:54Z</time>
      </trkpt>
      <trkpt lat="48.76119" lon="2.15337">
        <ele>132.8</ele>
        <time>2022-05-03T09:57:00Z</time>
      </trkpt>
      <trkpt lat="48.76111" lon="2.15338">
        <ele>131</ele>
        <time>2022-05-03T09:57:05Z</time>
      </trkpt>
      <trkpt lat="48.76104" lon="2.15339">
        <ele>129.4</ele>
        <time>2022-05-03T09:57:11Z</time>
      </trkpt>
      <trkpt lat="48.76097" lon="2.15337">
        <ele>128.3</ele>
        <time>2022-05-03T09:57:18Z</time>
      </trkpt>
      <trkpt lat="48.76085" lon="2.15335">
        <ele>126.1</ele>
        <time>2022-05-03T09:57:23Z</time>
      </trkpt>
      <trkpt lat="48.76076" lon="2.15339">
        <ele>123.6</ele>
        <time>2022-05-03T09:57:28Z</time>
      </trkpt>
      <trkpt lat="48.76066" lon="2.15336">
        <ele>121.9</ele>
        <time>2022-05-03T09:57:33Z</time>
      </trkpt>
      <trkpt lat="48.76052" lon="2.15334">
        <ele>119.2</ele>
        <time>2022-05-03T09:57:38Z</time>
      </trkpt>
      <trkpt lat="48.76048" lon="2.15325">
        <ele>119.6</ele>
        <time>2022-05-03T09:57:53Z</time>
      </trkpt>
      <trkpt lat="48.7604" lon="2.1532">
        <ele>118.5</ele>
        <time>2022-05-03T09:57:58Z</time>
      </trkpt>
      <trkpt lat="48.76032" lon="2.15321">
        <ele>116.6</ele>
        <time>2022-05-03T09:58:03Z</time>
      </trkpt>
      <trkpt lat="48.76026" lon="2.15316">
        <ele>116</ele>
        <time>2022-05-03T09:58:09Z</time>
      </trkpt>
      <trkpt lat="48.76014" lon="2.1531">
        <ele>114</ele>
        <time>2022-05-03T09:58:14Z</time>
      </trkpt>
      <trkpt lat="48.76008" lon="2.15306">
        <ele>113.1</ele>
        <time>2022-05-03T09:58:19Z</time>
      </trkpt>
      <trkpt lat="48.75997" lon="2.15298">
        <ele>111.9</ele>
        <time>2022-05-03T09:58:24Z</time>
      </trkpt>
      <trkpt lat="48.75985" lon="2.15284">
        <ele>111.9</ele>
        <time>2022-05-03T09:58:29Z</time>
      </trkpt>
      <trkpt lat="48.7598" lon="2.15291">
        <ele>110.5</ele>
        <time>2022-05-03T09:58:39Z</time>
      </trkpt>
      <trkpt lat="48.75971" lon="2.15272">
        <ele>111.1</ele>
        <time>2022-05-03T09:58:44Z</time>
      </trkpt>
      <trkpt lat="48.75967" lon="2.15264">
        <ele>111.2</ele>
        <time>2022-05-03T09:59:05Z</time>
      </trkpt>
      <trkpt lat="48.75955" lon="2.15259">
        <ele>109.8</ele>
        <time>2022-05-03T09:59:10Z</time>
      </trkpt>
      <trkpt lat="48.75949" lon="2.15253">
        <ele>109.2</ele>
        <time>2022-05-03T09:59:16Z</time>
      </trkpt>
      <trkpt lat="48.75938" lon="2.15247">
        <ele>107.8</ele>
        <time>2022-05-03T09:59:21Z</time>
      </trkpt>
      <trkpt lat="48.75929" lon="2.15246">
        <ele>106.4</ele>
        <time>2022-05-03T09:59:26Z</time>
      </trkpt>
      <trkpt lat="48.75914" lon="2.15255">
        <ele>103.9</ele>
        <time>2022-05-03T09:59:31Z</time>
      </trkpt>
      <trkpt lat="48.75908" lon="2.15254">
        <ele>104.2</ele>
        <time>2022-05-03T09:59:36Z</time>
      </trkpt>
      <trkpt lat="48.75899" lon="2.15249">
        <ele>104.7</ele>
        <time>2022-05-03T09:59:52Z</time>
      </trkpt>
      <trkpt lat="48.75893" lon="2.15247">
        <ele>105</ele>
        <time>2022-05-03T09:59:58Z</time>
      </trkpt>
      <trkpt lat="48.75887" lon="2.15238">
        <ele>105.6</ele>
        <time>2022-05-03T10:00:03Z</time>
      </trkpt>
      <trkpt lat="48.75882" lon="2.15232">
        <ele>106</ele>
        <time>2022-05-03T10:00:09Z</time>
      </trkpt>
      <trkpt lat="48.75875" lon="2.15221">
        <ele>106.5</ele>
        <time>2022-05-03T10:00:14Z</time>
      </trkpt>
      <trkpt lat="48.75866" lon="2.15219">
        <ele>106.7</ele>
        <time>2022-05-03T10:00:19Z</time>
      </trkpt>
      <trkpt lat="48.75859" lon="2.15218">
        <ele>106.8</ele>
        <time>2022-05-03T10:00:24Z</time>
      </trkpt>
      <trkpt lat="48.75858" lon="2.15207">
        <ele>107</ele>
        <time>2022-05-03T10:00:31Z</time>
      </trkpt>
      <trkpt lat="48.75858" lon="2.15197">
        <ele>107.2</ele>
        <time>2022-05-03T10:00:38Z</time>
      </trkpt>
      <trkpt lat="48.75861" lon="2.15187">
        <ele>107.5</ele>
        <time>2022-05-03T10:00:48Z</time>
      </trkpt>
      <trkpt lat="48.75863" lon="2.15174">
        <ele>107.9</ele>
        <time>2022-05-03T10:01:00Z</time>
      </trkpt>
      <trkpt lat="48.75862" lon="2.15163">
        <ele>108.1</ele>
        <time>2022-05-03T10:01:05Z</time>
      </trkpt>
      <trkpt lat="48.7586" lon="2.15152">
        <ele>108.2</ele>
        <time>2022-05-03T10:01:11Z</time>
      </trkpt>
      <trkpt lat="48.75852" lon="2.15149">
        <ele>107.9</ele>
        <time>2022-05-03T10:01:19Z</time>
      </trkpt>
      <trkpt lat="48.75846" lon="2.15143">
        <ele>107.7</ele>
        <time>2022-05-03T10:01:25Z</time>
      </trkpt>
      <trkpt lat="48.75839" lon="2.15145">
        <ele>107.3</ele>
        <time>2022-05-03T10:01:34Z</time>
      </trkpt>
      <trkpt lat="48.75841" lon="2.15134">
        <ele>107.5</ele>
        <time>2022-05-03T10:01:50Z</time>
      </trkpt>
      <trkpt lat="48.75833" lon="2.15124">
        <ele>107</ele>
        <time>2022-05-03T10:01:55Z</time>
      </trkpt>
      <trkpt lat="48.75827" lon="2.15112">
        <ele>107.6</ele>
        <time>2022-05-03T10:02:00Z</time>
      </trkpt>
      <trkpt lat="48.75828" lon="2.151">
        <ele>107.5</ele>
        <time>2022-05-03T10:02:14Z</time>
      </trkpt>
      <trkpt lat="48.75829" lon="2.1509">
        <ele>107.4</ele>
        <time>2022-05-03T10:02:19Z</time>
      </trkpt>
      <trkpt lat="48.7582" lon="2.15091">
        <ele>108.1</ele>
        <time>2022-05-03T10:02:24Z</time>
      </trkpt>
      <trkpt lat="48.75813" lon="2.15092">
        <ele>108.8</ele>
        <time>2022-05-03T10:02:35Z</time>
      </trkpt>
      <trkpt lat="48.75811" lon="2.1508">
        <ele>108.8</ele>
        <time>2022-05-03T10:03:31Z</time>
      </trkpt>
      <trkpt lat="48.75812" lon="2.1507">
        <ele>108.6</ele>
        <time>2022-05-03T10:03:37Z</time>
      </trkpt>
      <trkpt lat="48.7581" lon="2.1506">
        <ele>108.6</ele>
        <time>2022-05-03T10:03:42Z</time>
      </trkpt>
      <trkpt lat="48.75808" lon="2.15043">
        <ele>108.5</ele>
        <time>2022-05-03T10:03:47Z</time>
      </trkpt>
      <trkpt lat="48.75803" lon="2.15031">
        <ele>108.6</ele>
        <time>2022-05-03T10:03:52Z</time>
      </trkpt>
      <trkpt lat="48.75792" lon="2.15032">
        <ele>109.2</ele>
        <time>2022-05-03T10:03:57Z</time>
      </trkpt>
      <trkpt lat="48.75786" lon="2.15027">
        <ele>109.4</ele>
        <time>2022-05-03T10:04:06Z</time>
      </trkpt>
      <trkpt lat="48.75791" lon="2.15021">
        <ele>109</ele>
        <time>2022-05-03T10:04:48Z</time>
      </trkpt>
      <trkpt lat="48.75784" lon="2.15017">
        <ele>109.3</ele>
        <time>2022-05-03T10:05:04Z</time>
      </trkpt>
      <trkpt lat="48.75785" lon="2.15028">
        <ele>109.5</ele>
        <time>2022-05-03T10:05:38Z</time>
      </trkpt>
      <trkpt lat="48.75791" lon="2.15032">
        <ele>109.3</ele>
        <time>2022-05-03T10:05:46Z</time>
      </trkpt>
      <trkpt lat="48.75797" lon="2.15029">
        <ele>108.9</ele>
        <time>2022-05-03T10:05:54Z</time>
      </trkpt>
      <trkpt lat="48.75804" lon="2.15023">
        <ele>108.4</ele>
        <time>2022-05-03T10:05:59Z</time>
      </trkpt>
      <trkpt lat="48.75807" lon="2.15013">
        <ele>108.1</ele>
        <time>2022-05-03T10:06:04Z</time>
      </trkpt>
      <trkpt lat="48.7581" lon="2.15002">
        <ele>107.9</ele>
        <time>2022-05-03T10:06:09Z</time>
      </trkpt>
      <trkpt lat="48.75812" lon="2.14991">
        <ele>107.8</ele>
        <time>2022-05-03T10:06:14Z</time>
      </trkpt>
      <trkpt lat="48.75811" lon="2.14979">
        <ele>107.9</ele>
        <time>2022-05-03T10:06:20Z</time>
      </trkpt>
      <trkpt lat="48.7581" lon="2.14968">
        <ele>108.1</ele>
        <time>2022-05-03T10:06:26Z</time>
      </trkpt>
      <trkpt lat="48.75806" lon="2.14959">
        <ele>108.3</ele>
        <time>2022-05-03T10:06:31Z</time>
      </trkpt>
      <trkpt lat="48.75803" lon="2.14948">
        <ele>108.5</ele>
        <time>2022-05-03T10:06:37Z</time>
      </trkpt>
      <trkpt lat="48.75804" lon="2.14937">
        <ele>108.6</ele>
        <time>2022-05-03T10:06:43Z</time>
      </trkpt>
      <trkpt lat="48.75805" lon="2.14925">
        <ele>108.6</ele>
        <time>2022-05-03T10:06:48Z</time>
      </trkpt>
      <trkpt lat="48.75807" lon="2.14915">
        <ele>108.6</ele>
        <time>2022-05-03T10:06:54Z</time>
      </trkpt>
      <trkpt lat="48.75808" lon="2.14903">
        <ele>108.8</ele>
        <time>2022-05-03T10:07:01Z</time>
      </trkpt>
      <trkpt lat="48.75808" lon="2.14886">
        <ele>109.3</ele>
        <time>2022-05-03T10:07:06Z</time>
      </trkpt>
      <trkpt lat="48.75809" lon="2.14873">
        <ele>109.5</ele>
        <time>2022-05-03T10:07:11Z</time>
      </trkpt>
      <trkpt lat="48.75804" lon="2.14861">
        <ele>110.1</ele>
        <time>2022-05-03T10:07:16Z</time>
      </trkpt>
      <trkpt lat="48.75797" lon="2.14858">
        <ele>110.6</ele>
        <time>2022-05-03T10:07:22Z</time>
      </trkpt>
      <trkpt lat="48.7579" lon="2.14859">
        <ele>111</ele>
        <time>2022-05-03T10:07:27Z</time>
      </trkpt>
      <trkpt lat="48.75783" lon="2.14861">
        <ele>111.4</ele>
        <time>2022-05-03T10:07:32Z</time>
      </trkpt>
      <trkpt lat="48.75776" lon="2.14865">
        <ele>111.7</ele>
        <time>2022-05-03T10:07:38Z</time>
      </trkpt>
      <trkpt lat="48.75773" lon="2.14876">
        <ele>111.6</ele>
        <time>2022-05-03T10:07:43Z</time>
      </trkpt>
      <trkpt lat="48.7577" lon="2.14885">
        <ele>111.6</ele>
        <time>2022-05-03T10:07:52Z</time>
      </trkpt>
      <trkpt lat="48.75775" lon="2.14877">
        <ele>111.5</ele>
        <time>2022-05-03T10:09:00Z</time>
      </trkpt>
      <trkpt lat="48.75777" lon="2.14865">
        <ele>111.6</ele>
        <time>2022-05-03T10:09:05Z</time>
      </trkpt>
      <trkpt lat="48.75776" lon="2.14855">
        <ele>111.9</ele>
        <time>2022-05-03T10:09:12Z</time>
      </trkpt>
      <trkpt lat="48.75775" lon="2.14845">
        <ele>112.2</ele>
        <time>2022-05-03T10:09:19Z</time>
      </trkpt>
      <trkpt lat="48.75777" lon="2.14836">
        <ele>112.3</ele>
        <time>2022-05-03T10:09:24Z</time>
      </trkpt>
      <trkpt lat="48.75774" lon="2.14825">
        <ele>112.9</ele>
        <time>2022-05-03T10:09:29Z</time>
      </trkpt>
      <trkpt lat="48.75766" lon="2.14824">
        <ele>113.4</ele>
        <time>2022-05-03T10:09:35Z</time>
      </trkpt>
      <trkpt lat="48.75757" lon="2.14825">
        <ele>114</ele>
        <time>2022-05-03T10:09:40Z</time>
      </trkpt>
      <trkpt lat="48.75751" lon="2.14822">
        <ele>114.5</ele>
        <time>2022-05-03T10:09:47Z</time>
      </trkpt>
      <trkpt lat="48.7574" lon="2.14817">
        <ele>118</ele>
        <time>2022-05-03T10:10:26Z</time>
      </trkpt>
      <trkpt lat="48.75734" lon="2.14811">
        <ele>120.2</ele>
        <time>2022-05-03T10:10:32Z</time>
      </trkpt>
      <trkpt lat="48.75731" lon="2.14801">
        <ele>121.5</ele>
        <time>2022-05-03T10:10:38Z</time>
      </trkpt>
      <trkpt lat="48.75729" lon="2.14791">
        <ele>122.6</ele>
        <time>2022-05-03T10:10:44Z</time>
      </trkpt>
      <trkpt lat="48.75729" lon="2.1478">
        <ele>123</ele>
        <time>2022-05-03T10:10:49Z</time>
      </trkpt>
      <trkpt lat="48.75731" lon="2.14769">
        <ele>122.9</ele>
        <time>2022-05-03T10:10:55Z</time>
      </trkpt>
      <trkpt lat="48.75731" lon="2.14758">
        <ele>123.4</ele>
        <time>2022-05-03T10:11:00Z</time>
      </trkpt>
      <trkpt lat="48.7573" lon="2.14747">
        <ele>124.1</ele>
        <time>2022-05-03T10:11:05Z</time>
      </trkpt>
      <trkpt lat="48.75727" lon="2.14736">
        <ele>125.5</ele>
        <time>2022-05-03T10:11:11Z</time>
      </trkpt>
      <trkpt lat="48.75722" lon="2.14728">
        <ele>127.3</ele>
        <time>2022-05-03T10:11:16Z</time>
      </trkpt>
      <trkpt lat="48.75718" lon="2.14717">
        <ele>128.9</ele>
        <time>2022-05-03T10:11:22Z</time>
      </trkpt>
      <trkpt lat="48.75714" lon="2.14708">
        <ele>130.4</ele>
        <time>2022-05-03T10:11:27Z</time>
      </trkpt>
      <trkpt lat="48.75713" lon="2.14697">
        <ele>131.1</ele>
        <time>2022-05-03T10:11:32Z</time>
      </trkpt>
      <trkpt lat="48.75713" lon="2.14687">
        <ele>131.5</ele>
        <time>2022-05-03T10:11:37Z</time>
      </trkpt>
      <trkpt lat="48.75716" lon="2.14678">
        <ele>131</ele>
        <time>2022-05-03T10:11:42Z</time>
      </trkpt>
      <trkpt lat="48.75722" lon="2.14666">
        <ele>129.7</ele>
        <time>2022-05-03T10:11:47Z</time>
      </trkpt>
      <trkpt lat="48.75727" lon="2.14657">
        <ele>128</ele>
        <time>2022-05-03T10:11:52Z</time>
      </trkpt>
      <trkpt lat="48.75731" lon="2.14647">
        <ele>126.6</ele>
        <time>2022-05-03T10:11:57Z</time>
      </trkpt>
      <trkpt lat="48.75735" lon="2.14639">
        <ele>125.2</ele>
        <time>2022-05-03T10:12:02Z</time>
      </trkpt>
      <trkpt lat="48.75738" lon="2.14629">
        <ele>124.1</ele>
        <time>2022-05-03T10:12:07Z</time>
      </trkpt>
      <trkpt lat="48.75745" lon="2.14619">
        <ele>122.1</ele>
        <time>2022-05-03T10:12:12Z</time>
      </trkpt>
      <trkpt lat="48.75751" lon="2.14613">
        <ele>120.6</ele>
        <time>2022-05-03T10:12:17Z</time>
      </trkpt>
      <trkpt lat="48.75758" lon="2.14613">
        <ele>119.8</ele>
        <time>2022-05-03T10:12:24Z</time>
      </trkpt>
      <trkpt lat="48.75766" lon="2.14615">
        <ele>118.9</ele>
        <time>2022-05-03T10:13:00Z</time>
      </trkpt>
      <trkpt lat="48.75774" lon="2.14617">
        <ele>118</ele>
        <time>2022-05-03T10:13:05Z</time>
      </trkpt>
      <trkpt lat="48.75776" lon="2.14627">
        <ele>117.9</ele>
        <time>2022-05-03T10:13:10Z</time>
      </trkpt>
      <trkpt lat="48.75781" lon="2.1462">
        <ele>117.2</ele>
        <time>2022-05-03T10:13:25Z</time>
      </trkpt>
      <trkpt lat="48.75788" lon="2.14615">
        <ele>116.4</ele>
        <time>2022-05-03T10:13:32Z</time>
      </trkpt>
      <trkpt lat="48.75794" lon="2.14609">
        <ele>115.7</ele>
        <time>2022-05-03T10:13:41Z</time>
      </trkpt>
      <trkpt lat="48.75793" lon="2.14599">
        <ele>115.9</ele>
        <time>2022-05-03T10:13:52Z</time>
      </trkpt>
      <trkpt lat="48.75786" lon="2.14598">
        <ele>116.6</ele>
        <time>2022-05-03T10:13:57Z</time>
      </trkpt>
      <trkpt lat="48.75779" lon="2.14602">
        <ele>117.4</ele>
        <time>2022-05-03T10:14:10Z</time>
      </trkpt>
      <trkpt lat="48.75787" lon="2.14603">
        <ele>116.5</ele>
        <time>2022-05-03T10:14:24Z</time>
      </trkpt>
      <trkpt lat="48.75795" lon="2.14604">
        <ele>115.6</ele>
        <time>2022-05-03T10:14:29Z</time>
      </trkpt>
      <trkpt lat="48.75801" lon="2.14598">
        <ele>115</ele>
        <time>2022-05-03T10:14:34Z</time>
      </trkpt>
      <trkpt lat="48.75804" lon="2.14587">
        <ele>114.8</ele>
        <time>2022-05-03T10:14:40Z</time>
      </trkpt>
      <trkpt lat="48.75807" lon="2.14578">
        <ele>114.6</ele>
        <time>2022-05-03T10:14:45Z</time>
      </trkpt>
      <trkpt lat="48.7581" lon="2.14567">
        <ele>114.6</ele>
        <time>2022-05-03T10:14:50Z</time>
      </trkpt>
      <trkpt lat="48.75803" lon="2.14564">
        <ele>115.2</ele>
        <time>2022-05-03T10:15:10Z</time>
      </trkpt>
      <trkpt lat="48.75801" lon="2.14552">
        <ele>115.5</ele>
        <time>2022-05-03T10:15:16Z</time>
      </trkpt>
      <trkpt lat="48.758" lon="2.14542">
        <ele>115.7</ele>
        <time>2022-05-03T10:15:21Z</time>
      </trkpt>
      <trkpt lat="48.75795" lon="2.14536">
        <ele>116.1</ele>
        <time>2022-05-03T10:15:26Z</time>
      </trkpt>
      <trkpt lat="48.75796" lon="2.14526">
        <ele>116.1</ele>
        <time>2022-05-03T10:15:32Z</time>
      </trkpt>
      <trkpt lat="48.75789" lon="2.14523">
        <ele>116.5</ele>
        <time>2022-05-03T10:15:45Z</time>
      </trkpt>
      <trkpt lat="48.75787" lon="2.14512">
        <ele>116.6</ele>
        <time>2022-05-03T10:15:50Z</time>
      </trkpt>
      <trkpt lat="48.75784" lon="2.14502">
        <ele>116.8</ele>
        <time>2022-05-03T10:15:55Z</time>
      </trkpt>
      <trkpt lat="48.75784" lon="2.14489">
        <ele>116.9</ele>
        <time>2022-05-03T10:16:00Z</time>
      </trkpt>
      <trkpt lat="48.75784" lon="2.14479">
        <ele>116.9</ele>
        <time>2022-05-03T10:16:05Z</time>
      </trkpt>
      <trkpt lat="48.75781" lon="2.14469">
        <ele>117.1</ele>
        <time>2022-05-03T10:16:10Z</time>
      </trkpt>
      <trkpt lat="48.75778" lon="2.14457">
        <ele>117.2</ele>
        <time>2022-05-03T10:16:15Z</time>
      </trkpt>
      <trkpt lat="48.75774" lon="2.14448">
        <ele>117.2</ele>
        <time>2022-05-03T10:16:20Z</time>
      </trkpt>
      <trkpt lat="48.75767" lon="2.14451">
        <ele>117.3</ele>
        <time>2022-05-03T10:16:25Z</time>
      </trkpt>
      <trkpt lat="48.75767" lon="2.14439">
        <ele>117.3</ele>
        <time>2022-05-03T10:16:41Z</time>
      </trkpt>
      <trkpt lat="48.75767" lon="2.14425">
        <ele>117.2</ele>
        <time>2022-05-03T10:16:46Z</time>
      </trkpt>
      <trkpt lat="48.75765" lon="2.14415">
        <ele>117.2</ele>
        <time>2022-05-03T10:16:51Z</time>
      </trkpt>
      <trkpt lat="48.75762" lon="2.14403">
        <ele>116.9</ele>
        <time>2022-05-03T10:16:56Z</time>
      </trkpt>
      <trkpt lat="48.75761" lon="2.14393">
        <ele>116.7</ele>
        <time>2022-05-03T10:17:01Z</time>
      </trkpt>
      <trkpt lat="48.75756" lon="2.14383">
        <ele>116.2</ele>
        <time>2022-05-03T10:17:16Z</time>
      </trkpt>
      <trkpt lat="48.75751" lon="2.14373">
        <ele>115.5</ele>
        <time>2022-05-03T10:17:21Z</time>
      </trkpt>
      <trkpt lat="48.75747" lon="2.14363">
        <ele>115.5</ele>
        <time>2022-05-03T10:17:27Z</time>
      </trkpt>
      <trkpt lat="48.75744" lon="2.14352">
        <ele>115.4</ele>
        <time>2022-05-03T10:17:32Z</time>
      </trkpt>
      <trkpt lat="48.75738" lon="2.14345">
        <ele>115.8</ele>
        <time>2022-05-03T10:17:37Z</time>
      </trkpt>
      <trkpt lat="48.75731" lon="2.14336">
        <ele>116.2</ele>
        <time>2022-05-03T10:17:42Z</time>
      </trkpt>
      <trkpt lat="48.75726" lon="2.14327">
        <ele>116.8</ele>
        <time>2022-05-03T10:17:47Z</time>
      </trkpt>
      <trkpt lat="48.75723" lon="2.14318">
        <ele>117.2</ele>
        <time>2022-05-03T10:17:52Z</time>
      </trkpt>
      <trkpt lat="48.75717" lon="2.14312">
        <ele>117.8</ele>
        <time>2022-05-03T10:17:57Z</time>
      </trkpt>
      <trkpt lat="48.75712" lon="2.14304">
        <ele>118.3</ele>
        <time>2022-05-03T10:18:02Z</time>
      </trkpt>
      <trkpt lat="48.75709" lon="2.14294">
        <ele>118.5</ele>
        <time>2022-05-03T10:18:08Z</time>
      </trkpt>
      <trkpt lat="48.75704" lon="2.14285">
        <ele>118.7</ele>
        <time>2022-05-03T10:18:13Z</time>
      </trkpt>
      <trkpt lat="48.75701" lon="2.14274">
        <ele>118.7</ele>
        <time>2022-05-03T10:18:18Z</time>
      </trkpt>
      <trkpt lat="48.75698" lon="2.14263">
        <ele>118.6</ele>
        <time>2022-05-03T10:18:23Z</time>
      </trkpt>
      <trkpt lat="48.75693" lon="2.14252">
        <ele>118.4</ele>
        <time>2022-05-03T10:18:28Z</time>
      </trkpt>
      <trkpt lat="48.75686" lon="2.14243">
        <ele>118.5</ele>
        <time>2022-05-03T10:18:33Z</time>
      </trkpt>
      <trkpt lat="48.75686" lon="2.14232">
        <ele>118.8</ele>
        <time>2022-05-03T10:18:39Z</time>
      </trkpt>
      <trkpt lat="48.75686" lon="2.14221">
        <ele>119.2</ele>
        <time>2022-05-03T10:18:45Z</time>
      </trkpt>
      <trkpt lat="48.75687" lon="2.14207">
        <ele>119.8</ele>
        <time>2022-05-03T10:18:50Z</time>
      </trkpt>
      <trkpt lat="48.75688" lon="2.14196">
        <ele>120.2</ele>
        <time>2022-05-03T10:18:55Z</time>
      </trkpt>
      <trkpt lat="48.75684" lon="2.14185">
        <ele>120.3</ele>
        <time>2022-05-03T10:19:00Z</time>
      </trkpt>
      <trkpt lat="48.75678" lon="2.14175">
        <ele>120</ele>
        <time>2022-05-03T10:19:05Z</time>
      </trkpt>
      <trkpt lat="48.75674" lon="2.14166">
        <ele>119.9</ele>
        <time>2022-05-03T10:19:11Z</time>
      </trkpt>
      <trkpt lat="48.75667" lon="2.14163">
        <ele>119.4</ele>
        <time>2022-05-03T10:19:16Z</time>
      </trkpt>
      <trkpt lat="48.7566" lon="2.14157">
        <ele>120.3</ele>
        <time>2022-05-03T10:19:22Z</time>
      </trkpt>
      <trkpt lat="48.75653" lon="2.14154">
        <ele>120.9</ele>
        <time>2022-05-03T10:19:27Z</time>
      </trkpt>
      <trkpt lat="48.75648" lon="2.14147">
        <ele>121.6</ele>
        <time>2022-05-03T10:19:32Z</time>
      </trkpt>
      <trkpt lat="48.75641" lon="2.14142">
        <ele>122.1</ele>
        <time>2022-05-03T10:19:37Z</time>
      </trkpt>
      <trkpt lat="48.75633" lon="2.1414">
        <ele>122.4</ele>
        <time>2022-05-03T10:19:42Z</time>
      </trkpt>
      <trkpt lat="48.75626" lon="2.14134">
        <ele>122.8</ele>
        <time>2022-05-03T10:19:47Z</time>
      </trkpt>
      <trkpt lat="48.7562" lon="2.14128">
        <ele>123</ele>
        <time>2022-05-03T10:19:52Z</time>
      </trkpt>
      <trkpt lat="48.75615" lon="2.14121">
        <ele>123</ele>
        <time>2022-05-03T10:19:57Z</time>
      </trkpt>
      <trkpt lat="48.7561" lon="2.14114">
        <ele>123</ele>
        <time>2022-05-03T10:20:02Z</time>
      </trkpt>
      <trkpt lat="48.75604" lon="2.14108">
        <ele>122.8</ele>
        <time>2022-05-03T10:20:07Z</time>
      </trkpt>
      <trkpt lat="48.75612" lon="2.14098">
        <ele>123</ele>
        <time>2022-05-03T10:20:12Z</time>
      </trkpt>
      <trkpt lat="48.75619" lon="2.14102">
        <ele>123.3</ele>
        <time>2022-05-03T10:20:17Z</time>
      </trkpt>
      <trkpt lat="48.75626" lon="2.14105">
        <ele>123.5</ele>
        <time>2022-05-03T10:20:22Z</time>
      </trkpt>
      <trkpt lat="48.75632" lon="2.14107">
        <ele>123.6</ele>
        <time>2022-05-03T10:20:27Z</time>
      </trkpt>
      <trkpt lat="48.75634" lon="2.14098">
        <ele>124.1</ele>
        <time>2022-05-03T10:20:36Z</time>
      </trkpt>
      <trkpt lat="48.75632" lon="2.14088">
        <ele>124.3</ele>
        <time>2022-05-03T10:21:05Z</time>
      </trkpt>
      <trkpt lat="48.75626" lon="2.14081">
        <ele>124.2</ele>
        <time>2022-05-03T10:21:10Z</time>
      </trkpt>
      <trkpt lat="48.7562" lon="2.14075">
        <ele>124.1</ele>
        <time>2022-05-03T10:21:15Z</time>
      </trkpt>
      <trkpt lat="48.75613" lon="2.14068">
        <ele>124</ele>
        <time>2022-05-03T10:21:21Z</time>
      </trkpt>
      <trkpt lat="48.75604" lon="2.1407">
        <ele>123.1</ele>
        <time>2022-05-03T10:21:26Z</time>
      </trkpt>
      <trkpt lat="48.75595" lon="2.14069">
        <ele>122.4</ele>
        <time>2022-05-03T10:21:31Z</time>
      </trkpt>
      <trkpt lat="48.75588" lon="2.14072">
        <ele>121.7</ele>
        <time>2022-05-03T10:21:36Z</time>
      </trkpt>
      <trkpt lat="48.75582" lon="2.14076">
        <ele>121.3</ele>
        <time>2022-05-03T10:21:42Z</time>
      </trkpt>
      <trkpt lat="48.75574" lon="2.14073">
        <ele>122.1</ele>
        <time>2022-05-03T10:21:47Z</time>
      </trkpt>
      <trkpt lat="48.75563" lon="2.14078">
        <ele>123.2</ele>
        <time>2022-05-03T10:21:52Z</time>
      </trkpt>
      <trkpt lat="48.75554" lon="2.14083">
        <ele>124.2</ele>
        <time>2022-05-03T10:21:57Z</time>
      </trkpt>
      <trkpt lat="48.75548" lon="2.14086">
        <ele>125.1</ele>
        <time>2022-05-03T10:22:04Z</time>
      </trkpt>
      <trkpt lat="48.7554" lon="2.14084">
        <ele>125.8</ele>
        <time>2022-05-03T10:22:16Z</time>
      </trkpt>
      <trkpt lat="48.75534" lon="2.14088">
        <ele>126.9</ele>
        <time>2022-05-03T10:22:56Z</time>
      </trkpt>
      <trkpt lat="48.75527" lon="2.14087">
        <ele>127.6</ele>
        <time>2022-05-03T10:23:13Z</time>
      </trkpt>
      <trkpt lat="48.75521" lon="2.14094">
        <ele>129.4</ele>
        <time>2022-05-03T10:23:18Z</time>
      </trkpt>
      <trkpt lat="48.75515" lon="2.141">
        <ele>131.1</ele>
        <time>2022-05-03T10:23:24Z</time>
      </trkpt>
      <trkpt lat="48.75509" lon="2.14106">
        <ele>133</ele>
        <time>2022-05-03T10:23:29Z</time>
      </trkpt>
      <trkpt lat="48.75504" lon="2.14112">
        <ele>134.9</ele>
        <time>2022-05-03T10:23:35Z</time>
      </trkpt>
      <trkpt lat="48.75498" lon="2.14119">
        <ele>137.2</ele>
        <time>2022-05-03T10:23:42Z</time>
      </trkpt>
      <trkpt lat="48.75492" lon="2.14126">
        <ele>139.5</ele>
        <time>2022-05-03T10:23:47Z</time>
      </trkpt>
      <trkpt lat="48.75484" lon="2.14134">
        <ele>142</ele>
        <time>2022-05-03T10:23:52Z</time>
      </trkpt>
      <trkpt lat="48.75479" lon="2.14127">
        <ele>141.7</ele>
        <time>2022-05-03T10:24:04Z</time>
      </trkpt>
      <trkpt lat="48.75481" lon="2.14117">
        <ele>139.9</ele>
        <time>2022-05-03T10:24:25Z</time>
      </trkpt>
      <trkpt lat="48.75487" lon="2.14114">
        <ele>138.3</ele>
        <time>2022-05-03T10:24:32Z</time>
      </trkpt>
      <trkpt lat="48.75493" lon="2.14109">
        <ele>136.3</ele>
        <time>2022-05-03T10:24:39Z</time>
      </trkpt>
      <trkpt lat="48.75499" lon="2.14101">
        <ele>133.6</ele>
        <time>2022-05-03T10:24:55Z</time>
      </trkpt>
      <trkpt lat="48.75506" lon="2.14096">
        <ele>131.7</ele>
        <time>2022-05-03T10:25:00Z</time>
      </trkpt>
      <trkpt lat="48.7551" lon="2.14087">
        <ele>129.6</ele>
        <time>2022-05-03T10:25:05Z</time>
      </trkpt>
      <trkpt lat="48.75515" lon="2.14075">
        <ele>127.9</ele>
        <time>2022-05-03T10:25:10Z</time>
      </trkpt>
      <trkpt lat="48.75515" lon="2.14064">
        <ele>127.3</ele>
        <time>2022-05-03T10:25:27Z</time>
      </trkpt>
      <trkpt lat="48.75516" lon="2.14053">
        <ele>126.6</ele>
        <time>2022-05-03T10:25:32Z</time>
      </trkpt>
      <trkpt lat="48.75514" lon="2.14044">
        <ele>126.3</ele>
        <time>2022-05-03T10:25:37Z</time>
      </trkpt>
      <trkpt lat="48.75507" lon="2.14041">
        <ele>126.5</ele>
        <time>2022-05-03T10:26:02Z</time>
      </trkpt>
      <trkpt lat="48.75502" lon="2.14032">
        <ele>126.2</ele>
        <time>2022-05-03T10:26:08Z</time>
      </trkpt>
      <trkpt lat="48.75494" lon="2.14029">
        <ele>127.8</ele>
        <time>2022-05-03T10:26:14Z</time>
      </trkpt>
      <trkpt lat="48.75487" lon="2.14025">
        <ele>129.5</ele>
        <time>2022-05-03T10:26:19Z</time>
      </trkpt>
      <trkpt lat="48.75479" lon="2.14015">
        <ele>131.2</ele>
        <time>2022-05-03T10:26:24Z</time>
      </trkpt>
      <trkpt lat="48.75476" lon="2.13998">
        <ele>131.2</ele>
        <time>2022-05-03T10:26:29Z</time>
      </trkpt>
      <trkpt lat="48.75471" lon="2.1399">
        <ele>132.7</ele>
        <time>2022-05-03T10:26:35Z</time>
      </trkpt>
      <trkpt lat="48.75467" lon="2.13982">
        <ele>133.9</ele>
        <time>2022-05-03T10:26:41Z</time>
      </trkpt>
      <trkpt lat="48.75467" lon="2.13971">
        <ele>134</ele>
        <time>2022-05-03T10:26:49Z</time>
      </trkpt>
      <trkpt lat="48.75467" lon="2.1396">
        <ele>134</ele>
        <time>2022-05-03T10:26:54Z</time>
      </trkpt>
      <trkpt lat="48.75467" lon="2.13948">
        <ele>134</ele>
        <time>2022-05-03T10:26:59Z</time>
      </trkpt>
      <trkpt lat="48.75469" lon="2.13932">
        <ele>133.5</ele>
        <time>2022-05-03T10:27:04Z</time>
      </trkpt>
      <trkpt lat="48.75471" lon="2.13919">
        <ele>133</ele>
        <time>2022-05-03T10:27:09Z</time>
      </trkpt>
      <trkpt lat="48.75465" lon="2.13911">
        <ele>134.5</ele>
        <time>2022-05-03T10:27:14Z</time>
      </trkpt>
      <trkpt lat="48.75457" lon="2.1391">
        <ele>136.6</ele>
        <time>2022-05-03T10:27:48Z</time>
      </trkpt>
      <trkpt lat="48.7545" lon="2.13911">
        <ele>138.6</ele>
        <time>2022-05-03T10:28:10Z</time>
      </trkpt>
      <trkpt lat="48.75443" lon="2.13916">
        <ele>140.7</ele>
        <time>2022-05-03T10:28:15Z</time>
      </trkpt>
      <trkpt lat="48.75436" lon="2.13918">
        <ele>142.7</ele>
        <time>2022-05-03T10:28:20Z</time>
      </trkpt>
      <trkpt lat="48.75432" lon="2.13927">
        <ele>143.8</ele>
        <time>2022-05-03T10:28:25Z</time>
      </trkpt>
      <trkpt lat="48.7544" lon="2.13927">
        <ele>141.6</ele>
        <time>2022-05-03T10:28:30Z</time>
      </trkpt>
      <trkpt lat="48.75433" lon="2.13932">
        <ele>143.6</ele>
        <time>2022-05-03T10:28:51Z</time>
      </trkpt>
      <trkpt lat="48.75426" lon="2.13934">
        <ele>145.6</ele>
        <time>2022-05-03T10:28:56Z</time>
      </trkpt>
      <trkpt lat="48.75433" lon="2.13937">
        <ele>143.6</ele>
        <time>2022-05-03T10:29:22Z</time>
      </trkpt>
      <trkpt lat="48.75425" lon="2.13932">
        <ele>145.8</ele>
        <time>2022-05-03T10:29:36Z</time>
      </trkpt>
      <trkpt lat="48.75419" lon="2.13927">
        <ele>147.5</ele>
        <time>2022-05-03T10:29:41Z</time>
      </trkpt>
      <trkpt lat="48.75417" lon="2.13916">
        <ele>147.9</ele>
        <time>2022-05-03T10:29:47Z</time>
      </trkpt>
      <trkpt lat="48.75414" lon="2.13907">
        <ele>147.5</ele>
        <time>2022-05-03T10:29:52Z</time>
      </trkpt>
      <trkpt lat="48.75408" lon="2.13897">
        <ele>147</ele>
        <time>2022-05-03T10:29:57Z</time>
      </trkpt>
      <trkpt lat="48.75411" lon="2.13879">
        <ele>146</ele>
        <time>2022-05-03T10:30:02Z</time>
      </trkpt>
      <trkpt lat="48.75412" lon="2.13868">
        <ele>145.3</ele>
        <time>2022-05-03T10:30:07Z</time>
      </trkpt>
      <trkpt lat="48.75411" lon="2.13858">
        <ele>144.8</ele>
        <time>2022-05-03T10:30:15Z</time>
      </trkpt>
      <trkpt lat="48.75412" lon="2.13848">
        <ele>144.2</ele>
        <time>2022-05-03T10:30:20Z</time>
      </trkpt>
      <trkpt lat="48.75412" lon="2.13837">
        <ele>143.5</ele>
        <time>2022-05-03T10:30:26Z</time>
      </trkpt>
      <trkpt lat="48.75411" lon="2.13826">
        <ele>143</ele>
        <time>2022-05-03T10:30:31Z</time>
      </trkpt>
      <trkpt lat="48.75409" lon="2.13815">
        <ele>142.5</ele>
        <time>2022-05-03T10:30:36Z</time>
      </trkpt>
      <trkpt lat="48.75407" lon="2.13805">
        <ele>142.2</ele>
        <time>2022-05-03T10:30:42Z</time>
      </trkpt>
      <trkpt lat="48.75405" lon="2.13795">
        <ele>141.8</ele>
        <time>2022-05-03T10:30:49Z</time>
      </trkpt>
      <trkpt lat="48.75401" lon="2.13781">
        <ele>141.5</ele>
        <time>2022-05-03T10:31:18Z</time>
      </trkpt>
      <trkpt lat="48.754" lon="2.1377">
        <ele>141</ele>
        <time>2022-05-03T10:31:48Z</time>
      </trkpt>
      <trkpt lat="48.75398" lon="2.13761">
        <ele>140.8</ele>
        <time>2022-05-03T10:31:54Z</time>
      </trkpt>
      <trkpt lat="48.75393" lon="2.13746">
        <ele>140.8</ele>
        <time>2022-05-03T10:32:17Z</time>
      </trkpt>
      <trkpt lat="48.7539" lon="2.13736">
        <ele>141.1</ele>
        <time>2022-05-03T10:32:23Z</time>
      </trkpt>
      <trkpt lat="48.75389" lon="2.13725">
        <ele>141.1</ele>
        <time>2022-05-03T10:32:30Z</time>
      </trkpt>
      <trkpt lat="48.75392" lon="2.13716">
        <ele>140.7</ele>
        <time>2022-05-03T10:32:39Z</time>
      </trkpt>
      <trkpt lat="48.75397" lon="2.13709">
        <ele>140</ele>
        <time>2022-05-03T10:33:35Z</time>
      </trkpt>
      <trkpt lat="48.75395" lon="2.13699">
        <ele>140.1</ele>
        <time>2022-05-03T10:33:49Z</time>
      </trkpt>
      <trkpt lat="48.75392" lon="2.13689">
        <ele>140.4</ele>
        <time>2022-05-03T10:33:55Z</time>
      </trkpt>
      <trkpt lat="48.75391" lon="2.13677">
        <ele>140.5</ele>
        <time>2022-05-03T10:34:02Z</time>
      </trkpt>
      <trkpt lat="48.75385" lon="2.13674">
        <ele>141.2</ele>
        <time>2022-05-03T10:34:17Z</time>
      </trkpt>
      <trkpt lat="48.7539" lon="2.13666">
        <ele>140.5</ele>
        <time>2022-05-03T10:34:37Z</time>
      </trkpt>
      <trkpt lat="48.75403" lon="2.13663">
        <ele>138.6</ele>
        <time>2022-05-03T10:34:50Z</time>
      </trkpt>
      <trkpt lat="48.75395" lon="2.13668">
        <ele>139.9</ele>
        <time>2022-05-03T10:35:24Z</time>
      </trkpt>
      <trkpt lat="48.75389" lon="2.13673">
        <ele>140.7</ele>
        <time>2022-05-03T10:35:33Z</time>
      </trkpt>
      <trkpt lat="48.75383" lon="2.13667">
        <ele>141.4</ele>
        <time>2022-05-03T10:35:45Z</time>
      </trkpt>
      <trkpt lat="48.75379" lon="2.13656">
        <ele>141.6</ele>
        <time>2022-05-03T10:35:50Z</time>
      </trkpt>
      <trkpt lat="48.75375" lon="2.13648">
        <ele>141.9</ele>
        <time>2022-05-03T10:35:58Z</time>
      </trkpt>
      <trkpt lat="48.75374" lon="2.13636">
        <ele>141.7</ele>
        <time>2022-05-03T10:36:04Z</time>
      </trkpt>
      <trkpt lat="48.75374" lon="2.13625">
        <ele>141.4</ele>
        <time>2022-05-03T10:36:10Z</time>
      </trkpt>
      <trkpt lat="48.7537" lon="2.13613">
        <ele>141.7</ele>
        <time>2022-05-03T10:36:15Z</time>
      </trkpt>
      <trkpt lat="48.7537" lon="2.13603">
        <ele>141.5</ele>
        <time>2022-05-03T10:36:20Z</time>
      </trkpt>
      <trkpt lat="48.75373" lon="2.13593">
        <ele>140.7</ele>
        <time>2022-05-03T10:36:31Z</time>
      </trkpt>
      <trkpt lat="48.7538" lon="2.13588">
        <ele>139.2</ele>
        <time>2022-05-03T10:36:37Z</time>
      </trkpt>
      <trkpt lat="48.75388" lon="2.13582">
        <ele>137.5</ele>
        <time>2022-05-03T10:36:42Z</time>
      </trkpt>
      <trkpt lat="48.75395" lon="2.13572">
        <ele>136.2</ele>
        <time>2022-05-03T10:36:47Z</time>
      </trkpt>
      <trkpt lat="48.75397" lon="2.13562">
        <ele>135.8</ele>
        <time>2022-05-03T10:36:53Z</time>
      </trkpt>
      <trkpt lat="48.75397" lon="2.1355">
        <ele>135.8</ele>
        <time>2022-05-03T10:37:01Z</time>
      </trkpt>
      <trkpt lat="48.75398" lon="2.13539">
        <ele>135.6</ele>
        <time>2022-05-03T10:37:06Z</time>
      </trkpt>
      <trkpt lat="48.75396" lon="2.13528">
        <ele>136</ele>
        <time>2022-05-03T10:37:11Z</time>
      </trkpt>
      <trkpt lat="48.75393" lon="2.13513">
        <ele>136.5</ele>
        <time>2022-05-03T10:37:16Z</time>
      </trkpt>
      <trkpt lat="48.75392" lon="2.13501">
        <ele>136.7</ele>
        <time>2022-05-03T10:37:21Z</time>
      </trkpt>
      <trkpt lat="48.75393" lon="2.13488">
        <ele>136.8</ele>
        <time>2022-05-03T10:37:27Z</time>
      </trkpt>
      <trkpt lat="48.75388" lon="2.13472">
        <ele>138</ele>
        <time>2022-05-03T10:37:32Z</time>
      </trkpt>
      <trkpt lat="48.75382" lon="2.1346">
        <ele>139.3</ele>
        <time>2022-05-03T10:37:37Z</time>
      </trkpt>
      <trkpt lat="48.75379" lon="2.1345">
        <ele>139.9</ele>
        <time>2022-05-03T10:37:43Z</time>
      </trkpt>
      <trkpt lat="48.75375" lon="2.13437">
        <ele>140.8</ele>
        <time>2022-05-03T10:37:48Z</time>
      </trkpt>
      <trkpt lat="48.75376" lon="2.13427">
        <ele>140.7</ele>
        <time>2022-05-03T10:37:53Z</time>
      </trkpt>
      <trkpt lat="48.75373" lon="2.13412">
        <ele>141.3</ele>
        <time>2022-05-03T10:37:58Z</time>
      </trkpt>
      <trkpt lat="48.75374" lon="2.13398">
        <ele>141</ele>
        <time>2022-05-03T10:38:03Z</time>
      </trkpt>
      <trkpt lat="48.75375" lon="2.13388">
        <ele>140.8</ele>
        <time>2022-05-03T10:38:23Z</time>
      </trkpt>
      <trkpt lat="48.75376" lon="2.13378">
        <ele>140.6</ele>
        <time>2022-05-03T10:38:31Z</time>
      </trkpt>
      <trkpt lat="48.75375" lon="2.13367">
        <ele>140.7</ele>
        <time>2022-05-03T10:38:37Z</time>
      </trkpt>
      <trkpt lat="48.75372" lon="2.13358">
        <ele>141.1</ele>
        <time>2022-05-03T10:38:42Z</time>
      </trkpt>
      <trkpt lat="48.75374" lon="2.13348">
        <ele>140.7</ele>
        <time>2022-05-03T10:38:49Z</time>
      </trkpt>
      <trkpt lat="48.75374" lon="2.13337">
        <ele>140.7</ele>
        <time>2022-05-03T10:38:54Z</time>
      </trkpt>
      <trkpt lat="48.75373" lon="2.13327">
        <ele>140.8</ele>
        <time>2022-05-03T10:39:00Z</time>
      </trkpt>
      <trkpt lat="48.75373" lon="2.13316">
        <ele>140.9</ele>
        <time>2022-05-03T10:39:07Z</time>
      </trkpt>
      <trkpt lat="48.75371" lon="2.13306">
        <ele>141.2</ele>
        <time>2022-05-03T10:39:12Z</time>
      </trkpt>
      <trkpt lat="48.75365" lon="2.13293">
        <ele>142.1</ele>
        <time>2022-05-03T10:39:17Z</time>
      </trkpt>
      <trkpt lat="48.75363" lon="2.13283">
        <ele>142.5</ele>
        <time>2022-05-03T10:39:23Z</time>
      </trkpt>
      <trkpt lat="48.75356" lon="2.13267">
        <ele>143.6</ele>
        <time>2022-05-03T10:39:28Z</time>
      </trkpt>
      <trkpt lat="48.75353" lon="2.13251">
        <ele>144.2</ele>
        <time>2022-05-03T10:39:33Z</time>
      </trkpt>
      <trkpt lat="48.7535" lon="2.13243">
        <ele>144.4</ele>
        <time>2022-05-03T10:39:38Z</time>
      </trkpt>
      <trkpt lat="48.75344" lon="2.13237">
        <ele>145.1</ele>
        <time>2022-05-03T10:39:46Z</time>
      </trkpt>
      <trkpt lat="48.75343" lon="2.13226">
        <ele>144.8</ele>
        <time>2022-05-03T10:39:54Z</time>
      </trkpt>
      <trkpt lat="48.75341" lon="2.13216">
        <ele>144.8</ele>
        <time>2022-05-03T10:40:00Z</time>
      </trkpt>
      <trkpt lat="48.75338" lon="2.13206">
        <ele>144.8</ele>
        <time>2022-05-03T10:40:05Z</time>
      </trkpt>
      <trkpt lat="48.75334" lon="2.13193">
        <ele>144.9</ele>
        <time>2022-05-03T10:40:10Z</time>
      </trkpt>
      <trkpt lat="48.75329" lon="2.13184">
        <ele>144.7</ele>
        <time>2022-05-03T10:40:15Z</time>
      </trkpt>
      <trkpt lat="48.75326" lon="2.13175">
        <ele>144.5</ele>
        <time>2022-05-03T10:40:20Z</time>
      </trkpt>
      <trkpt lat="48.75322" lon="2.13166">
        <ele>144.2</ele>
        <time>2022-05-03T10:40:25Z</time>
      </trkpt>
      <trkpt lat="48.75319" lon="2.13155">
        <ele>143.9</ele>
        <time>2022-05-03T10:40:30Z</time>
      </trkpt>
      <trkpt lat="48.75316" lon="2.13145">
        <ele>143.6</ele>
        <time>2022-05-03T10:40:35Z</time>
      </trkpt>
      <trkpt lat="48.75314" lon="2.13136">
        <ele>143.3</ele>
        <time>2022-05-03T10:40:40Z</time>
      </trkpt>
      <trkpt lat="48.75313" lon="2.13126">
        <ele>143</ele>
        <time>2022-05-03T10:40:46Z</time>
      </trkpt>
      <trkpt lat="48.75312" lon="2.13114">
        <ele>142.6</ele>
        <time>2022-05-03T10:40:51Z</time>
      </trkpt>
      <trkpt lat="48.75311" lon="2.13103">
        <ele>142.3</ele>
        <time>2022-05-03T10:40:57Z</time>
      </trkpt>
      <trkpt lat="48.75308" lon="2.13092">
        <ele>142.1</ele>
        <time>2022-05-03T10:41:02Z</time>
      </trkpt>
      <trkpt lat="48.75308" lon="2.13079">
        <ele>141.6</ele>
        <time>2022-05-03T10:41:07Z</time>
      </trkpt>
      <trkpt lat="48.75307" lon="2.13069">
        <ele>141.1</ele>
        <time>2022-05-03T10:41:14Z</time>
      </trkpt>
      <trkpt lat="48.75309" lon="2.13059">
        <ele>140.5</ele>
        <time>2022-05-03T10:41:21Z</time>
      </trkpt>
      <trkpt lat="48.75308" lon="2.13049">
        <ele>140</ele>
        <time>2022-05-03T10:41:26Z</time>
      </trkpt>
      <trkpt lat="48.75307" lon="2.13037">
        <ele>139.5</ele>
        <time>2022-05-03T10:41:31Z</time>
      </trkpt>
      <trkpt lat="48.75305" lon="2.13027">
        <ele>139.1</ele>
        <time>2022-05-03T10:41:36Z</time>
      </trkpt>
      <trkpt lat="48.75302" lon="2.13018">
        <ele>138.9</ele>
        <time>2022-05-03T10:41:41Z</time>
      </trkpt>
      <trkpt lat="48.75298" lon="2.13007">
        <ele>138.7</ele>
        <time>2022-05-03T10:41:46Z</time>
      </trkpt>
      <trkpt lat="48.75294" lon="2.12998">
        <ele>138.8</ele>
        <time>2022-05-03T10:41:53Z</time>
      </trkpt>
      <trkpt lat="48.75292" lon="2.12986">
        <ele>138.8</ele>
        <time>2022-05-03T10:41:58Z</time>
      </trkpt>
      <trkpt lat="48.75289" lon="2.12977">
        <ele>139</ele>
        <time>2022-05-03T10:42:03Z</time>
      </trkpt>
      <trkpt lat="48.75284" lon="2.12967">
        <ele>139.3</ele>
        <time>2022-05-03T10:42:08Z</time>
      </trkpt>
      <trkpt lat="48.75279" lon="2.12958">
        <ele>139.6</ele>
        <time>2022-05-03T10:42:13Z</time>
      </trkpt>
      <trkpt lat="48.75275" lon="2.12948">
        <ele>139.7</ele>
        <time>2022-05-03T10:42:18Z</time>
      </trkpt>
      <trkpt lat="48.75272" lon="2.12939">
        <ele>139.8</ele>
        <time>2022-05-03T10:42:23Z</time>
      </trkpt>
      <trkpt lat="48.75271" lon="2.12928">
        <ele>139.7</ele>
        <time>2022-05-03T10:42:35Z</time>
      </trkpt>
      <trkpt lat="48.75276" lon="2.12921">
        <ele>139.2</ele>
        <time>2022-05-03T10:43:16Z</time>
      </trkpt>
      <trkpt lat="48.75281" lon="2.12915">
        <ele>138.7</ele>
        <time>2022-05-03T10:43:28Z</time>
      </trkpt>
      <trkpt lat="48.75276" lon="2.12923">
        <ele>139.2</ele>
        <time>2022-05-03T10:44:20Z</time>
      </trkpt>
      <trkpt lat="48.75272" lon="2.12931">
        <ele>139.7</ele>
        <time>2022-05-03T10:44:25Z</time>
      </trkpt>
      <trkpt lat="48.75274" lon="2.12942">
        <ele>139.7</ele>
        <time>2022-05-03T10:44:31Z</time>
      </trkpt>
      <trkpt lat="48.75277" lon="2.12952">
        <ele>139.6</ele>
        <time>2022-05-03T10:44:36Z</time>
      </trkpt>
      <trkpt lat="48.75281" lon="2.12961">
        <ele>139.4</ele>
        <time>2022-05-03T10:44:42Z</time>
      </trkpt>
      <trkpt lat="48.75285" lon="2.1297">
        <ele>139.2</ele>
        <time>2022-05-03T10:44:47Z</time>
      </trkpt>
      <trkpt lat="48.75287" lon="2.12985">
        <ele>139.2</ele>
        <time>2022-05-03T10:44:52Z</time>
      </trkpt>
      <trkpt lat="48.75294" lon="2.12997">
        <ele>138.7</ele>
        <time>2022-05-03T10:44:57Z</time>
      </trkpt>
      <trkpt lat="48.753" lon="2.13005">
        <ele>138.5</ele>
        <time>2022-05-03T10:45:02Z</time>
      </trkpt>
      <trkpt lat="48.75304" lon="2.13014">
        <ele>138.5</ele>
        <time>2022-05-03T10:45:13Z</time>
      </trkpt>
      <trkpt lat="48.75307" lon="2.13024">
        <ele>138.8</ele>
        <time>2022-05-03T10:45:19Z</time>
      </trkpt>
      <trkpt lat="48.75307" lon="2.13035">
        <ele>139.4</ele>
        <time>2022-05-03T10:45:24Z</time>
      </trkpt>
      <trkpt lat="48.7531" lon="2.13046">
        <ele>139.7</ele>
        <time>2022-05-03T10:45:30Z</time>
      </trkpt>
      <trkpt lat="48.75307" lon="2.13057">
        <ele>140.5</ele>
        <time>2022-05-03T10:45:35Z</time>
      </trkpt>
      <trkpt lat="48.75301" lon="2.13063">
        <ele>141.3</ele>
        <time>2022-05-03T10:45:40Z</time>
      </trkpt>
      <trkpt lat="48.75293" lon="2.13064">
        <ele>142</ele>
        <time>2022-05-03T10:45:45Z</time>
      </trkpt>
      <trkpt lat="48.75285" lon="2.13066">
        <ele>142.7</ele>
        <time>2022-05-03T10:45:50Z</time>
      </trkpt>
      <trkpt lat="48.75278" lon="2.13069">
        <ele>143.4</ele>
        <time>2022-05-03T10:45:55Z</time>
      </trkpt>
      <trkpt lat="48.75273" lon="2.1308">
        <ele>144.2</ele>
        <time>2022-05-03T10:46:01Z</time>
      </trkpt>
      <trkpt lat="48.75271" lon="2.13093">
        <ele>144.6</ele>
        <time>2022-05-03T10:46:06Z</time>
      </trkpt>
      <trkpt lat="48.75272" lon="2.13107">
        <ele>144.7</ele>
        <time>2022-05-03T10:46:11Z</time>
      </trkpt>
      <trkpt lat="48.75272" lon="2.1312">
        <ele>144.9</ele>
        <time>2022-05-03T10:46:16Z</time>
      </trkpt>
      <trkpt lat="48.75272" lon="2.1313">
        <ele>145</ele>
        <time>2022-05-03T10:46:22Z</time>
      </trkpt>
      <trkpt lat="48.75276" lon="2.13139">
        <ele>145</ele>
        <time>2022-05-03T10:46:27Z</time>
      </trkpt>
      <trkpt lat="48.75281" lon="2.13145">
        <ele>144.9</ele>
        <time>2022-05-03T10:46:32Z</time>
      </trkpt>
      <trkpt lat="48.7528" lon="2.13156">
        <ele>145.1</ele>
        <time>2022-05-03T10:46:37Z</time>
      </trkpt>
      <trkpt lat="48.75283" lon="2.13166">
        <ele>145.2</ele>
        <time>2022-05-03T10:46:42Z</time>
      </trkpt>
      <trkpt lat="48.75286" lon="2.13176">
        <ele>145.4</ele>
        <time>2022-05-03T10:46:47Z</time>
      </trkpt>
      <trkpt lat="48.75287" lon="2.13189">
        <ele>145.8</ele>
        <time>2022-05-03T10:46:52Z</time>
      </trkpt>
      <trkpt lat="48.75288" lon="2.132">
        <ele>146.1</ele>
        <time>2022-05-03T10:46:58Z</time>
      </trkpt>
      <trkpt lat="48.7529" lon="2.13209">
        <ele>146.3</ele>
        <time>2022-05-03T10:47:03Z</time>
      </trkpt>
      <trkpt lat="48.75292" lon="2.1322">
        <ele>146.6</ele>
        <time>2022-05-03T10:47:08Z</time>
      </trkpt>
      <trkpt lat="48.75295" lon="2.1323">
        <ele>146.9</ele>
        <time>2022-05-03T10:47:13Z</time>
      </trkpt>
      <trkpt lat="48.75296" lon="2.13242">
        <ele>147.2</ele>
        <time>2022-05-03T10:47:18Z</time>
      </trkpt>
      <trkpt lat="48.75297" lon="2.13255">
        <ele>147.4</ele>
        <time>2022-05-03T10:47:23Z</time>
      </trkpt>
      <trkpt lat="48.75301" lon="2.13266">
        <ele>147.3</ele>
        <time>2022-05-03T10:47:28Z</time>
      </trkpt>
      <trkpt lat="48.75305" lon="2.13274">
        <ele>147.1</ele>
        <time>2022-05-03T10:47:34Z</time>
      </trkpt>
      <trkpt lat="48.75307" lon="2.13284">
        <ele>147</ele>
        <time>2022-05-03T10:47:39Z</time>
      </trkpt>
      <trkpt lat="48.75307" lon="2.13295">
        <ele>146.9</ele>
        <time>2022-05-03T10:47:45Z</time>
      </trkpt>
      <trkpt lat="48.75308" lon="2.13306">
        <ele>146.8</ele>
        <time>2022-05-03T10:47:50Z</time>
      </trkpt>
      <trkpt lat="48.75307" lon="2.13319">
        <ele>146.7</ele>
        <time>2022-05-03T10:47:55Z</time>
      </trkpt>
      <trkpt lat="48.75308" lon="2.1333">
        <ele>146.6</ele>
        <time>2022-05-03T10:48:00Z</time>
      </trkpt>
      <trkpt lat="48.7531" lon="2.13341">
        <ele>146.6</ele>
        <time>2022-05-03T10:48:05Z</time>
      </trkpt>
      <trkpt lat="48.75312" lon="2.13351">
        <ele>146.7</ele>
        <time>2022-05-03T10:48:10Z</time>
      </trkpt>
      <trkpt lat="48.75313" lon="2.13362">
        <ele>146.7</ele>
        <time>2022-05-03T10:48:15Z</time>
      </trkpt>
      <trkpt lat="48.75315" lon="2.13373">
        <ele>146.8</ele>
        <time>2022-05-03T10:48:21Z</time>
      </trkpt>
      <trkpt lat="48.75313" lon="2.13384">
        <ele>146.9</ele>
        <time>2022-05-03T10:48:26Z</time>
      </trkpt>
      <trkpt lat="48.75309" lon="2.13396">
        <ele>147.1</ele>
        <time>2022-05-03T10:48:31Z</time>
      </trkpt>
      <trkpt lat="48.75306" lon="2.13408">
        <ele>147.3</ele>
        <time>2022-05-03T10:48:36Z</time>
      </trkpt>
      <trkpt lat="48.75304" lon="2.13419">
        <ele>147.4</ele>
        <time>2022-05-03T10:48:42Z</time>
      </trkpt>
      <trkpt lat="48.75302" lon="2.13429">
        <ele>147.4</ele>
        <time>2022-05-03T10:48:47Z</time>
      </trkpt>
      <trkpt lat="48.75299" lon="2.13441">
        <ele>147.5</ele>
        <time>2022-05-03T10:48:53Z</time>
      </trkpt>
      <trkpt lat="48.75295" lon="2.13454">
        <ele>147.5</ele>
        <time>2022-05-03T10:48:58Z</time>
      </trkpt>
      <trkpt lat="48.75294" lon="2.13467">
        <ele>147.5</ele>
        <time>2022-05-03T10:49:03Z</time>
      </trkpt>
      <trkpt lat="48.75293" lon="2.1348">
        <ele>147.5</ele>
        <time>2022-05-03T10:49:08Z</time>
      </trkpt>
      <trkpt lat="48.7529" lon="2.13489">
        <ele>147.5</ele>
        <time>2022-05-03T10:49:13Z</time>
      </trkpt>
      <trkpt lat="48.75289" lon="2.13498">
        <ele>147.5</ele>
        <time>2022-05-03T10:49:19Z</time>
      </trkpt>
      <trkpt lat="48.75287" lon="2.13508">
        <ele>147.4</ele>
        <time>2022-05-03T10:49:26Z</time>
      </trkpt>
      <trkpt lat="48.75284" lon="2.1352">
        <ele>147.4</ele>
        <time>2022-05-03T10:49:31Z</time>
      </trkpt>
      <trkpt lat="48.75282" lon="2.1353">
        <ele>147.4</ele>
        <time>2022-05-03T10:49:36Z</time>
      </trkpt>
      <trkpt lat="48.75278" lon="2.1354">
        <ele>147.3</ele>
        <time>2022-05-03T10:49:42Z</time>
      </trkpt>
      <trkpt lat="48.75273" lon="2.1355">
        <ele>147.3</ele>
        <time>2022-05-03T10:49:47Z</time>
      </trkpt>
      <trkpt lat="48.75269" lon="2.13561">
        <ele>147.2</ele>
        <time>2022-05-03T10:49:52Z</time>
      </trkpt>
      <trkpt lat="48.75268" lon="2.13574">
        <ele>147.2</ele>
        <time>2022-05-03T10:49:57Z</time>
      </trkpt>
      <trkpt lat="48.75269" lon="2.13584">
        <ele>147.2</ele>
        <time>2022-05-03T10:50:06Z</time>
      </trkpt>
      <trkpt lat="48.75267" lon="2.13594">
        <ele>147.3</ele>
        <time>2022-05-03T10:50:11Z</time>
      </trkpt>
      <trkpt lat="48.75262" lon="2.13606">
        <ele>147.4</ele>
        <time>2022-05-03T10:50:16Z</time>
      </trkpt>
      <trkpt lat="48.75262" lon="2.13616">
        <ele>147.5</ele>
        <time>2022-05-03T10:50:25Z</time>
      </trkpt>
      <trkpt lat="48.75263" lon="2.13626">
        <ele>147.6</ele>
        <time>2022-05-03T10:50:31Z</time>
      </trkpt>
      <trkpt lat="48.75268" lon="2.13634">
        <ele>147.7</ele>
        <time>2022-05-03T10:50:36Z</time>
      </trkpt>
      <trkpt lat="48.75267" lon="2.13644">
        <ele>147.8</ele>
        <time>2022-05-03T10:50:43Z</time>
      </trkpt>
      <trkpt lat="48.7527" lon="2.13657">
        <ele>147.9</ele>
        <time>2022-05-03T10:50:48Z</time>
      </trkpt>
      <trkpt lat="48.75271" lon="2.13668">
        <ele>148</ele>
        <time>2022-05-03T10:50:53Z</time>
      </trkpt>
      <trkpt lat="48.7527" lon="2.1368">
        <ele>147.9</ele>
        <time>2022-05-03T10:50:59Z</time>
      </trkpt>
      <trkpt lat="48.75271" lon="2.13694">
        <ele>147.8</ele>
        <time>2022-05-03T10:51:04Z</time>
      </trkpt>
      <trkpt lat="48.75277" lon="2.13703">
        <ele>147.7</ele>
        <time>2022-05-03T10:51:09Z</time>
      </trkpt>
      <trkpt lat="48.75281" lon="2.13716">
        <ele>147.6</ele>
        <time>2022-05-03T10:51:14Z</time>
      </trkpt>
      <trkpt lat="48.75282" lon="2.13726">
        <ele>147.6</ele>
        <time>2022-05-03T10:51:19Z</time>
      </trkpt>
      <trkpt lat="48.75282" lon="2.13735">
        <ele>147.5</ele>
        <time>2022-05-03T10:51:26Z</time>
      </trkpt>
      <trkpt lat="48.75286" lon="2.13749">
        <ele>147.4</ele>
        <time>2022-05-03T10:51:31Z</time>
      </trkpt>
      <trkpt lat="48.75286" lon="2.13761">
        <ele>147.6</ele>
        <time>2022-05-03T10:51:36Z</time>
      </trkpt>
      <trkpt lat="48.75283" lon="2.13776">
        <ele>147.7</ele>
        <time>2022-05-03T10:51:41Z</time>
      </trkpt>
      <trkpt lat="48.75285" lon="2.13786">
        <ele>147.9</ele>
        <time>2022-05-03T10:51:47Z</time>
      </trkpt>
      <trkpt lat="48.75286" lon="2.13797">
        <ele>148</ele>
        <time>2022-05-03T10:51:52Z</time>
      </trkpt>
      <trkpt lat="48.7529" lon="2.1381">
        <ele>148.2</ele>
        <time>2022-05-03T10:51:57Z</time>
      </trkpt>
      <trkpt lat="48.75293" lon="2.1382">
        <ele>148.4</ele>
        <time>2022-05-03T10:52:03Z</time>
      </trkpt>
      <trkpt lat="48.75297" lon="2.13829">
        <ele>148.5</ele>
        <time>2022-05-03T10:52:09Z</time>
      </trkpt>
      <trkpt lat="48.75296" lon="2.13839">
        <ele>148.6</ele>
        <time>2022-05-03T10:52:16Z</time>
      </trkpt>
      <trkpt lat="48.75296" lon="2.1385">
        <ele>148.7</ele>
        <time>2022-05-03T10:52:22Z</time>
      </trkpt>
      <trkpt lat="48.75299" lon="2.13865">
        <ele>148.9</ele>
        <time>2022-05-03T10:52:27Z</time>
      </trkpt>
      <trkpt lat="48.75301" lon="2.13879">
        <ele>149</ele>
        <time>2022-05-03T10:52:32Z</time>
      </trkpt>
      <trkpt lat="48.75305" lon="2.13887">
        <ele>149.1</ele>
        <time>2022-05-03T10:52:40Z</time>
      </trkpt>
      <trkpt lat="48.75304" lon="2.13898">
        <ele>149.2</ele>
        <time>2022-05-03T10:52:45Z</time>
      </trkpt>
      <trkpt lat="48.75307" lon="2.13906">
        <ele>149.2</ele>
        <time>2022-05-03T10:52:52Z</time>
      </trkpt>
      <trkpt lat="48.7531" lon="2.1392">
        <ele>149.3</ele>
        <time>2022-05-03T10:52:57Z</time>
      </trkpt>
      <trkpt lat="48.75314" lon="2.1393">
        <ele>149.1</ele>
        <time>2022-05-03T10:53:02Z</time>
      </trkpt>
      <trkpt lat="48.75318" lon="2.13941">
        <ele>148.9</ele>
        <time>2022-05-03T10:53:07Z</time>
      </trkpt>
      <trkpt lat="48.75321" lon="2.13951">
        <ele>148.8</ele>
        <time>2022-05-03T10:53:13Z</time>
      </trkpt>
      <trkpt lat="48.75321" lon="2.13962">
        <ele>148.7</ele>
        <time>2022-05-03T10:53:20Z</time>
      </trkpt>
      <trkpt lat="48.75317" lon="2.13973">
        <ele>148.7</ele>
        <time>2022-05-03T10:53:25Z</time>
      </trkpt>
      <trkpt lat="48.75314" lon="2.13982">
        <ele>148.6</ele>
        <time>2022-05-03T10:53:30Z</time>
      </trkpt>
      <trkpt lat="48.75307" lon="2.13983">
        <ele>148.8</ele>
        <time>2022-05-03T10:53:44Z</time>
      </trkpt>
      <trkpt lat="48.7531" lon="2.13997">
        <ele>148.6</ele>
        <time>2022-05-03T10:54:08Z</time>
      </trkpt>
      <trkpt lat="48.75308" lon="2.13986">
        <ele>148.7</ele>
        <time>2022-05-03T10:59:24Z</time>
      </trkpt>
      <trkpt lat="48.7531" lon="2.13996">
        <ele>148.6</ele>
        <time>2022-05-03T10:59:58Z</time>
      </trkpt>
      <trkpt lat="48.75311" lon="2.13986">
        <ele>148.7</ele>
        <time>2022-05-03T11:00:37Z</time>
      </trkpt>
      <trkpt lat="48.75301" lon="2.13978">
        <ele>148.9</ele>
        <time>2022-05-03T11:03:18Z</time>
      </trkpt>
      <trkpt lat="48.75294" lon="2.13976">
        <ele>149.1</ele>
        <time>2022-05-03T11:03:26Z</time>
      </trkpt>
      <trkpt lat="48.75301" lon="2.13981">
        <ele>148.9</ele>
        <time>2022-05-03T11:03:32Z</time>
      </trkpt>
      <trkpt lat="48.75308" lon="2.13986">
        <ele>148.7</ele>
        <time>2022-05-03T11:04:37Z</time>
      </trkpt>
      <trkpt lat="48.75303" lon="2.13994">
        <ele>148.8</ele>
        <time>2022-05-03T11:05:43Z</time>
      </trkpt>
      <trkpt lat="48.75306" lon="2.14003">
        <ele>148.6</ele>
        <time>2022-05-03T11:05:50Z</time>
      </trkpt>
      <trkpt lat="48.75311" lon="2.14012">
        <ele>148.2</ele>
        <time>2022-05-03T11:05:56Z</time>
      </trkpt>
      <trkpt lat="48.75314" lon="2.14023">
        <ele>147.8</ele>
        <time>2022-05-03T11:06:02Z</time>
      </trkpt>
      <trkpt lat="48.75315" lon="2.14033">
        <ele>147.6</ele>
        <time>2022-05-03T11:06:08Z</time>
      </trkpt>
      <trkpt lat="48.75321" lon="2.14042">
        <ele>147.2</ele>
        <time>2022-05-03T11:06:14Z</time>
      </trkpt>
      <trkpt lat="48.75325" lon="2.14052">
        <ele>146.9</ele>
        <time>2022-05-03T11:06:19Z</time>
      </trkpt>
      <trkpt lat="48.75326" lon="2.14064">
        <ele>146.6</ele>
        <time>2022-05-03T11:06:24Z</time>
      </trkpt>
      <trkpt lat="48.75326" lon="2.14075">
        <ele>146.3</ele>
        <time>2022-05-03T11:06:29Z</time>
      </trkpt>
      <trkpt lat="48.75327" lon="2.14085">
        <ele>146.1</ele>
        <time>2022-05-03T11:06:35Z</time>
      </trkpt>
      <trkpt lat="48.75329" lon="2.14096">
        <ele>146.2</ele>
        <time>2022-05-03T11:06:40Z</time>
      </trkpt>
      <trkpt lat="48.7533" lon="2.14107">
        <ele>146.3</ele>
        <time>2022-05-03T11:06:45Z</time>
      </trkpt>
      <trkpt lat="48.75335" lon="2.14115">
        <ele>146.5</ele>
        <time>2022-05-03T11:06:50Z</time>
      </trkpt>
      <trkpt lat="48.75336" lon="2.14127">
        <ele>146.7</ele>
        <time>2022-05-03T11:06:56Z</time>
      </trkpt>
      <trkpt lat="48.75339" lon="2.14136">
        <ele>147</ele>
        <time>2022-05-03T11:07:01Z</time>
      </trkpt>
      <trkpt lat="48.75341" lon="2.14146">
        <ele>147.2</ele>
        <time>2022-05-03T11:07:06Z</time>
      </trkpt>
      <trkpt lat="48.75341" lon="2.14158">
        <ele>147.4</ele>
        <time>2022-05-03T11:07:11Z</time>
      </trkpt>
      <trkpt lat="48.75346" lon="2.14166">
        <ele>147.8</ele>
        <time>2022-05-03T11:07:16Z</time>
      </trkpt>
      <trkpt lat="48.75351" lon="2.14174">
        <ele>148.2</ele>
        <time>2022-05-03T11:07:22Z</time>
      </trkpt>
      <trkpt lat="48.75355" lon="2.14189">
        <ele>148.8</ele>
        <time>2022-05-03T11:07:27Z</time>
      </trkpt>
      <trkpt lat="48.75358" lon="2.142">
        <ele>149.2</ele>
        <time>2022-05-03T11:07:32Z</time>
      </trkpt>
      <trkpt lat="48.75355" lon="2.14211">
        <ele>149.2</ele>
        <time>2022-05-03T11:07:37Z</time>
      </trkpt>
      <trkpt lat="48.75351" lon="2.14221">
        <ele>149.2</ele>
        <time>2022-05-03T11:07:42Z</time>
      </trkpt>
      <trkpt lat="48.75346" lon="2.1423">
        <ele>149.2</ele>
        <time>2022-05-03T11:07:47Z</time>
      </trkpt>
      <trkpt lat="48.75343" lon="2.14239">
        <ele>149.2</ele>
        <time>2022-05-03T11:07:54Z</time>
      </trkpt>
      <trkpt lat="48.75341" lon="2.14251">
        <ele>149.4</ele>
        <time>2022-05-03T11:08:00Z</time>
      </trkpt>
      <trkpt lat="48.75342" lon="2.14264">
        <ele>149.6</ele>
        <time>2022-05-03T11:08:05Z</time>
      </trkpt>
      <trkpt lat="48.75343" lon="2.14279">
        <ele>149.9</ele>
        <time>2022-05-03T11:08:10Z</time>
      </trkpt>
      <trkpt lat="48.75343" lon="2.14291">
        <ele>150</ele>
        <time>2022-05-03T11:08:15Z</time>
      </trkpt>
      <trkpt lat="48.75342" lon="2.14303">
        <ele>150.1</ele>
        <time>2022-05-03T11:08:20Z</time>
      </trkpt>
      <trkpt lat="48.75344" lon="2.14314">
        <ele>150.4</ele>
        <time>2022-05-03T11:08:27Z</time>
      </trkpt>
      <trkpt lat="48.75345" lon="2.14325">
        <ele>150.6</ele>
        <time>2022-05-03T11:08:33Z</time>
      </trkpt>
      <trkpt lat="48.75343" lon="2.14337">
        <ele>150.6</ele>
        <time>2022-05-03T11:08:38Z</time>
      </trkpt>
      <trkpt lat="48.75339" lon="2.14347">
        <ele>150.3</ele>
        <time>2022-05-03T11:08:50Z</time>
      </trkpt>
      <trkpt lat="48.75337" lon="2.14358">
        <ele>150.2</ele>
        <time>2022-05-03T11:08:57Z</time>
      </trkpt>
      <trkpt lat="48.75329" lon="2.14367">
        <ele>149.8</ele>
        <time>2022-05-03T11:09:02Z</time>
      </trkpt>
      <trkpt lat="48.75323" lon="2.14374">
        <ele>149.6</ele>
        <time>2022-05-03T11:09:07Z</time>
      </trkpt>
      <trkpt lat="48.75318" lon="2.14384">
        <ele>149.5</ele>
        <time>2022-05-03T11:09:12Z</time>
      </trkpt>
      <trkpt lat="48.75315" lon="2.14392">
        <ele>149.4</ele>
        <time>2022-05-03T11:09:17Z</time>
      </trkpt>
      <trkpt lat="48.7531" lon="2.14399">
        <ele>149.3</ele>
        <time>2022-05-03T11:09:22Z</time>
      </trkpt>
      <trkpt lat="48.75305" lon="2.14405">
        <ele>149.2</ele>
        <time>2022-05-03T11:09:27Z</time>
      </trkpt>
      <trkpt lat="48.75299" lon="2.14412">
        <ele>149.1</ele>
        <time>2022-05-03T11:09:34Z</time>
      </trkpt>
      <trkpt lat="48.7529" lon="2.14416">
        <ele>149</ele>
        <time>2022-05-03T11:09:39Z</time>
      </trkpt>
      <trkpt lat="48.7528" lon="2.1442">
        <ele>148.8</ele>
        <time>2022-05-03T11:09:44Z</time>
      </trkpt>
      <trkpt lat="48.75272" lon="2.14426">
        <ele>148.8</ele>
        <time>2022-05-03T11:09:49Z</time>
      </trkpt>
      <trkpt lat="48.75265" lon="2.14428">
        <ele>148.7</ele>
        <time>2022-05-03T11:09:54Z</time>
      </trkpt>
      <trkpt lat="48.75258" lon="2.14427">
        <ele>148.5</ele>
        <time>2022-05-03T11:09:59Z</time>
      </trkpt>
      <trkpt lat="48.75252" lon="2.14431">
        <ele>148.4</ele>
        <time>2022-05-03T11:10:04Z</time>
      </trkpt>
      <trkpt lat="48.75245" lon="2.14431">
        <ele>148</ele>
        <time>2022-05-03T11:10:10Z</time>
      </trkpt>
      <trkpt lat="48.75237" lon="2.14434">
        <ele>147.5</ele>
        <time>2022-05-03T11:10:15Z</time>
      </trkpt>
      <trkpt lat="48.75228" lon="2.14434">
        <ele>146.9</ele>
        <time>2022-05-03T11:10:21Z</time>
      </trkpt>
      <trkpt lat="48.75219" lon="2.14431">
        <ele>146.3</ele>
        <time>2022-05-03T11:10:26Z</time>
      </trkpt>
      <trkpt lat="48.75213" lon="2.14426">
        <ele>145.9</ele>
        <time>2022-05-03T11:10:31Z</time>
      </trkpt>
      <trkpt lat="48.75207" lon="2.1443">
        <ele>145.5</ele>
        <time>2022-05-03T11:10:36Z</time>
      </trkpt>
      <trkpt lat="48.75198" lon="2.14432">
        <ele>144.9</ele>
        <time>2022-05-03T11:10:41Z</time>
      </trkpt>
      <trkpt lat="48.75192" lon="2.14432">
        <ele>144.5</ele>
        <time>2022-05-03T11:10:46Z</time>
      </trkpt>
      <trkpt lat="48.75184" lon="2.1443">
        <ele>144</ele>
        <time>2022-05-03T11:10:51Z</time>
      </trkpt>
      <trkpt lat="48.75177" lon="2.14426">
        <ele>143.5</ele>
        <time>2022-05-03T11:10:57Z</time>
      </trkpt>
      <trkpt lat="48.75168" lon="2.14424">
        <ele>143</ele>
        <time>2022-05-03T11:11:02Z</time>
      </trkpt>
      <trkpt lat="48.7516" lon="2.14421">
        <ele>142.6</ele>
        <time>2022-05-03T11:11:07Z</time>
      </trkpt>
      <trkpt lat="48.75152" lon="2.1442">
        <ele>142.1</ele>
        <time>2022-05-03T11:11:12Z</time>
      </trkpt>
      <trkpt lat="48.75146" lon="2.14416">
        <ele>141.8</ele>
        <time>2022-05-03T11:11:23Z</time>
      </trkpt>
      <trkpt lat="48.7514" lon="2.14412">
        <ele>141.4</ele>
        <time>2022-05-03T11:11:46Z</time>
      </trkpt>
      <trkpt lat="48.75134" lon="2.14404">
        <ele>141.1</ele>
        <time>2022-05-03T11:11:52Z</time>
      </trkpt>
      <trkpt lat="48.75128" lon="2.14398">
        <ele>140.8</ele>
        <time>2022-05-03T11:11:57Z</time>
      </trkpt>
      <trkpt lat="48.75123" lon="2.14391">
        <ele>140.6</ele>
        <time>2022-05-03T11:12:02Z</time>
      </trkpt>
      <trkpt lat="48.75117" lon="2.14384">
        <ele>140.3</ele>
        <time>2022-05-03T11:12:07Z</time>
      </trkpt>
      <trkpt lat="48.75112" lon="2.14376">
        <ele>140.2</ele>
        <time>2022-05-03T11:12:13Z</time>
      </trkpt>
      <trkpt lat="48.75104" lon="2.14368">
        <ele>140</ele>
        <time>2022-05-03T11:12:18Z</time>
      </trkpt>
      <trkpt lat="48.751" lon="2.14359">
        <ele>140</ele>
        <time>2022-05-03T11:12:23Z</time>
      </trkpt>
      <trkpt lat="48.75093" lon="2.14353">
        <ele>139.8</ele>
        <time>2022-05-03T11:12:28Z</time>
      </trkpt>
      <trkpt lat="48.75086" lon="2.14347">
        <ele>139.8</ele>
        <time>2022-05-03T11:12:33Z</time>
      </trkpt>
      <trkpt lat="48.75079" lon="2.1434">
        <ele>139.8</ele>
        <time>2022-05-03T11:12:39Z</time>
      </trkpt>
      <trkpt lat="48.75071" lon="2.14332">
        <ele>139.7</ele>
        <time>2022-05-03T11:12:44Z</time>
      </trkpt>
      <trkpt lat="48.75064" lon="2.14326">
        <ele>139.6</ele>
        <time>2022-05-03T11:12:49Z</time>
      </trkpt>
      <trkpt lat="48.75057" lon="2.14322">
        <ele>139.5</ele>
        <time>2022-05-03T11:12:54Z</time>
      </trkpt>
      <trkpt lat="48.75051" lon="2.14318">
        <ele>139.4</ele>
        <time>2022-05-03T11:12:59Z</time>
      </trkpt>
      <trkpt lat="48.75045" lon="2.14311">
        <ele>139.3</ele>
        <time>2022-05-03T11:13:04Z</time>
      </trkpt>
      <trkpt lat="48.75038" lon="2.14302">
        <ele>139.3</ele>
        <time>2022-05-03T11:13:09Z</time>
      </trkpt>
      <trkpt lat="48.75033" lon="2.14295">
        <ele>139.3</ele>
        <time>2022-05-03T11:13:14Z</time>
      </trkpt>
      <trkpt lat="48.75027" lon="2.14289">
        <ele>139.2</ele>
        <time>2022-05-03T11:13:19Z</time>
      </trkpt>
      <trkpt lat="48.7502" lon="2.14282">
        <ele>139.1</ele>
        <time>2022-05-03T11:13:24Z</time>
      </trkpt>
      <trkpt lat="48.75014" lon="2.14277">
        <ele>139</ele>
        <time>2022-05-03T11:13:29Z</time>
      </trkpt>
      <trkpt lat="48.75007" lon="2.14272">
        <ele>138.9</ele>
        <time>2022-05-03T11:13:35Z</time>
      </trkpt>
      <trkpt lat="48.75001" lon="2.14267">
        <ele>138.8</ele>
        <time>2022-05-03T11:13:40Z</time>
      </trkpt>
      <trkpt lat="48.74993" lon="2.14262">
        <ele>139.1</ele>
        <time>2022-05-03T11:13:45Z</time>
      </trkpt>
      <trkpt lat="48.74987" lon="2.14259">
        <ele>139.3</ele>
        <time>2022-05-03T11:13:50Z</time>
      </trkpt>
      <trkpt lat="48.74979" lon="2.14253">
        <ele>139.5</ele>
        <time>2022-05-03T11:13:55Z</time>
      </trkpt>
      <trkpt lat="48.7497" lon="2.14248">
        <ele>139.7</ele>
        <time>2022-05-03T11:14:00Z</time>
      </trkpt>
      <trkpt lat="48.74963" lon="2.14244">
        <ele>139.8</ele>
        <time>2022-05-03T11:14:05Z</time>
      </trkpt>
      <trkpt lat="48.74956" lon="2.14241">
        <ele>139.9</ele>
        <time>2022-05-03T11:14:10Z</time>
      </trkpt>
      <trkpt lat="48.74949" lon="2.14236">
        <ele>139.9</ele>
        <time>2022-05-03T11:14:15Z</time>
      </trkpt>
      <trkpt lat="48.74941" lon="2.14232">
        <ele>140</ele>
        <time>2022-05-03T11:14:20Z</time>
      </trkpt>
      <trkpt lat="48.74933" lon="2.1423">
        <ele>140</ele>
        <time>2022-05-03T11:14:25Z</time>
      </trkpt>
      <trkpt lat="48.74925" lon="2.14228">
        <ele>140.1</ele>
        <time>2022-05-03T11:14:30Z</time>
      </trkpt>
      <trkpt lat="48.74919" lon="2.14225">
        <ele>140.1</ele>
        <time>2022-05-03T11:14:35Z</time>
      </trkpt>
      <trkpt lat="48.74912" lon="2.14221">
        <ele>140.4</ele>
        <time>2022-05-03T11:14:40Z</time>
      </trkpt>
      <trkpt lat="48.74905" lon="2.14219">
        <ele>140.9</ele>
        <time>2022-05-03T11:14:45Z</time>
      </trkpt>
      <trkpt lat="48.74896" lon="2.14213">
        <ele>141.3</ele>
        <time>2022-05-03T11:14:50Z</time>
      </trkpt>
      <trkpt lat="48.74889" lon="2.14211">
        <ele>141.8</ele>
        <time>2022-05-03T11:14:55Z</time>
      </trkpt>
      <trkpt lat="48.74882" lon="2.14208">
        <ele>142.2</ele>
        <time>2022-05-03T11:15:01Z</time>
      </trkpt>
      <trkpt lat="48.74876" lon="2.14208">
        <ele>142.7</ele>
        <time>2022-05-03T11:15:06Z</time>
      </trkpt>
      <trkpt lat="48.74868" lon="2.14206">
        <ele>143.1</ele>
        <time>2022-05-03T11:15:12Z</time>
      </trkpt>
      <trkpt lat="48.74861" lon="2.14204">
        <ele>143.5</ele>
        <time>2022-05-03T11:15:17Z</time>
      </trkpt>
      <trkpt lat="48.74853" lon="2.14205">
        <ele>144.2</ele>
        <time>2022-05-03T11:15:22Z</time>
      </trkpt>
      <trkpt lat="48.74846" lon="2.142">
        <ele>144.3</ele>
        <time>2022-05-03T11:15:27Z</time>
      </trkpt>
      <trkpt lat="48.74838" lon="2.14199">
        <ele>144.8</ele>
        <time>2022-05-03T11:15:32Z</time>
      </trkpt>
      <trkpt lat="48.7483" lon="2.14202">
        <ele>145.3</ele>
        <time>2022-05-03T11:15:37Z</time>
      </trkpt>
      <trkpt lat="48.74823" lon="2.14206">
        <ele>145.5</ele>
        <time>2022-05-03T11:15:42Z</time>
      </trkpt>
      <trkpt lat="48.74819" lon="2.14215">
        <ele>146.2</ele>
        <time>2022-05-03T11:15:50Z</time>
      </trkpt>
      <trkpt lat="48.74813" lon="2.14221">
        <ele>146.6</ele>
        <time>2022-05-03T11:15:56Z</time>
      </trkpt>
      <trkpt lat="48.74807" lon="2.14228">
        <ele>147</ele>
        <time>2022-05-03T11:16:01Z</time>
      </trkpt>
      <trkpt lat="48.74804" lon="2.14237">
        <ele>147.6</ele>
        <time>2022-05-03T11:16:06Z</time>
      </trkpt>
      <trkpt lat="48.74801" lon="2.14247">
        <ele>148.2</ele>
        <time>2022-05-03T11:16:15Z</time>
      </trkpt>
      <trkpt lat="48.74794" lon="2.14246">
        <ele>147.8</ele>
        <time>2022-05-03T11:16:22Z</time>
      </trkpt>
      <trkpt lat="48.74792" lon="2.14256">
        <ele>148.3</ele>
        <time>2022-05-03T11:16:34Z</time>
      </trkpt>
      <trkpt lat="48.74788" lon="2.14264">
        <ele>148.4</ele>
        <time>2022-05-03T11:16:41Z</time>
      </trkpt>
      <trkpt lat="48.74784" lon="2.14273">
        <ele>148.6</ele>
        <time>2022-05-03T11:16:47Z</time>
      </trkpt>
      <trkpt lat="48.74781" lon="2.14283">
        <ele>148.9</ele>
        <time>2022-05-03T11:16:56Z</time>
      </trkpt>
      <trkpt lat="48.74776" lon="2.1429">
        <ele>149</ele>
        <time>2022-05-03T11:17:01Z</time>
      </trkpt>
      <trkpt lat="48.7477" lon="2.14301">
        <ele>149.3</ele>
        <time>2022-05-03T11:17:06Z</time>
      </trkpt>
      <trkpt lat="48.74766" lon="2.14313">
        <ele>149.6</ele>
        <time>2022-05-03T11:17:11Z</time>
      </trkpt>
      <trkpt lat="48.74762" lon="2.14322">
        <ele>149.9</ele>
        <time>2022-05-03T11:17:16Z</time>
      </trkpt>
      <trkpt lat="48.74758" lon="2.14331">
        <ele>150.2</ele>
        <time>2022-05-03T11:17:23Z</time>
      </trkpt>
      <trkpt lat="48.74751" lon="2.14339">
        <ele>150</ele>
        <time>2022-05-03T11:17:29Z</time>
      </trkpt>
      <trkpt lat="48.74746" lon="2.14348">
        <ele>149.9</ele>
        <time>2022-05-03T11:17:35Z</time>
      </trkpt>
      <trkpt lat="48.74744" lon="2.14357">
        <ele>149.8</ele>
        <time>2022-05-03T11:17:41Z</time>
      </trkpt>
      <trkpt lat="48.7474" lon="2.14366">
        <ele>149.7</ele>
        <time>2022-05-03T11:17:46Z</time>
      </trkpt>
      <trkpt lat="48.74735" lon="2.14376">
        <ele>149.6</ele>
        <time>2022-05-03T11:17:52Z</time>
      </trkpt>
      <trkpt lat="48.7473" lon="2.14382">
        <ele>149.6</ele>
        <time>2022-05-03T11:17:57Z</time>
      </trkpt>
      <trkpt lat="48.74724" lon="2.14389">
        <ele>149.5</ele>
        <time>2022-05-03T11:18:03Z</time>
      </trkpt>
      <trkpt lat="48.74721" lon="2.14398">
        <ele>149.5</ele>
        <time>2022-05-03T11:18:08Z</time>
      </trkpt>
      <trkpt lat="48.74717" lon="2.14406">
        <ele>149.5</ele>
        <time>2022-05-03T11:18:56Z</time>
      </trkpt>
      <trkpt lat="48.74711" lon="2.14414">
        <ele>149.5</ele>
        <time>2022-05-03T11:19:01Z</time>
      </trkpt>
      <trkpt lat="48.74708" lon="2.14422">
        <ele>149.5</ele>
        <time>2022-05-03T11:19:06Z</time>
      </trkpt>
      <trkpt lat="48.74704" lon="2.14431">
        <ele>149.4</ele>
        <time>2022-05-03T11:19:11Z</time>
      </trkpt>
      <trkpt lat="48.74699" lon="2.14441">
        <ele>149.4</ele>
        <time>2022-05-03T11:19:32Z</time>
      </trkpt>
      <trkpt lat="48.74695" lon="2.14451">
        <ele>149.3</ele>
        <time>2022-05-03T11:19:40Z</time>
      </trkpt>
      <trkpt lat="48.74689" lon="2.14459">
        <ele>149.3</ele>
        <time>2022-05-03T11:19:45Z</time>
      </trkpt>
      <trkpt lat="48.74686" lon="2.14469">
        <ele>149.2</ele>
        <time>2022-05-03T11:19:50Z</time>
      </trkpt>
      <trkpt lat="48.74684" lon="2.14479">
        <ele>149.2</ele>
        <time>2022-05-03T11:19:56Z</time>
      </trkpt>
      <trkpt lat="48.74681" lon="2.14489">
        <ele>149.2</ele>
        <time>2022-05-03T11:20:02Z</time>
      </trkpt>
      <trkpt lat="48.74677" lon="2.14499">
        <ele>149.1</ele>
        <time>2022-05-03T11:20:08Z</time>
      </trkpt>
      <trkpt lat="48.74673" lon="2.14509">
        <ele>149.1</ele>
        <time>2022-05-03T11:20:13Z</time>
      </trkpt>
      <trkpt lat="48.74669" lon="2.14518">
        <ele>149</ele>
        <time>2022-05-03T11:20:19Z</time>
      </trkpt>
      <trkpt lat="48.74664" lon="2.14528">
        <ele>149</ele>
        <time>2022-05-03T11:20:24Z</time>
      </trkpt>
      <trkpt lat="48.7466" lon="2.14539">
        <ele>149</ele>
        <time>2022-05-03T11:20:29Z</time>
      </trkpt>
      <trkpt lat="48.74656" lon="2.14551">
        <ele>149</ele>
        <time>2022-05-03T11:20:34Z</time>
      </trkpt>
      <trkpt lat="48.74653" lon="2.14562">
        <ele>149</ele>
        <time>2022-05-03T11:20:39Z</time>
      </trkpt>
      <trkpt lat="48.7465" lon="2.1457">
        <ele>149</ele>
        <time>2022-05-03T11:20:44Z</time>
      </trkpt>
      <trkpt lat="48.74646" lon="2.14581">
        <ele>149</ele>
        <time>2022-05-03T11:20:49Z</time>
      </trkpt>
      <trkpt lat="48.74641" lon="2.1459">
        <ele>149</ele>
        <time>2022-05-03T11:20:54Z</time>
      </trkpt>
      <trkpt lat="48.74638" lon="2.146">
        <ele>148.9</ele>
        <time>2022-05-03T11:20:59Z</time>
      </trkpt>
      <trkpt lat="48.74634" lon="2.14612">
        <ele>148.9</ele>
        <time>2022-05-03T11:21:04Z</time>
      </trkpt>
      <trkpt lat="48.74631" lon="2.14623">
        <ele>148.9</ele>
        <time>2022-05-03T11:21:09Z</time>
      </trkpt>
      <trkpt lat="48.74627" lon="2.14633">
        <ele>149</ele>
        <time>2022-05-03T11:21:14Z</time>
      </trkpt>
      <trkpt lat="48.74624" lon="2.14644">
        <ele>149</ele>
        <time>2022-05-03T11:21:19Z</time>
      </trkpt>
      <trkpt lat="48.74621" lon="2.14654">
        <ele>149.1</ele>
        <time>2022-05-03T11:21:24Z</time>
      </trkpt>
      <trkpt lat="48.74616" lon="2.14662">
        <ele>149.2</ele>
        <time>2022-05-03T11:21:29Z</time>
      </trkpt>
      <trkpt lat="48.74611" lon="2.14672">
        <ele>149.4</ele>
        <time>2022-05-03T11:21:34Z</time>
      </trkpt>
      <trkpt lat="48.74608" lon="2.14681">
        <ele>149.5</ele>
        <time>2022-05-03T11:21:39Z</time>
      </trkpt>
      <trkpt lat="48.74604" lon="2.1469">
        <ele>149.6</ele>
        <time>2022-05-03T11:21:44Z</time>
      </trkpt>
      <trkpt lat="48.74599" lon="2.14698">
        <ele>149.8</ele>
        <time>2022-05-03T11:21:49Z</time>
      </trkpt>
      <trkpt lat="48.74595" lon="2.14706">
        <ele>149.9</ele>
        <time>2022-05-03T11:21:54Z</time>
      </trkpt>
      <trkpt lat="48.74589" lon="2.14713">
        <ele>149.9</ele>
        <time>2022-05-03T11:21:59Z</time>
      </trkpt>
      <trkpt lat="48.74584" lon="2.14722">
        <ele>150</ele>
        <time>2022-05-03T11:22:04Z</time>
      </trkpt>
      <trkpt lat="48.74578" lon="2.1473">
        <ele>150</ele>
        <time>2022-05-03T11:22:09Z</time>
      </trkpt>
      <trkpt lat="48.74573" lon="2.14739">
        <ele>150.1</ele>
        <time>2022-05-03T11:22:14Z</time>
      </trkpt>
      <trkpt lat="48.74567" lon="2.14749">
        <ele>150.2</ele>
        <time>2022-05-03T11:22:19Z</time>
      </trkpt>
      <trkpt lat="48.74561" lon="2.14756">
        <ele>150.3</ele>
        <time>2022-05-03T11:22:24Z</time>
      </trkpt>
      <trkpt lat="48.74554" lon="2.14763">
        <ele>150.4</ele>
        <time>2022-05-03T11:22:29Z</time>
      </trkpt>
      <trkpt lat="48.74546" lon="2.14776">
        <ele>150.4</ele>
        <time>2022-05-03T11:22:34Z</time>
      </trkpt>
      <trkpt lat="48.74539" lon="2.1478">
        <ele>150.5</ele>
        <time>2022-05-03T11:22:40Z</time>
      </trkpt>
      <trkpt lat="48.74533" lon="2.14787">
        <ele>150.6</ele>
        <time>2022-05-03T11:22:46Z</time>
      </trkpt>
      <trkpt lat="48.74527" lon="2.14795">
        <ele>150.7</ele>
        <time>2022-05-03T11:22:53Z</time>
      </trkpt>
      <trkpt lat="48.74522" lon="2.14804">
        <ele>150.7</ele>
        <time>2022-05-03T11:22:59Z</time>
      </trkpt>
      <trkpt lat="48.74518" lon="2.14815">
        <ele>150.8</ele>
        <time>2022-05-03T11:23:04Z</time>
      </trkpt>
      <trkpt lat="48.74512" lon="2.14823">
        <ele>150.9</ele>
        <time>2022-05-03T11:23:09Z</time>
      </trkpt>
      <trkpt lat="48.74508" lon="2.14831">
        <ele>150.9</ele>
        <time>2022-05-03T11:23:14Z</time>
      </trkpt>
      <trkpt lat="48.74503" lon="2.1484">
        <ele>151</ele>
        <time>2022-05-03T11:23:19Z</time>
      </trkpt>
      <trkpt lat="48.74498" lon="2.14849">
        <ele>151.2</ele>
        <time>2022-05-03T11:23:24Z</time>
      </trkpt>
      <trkpt lat="48.74492" lon="2.14856">
        <ele>151.3</ele>
        <time>2022-05-03T11:23:29Z</time>
      </trkpt>
      <trkpt lat="48.74484" lon="2.14861">
        <ele>151.4</ele>
        <time>2022-05-03T11:23:34Z</time>
      </trkpt>
      <trkpt lat="48.74477" lon="2.14864">
        <ele>151.5</ele>
        <time>2022-05-03T11:23:39Z</time>
      </trkpt>
      <trkpt lat="48.74468" lon="2.14866">
        <ele>151.5</ele>
        <time>2022-05-03T11:23:44Z</time>
      </trkpt>
      <trkpt lat="48.74461" lon="2.14865">
        <ele>151.6</ele>
        <time>2022-05-03T11:23:49Z</time>
      </trkpt>
      <trkpt lat="48.74453" lon="2.14868">
        <ele>151.7</ele>
        <time>2022-05-03T11:23:54Z</time>
      </trkpt>
      <trkpt lat="48.74447" lon="2.14872">
        <ele>151.8</ele>
        <time>2022-05-03T11:24:00Z</time>
      </trkpt>
      <trkpt lat="48.7444" lon="2.1488">
        <ele>152</ele>
        <time>2022-05-03T11:24:06Z</time>
      </trkpt>
      <trkpt lat="48.74432" lon="2.14887">
        <ele>152.2</ele>
        <time>2022-05-03T11:24:11Z</time>
      </trkpt>
      <trkpt lat="48.74427" lon="2.14894">
        <ele>152.4</ele>
        <time>2022-05-03T11:24:16Z</time>
      </trkpt>
      <trkpt lat="48.74422" lon="2.14902">
        <ele>152.6</ele>
        <time>2022-05-03T11:24:21Z</time>
      </trkpt>
      <trkpt lat="48.74419" lon="2.14912">
        <ele>152.9</ele>
        <time>2022-05-03T11:24:26Z</time>
      </trkpt>
      <trkpt lat="48.74417" lon="2.14921">
        <ele>153.1</ele>
        <time>2022-05-03T11:24:31Z</time>
      </trkpt>
      <trkpt lat="48.74414" lon="2.14931">
        <ele>153.3</ele>
        <time>2022-05-03T11:24:37Z</time>
      </trkpt>
      <trkpt lat="48.74409" lon="2.14937">
        <ele>153.2</ele>
        <time>2022-05-03T11:24:42Z</time>
      </trkpt>
      <trkpt lat="48.74404" lon="2.14945">
        <ele>153.2</ele>
        <time>2022-05-03T11:24:47Z</time>
      </trkpt>
      <trkpt lat="48.74398" lon="2.1495">
        <ele>153</ele>
        <time>2022-05-03T11:24:53Z</time>
      </trkpt>
      <trkpt lat="48.74393" lon="2.14963">
        <ele>152.9</ele>
        <time>2022-05-03T11:24:58Z</time>
      </trkpt>
      <trkpt lat="48.74389" lon="2.14976">
        <ele>152.8</ele>
        <time>2022-05-03T11:25:03Z</time>
      </trkpt>
      <trkpt lat="48.74386" lon="2.14988">
        <ele>152.7</ele>
        <time>2022-05-03T11:25:08Z</time>
      </trkpt>
      <trkpt lat="48.74382" lon="2.15001">
        <ele>152.5</ele>
        <time>2022-05-03T11:25:13Z</time>
      </trkpt>
      <trkpt lat="48.74381" lon="2.15012">
        <ele>152.2</ele>
        <time>2022-05-03T11:25:18Z</time>
      </trkpt>
      <trkpt lat="48.74375" lon="2.15022">
        <ele>151.6</ele>
        <time>2022-05-03T11:25:23Z</time>
      </trkpt>
      <trkpt lat="48.74372" lon="2.15034">
        <ele>151.2</ele>
        <time>2022-05-03T11:25:29Z</time>
      </trkpt>
      <trkpt lat="48.74367" lon="2.15044">
        <ele>150.7</ele>
        <time>2022-05-03T11:25:34Z</time>
      </trkpt>
      <trkpt lat="48.7437" lon="2.15055">
        <ele>150.7</ele>
        <time>2022-05-03T11:25:40Z</time>
      </trkpt>
      <trkpt lat="48.74371" lon="2.15065">
        <ele>150.6</ele>
        <time>2022-05-03T11:25:47Z</time>
      </trkpt>
      <trkpt lat="48.74374" lon="2.15075">
        <ele>150.6</ele>
        <time>2022-05-03T11:25:53Z</time>
      </trkpt>
      <trkpt lat="48.74372" lon="2.15085">
        <ele>150.3</ele>
        <time>2022-05-03T11:25:58Z</time>
      </trkpt>
      <trkpt lat="48.74366" lon="2.1509">
        <ele>149.8</ele>
        <time>2022-05-03T11:26:03Z</time>
      </trkpt>
      <trkpt lat="48.74359" lon="2.15101">
        <ele>149.3</ele>
        <time>2022-05-03T11:26:08Z</time>
      </trkpt>
      <trkpt lat="48.74362" lon="2.1511">
        <ele>149.3</ele>
        <time>2022-05-03T11:26:17Z</time>
      </trkpt>
      <trkpt lat="48.74367" lon="2.1512">
        <ele>149.4</ele>
        <time>2022-05-03T11:26:22Z</time>
      </trkpt>
      <trkpt lat="48.74365" lon="2.1513">
        <ele>149.1</ele>
        <time>2022-05-03T11:26:30Z</time>
      </trkpt>
      <trkpt lat="48.74363" lon="2.1514">
        <ele>148.9</ele>
        <time>2022-05-03T11:26:36Z</time>
      </trkpt>
      <trkpt lat="48.74365" lon="2.15151">
        <ele>148.8</ele>
        <time>2022-05-03T11:26:41Z</time>
      </trkpt>
      <trkpt lat="48.74363" lon="2.15162">
        <ele>148.5</ele>
        <time>2022-05-03T11:26:47Z</time>
      </trkpt>
      <trkpt lat="48.74361" lon="2.15174">
        <ele>148.4</ele>
        <time>2022-05-03T11:26:52Z</time>
      </trkpt>
      <trkpt lat="48.74357" lon="2.15185">
        <ele>148.3</ele>
        <time>2022-05-03T11:26:57Z</time>
      </trkpt>
      <trkpt lat="48.74354" lon="2.15196">
        <ele>148.3</ele>
        <time>2022-05-03T11:27:02Z</time>
      </trkpt>
      <trkpt lat="48.74351" lon="2.15206">
        <ele>148.2</ele>
        <time>2022-05-03T11:27:07Z</time>
      </trkpt>
      <trkpt lat="48.74348" lon="2.15217">
        <ele>148.2</ele>
        <time>2022-05-03T11:27:12Z</time>
      </trkpt>
      <trkpt lat="48.74344" lon="2.15227">
        <ele>148.1</ele>
        <time>2022-05-03T11:27:17Z</time>
      </trkpt>
      <trkpt lat="48.74342" lon="2.15237">
        <ele>148.2</ele>
        <time>2022-05-03T11:27:22Z</time>
      </trkpt>
      <trkpt lat="48.7434" lon="2.15248">
        <ele>148.2</ele>
        <time>2022-05-03T11:27:28Z</time>
      </trkpt>
      <trkpt lat="48.74338" lon="2.15259">
        <ele>148.1</ele>
        <time>2022-05-03T11:27:33Z</time>
      </trkpt>
      <trkpt lat="48.74334" lon="2.1527">
        <ele>148</ele>
        <time>2022-05-03T11:27:38Z</time>
      </trkpt>
      <trkpt lat="48.74333" lon="2.1528">
        <ele>148</ele>
        <time>2022-05-03T11:27:44Z</time>
      </trkpt>
      <trkpt lat="48.74331" lon="2.1529">
        <ele>148</ele>
        <time>2022-05-03T11:27:50Z</time>
      </trkpt>
      <trkpt lat="48.74329" lon="2.15303">
        <ele>148.1</ele>
        <time>2022-05-03T11:27:55Z</time>
      </trkpt>
      <trkpt lat="48.74328" lon="2.15313">
        <ele>148.1</ele>
        <time>2022-05-03T11:28:01Z</time>
      </trkpt>
      <trkpt lat="48.74325" lon="2.15323">
        <ele>148.2</ele>
        <time>2022-05-03T11:28:09Z</time>
      </trkpt>
      <trkpt lat="48.7432" lon="2.15336">
        <ele>148.3</ele>
        <time>2022-05-03T11:28:22Z</time>
      </trkpt>
      <trkpt lat="48.7432" lon="2.15347">
        <ele>148.1</ele>
        <time>2022-05-03T11:28:32Z</time>
      </trkpt>
      <trkpt lat="48.74321" lon="2.15357">
        <ele>148</ele>
        <time>2022-05-03T11:29:08Z</time>
      </trkpt>
      <trkpt lat="48.74322" lon="2.15369">
        <ele>147.9</ele>
        <time>2022-05-03T11:29:15Z</time>
      </trkpt>
      <trkpt lat="48.7432" lon="2.15379">
        <ele>147.7</ele>
        <time>2022-05-03T11:29:21Z</time>
      </trkpt>
      <trkpt lat="48.74317" lon="2.15389">
        <ele>147.5</ele>
        <time>2022-05-03T11:29:27Z</time>
      </trkpt>
      <trkpt lat="48.74315" lon="2.154">
        <ele>147.2</ele>
        <time>2022-05-03T11:29:33Z</time>
      </trkpt>
      <trkpt lat="48.74315" lon="2.1541">
        <ele>147</ele>
        <time>2022-05-03T11:29:38Z</time>
      </trkpt>
      <trkpt lat="48.74314" lon="2.15421">
        <ele>146.8</ele>
        <time>2022-05-03T11:29:44Z</time>
      </trkpt>
      <trkpt lat="48.74315" lon="2.15432">
        <ele>146.6</ele>
        <time>2022-05-03T11:29:51Z</time>
      </trkpt>
      <trkpt lat="48.74318" lon="2.15441">
        <ele>146.6</ele>
        <time>2022-05-03T11:29:56Z</time>
      </trkpt>
      <trkpt lat="48.74323" lon="2.15449">
        <ele>146.7</ele>
        <time>2022-05-03T11:30:01Z</time>
      </trkpt>
      <trkpt lat="48.74325" lon="2.15459">
        <ele>146.6</ele>
        <time>2022-05-03T11:30:08Z</time>
      </trkpt>
      <trkpt lat="48.7433" lon="2.15467">
        <ele>146.6</ele>
        <time>2022-05-03T11:30:14Z</time>
      </trkpt>
      <trkpt lat="48.74334" lon="2.15476">
        <ele>146.6</ele>
        <time>2022-05-03T11:30:20Z</time>
      </trkpt>
      <trkpt lat="48.74338" lon="2.15483">
        <ele>146.4</ele>
        <time>2022-05-03T11:30:29Z</time>
      </trkpt>
      <trkpt lat="48.74344" lon="2.15489">
        <ele>146.3</ele>
        <time>2022-05-03T11:30:34Z</time>
      </trkpt>
      <trkpt lat="48.7435" lon="2.15493">
        <ele>146.3</ele>
        <time>2022-05-03T11:30:46Z</time>
      </trkpt>
      <trkpt lat="48.74357" lon="2.15502">
        <ele>146.2</ele>
        <time>2022-05-03T11:30:51Z</time>
      </trkpt>
      <trkpt lat="48.74363" lon="2.15509">
        <ele>146.2</ele>
        <time>2022-05-03T11:30:57Z</time>
      </trkpt>
      <trkpt lat="48.74367" lon="2.1552">
        <ele>146.2</ele>
        <time>2022-05-03T11:31:02Z</time>
      </trkpt>
      <trkpt lat="48.74371" lon="2.15527">
        <ele>146.2</ele>
        <time>2022-05-03T11:31:07Z</time>
      </trkpt>
      <trkpt lat="48.74376" lon="2.15537">
        <ele>146.3</ele>
        <time>2022-05-03T11:31:13Z</time>
      </trkpt>
      <trkpt lat="48.74382" lon="2.15546">
        <ele>146.5</ele>
        <time>2022-05-03T11:31:19Z</time>
      </trkpt>
      <trkpt lat="48.74388" lon="2.15553">
        <ele>146.8</ele>
        <time>2022-05-03T11:31:24Z</time>
      </trkpt>
      <trkpt lat="48.74393" lon="2.15562">
        <ele>147.1</ele>
        <time>2022-05-03T11:31:29Z</time>
      </trkpt>
      <trkpt lat="48.74398" lon="2.1557">
        <ele>147.5</ele>
        <time>2022-05-03T11:31:34Z</time>
      </trkpt>
      <trkpt lat="48.74403" lon="2.1558">
        <ele>148</ele>
        <time>2022-05-03T11:31:39Z</time>
      </trkpt>
      <trkpt lat="48.74407" lon="2.15589">
        <ele>148.3</ele>
        <time>2022-05-03T11:31:44Z</time>
      </trkpt>
      <trkpt lat="48.74412" lon="2.15597">
        <ele>148.7</ele>
        <time>2022-05-03T11:31:50Z</time>
      </trkpt>
      <trkpt lat="48.74416" lon="2.15606">
        <ele>149</ele>
        <time>2022-05-03T11:31:56Z</time>
      </trkpt>
      <trkpt lat="48.74422" lon="2.15615">
        <ele>148.9</ele>
        <time>2022-05-03T11:32:02Z</time>
      </trkpt>
      <trkpt lat="48.74427" lon="2.15622">
        <ele>148.9</ele>
        <time>2022-05-03T11:32:07Z</time>
      </trkpt>
      <trkpt lat="48.74431" lon="2.15631">
        <ele>148.8</ele>
        <time>2022-05-03T11:32:13Z</time>
      </trkpt>
      <trkpt lat="48.74435" lon="2.1564">
        <ele>148.8</ele>
        <time>2022-05-03T11:32:18Z</time>
      </trkpt>
      <trkpt lat="48.74439" lon="2.1565">
        <ele>148.7</ele>
        <time>2022-05-03T11:32:25Z</time>
      </trkpt>
      <trkpt lat="48.74442" lon="2.15658">
        <ele>148.7</ele>
        <time>2022-05-03T11:32:30Z</time>
      </trkpt>
      <trkpt lat="48.74446" lon="2.15668">
        <ele>148.6</ele>
        <time>2022-05-03T11:32:36Z</time>
      </trkpt>
      <trkpt lat="48.7445" lon="2.15676">
        <ele>148.2</ele>
        <time>2022-05-03T11:32:41Z</time>
      </trkpt>
      <trkpt lat="48.74455" lon="2.15683">
        <ele>148</ele>
        <time>2022-05-03T11:32:46Z</time>
      </trkpt>
      <trkpt lat="48.74461" lon="2.15693">
        <ele>147.7</ele>
        <time>2022-05-03T11:32:51Z</time>
      </trkpt>
      <trkpt lat="48.74465" lon="2.15701">
        <ele>147.6</ele>
        <time>2022-05-03T11:32:57Z</time>
      </trkpt>
      <trkpt lat="48.74471" lon="2.15708">
        <ele>147.6</ele>
        <time>2022-05-03T11:33:02Z</time>
      </trkpt>
      <trkpt lat="48.74477" lon="2.15715">
        <ele>147.7</ele>
        <time>2022-05-03T11:33:07Z</time>
      </trkpt>
      <trkpt lat="48.7448" lon="2.15725">
        <ele>147.8</ele>
        <time>2022-05-03T11:33:12Z</time>
      </trkpt>
      <trkpt lat="48.74486" lon="2.15734">
        <ele>148</ele>
        <time>2022-05-03T11:33:17Z</time>
      </trkpt>
      <trkpt lat="48.74491" lon="2.15742">
        <ele>148.3</ele>
        <time>2022-05-03T11:33:22Z</time>
      </trkpt>
      <trkpt lat="48.74494" lon="2.15752">
        <ele>148.6</ele>
        <time>2022-05-03T11:33:28Z</time>
      </trkpt>
      <trkpt lat="48.74498" lon="2.15762">
        <ele>148.9</ele>
        <time>2022-05-03T11:33:33Z</time>
      </trkpt>
      <trkpt lat="48.74503" lon="2.15769">
        <ele>148.9</ele>
        <time>2022-05-03T11:33:38Z</time>
      </trkpt>
      <trkpt lat="48.74506" lon="2.15778">
        <ele>148.9</ele>
        <time>2022-05-03T11:33:43Z</time>
      </trkpt>
      <trkpt lat="48.74511" lon="2.15785">
        <ele>148.8</ele>
        <time>2022-05-03T11:33:49Z</time>
      </trkpt>
      <trkpt lat="48.74515" lon="2.15795">
        <ele>148.7</ele>
        <time>2022-05-03T11:33:54Z</time>
      </trkpt>
      <trkpt lat="48.74519" lon="2.15803">
        <ele>148.7</ele>
        <time>2022-05-03T11:33:59Z</time>
      </trkpt>
      <trkpt lat="48.74525" lon="2.15809">
        <ele>148.6</ele>
        <time>2022-05-03T11:34:04Z</time>
      </trkpt>
      <trkpt lat="48.7453" lon="2.15816">
        <ele>148.6</ele>
        <time>2022-05-03T11:34:09Z</time>
      </trkpt>
      <trkpt lat="48.74535" lon="2.15826">
        <ele>148.5</ele>
        <time>2022-05-03T11:34:14Z</time>
      </trkpt>
      <trkpt lat="48.7454" lon="2.15834">
        <ele>148.5</ele>
        <time>2022-05-03T11:34:19Z</time>
      </trkpt>
      <trkpt lat="48.74545" lon="2.15842">
        <ele>148.2</ele>
        <time>2022-05-03T11:34:24Z</time>
      </trkpt>
      <trkpt lat="48.7455" lon="2.1585">
        <ele>148</ele>
        <time>2022-05-03T11:34:29Z</time>
      </trkpt>
      <trkpt lat="48.74555" lon="2.15857">
        <ele>147.9</ele>
        <time>2022-05-03T11:34:34Z</time>
      </trkpt>
      <trkpt lat="48.74559" lon="2.15866">
        <ele>147.9</ele>
        <time>2022-05-03T11:34:39Z</time>
      </trkpt>
      <trkpt lat="48.74565" lon="2.15874">
        <ele>148</ele>
        <time>2022-05-03T11:34:44Z</time>
      </trkpt>
      <trkpt lat="48.74569" lon="2.15882">
        <ele>148.1</ele>
        <time>2022-05-03T11:34:49Z</time>
      </trkpt>
      <trkpt lat="48.74572" lon="2.15891">
        <ele>148.2</ele>
        <time>2022-05-03T11:34:55Z</time>
      </trkpt>
      <trkpt lat="48.74578" lon="2.15898">
        <ele>148.5</ele>
        <time>2022-05-03T11:35:00Z</time>
      </trkpt>
      <trkpt lat="48.7458" lon="2.15908">
        <ele>148.7</ele>
        <time>2022-05-03T11:35:06Z</time>
      </trkpt>
      <trkpt lat="48.74587" lon="2.15913">
        <ele>148.9</ele>
        <time>2022-05-03T11:35:11Z</time>
      </trkpt>
      <trkpt lat="48.7459" lon="2.15922">
        <ele>148.9</ele>
        <time>2022-05-03T11:35:19Z</time>
      </trkpt>
      <trkpt lat="48.74591" lon="2.15932">
        <ele>148.9</ele>
        <time>2022-05-03T11:35:38Z</time>
      </trkpt>
      <trkpt lat="48.74588" lon="2.15942">
        <ele>148.9</ele>
        <time>2022-05-03T11:35:44Z</time>
      </trkpt>
      <trkpt lat="48.74586" lon="2.15951">
        <ele>149</ele>
        <time>2022-05-03T11:35:49Z</time>
      </trkpt>
      <trkpt lat="48.74584" lon="2.15961">
        <ele>149</ele>
        <time>2022-05-03T11:35:54Z</time>
      </trkpt>
      <trkpt lat="48.74583" lon="2.15972">
        <ele>149</ele>
        <time>2022-05-03T11:35:59Z</time>
      </trkpt>
      <trkpt lat="48.74581" lon="2.15983">
        <ele>148.8</ele>
        <time>2022-05-03T11:36:05Z</time>
      </trkpt>
      <trkpt lat="48.74579" lon="2.15992">
        <ele>148.7</ele>
        <time>2022-05-03T11:36:11Z</time>
      </trkpt>
      <trkpt lat="48.74576" lon="2.16004">
        <ele>148.4</ele>
        <time>2022-05-03T11:36:17Z</time>
      </trkpt>
      <trkpt lat="48.74574" lon="2.16013">
        <ele>148.2</ele>
        <time>2022-05-03T11:36:23Z</time>
      </trkpt>
      <trkpt lat="48.74571" lon="2.16022">
        <ele>147.9</ele>
        <time>2022-05-03T11:36:29Z</time>
      </trkpt>
      <trkpt lat="48.74569" lon="2.16034">
        <ele>147.6</ele>
        <time>2022-05-03T11:36:36Z</time>
      </trkpt>
      <trkpt lat="48.74568" lon="2.16043">
        <ele>147.5</ele>
        <time>2022-05-03T11:36:42Z</time>
      </trkpt>
      <trkpt lat="48.74568" lon="2.16054">
        <ele>147.4</ele>
        <time>2022-05-03T11:36:47Z</time>
      </trkpt>
      <trkpt lat="48.74563" lon="2.16064">
        <ele>147</ele>
        <time>2022-05-03T11:36:52Z</time>
      </trkpt>
      <trkpt lat="48.74561" lon="2.16074">
        <ele>146.7</ele>
        <time>2022-05-03T11:36:58Z</time>
      </trkpt>
      <trkpt lat="48.74558" lon="2.16085">
        <ele>146.5</ele>
        <time>2022-05-03T11:37:05Z</time>
      </trkpt>
      <trkpt lat="48.74556" lon="2.16095">
        <ele>146.3</ele>
        <time>2022-05-03T11:37:11Z</time>
      </trkpt>
      <trkpt lat="48.74555" lon="2.16105">
        <ele>146.1</ele>
        <time>2022-05-03T11:37:17Z</time>
      </trkpt>
      <trkpt lat="48.74551" lon="2.16113">
        <ele>145.8</ele>
        <time>2022-05-03T11:37:24Z</time>
      </trkpt>
      <trkpt lat="48.74548" lon="2.16123">
        <ele>145.6</ele>
        <time>2022-05-03T11:37:29Z</time>
      </trkpt>
      <trkpt lat="48.74545" lon="2.16134">
        <ele>145.4</ele>
        <time>2022-05-03T11:37:35Z</time>
      </trkpt>
      <trkpt lat="48.74542" lon="2.16142">
        <ele>145.2</ele>
        <time>2022-05-03T11:37:44Z</time>
      </trkpt>
      <trkpt lat="48.74538" lon="2.16151">
        <ele>144.9</ele>
        <time>2022-05-03T11:37:52Z</time>
      </trkpt>
      <trkpt lat="48.74534" lon="2.16159">
        <ele>144.7</ele>
        <time>2022-05-03T11:38:01Z</time>
      </trkpt>
      <trkpt lat="48.74529" lon="2.16168">
        <ele>144.4</ele>
        <time>2022-05-03T11:38:06Z</time>
      </trkpt>
      <trkpt lat="48.74527" lon="2.16179">
        <ele>144.3</ele>
        <time>2022-05-03T11:38:11Z</time>
      </trkpt>
      <trkpt lat="48.74523" lon="2.16187">
        <ele>144.1</ele>
        <time>2022-05-03T11:38:16Z</time>
      </trkpt>
      <trkpt lat="48.7452" lon="2.16196">
        <ele>144</ele>
        <time>2022-05-03T11:38:23Z</time>
      </trkpt>
      <trkpt lat="48.74515" lon="2.16205">
        <ele>143.7</ele>
        <time>2022-05-03T11:38:29Z</time>
      </trkpt>
      <trkpt lat="48.74511" lon="2.16214">
        <ele>143.5</ele>
        <time>2022-05-03T11:38:34Z</time>
      </trkpt>
      <trkpt lat="48.74507" lon="2.16226">
        <ele>143.3</ele>
        <time>2022-05-03T11:38:39Z</time>
      </trkpt>
      <trkpt lat="48.74503" lon="2.16233">
        <ele>143.1</ele>
        <time>2022-05-03T11:38:45Z</time>
      </trkpt>
      <trkpt lat="48.74499" lon="2.16244">
        <ele>143</ele>
        <time>2022-05-03T11:38:50Z</time>
      </trkpt>
      <trkpt lat="48.74496" lon="2.16254">
        <ele>143.2</ele>
        <time>2022-05-03T11:38:56Z</time>
      </trkpt>
      <trkpt lat="48.74493" lon="2.16263">
        <ele>143.7</ele>
        <time>2022-05-03T11:39:01Z</time>
      </trkpt>
      <trkpt lat="48.74492" lon="2.16272">
        <ele>144.2</ele>
        <time>2022-05-03T11:39:06Z</time>
      </trkpt>
      <trkpt lat="48.7449" lon="2.16283">
        <ele>144.7</ele>
        <time>2022-05-03T11:39:12Z</time>
      </trkpt>
      <trkpt lat="48.7449" lon="2.16295">
        <ele>145.4</ele>
        <time>2022-05-03T11:39:17Z</time>
      </trkpt>
      <trkpt lat="48.7449" lon="2.16306">
        <ele>146</ele>
        <time>2022-05-03T11:39:22Z</time>
      </trkpt>
      <trkpt lat="48.74491" lon="2.16316">
        <ele>146.5</ele>
        <time>2022-05-03T11:39:28Z</time>
      </trkpt>
      <trkpt lat="48.74491" lon="2.16326">
        <ele>147.1</ele>
        <time>2022-05-03T11:39:34Z</time>
      </trkpt>
      <trkpt lat="48.7449" lon="2.16338">
        <ele>147.4</ele>
        <time>2022-05-03T11:39:40Z</time>
      </trkpt>
      <trkpt lat="48.74491" lon="2.1635">
        <ele>147.3</ele>
        <time>2022-05-03T11:39:46Z</time>
      </trkpt>
      <trkpt lat="48.74492" lon="2.16361">
        <ele>147.2</ele>
        <time>2022-05-03T11:39:53Z</time>
      </trkpt>
      <trkpt lat="48.74493" lon="2.16372">
        <ele>147.2</ele>
        <time>2022-05-03T11:39:58Z</time>
      </trkpt>
      <trkpt lat="48.74493" lon="2.16382">
        <ele>147</ele>
        <time>2022-05-03T11:40:03Z</time>
      </trkpt>
      <trkpt lat="48.74493" lon="2.16394">
        <ele>146.9</ele>
        <time>2022-05-03T11:40:09Z</time>
      </trkpt>
      <trkpt lat="48.74494" lon="2.16405">
        <ele>146.8</ele>
        <time>2022-05-03T11:40:17Z</time>
      </trkpt>
      <trkpt lat="48.74496" lon="2.16415">
        <ele>146.8</ele>
        <time>2022-05-03T11:40:22Z</time>
      </trkpt>
      <trkpt lat="48.74496" lon="2.16426">
        <ele>146.9</ele>
        <time>2022-05-03T11:40:30Z</time>
      </trkpt>
      <trkpt lat="48.74496" lon="2.16437">
        <ele>147</ele>
        <time>2022-05-03T11:40:37Z</time>
      </trkpt>
      <trkpt lat="48.74494" lon="2.16448">
        <ele>147.1</ele>
        <time>2022-05-03T11:40:44Z</time>
      </trkpt>
      <trkpt lat="48.74495" lon="2.16458">
        <ele>147.2</ele>
        <time>2022-05-03T11:40:52Z</time>
      </trkpt>
      <trkpt lat="48.74498" lon="2.16468">
        <ele>147.5</ele>
        <time>2022-05-03T11:40:58Z</time>
      </trkpt>
      <trkpt lat="48.74501" lon="2.16476">
        <ele>147.7</ele>
        <time>2022-05-03T11:41:05Z</time>
      </trkpt>
      <trkpt lat="48.74503" lon="2.16487">
        <ele>147.9</ele>
        <time>2022-05-03T11:41:13Z</time>
      </trkpt>
      <trkpt lat="48.74496" lon="2.16492">
        <ele>147.7</ele>
        <time>2022-05-03T11:41:21Z</time>
      </trkpt>
      <trkpt lat="48.7449" lon="2.16498">
        <ele>147.4</ele>
        <time>2022-05-03T11:41:27Z</time>
      </trkpt>
      <trkpt lat="48.74483" lon="2.16497">
        <ele>147</ele>
        <time>2022-05-03T11:41:41Z</time>
      </trkpt>
      <trkpt lat="48.74476" lon="2.16496">
        <ele>146.5</ele>
        <time>2022-05-03T11:41:46Z</time>
      </trkpt>
      <trkpt lat="48.74469" lon="2.16495">
        <ele>146.1</ele>
        <time>2022-05-03T11:41:53Z</time>
      </trkpt>
      <trkpt lat="48.74461" lon="2.16493">
        <ele>145.6</ele>
        <time>2022-05-03T11:41:59Z</time>
      </trkpt>
      <trkpt lat="48.74454" lon="2.16498">
        <ele>145.2</ele>
        <time>2022-05-03T11:42:04Z</time>
      </trkpt>
      <trkpt lat="48.74448" lon="2.16494">
        <ele>144.9</ele>
        <time>2022-05-03T11:42:09Z</time>
      </trkpt>
      <trkpt lat="48.7444" lon="2.16494">
        <ele>144.4</ele>
        <time>2022-05-03T11:42:14Z</time>
      </trkpt>
      <trkpt lat="48.74432" lon="2.16494">
        <ele>143.9</ele>
        <time>2022-05-03T11:42:19Z</time>
      </trkpt>
      <trkpt lat="48.74426" lon="2.16494">
        <ele>143.6</ele>
        <time>2022-05-03T11:42:24Z</time>
      </trkpt>
      <trkpt lat="48.7442" lon="2.16489">
        <ele>143.2</ele>
        <time>2022-05-03T11:42:30Z</time>
      </trkpt>
      <trkpt lat="48.74413" lon="2.16486">
        <ele>143</ele>
        <time>2022-05-03T11:42:35Z</time>
      </trkpt>
      <trkpt lat="48.74406" lon="2.16486">
        <ele>143</ele>
        <time>2022-05-03T11:42:41Z</time>
      </trkpt>
      <trkpt lat="48.74399" lon="2.1649">
        <ele>143</ele>
        <time>2022-05-03T11:42:46Z</time>
      </trkpt>
      <trkpt lat="48.74391" lon="2.16488">
        <ele>143</ele>
        <time>2022-05-03T11:43:43Z</time>
      </trkpt>
      <trkpt lat="48.74384" lon="2.16488">
        <ele>143</ele>
        <time>2022-05-03T11:43:49Z</time>
      </trkpt>
      <trkpt lat="48.74376" lon="2.16487">
        <ele>143</ele>
        <time>2022-05-03T11:43:54Z</time>
      </trkpt>
      <trkpt lat="48.74369" lon="2.16487">
        <ele>143</ele>
        <time>2022-05-03T11:43:59Z</time>
      </trkpt>
      <trkpt lat="48.74363" lon="2.16485">
        <ele>143</ele>
        <time>2022-05-03T11:44:04Z</time>
      </trkpt>
      <trkpt lat="48.74353" lon="2.16484">
        <ele>143</ele>
        <time>2022-05-03T11:44:09Z</time>
      </trkpt>
      <trkpt lat="48.74346" lon="2.16486">
        <ele>143</ele>
        <time>2022-05-03T11:44:14Z</time>
      </trkpt>
      <trkpt lat="48.74337" lon="2.16486">
        <ele>143</ele>
        <time>2022-05-03T11:44:19Z</time>
      </trkpt>
      <trkpt lat="48.74331" lon="2.16484">
        <ele>143</ele>
        <time>2022-05-03T11:44:24Z</time>
      </trkpt>
      <trkpt lat="48.74323" lon="2.16485">
        <ele>143</ele>
        <time>2022-05-03T11:44:29Z</time>
      </trkpt>
      <trkpt lat="48.74314" lon="2.16486">
        <ele>143</ele>
        <time>2022-05-03T11:44:48Z</time>
      </trkpt>
      <trkpt lat="48.74307" lon="2.16489">
        <ele>143</ele>
        <time>2022-05-03T11:44:59Z</time>
      </trkpt>
      <trkpt lat="48.743" lon="2.16489">
        <ele>143</ele>
        <time>2022-05-03T11:45:23Z</time>
      </trkpt>
      <trkpt lat="48.74292" lon="2.16487">
        <ele>143</ele>
        <time>2022-05-03T11:45:28Z</time>
      </trkpt>
      <trkpt lat="48.74285" lon="2.16487">
        <ele>143</ele>
        <time>2022-05-03T11:45:34Z</time>
      </trkpt>
      <trkpt lat="48.74278" lon="2.16488">
        <ele>143</ele>
        <time>2022-05-03T11:45:41Z</time>
      </trkpt>
      <trkpt lat="48.7427" lon="2.16487">
        <ele>143</ele>
        <time>2022-05-03T11:45:47Z</time>
      </trkpt>
      <trkpt lat="48.74264" lon="2.16485">
        <ele>143</ele>
        <time>2022-05-03T11:45:52Z</time>
      </trkpt>
      <trkpt lat="48.74257" lon="2.16485">
        <ele>143</ele>
        <time>2022-05-03T11:45:57Z</time>
      </trkpt>
      <trkpt lat="48.7425" lon="2.16486">
        <ele>143</ele>
        <time>2022-05-03T11:46:06Z</time>
      </trkpt>
      <trkpt lat="48.74243" lon="2.16483">
        <ele>143</ele>
        <time>2022-05-03T11:46:12Z</time>
      </trkpt>
      <trkpt lat="48.74236" lon="2.16484">
        <ele>143</ele>
        <time>2022-05-03T11:47:24Z</time>
      </trkpt>
      <trkpt lat="48.74232" lon="2.16471">
        <ele>143</ele>
        <time>2022-05-03T11:47:29Z</time>
      </trkpt>
      <trkpt lat="48.74224" lon="2.16473">
        <ele>143</ele>
        <time>2022-05-03T11:47:34Z</time>
      </trkpt>
      <trkpt lat="48.74217" lon="2.16469">
        <ele>143</ele>
        <time>2022-05-03T11:47:40Z</time>
      </trkpt>
      <trkpt lat="48.74216" lon="2.16459">
        <ele>143</ele>
        <time>2022-05-03T11:47:49Z</time>
      </trkpt>
      <trkpt lat="48.74221" lon="2.16451">
        <ele>143</ele>
        <time>2022-05-03T11:50:26Z</time>
      </trkpt>
      <trkpt lat="48.74223" lon="2.16461">
        <ele>143</ele>
        <time>2022-05-03T11:50:33Z</time>
      </trkpt>
      <trkpt lat="48.7422" lon="2.1647">
        <ele>143</ele>
        <time>2022-05-03T11:50:41Z</time>
      </trkpt>
      <trkpt lat="48.74216" lon="2.16479">
        <ele>143</ele>
        <time>2022-05-03T11:50:46Z</time>
      </trkpt>
      <trkpt lat="48.74209" lon="2.16478">
        <ele>143</ele>
        <time>2022-05-03T11:50:54Z</time>
      </trkpt>
      <trkpt lat="48.74204" lon="2.16485">
        <ele>143</ele>
        <time>2022-05-03T11:51:03Z</time>
      </trkpt>
      <trkpt lat="48.74199" lon="2.16478">
        <ele>143</ele>
        <time>2022-05-03T11:51:26Z</time>
      </trkpt>
      <trkpt lat="48.7419" lon="2.1648">
        <ele>143</ele>
        <time>2022-05-03T11:52:08Z</time>
      </trkpt>
      <trkpt lat="48.74183" lon="2.1648">
        <ele>143</ele>
        <time>2022-05-03T11:52:15Z</time>
      </trkpt>
      <trkpt lat="48.74175" lon="2.1648">
        <ele>143</ele>
        <time>2022-05-03T11:52:22Z</time>
      </trkpt>
      <trkpt lat="48.7417" lon="2.16474">
        <ele>143</ele>
        <time>2022-05-03T11:52:28Z</time>
      </trkpt>
      <trkpt lat="48.74163" lon="2.16473">
        <ele>143.2</ele>
        <time>2022-05-03T11:52:33Z</time>
      </trkpt>
      <trkpt lat="48.74155" lon="2.16472">
        <ele>143.7</ele>
        <time>2022-05-03T11:52:39Z</time>
      </trkpt>
      <trkpt lat="48.74145" lon="2.16473">
        <ele>144.3</ele>
        <time>2022-05-03T11:52:44Z</time>
      </trkpt>
      <trkpt lat="48.74138" lon="2.16474">
        <ele>144.7</ele>
        <time>2022-05-03T11:52:49Z</time>
      </trkpt>
      <trkpt lat="48.7413" lon="2.16473">
        <ele>145.2</ele>
        <time>2022-05-03T11:52:54Z</time>
      </trkpt>
      <trkpt lat="48.7413" lon="2.16462">
        <ele>145.2</ele>
        <time>2022-05-03T11:53:04Z</time>
      </trkpt>
      <trkpt lat="48.74123" lon="2.16459">
        <ele>145.6</ele>
        <time>2022-05-03T11:53:09Z</time>
      </trkpt>
      <trkpt lat="48.74114" lon="2.16459">
        <ele>146.2</ele>
        <time>2022-05-03T11:53:14Z</time>
      </trkpt>
      <trkpt lat="48.74108" lon="2.16459">
        <ele>146.5</ele>
        <time>2022-05-03T11:53:21Z</time>
      </trkpt>
      <trkpt lat="48.74101" lon="2.16458">
        <ele>146.9</ele>
        <time>2022-05-03T11:53:26Z</time>
      </trkpt>
      <trkpt lat="48.74092" lon="2.16457">
        <ele>147.5</ele>
        <time>2022-05-03T11:53:31Z</time>
      </trkpt>
      <trkpt lat="48.74086" lon="2.16461">
        <ele>147.8</ele>
        <time>2022-05-03T11:53:36Z</time>
      </trkpt>
      <trkpt lat="48.74079" lon="2.1646">
        <ele>148.1</ele>
        <time>2022-05-03T11:53:42Z</time>
      </trkpt>
      <trkpt lat="48.74073" lon="2.16455">
        <ele>148.1</ele>
        <time>2022-05-03T11:54:28Z</time>
      </trkpt>
      <trkpt lat="48.74065" lon="2.16454">
        <ele>148.2</ele>
        <time>2022-05-03T11:54:35Z</time>
      </trkpt>
      <trkpt lat="48.74058" lon="2.16453">
        <ele>148.3</ele>
        <time>2022-05-03T11:54:42Z</time>
      </trkpt>
      <trkpt lat="48.74054" lon="2.16462">
        <ele>148.4</ele>
        <time>2022-05-03T11:54:48Z</time>
      </trkpt>
      <trkpt lat="48.74046" lon="2.16467">
        <ele>148.4</ele>
        <time>2022-05-03T11:54:54Z</time>
      </trkpt>
      <trkpt lat="48.74038" lon="2.1647">
        <ele>148.5</ele>
        <time>2022-05-03T11:54:59Z</time>
      </trkpt>
      <trkpt lat="48.74031" lon="2.16467">
        <ele>148.6</ele>
        <time>2022-05-03T11:55:06Z</time>
      </trkpt>
      <trkpt lat="48.74019" lon="2.16462">
        <ele>148.8</ele>
        <time>2022-05-03T11:55:11Z</time>
      </trkpt>
      <trkpt lat="48.7401" lon="2.16461">
        <ele>148.9</ele>
        <time>2022-05-03T11:55:16Z</time>
      </trkpt>
      <trkpt lat="48.74003" lon="2.16465">
        <ele>149</ele>
        <time>2022-05-03T11:55:21Z</time>
      </trkpt>
      <trkpt lat="48.73996" lon="2.16464">
        <ele>149</ele>
        <time>2022-05-03T11:55:28Z</time>
      </trkpt>
      <trkpt lat="48.73988" lon="2.16457">
        <ele>149</ele>
        <time>2022-05-03T11:55:33Z</time>
      </trkpt>
      <trkpt lat="48.73979" lon="2.16454">
        <ele>149</ele>
        <time>2022-05-03T11:55:38Z</time>
      </trkpt>
      <trkpt lat="48.73972" lon="2.16455">
        <ele>149</ele>
        <time>2022-05-03T11:55:43Z</time>
      </trkpt>
      <trkpt lat="48.73964" lon="2.16457">
        <ele>149</ele>
        <time>2022-05-03T11:55:48Z</time>
      </trkpt>
      <trkpt lat="48.73956" lon="2.1646">
        <ele>149</ele>
        <time>2022-05-03T11:56:02Z</time>
      </trkpt>
      <trkpt lat="48.73948" lon="2.16458">
        <ele>149</ele>
        <time>2022-05-03T11:56:08Z</time>
      </trkpt>
      <trkpt lat="48.73941" lon="2.16453">
        <ele>148.9</ele>
        <time>2022-05-03T11:56:14Z</time>
      </trkpt>
      <trkpt lat="48.73934" lon="2.16453">
        <ele>148.9</ele>
        <time>2022-05-03T11:56:19Z</time>
      </trkpt>
      <trkpt lat="48.73927" lon="2.16451">
        <ele>148.8</ele>
        <time>2022-05-03T11:56:24Z</time>
      </trkpt>
      <trkpt lat="48.73919" lon="2.16455">
        <ele>148.9</ele>
        <time>2022-05-03T11:56:29Z</time>
      </trkpt>
      <trkpt lat="48.7392" lon="2.16466">
        <ele>149.2</ele>
        <time>2022-05-03T11:56:36Z</time>
      </trkpt>
      <trkpt lat="48.73916" lon="2.16475">
        <ele>149.4</ele>
        <time>2022-05-03T11:57:12Z</time>
      </trkpt>
      <trkpt lat="48.73917" lon="2.16487">
        <ele>149.7</ele>
        <time>2022-05-03T11:57:20Z</time>
      </trkpt>
      <trkpt lat="48.73915" lon="2.16497">
        <ele>149.9</ele>
        <time>2022-05-03T11:57:25Z</time>
      </trkpt>
      <trkpt lat="48.73913" lon="2.16507">
        <ele>150</ele>
        <time>2022-05-03T11:57:31Z</time>
      </trkpt>
      <trkpt lat="48.73911" lon="2.16517">
        <ele>150.1</ele>
        <time>2022-05-03T11:57:37Z</time>
      </trkpt>
      <trkpt lat="48.7391" lon="2.16527">
        <ele>150.1</ele>
        <time>2022-05-03T11:57:42Z</time>
      </trkpt>
      <trkpt lat="48.73906" lon="2.16535">
        <ele>150.1</ele>
        <time>2022-05-03T11:57:48Z</time>
      </trkpt>
      <trkpt lat="48.73904" lon="2.16545">
        <ele>150.2</ele>
        <time>2022-05-03T11:57:54Z</time>
      </trkpt>
      <trkpt lat="48.73902" lon="2.16556">
        <ele>150.2</ele>
        <time>2022-05-03T11:58:00Z</time>
      </trkpt>
      <trkpt lat="48.73903" lon="2.16572">
        <ele>150.2</ele>
        <time>2022-05-03T11:58:24Z</time>
      </trkpt>
      <trkpt lat="48.739" lon="2.16581">
        <ele>150.2</ele>
        <time>2022-05-03T11:58:30Z</time>
      </trkpt>
      <trkpt lat="48.73894" lon="2.16587">
        <ele>150.3</ele>
        <time>2022-05-03T11:58:44Z</time>
      </trkpt>
      <trkpt lat="48.73892" lon="2.16597">
        <ele>150.4</ele>
        <time>2022-05-03T11:58:49Z</time>
      </trkpt>
      <trkpt lat="48.7389" lon="2.16608">
        <ele>150.4</ele>
        <time>2022-05-03T11:58:55Z</time>
      </trkpt>
      <trkpt lat="48.73887" lon="2.16617">
        <ele>150.5</ele>
        <time>2022-05-03T11:59:00Z</time>
      </trkpt>
      <trkpt lat="48.73884" lon="2.16628">
        <ele>150.5</ele>
        <time>2022-05-03T11:59:05Z</time>
      </trkpt>
      <trkpt lat="48.7388" lon="2.16637">
        <ele>150.5</ele>
        <time>2022-05-03T11:59:10Z</time>
      </trkpt>
      <trkpt lat="48.73877" lon="2.16645">
        <ele>150.5</ele>
        <time>2022-05-03T11:59:15Z</time>
      </trkpt>
      <trkpt lat="48.73873" lon="2.16654">
        <ele>150.5</ele>
        <time>2022-05-03T11:59:20Z</time>
      </trkpt>
      <trkpt lat="48.73871" lon="2.16664">
        <ele>150.5</ele>
        <time>2022-05-03T11:59:50Z</time>
      </trkpt>
      <trkpt lat="48.73865" lon="2.16671">
        <ele>150.4</ele>
        <time>2022-05-03T11:59:56Z</time>
      </trkpt>
      <trkpt lat="48.7386" lon="2.16678">
        <ele>150.4</ele>
        <time>2022-05-03T12:00:02Z</time>
      </trkpt>
      <trkpt lat="48.73856" lon="2.16687">
        <ele>150.4</ele>
        <time>2022-05-03T12:00:07Z</time>
      </trkpt>
      <trkpt lat="48.73849" lon="2.16701">
        <ele>150.4</ele>
        <time>2022-05-03T12:00:12Z</time>
      </trkpt>
      <trkpt lat="48.73844" lon="2.16708">
        <ele>150.5</ele>
        <time>2022-05-03T12:00:22Z</time>
      </trkpt>
      <trkpt lat="48.73841" lon="2.16718">
        <ele>150.6</ele>
        <time>2022-05-03T12:00:29Z</time>
      </trkpt>
      <trkpt lat="48.73835" lon="2.16725">
        <ele>150.7</ele>
        <time>2022-05-03T12:00:34Z</time>
      </trkpt>
      <trkpt lat="48.73833" lon="2.16736">
        <ele>150.8</ele>
        <time>2022-05-03T12:00:40Z</time>
      </trkpt>
      <trkpt lat="48.73834" lon="2.16747">
        <ele>151</ele>
        <time>2022-05-03T12:00:50Z</time>
      </trkpt>
      <trkpt lat="48.7383" lon="2.16757">
        <ele>150.8</ele>
        <time>2022-05-03T12:00:55Z</time>
      </trkpt>
      <trkpt lat="48.73827" lon="2.16768">
        <ele>150.5</ele>
        <time>2022-05-03T12:01:00Z</time>
      </trkpt>
      <trkpt lat="48.73824" lon="2.16779">
        <ele>150.3</ele>
        <time>2022-05-03T12:01:05Z</time>
      </trkpt>
      <trkpt lat="48.73822" lon="2.16788">
        <ele>150.1</ele>
        <time>2022-05-03T12:01:10Z</time>
      </trkpt>
      <trkpt lat="48.73817" lon="2.16797">
        <ele>149.9</ele>
        <time>2022-05-03T12:01:16Z</time>
      </trkpt>
      <trkpt lat="48.73813" lon="2.16809">
        <ele>149.7</ele>
        <time>2022-05-03T12:01:21Z</time>
      </trkpt>
      <trkpt lat="48.73806" lon="2.1682">
        <ele>149.5</ele>
        <time>2022-05-03T12:01:27Z</time>
      </trkpt>
      <trkpt lat="48.738" lon="2.16829">
        <ele>149.5</ele>
        <time>2022-05-03T12:01:32Z</time>
      </trkpt>
      <trkpt lat="48.73796" lon="2.16838">
        <ele>149.4</ele>
        <time>2022-05-03T12:01:37Z</time>
      </trkpt>
      <trkpt lat="48.73792" lon="2.16849">
        <ele>149.4</ele>
        <time>2022-05-03T12:01:42Z</time>
      </trkpt>
      <trkpt lat="48.73788" lon="2.16859">
        <ele>149.4</ele>
        <time>2022-05-03T12:01:47Z</time>
      </trkpt>
      <trkpt lat="48.73784" lon="2.16869">
        <ele>149.5</ele>
        <time>2022-05-03T12:01:52Z</time>
      </trkpt>
      <trkpt lat="48.7378" lon="2.16877">
        <ele>149.6</ele>
        <time>2022-05-03T12:01:57Z</time>
      </trkpt>
      <trkpt lat="48.73775" lon="2.16886">
        <ele>149.8</ele>
        <time>2022-05-03T12:02:02Z</time>
      </trkpt>
      <trkpt lat="48.73769" lon="2.16895">
        <ele>150</ele>
        <time>2022-05-03T12:02:07Z</time>
      </trkpt>
      <trkpt lat="48.73764" lon="2.16902">
        <ele>150.2</ele>
        <time>2022-05-03T12:02:12Z</time>
      </trkpt>
      <trkpt lat="48.73756" lon="2.16911">
        <ele>150.7</ele>
        <time>2022-05-03T12:02:17Z</time>
      </trkpt>
      <trkpt lat="48.73753" lon="2.1692">
        <ele>150.8</ele>
        <time>2022-05-03T12:02:22Z</time>
      </trkpt>
      <trkpt lat="48.73748" lon="2.16928">
        <ele>150.7</ele>
        <time>2022-05-03T12:02:27Z</time>
      </trkpt>
      <trkpt lat="48.73742" lon="2.16935">
        <ele>150.4</ele>
        <time>2022-05-03T12:02:32Z</time>
      </trkpt>
      <trkpt lat="48.73735" lon="2.16942">
        <ele>150.1</ele>
        <time>2022-05-03T12:02:37Z</time>
      </trkpt>
      <trkpt lat="48.73729" lon="2.16948">
        <ele>149.9</ele>
        <time>2022-05-03T12:02:42Z</time>
      </trkpt>
      <trkpt lat="48.73724" lon="2.16956">
        <ele>149.7</ele>
        <time>2022-05-03T12:02:47Z</time>
      </trkpt>
      <trkpt lat="48.73717" lon="2.16959">
        <ele>149.6</ele>
        <time>2022-05-03T12:02:52Z</time>
      </trkpt>
      <trkpt lat="48.7371" lon="2.16966">
        <ele>149.4</ele>
        <time>2022-05-03T12:02:57Z</time>
      </trkpt>
      <trkpt lat="48.73702" lon="2.16975">
        <ele>149.3</ele>
        <time>2022-05-03T12:03:02Z</time>
      </trkpt>
      <trkpt lat="48.73696" lon="2.16981">
        <ele>149.2</ele>
        <time>2022-05-03T12:03:07Z</time>
      </trkpt>
      <trkpt lat="48.7369" lon="2.16985">
        <ele>149.1</ele>
        <time>2022-05-03T12:03:15Z</time>
      </trkpt>
      <trkpt lat="48.73682" lon="2.16989">
        <ele>149</ele>
        <time>2022-05-03T12:03:20Z</time>
      </trkpt>
      <trkpt lat="48.73675" lon="2.16993">
        <ele>149</ele>
        <time>2022-05-03T12:03:25Z</time>
      </trkpt>
      <trkpt lat="48.73668" lon="2.16995">
        <ele>149</ele>
        <time>2022-05-03T12:03:31Z</time>
      </trkpt>
      <trkpt lat="48.73662" lon="2.17005">
        <ele>148.8</ele>
        <time>2022-05-03T12:03:36Z</time>
      </trkpt>
      <trkpt lat="48.73656" lon="2.17008">
        <ele>148.7</ele>
        <time>2022-05-03T12:03:41Z</time>
      </trkpt>
      <trkpt lat="48.7365" lon="2.17014">
        <ele>148.5</ele>
        <time>2022-05-03T12:03:46Z</time>
      </trkpt>
      <trkpt lat="48.73642" lon="2.17019">
        <ele>148.3</ele>
        <time>2022-05-03T12:03:51Z</time>
      </trkpt>
      <trkpt lat="48.73634" lon="2.1702">
        <ele>148.2</ele>
        <time>2022-05-03T12:03:56Z</time>
      </trkpt>
      <trkpt lat="48.73626" lon="2.17024">
        <ele>148</ele>
        <time>2022-05-03T12:04:01Z</time>
      </trkpt>
      <trkpt lat="48.7362" lon="2.1703">
        <ele>147.9</ele>
        <time>2022-05-03T12:04:07Z</time>
      </trkpt>
      <trkpt lat="48.73614" lon="2.17036">
        <ele>147.9</ele>
        <time>2022-05-03T12:04:14Z</time>
      </trkpt>
      <trkpt lat="48.73607" lon="2.17039">
        <ele>147.8</ele>
        <time>2022-05-03T12:04:21Z</time>
      </trkpt>
      <trkpt lat="48.73602" lon="2.17045">
        <ele>147.7</ele>
        <time>2022-05-03T12:04:26Z</time>
      </trkpt>
      <trkpt lat="48.73597" lon="2.17052">
        <ele>147.7</ele>
        <time>2022-05-03T12:04:36Z</time>
      </trkpt>
      <trkpt lat="48.7359" lon="2.17057">
        <ele>147.7</ele>
        <time>2022-05-03T12:05:02Z</time>
      </trkpt>
      <trkpt lat="48.73583" lon="2.17056">
        <ele>147.7</ele>
        <time>2022-05-03T12:05:07Z</time>
      </trkpt>
      <trkpt lat="48.73575" lon="2.17057">
        <ele>147.8</ele>
        <time>2022-05-03T12:05:12Z</time>
      </trkpt>
      <trkpt lat="48.73567" lon="2.17058">
        <ele>148</ele>
        <time>2022-05-03T12:05:17Z</time>
      </trkpt>
      <trkpt lat="48.7356" lon="2.17062">
        <ele>148.1</ele>
        <time>2022-05-03T12:05:22Z</time>
      </trkpt>
      <trkpt lat="48.73553" lon="2.17067">
        <ele>148.2</ele>
        <time>2022-05-03T12:05:27Z</time>
      </trkpt>
      <trkpt lat="48.73546" lon="2.17073">
        <ele>148.4</ele>
        <time>2022-05-03T12:05:33Z</time>
      </trkpt>
      <trkpt lat="48.73539" lon="2.17079">
        <ele>148.5</ele>
        <time>2022-05-03T12:05:38Z</time>
      </trkpt>
      <trkpt lat="48.73532" lon="2.17085">
        <ele>148.6</ele>
        <time>2022-05-03T12:05:43Z</time>
      </trkpt>
      <trkpt lat="48.73525" lon="2.17091">
        <ele>148.7</ele>
        <time>2022-05-03T12:05:48Z</time>
      </trkpt>
      <trkpt lat="48.73518" lon="2.17095">
        <ele>148.7</ele>
        <time>2022-05-03T12:05:53Z</time>
      </trkpt>
      <trkpt lat="48.73512" lon="2.17103">
        <ele>148.7</ele>
        <time>2022-05-03T12:05:59Z</time>
      </trkpt>
      <trkpt lat="48.73506" lon="2.17105">
        <ele>148.7</ele>
        <time>2022-05-03T12:06:05Z</time>
      </trkpt>
      <trkpt lat="48.73498" lon="2.17106">
        <ele>148.8</ele>
        <time>2022-05-03T12:06:12Z</time>
      </trkpt>
      <trkpt lat="48.73492" lon="2.171">
        <ele>148.9</ele>
        <time>2022-05-03T12:06:19Z</time>
      </trkpt>
      <trkpt lat="48.73488" lon="2.17092">
        <ele>149.1</ele>
        <time>2022-05-03T12:06:29Z</time>
      </trkpt>
      <trkpt lat="48.73484" lon="2.17084">
        <ele>149.2</ele>
        <time>2022-05-03T12:06:47Z</time>
      </trkpt>
      <trkpt lat="48.73481" lon="2.17075">
        <ele>149.3</ele>
        <time>2022-05-03T12:06:54Z</time>
      </trkpt>
      <trkpt lat="48.73477" lon="2.17066">
        <ele>149.3</ele>
        <time>2022-05-03T12:07:14Z</time>
      </trkpt>
      <trkpt lat="48.73473" lon="2.17057">
        <ele>149.4</ele>
        <time>2022-05-03T12:07:20Z</time>
      </trkpt>
      <trkpt lat="48.73468" lon="2.17049">
        <ele>149.5</ele>
        <time>2022-05-03T12:07:26Z</time>
      </trkpt>
      <trkpt lat="48.73461" lon="2.17042">
        <ele>149.7</ele>
        <time>2022-05-03T12:07:31Z</time>
      </trkpt>
      <trkpt lat="48.73456" lon="2.17034">
        <ele>149.8</ele>
        <time>2022-05-03T12:07:36Z</time>
      </trkpt>
      <trkpt lat="48.7345" lon="2.17026">
        <ele>150</ele>
        <time>2022-05-03T12:07:43Z</time>
      </trkpt>
      <trkpt lat="48.73445" lon="2.17019">
        <ele>150.2</ele>
        <time>2022-05-03T12:07:49Z</time>
      </trkpt>
      <trkpt lat="48.7344" lon="2.1701">
        <ele>150.4</ele>
        <time>2022-05-03T12:07:54Z</time>
      </trkpt>
      <trkpt lat="48.73436" lon="2.17">
        <ele>150.5</ele>
        <time>2022-05-03T12:07:59Z</time>
      </trkpt>
      <trkpt lat="48.73431" lon="2.16991">
        <ele>150.7</ele>
        <time>2022-05-03T12:08:04Z</time>
      </trkpt>
      <trkpt lat="48.73426" lon="2.16985">
        <ele>150.9</ele>
        <time>2022-05-03T12:08:09Z</time>
      </trkpt>
      <trkpt lat="48.73421" lon="2.16977">
        <ele>151.2</ele>
        <time>2022-05-03T12:08:14Z</time>
      </trkpt>
      <trkpt lat="48.73418" lon="2.16966">
        <ele>151.4</ele>
        <time>2022-05-03T12:08:19Z</time>
      </trkpt>
      <trkpt lat="48.7341" lon="2.16957">
        <ele>151.6</ele>
        <time>2022-05-03T12:08:24Z</time>
      </trkpt>
      <trkpt lat="48.73403" lon="2.16947">
        <ele>151.9</ele>
        <time>2022-05-03T12:08:29Z</time>
      </trkpt>
      <trkpt lat="48.73397" lon="2.16937">
        <ele>152.3</ele>
        <time>2022-05-03T12:08:34Z</time>
      </trkpt>
      <trkpt lat="48.73391" lon="2.16928">
        <ele>152.7</ele>
        <time>2022-05-03T12:08:39Z</time>
      </trkpt>
      <trkpt lat="48.73385" lon="2.16921">
        <ele>153</ele>
        <time>2022-05-03T12:08:44Z</time>
      </trkpt>
      <trkpt lat="48.73378" lon="2.16914">
        <ele>153.4</ele>
        <time>2022-05-03T12:08:49Z</time>
      </trkpt>
      <trkpt lat="48.73373" lon="2.16905">
        <ele>153.6</ele>
        <time>2022-05-03T12:08:54Z</time>
      </trkpt>
      <trkpt lat="48.73372" lon="2.16894">
        <ele>153.6</ele>
        <time>2022-05-03T12:09:07Z</time>
      </trkpt>
      <trkpt lat="48.73381" lon="2.16885">
        <ele>153.3</ele>
        <time>2022-05-03T12:09:12Z</time>
      </trkpt>
      <trkpt lat="48.73382" lon="2.16875">
        <ele>153.3</ele>
        <time>2022-05-03T12:09:17Z</time>
      </trkpt>
      <trkpt lat="48.73379" lon="2.16864">
        <ele>153.4</ele>
        <time>2022-05-03T12:09:23Z</time>
      </trkpt>
      <trkpt lat="48.73375" lon="2.16858">
        <ele>153.5</ele>
        <time>2022-05-03T12:09:28Z</time>
      </trkpt>
      <trkpt lat="48.7337" lon="2.16847">
        <ele>153.6</ele>
        <time>2022-05-03T12:09:33Z</time>
      </trkpt>
      <trkpt lat="48.73364" lon="2.16839">
        <ele>153.6</ele>
        <time>2022-05-03T12:09:38Z</time>
      </trkpt>
      <trkpt lat="48.73357" lon="2.16836">
        <ele>153.7</ele>
        <time>2022-05-03T12:09:43Z</time>
      </trkpt>
      <trkpt lat="48.7335" lon="2.16834">
        <ele>153.8</ele>
        <time>2022-05-03T12:09:48Z</time>
      </trkpt>
      <trkpt lat="48.73343" lon="2.16833">
        <ele>153.9</ele>
        <time>2022-05-03T12:10:29Z</time>
      </trkpt>
      <trkpt lat="48.73339" lon="2.16825">
        <ele>153.7</ele>
        <time>2022-05-03T12:10:41Z</time>
      </trkpt>
      <trkpt lat="48.73332" lon="2.16828">
        <ele>153.9</ele>
        <time>2022-05-03T12:10:46Z</time>
      </trkpt>
      <trkpt lat="48.73323" lon="2.16822">
        <ele>153.7</ele>
        <time>2022-05-03T12:10:51Z</time>
      </trkpt>
      <trkpt lat="48.73319" lon="2.16813">
        <ele>153.6</ele>
        <time>2022-05-03T12:10:56Z</time>
      </trkpt>
      <trkpt lat="48.73314" lon="2.16804">
        <ele>153.4</ele>
        <time>2022-05-03T12:11:01Z</time>
      </trkpt>
      <trkpt lat="48.7331" lon="2.16796">
        <ele>153.2</ele>
        <time>2022-05-03T12:11:06Z</time>
      </trkpt>
      <trkpt lat="48.73306" lon="2.16787">
        <ele>153.1</ele>
        <time>2022-05-03T12:11:12Z</time>
      </trkpt>
      <trkpt lat="48.733" lon="2.16779">
        <ele>153</ele>
        <time>2022-05-03T12:11:17Z</time>
      </trkpt>
      <trkpt lat="48.73294" lon="2.16772">
        <ele>152.9</ele>
        <time>2022-05-03T12:11:22Z</time>
      </trkpt>
      <trkpt lat="48.73289" lon="2.16765">
        <ele>152.8</ele>
        <time>2022-05-03T12:11:27Z</time>
      </trkpt>
      <trkpt lat="48.73286" lon="2.16755">
        <ele>152.7</ele>
        <time>2022-05-03T12:11:39Z</time>
      </trkpt>
      <trkpt lat="48.73281" lon="2.16747">
        <ele>152.7</ele>
        <time>2022-05-03T12:11:59Z</time>
      </trkpt>
      <trkpt lat="48.73276" lon="2.16737">
        <ele>152.9</ele>
        <time>2022-05-03T12:12:05Z</time>
      </trkpt>
      <trkpt lat="48.7327" lon="2.16729">
        <ele>153.1</ele>
        <time>2022-05-03T12:12:10Z</time>
      </trkpt>
      <trkpt lat="48.73265" lon="2.16719">
        <ele>153.3</ele>
        <time>2022-05-03T12:12:15Z</time>
      </trkpt>
      <trkpt lat="48.73258" lon="2.16713">
        <ele>153.4</ele>
        <time>2022-05-03T12:12:20Z</time>
      </trkpt>
      <trkpt lat="48.73253" lon="2.16706">
        <ele>153.5</ele>
        <time>2022-05-03T12:12:26Z</time>
      </trkpt>
      <trkpt lat="48.73247" lon="2.16698">
        <ele>153.7</ele>
        <time>2022-05-03T12:12:31Z</time>
      </trkpt>
      <trkpt lat="48.73241" lon="2.1669">
        <ele>153.8</ele>
        <time>2022-05-03T12:12:36Z</time>
      </trkpt>
      <trkpt lat="48.73237" lon="2.16679">
        <ele>154</ele>
        <time>2022-05-03T12:12:41Z</time>
      </trkpt>
      <trkpt lat="48.73232" lon="2.16669">
        <ele>154.2</ele>
        <time>2022-05-03T12:12:46Z</time>
      </trkpt>
      <trkpt lat="48.73228" lon="2.16661">
        <ele>154.4</ele>
        <time>2022-05-03T12:12:52Z</time>
      </trkpt>
      <trkpt lat="48.73223" lon="2.16655">
        <ele>154.6</ele>
        <time>2022-05-03T12:12:57Z</time>
      </trkpt>
      <trkpt lat="48.73218" lon="2.16645">
        <ele>154.9</ele>
        <time>2022-05-03T12:13:02Z</time>
      </trkpt>
      <trkpt lat="48.73214" lon="2.16632">
        <ele>155.3</ele>
        <time>2022-05-03T12:13:07Z</time>
      </trkpt>
      <trkpt lat="48.73209" lon="2.16621">
        <ele>155.6</ele>
        <time>2022-05-03T12:13:12Z</time>
      </trkpt>
      <trkpt lat="48.73204" lon="2.16613">
        <ele>155.8</ele>
        <time>2022-05-03T12:13:17Z</time>
      </trkpt>
      <trkpt lat="48.732" lon="2.16602">
        <ele>156.2</ele>
        <time>2022-05-03T12:13:22Z</time>
      </trkpt>
      <trkpt lat="48.73195" lon="2.16591">
        <ele>156.5</ele>
        <time>2022-05-03T12:13:27Z</time>
      </trkpt>
      <trkpt lat="48.7319" lon="2.16583">
        <ele>156.7</ele>
        <time>2022-05-03T12:13:32Z</time>
      </trkpt>
      <trkpt lat="48.73184" lon="2.16573">
        <ele>156.8</ele>
        <time>2022-05-03T12:13:37Z</time>
      </trkpt>
      <trkpt lat="48.7318" lon="2.16565">
        <ele>156.8</ele>
        <time>2022-05-03T12:13:43Z</time>
      </trkpt>
      <trkpt lat="48.73174" lon="2.16554">
        <ele>156.9</ele>
        <time>2022-05-03T12:13:48Z</time>
      </trkpt>
      <trkpt lat="48.7317" lon="2.16545">
        <ele>156.9</ele>
        <time>2022-05-03T12:13:53Z</time>
      </trkpt>
      <trkpt lat="48.73165" lon="2.16536">
        <ele>157</ele>
        <time>2022-05-03T12:13:58Z</time>
      </trkpt>
      <trkpt lat="48.73161" lon="2.16528">
        <ele>157</ele>
        <time>2022-05-03T12:14:04Z</time>
      </trkpt>
      <trkpt lat="48.73157" lon="2.16518">
        <ele>157</ele>
        <time>2022-05-03T12:14:10Z</time>
      </trkpt>
      <trkpt lat="48.73154" lon="2.16508">
        <ele>157</ele>
        <time>2022-05-03T12:14:15Z</time>
      </trkpt>
      <trkpt lat="48.73149" lon="2.16502">
        <ele>157</ele>
        <time>2022-05-03T12:14:20Z</time>
      </trkpt>
      <trkpt lat="48.73144" lon="2.16492">
        <ele>157</ele>
        <time>2022-05-03T12:14:25Z</time>
      </trkpt>
      <trkpt lat="48.7314" lon="2.16483">
        <ele>156.9</ele>
        <time>2022-05-03T12:14:30Z</time>
      </trkpt>
      <trkpt lat="48.73133" lon="2.16484">
        <ele>156.9</ele>
        <time>2022-05-03T12:14:36Z</time>
      </trkpt>
      <trkpt lat="48.73124" lon="2.16481">
        <ele>156.9</ele>
        <time>2022-05-03T12:14:41Z</time>
      </trkpt>
      <trkpt lat="48.73115" lon="2.16476">
        <ele>156.8</ele>
        <time>2022-05-03T12:14:46Z</time>
      </trkpt>
      <trkpt lat="48.73111" lon="2.16466">
        <ele>156.7</ele>
        <time>2022-05-03T12:14:51Z</time>
      </trkpt>
      <trkpt lat="48.73108" lon="2.16454">
        <ele>156.6</ele>
        <time>2022-05-03T12:14:57Z</time>
      </trkpt>
      <trkpt lat="48.73104" lon="2.16446">
        <ele>156.5</ele>
        <time>2022-05-03T12:15:02Z</time>
      </trkpt>
      <trkpt lat="48.731" lon="2.16436">
        <ele>156.4</ele>
        <time>2022-05-03T12:15:07Z</time>
      </trkpt>
      <trkpt lat="48.73093" lon="2.1643">
        <ele>156.3</ele>
        <time>2022-05-03T12:15:12Z</time>
      </trkpt>
      <trkpt lat="48.73089" lon="2.16419">
        <ele>156.1</ele>
        <time>2022-05-03T12:15:17Z</time>
      </trkpt>
      <trkpt lat="48.73084" lon="2.1641">
        <ele>156</ele>
        <time>2022-05-03T12:15:22Z</time>
      </trkpt>
      <trkpt lat="48.7308" lon="2.16402">
        <ele>156</ele>
        <time>2022-05-03T12:15:28Z</time>
      </trkpt>
      <trkpt lat="48.73073" lon="2.16396">
        <ele>156</ele>
        <time>2022-05-03T12:15:33Z</time>
      </trkpt>
      <trkpt lat="48.73069" lon="2.16387">
        <ele>156</ele>
        <time>2022-05-03T12:15:39Z</time>
      </trkpt>
      <trkpt lat="48.73063" lon="2.16378">
        <ele>156</ele>
        <time>2022-05-03T12:15:44Z</time>
      </trkpt>
      <trkpt lat="48.73058" lon="2.16372">
        <ele>156</ele>
        <time>2022-05-03T12:15:49Z</time>
      </trkpt>
      <trkpt lat="48.73054" lon="2.16363">
        <ele>156</ele>
        <time>2022-05-03T12:15:55Z</time>
      </trkpt>
      <trkpt lat="48.73053" lon="2.16353">
        <ele>156</ele>
        <time>2022-05-03T12:16:08Z</time>
      </trkpt>
      <trkpt lat="48.73059" lon="2.16357">
        <ele>156</ele>
        <time>2022-05-03T12:16:18Z</time>
      </trkpt>
      <trkpt lat="48.73066" lon="2.16356">
        <ele>156</ele>
        <time>2022-05-03T12:16:26Z</time>
      </trkpt>
      <trkpt lat="48.7307" lon="2.16348">
        <ele>156</ele>
        <time>2022-05-03T12:16:34Z</time>
      </trkpt>
      <trkpt lat="48.73078" lon="2.16348">
        <ele>156</ele>
        <time>2022-05-03T12:16:39Z</time>
      </trkpt>
      <trkpt lat="48.73086" lon="2.16351">
        <ele>156.1</ele>
        <time>2022-05-03T12:16:44Z</time>
      </trkpt>
      <trkpt lat="48.73093" lon="2.16354">
        <ele>156.2</ele>
        <time>2022-05-03T12:16:50Z</time>
      </trkpt>
      <trkpt lat="48.731" lon="2.16354">
        <ele>156.4</ele>
        <time>2022-05-03T12:16:55Z</time>
      </trkpt>
      <trkpt lat="48.73107" lon="2.16352">
        <ele>156.5</ele>
        <time>2022-05-03T12:17:00Z</time>
      </trkpt>
      <trkpt lat="48.73114" lon="2.16352">
        <ele>156.7</ele>
        <time>2022-05-03T12:17:05Z</time>
      </trkpt>
      <trkpt lat="48.73121" lon="2.16356">
        <ele>156.8</ele>
        <time>2022-05-03T12:17:10Z</time>
      </trkpt>
      <trkpt lat="48.73127" lon="2.16363">
        <ele>156.9</ele>
        <time>2022-05-03T12:17:18Z</time>
      </trkpt>
      <trkpt lat="48.7313" lon="2.16372">
        <ele>156.9</ele>
        <time>2022-05-03T12:17:30Z</time>
      </trkpt>
      <trkpt lat="48.73136" lon="2.1638">
        <ele>156.9</ele>
        <time>2022-05-03T12:19:49Z</time>
      </trkpt>
      <trkpt lat="48.73134" lon="2.1637">
        <ele>156.9</ele>
        <time>2022-05-03T12:22:02Z</time>
      </trkpt>
      <trkpt lat="48.73141" lon="2.16373">
        <ele>157.1</ele>
        <time>2022-05-03T12:22:22Z</time>
      </trkpt>
      <trkpt lat="48.73139" lon="2.16384">
        <ele>156.9</ele>
        <time>2022-05-03T12:22:27Z</time>
      </trkpt>
      <trkpt lat="48.73134" lon="2.16378">
        <ele>156.9</ele>
        <time>2022-05-03T12:22:33Z</time>
      </trkpt>
      <trkpt lat="48.73137" lon="2.16368">
        <ele>157</ele>
        <time>2022-05-03T12:22:40Z</time>
      </trkpt>
      <trkpt lat="48.73132" lon="2.1636">
        <ele>157</ele>
        <time>2022-05-03T12:22:47Z</time>
      </trkpt>
      <trkpt lat="48.73123" lon="2.16364">
        <ele>156.8</ele>
        <time>2022-05-03T12:22:52Z</time>
      </trkpt>
      <trkpt lat="48.73117" lon="2.16358">
        <ele>156.7</ele>
        <time>2022-05-03T12:22:57Z</time>
      </trkpt>
      <trkpt lat="48.73111" lon="2.16355">
        <ele>156.6</ele>
        <time>2022-05-03T12:23:02Z</time>
      </trkpt>
      <trkpt lat="48.73103" lon="2.1635">
        <ele>156.4</ele>
        <time>2022-05-03T12:23:07Z</time>
      </trkpt>
      <trkpt lat="48.73094" lon="2.16352">
        <ele>156.2</ele>
        <time>2022-05-03T12:23:12Z</time>
      </trkpt>
      <trkpt lat="48.73088" lon="2.16358">
        <ele>156.1</ele>
        <time>2022-05-03T12:23:18Z</time>
      </trkpt>
      <trkpt lat="48.73087" lon="2.16369">
        <ele>156.1</ele>
        <time>2022-05-03T12:23:23Z</time>
      </trkpt>
      <trkpt lat="48.73088" lon="2.16379">
        <ele>156.1</ele>
        <time>2022-05-03T12:23:28Z</time>
      </trkpt>
      <trkpt lat="48.73093" lon="2.16388">
        <ele>156.2</ele>
        <time>2022-05-03T12:23:33Z</time>
      </trkpt>
      <trkpt lat="48.73098" lon="2.16395">
        <ele>156.2</ele>
        <time>2022-05-03T12:23:39Z</time>
      </trkpt>
      <trkpt lat="48.73102" lon="2.16404">
        <ele>156.3</ele>
        <time>2022-05-03T12:23:44Z</time>
      </trkpt>
      <trkpt lat="48.73103" lon="2.16414">
        <ele>156.2</ele>
        <time>2022-05-03T12:23:52Z</time>
      </trkpt>
      <trkpt lat="48.73099" lon="2.16424">
        <ele>156.3</ele>
        <time>2022-05-03T12:24:08Z</time>
      </trkpt>
      <trkpt lat="48.73092" lon="2.16422">
        <ele>156.2</ele>
        <time>2022-05-03T12:24:13Z</time>
      </trkpt>
      <trkpt lat="48.73086" lon="2.16415">
        <ele>156</ele>
        <time>2022-05-03T12:24:18Z</time>
      </trkpt>
      <trkpt lat="48.73081" lon="2.16407">
        <ele>156</ele>
        <time>2022-05-03T12:24:24Z</time>
      </trkpt>
      <trkpt lat="48.73077" lon="2.16398">
        <ele>156</ele>
        <time>2022-05-03T12:24:29Z</time>
      </trkpt>
      <trkpt lat="48.73072" lon="2.16389">
        <ele>156</ele>
        <time>2022-05-03T12:24:34Z</time>
      </trkpt>
      <trkpt lat="48.73067" lon="2.16383">
        <ele>156</ele>
        <time>2022-05-03T12:24:39Z</time>
      </trkpt>
      <trkpt lat="48.7306" lon="2.1638">
        <ele>156</ele>
        <time>2022-05-03T12:24:44Z</time>
      </trkpt>
      <trkpt lat="48.73052" lon="2.16379">
        <ele>156</ele>
        <time>2022-05-03T12:24:51Z</time>
      </trkpt>
      <trkpt lat="48.73045" lon="2.16383">
        <ele>156</ele>
        <time>2022-05-03T12:24:56Z</time>
      </trkpt>
      <trkpt lat="48.73039" lon="2.16385">
        <ele>156</ele>
        <time>2022-05-03T12:25:01Z</time>
      </trkpt>
      <trkpt lat="48.7303" lon="2.16386">
        <ele>156</ele>
        <time>2022-05-03T12:25:06Z</time>
      </trkpt>
      <trkpt lat="48.73024" lon="2.1639">
        <ele>156</ele>
        <time>2022-05-03T12:25:13Z</time>
      </trkpt>
      <trkpt lat="48.73019" lon="2.16397">
        <ele>156</ele>
        <time>2022-05-03T12:25:21Z</time>
      </trkpt>
      <trkpt lat="48.73024" lon="2.1639">
        <ele>156</ele>
        <time>2022-05-03T12:25:34Z</time>
      </trkpt>
      <trkpt lat="48.73029" lon="2.16382">
        <ele>156</ele>
        <time>2022-05-03T12:25:41Z</time>
      </trkpt>
      <trkpt lat="48.73034" lon="2.16375">
        <ele>156</ele>
        <time>2022-05-03T12:25:47Z</time>
      </trkpt>
      <trkpt lat="48.7304" lon="2.16368">
        <ele>156</ele>
        <time>2022-05-03T12:25:54Z</time>
      </trkpt>
      <trkpt lat="48.73048" lon="2.16366">
        <ele>156</ele>
        <time>2022-05-03T12:25:59Z</time>
      </trkpt>
      <trkpt lat="48.73058" lon="2.16377">
        <ele>156</ele>
        <time>2022-05-03T12:26:04Z</time>
      </trkpt>
      <trkpt lat="48.73066" lon="2.16382">
        <ele>156</ele>
        <time>2022-05-03T12:26:10Z</time>
      </trkpt>
      <trkpt lat="48.73072" lon="2.16388">
        <ele>156</ele>
        <time>2022-05-03T12:26:17Z</time>
      </trkpt>
      <trkpt lat="48.73077" lon="2.16396">
        <ele>156</ele>
        <time>2022-05-03T12:26:23Z</time>
      </trkpt>
      <trkpt lat="48.73081" lon="2.16404">
        <ele>156</ele>
        <time>2022-05-03T12:26:28Z</time>
      </trkpt>
      <trkpt lat="48.73086" lon="2.16413">
        <ele>156</ele>
        <time>2022-05-03T12:26:33Z</time>
      </trkpt>
      <trkpt lat="48.73091" lon="2.16421">
        <ele>156.1</ele>
        <time>2022-05-03T12:26:39Z</time>
      </trkpt>
      <trkpt lat="48.73098" lon="2.16424">
        <ele>156.2</ele>
        <time>2022-05-03T12:26:45Z</time>
      </trkpt>
      <trkpt lat="48.73107" lon="2.16426">
        <ele>156.4</ele>
        <time>2022-05-03T12:26:50Z</time>
      </trkpt>
      <trkpt lat="48.73112" lon="2.16436">
        <ele>156.5</ele>
        <time>2022-05-03T12:26:55Z</time>
      </trkpt>
      <trkpt lat="48.73117" lon="2.16444">
        <ele>156.6</ele>
        <time>2022-05-03T12:27:01Z</time>
      </trkpt>
      <trkpt lat="48.73122" lon="2.16451">
        <ele>156.7</ele>
        <time>2022-05-03T12:27:06Z</time>
      </trkpt>
      <trkpt lat="48.73126" lon="2.1646">
        <ele>156.8</ele>
        <time>2022-05-03T12:27:11Z</time>
      </trkpt>
      <trkpt lat="48.73131" lon="2.16467">
        <ele>156.8</ele>
        <time>2022-05-03T12:27:16Z</time>
      </trkpt>
      <trkpt lat="48.73135" lon="2.16479">
        <ele>156.9</ele>
        <time>2022-05-03T12:27:21Z</time>
      </trkpt>
      <trkpt lat="48.73142" lon="2.16485">
        <ele>156.9</ele>
        <time>2022-05-03T12:27:26Z</time>
      </trkpt>
      <trkpt lat="48.73149" lon="2.16491">
        <ele>157</ele>
        <time>2022-05-03T12:27:31Z</time>
      </trkpt>
      <trkpt lat="48.73154" lon="2.16498">
        <ele>157</ele>
        <time>2022-05-03T12:27:36Z</time>
      </trkpt>
      <trkpt lat="48.73158" lon="2.1651">
        <ele>157</ele>
        <time>2022-05-03T12:27:41Z</time>
      </trkpt>
      <trkpt lat="48.73162" lon="2.1652">
        <ele>157</ele>
        <time>2022-05-03T12:27:46Z</time>
      </trkpt>
      <trkpt lat="48.73167" lon="2.16529">
        <ele>157</ele>
        <time>2022-05-03T12:27:51Z</time>
      </trkpt>
      <trkpt lat="48.7317" lon="2.16539">
        <ele>156.9</ele>
        <time>2022-05-03T12:27:56Z</time>
      </trkpt>
      <trkpt lat="48.73177" lon="2.16549">
        <ele>156.8</ele>
        <time>2022-05-03T12:28:01Z</time>
      </trkpt>
      <trkpt lat="48.73181" lon="2.1656">
        <ele>156.8</ele>
        <time>2022-05-03T12:28:06Z</time>
      </trkpt>
      <trkpt lat="48.73186" lon="2.16572">
        <ele>156.7</ele>
        <time>2022-05-03T12:28:11Z</time>
      </trkpt>
      <trkpt lat="48.73191" lon="2.16582">
        <ele>156.7</ele>
        <time>2022-05-03T12:28:16Z</time>
      </trkpt>
      <trkpt lat="48.73195" lon="2.16593">
        <ele>156.4</ele>
        <time>2022-05-03T12:28:21Z</time>
      </trkpt>
      <trkpt lat="48.732" lon="2.16601">
        <ele>156.2</ele>
        <time>2022-05-03T12:28:26Z</time>
      </trkpt>
      <trkpt lat="48.73204" lon="2.16609">
        <ele>155.9</ele>
        <time>2022-05-03T12:28:31Z</time>
      </trkpt>
      <trkpt lat="48.73209" lon="2.16618">
        <ele>155.7</ele>
        <time>2022-05-03T12:28:36Z</time>
      </trkpt>
      <trkpt lat="48.73213" lon="2.16627">
        <ele>155.4</ele>
        <time>2022-05-03T12:28:42Z</time>
      </trkpt>
      <trkpt lat="48.73219" lon="2.16634">
        <ele>155.2</ele>
        <time>2022-05-03T12:28:47Z</time>
      </trkpt>
      <trkpt lat="48.73224" lon="2.16642">
        <ele>154.9</ele>
        <time>2022-05-03T12:28:52Z</time>
      </trkpt>
      <trkpt lat="48.73231" lon="2.16651">
        <ele>154.6</ele>
        <time>2022-05-03T12:28:57Z</time>
      </trkpt>
      <trkpt lat="48.73239" lon="2.16658">
        <ele>154.3</ele>
        <time>2022-05-03T12:29:02Z</time>
      </trkpt>
      <trkpt lat="48.73244" lon="2.16665">
        <ele>154.1</ele>
        <time>2022-05-03T12:29:07Z</time>
      </trkpt>
      <trkpt lat="48.73249" lon="2.16674">
        <ele>153.9</ele>
        <time>2022-05-03T12:29:12Z</time>
      </trkpt>
      <trkpt lat="48.73253" lon="2.16687">
        <ele>153.7</ele>
        <time>2022-05-03T12:29:17Z</time>
      </trkpt>
      <trkpt lat="48.73255" lon="2.16698">
        <ele>153.6</ele>
        <time>2022-05-03T12:29:22Z</time>
      </trkpt>
      <trkpt lat="48.73261" lon="2.16705">
        <ele>153.5</ele>
        <time>2022-05-03T12:29:30Z</time>
      </trkpt>
      <trkpt lat="48.73265" lon="2.16713">
        <ele>153.3</ele>
        <time>2022-05-03T12:29:45Z</time>
      </trkpt>
      <trkpt lat="48.73271" lon="2.1672">
        <ele>153.2</ele>
        <time>2022-05-03T12:29:50Z</time>
      </trkpt>
      <trkpt lat="48.73276" lon="2.16729">
        <ele>153</ele>
        <time>2022-05-03T12:29:55Z</time>
      </trkpt>
      <trkpt lat="48.73281" lon="2.16736">
        <ele>152.9</ele>
        <time>2022-05-03T12:30:00Z</time>
      </trkpt>
      <trkpt lat="48.73285" lon="2.16743">
        <ele>152.7</ele>
        <time>2022-05-03T12:30:05Z</time>
      </trkpt>
      <trkpt lat="48.7329" lon="2.16752">
        <ele>152.6</ele>
        <time>2022-05-03T12:30:10Z</time>
      </trkpt>
      <trkpt lat="48.73297" lon="2.16759">
        <ele>152.6</ele>
        <time>2022-05-03T12:30:15Z</time>
      </trkpt>
      <trkpt lat="48.73303" lon="2.16768">
        <ele>152.7</ele>
        <time>2022-05-03T12:30:20Z</time>
      </trkpt>
      <trkpt lat="48.73307" lon="2.16776">
        <ele>152.8</ele>
        <time>2022-05-03T12:30:25Z</time>
      </trkpt>
      <trkpt lat="48.73311" lon="2.16784">
        <ele>153</ele>
        <time>2022-05-03T12:30:32Z</time>
      </trkpt>
      <trkpt lat="48.73318" lon="2.16792">
        <ele>153.1</ele>
        <time>2022-05-03T12:30:37Z</time>
      </trkpt>
      <trkpt lat="48.73324" lon="2.16799">
        <ele>153.2</ele>
        <time>2022-05-03T12:30:42Z</time>
      </trkpt>
      <trkpt lat="48.73328" lon="2.16807">
        <ele>153.4</ele>
        <time>2022-05-03T12:30:47Z</time>
      </trkpt>
      <trkpt lat="48.73332" lon="2.16815">
        <ele>153.6</ele>
        <time>2022-05-03T12:30:52Z</time>
      </trkpt>
      <trkpt lat="48.73336" lon="2.16823">
        <ele>153.7</ele>
        <time>2022-05-03T12:30:58Z</time>
      </trkpt>
      <trkpt lat="48.73341" lon="2.16834">
        <ele>153.9</ele>
        <time>2022-05-03T12:31:12Z</time>
      </trkpt>
      <trkpt lat="48.73348" lon="2.16838">
        <ele>153.9</ele>
        <time>2022-05-03T12:31:17Z</time>
      </trkpt>
      <trkpt lat="48.73348" lon="2.16847">
        <ele>153.9</ele>
        <time>2022-05-03T12:31:24Z</time>
      </trkpt>
      <trkpt lat="48.73342" lon="2.16858">
        <ele>154.1</ele>
        <time>2022-05-03T12:31:29Z</time>
      </trkpt>
      <trkpt lat="48.73337" lon="2.16865">
        <ele>154.3</ele>
        <time>2022-05-03T12:31:34Z</time>
      </trkpt>
      <trkpt lat="48.7334" lon="2.16877">
        <ele>154.4</ele>
        <time>2022-05-03T12:31:40Z</time>
      </trkpt>
      <trkpt lat="48.7333" lon="2.16894">
        <ele>154.7</ele>
        <time>2022-05-03T12:31:45Z</time>
      </trkpt>
      <trkpt lat="48.73334" lon="2.16904">
        <ele>154.8</ele>
        <time>2022-05-03T12:31:51Z</time>
      </trkpt>
      <trkpt lat="48.73326" lon="2.16903">
        <ele>154.8</ele>
        <time>2022-05-03T12:32:04Z</time>
      </trkpt>
      <trkpt lat="48.73318" lon="2.16923">
        <ele>154.6</ele>
        <time>2022-05-03T12:32:09Z</time>
      </trkpt>
      <trkpt lat="48.7331" lon="2.16932">
        <ele>154.2</ele>
        <time>2022-05-03T12:32:14Z</time>
      </trkpt>
      <trkpt lat="48.73318" lon="2.1693">
        <ele>154.3</ele>
        <time>2022-05-03T12:32:22Z</time>
      </trkpt>
      <trkpt lat="48.73314" lon="2.16939">
        <ele>153.9</ele>
        <time>2022-05-03T12:32:33Z</time>
      </trkpt>
      <trkpt lat="48.73309" lon="2.16946">
        <ele>153.7</ele>
        <time>2022-05-03T12:32:38Z</time>
      </trkpt>
      <trkpt lat="48.73308" lon="2.16957">
        <ele>153.3</ele>
        <time>2022-05-03T12:32:44Z</time>
      </trkpt>
      <trkpt lat="48.73302" lon="2.16963">
        <ele>153.2</ele>
        <time>2022-05-03T12:32:51Z</time>
      </trkpt>
      <trkpt lat="48.73297" lon="2.16972">
        <ele>153.1</ele>
        <time>2022-05-03T12:32:56Z</time>
      </trkpt>
      <trkpt lat="48.73295" lon="2.16982">
        <ele>152.8</ele>
        <time>2022-05-03T12:33:01Z</time>
      </trkpt>
      <trkpt lat="48.7329" lon="2.1699">
        <ele>152.8</ele>
        <time>2022-05-03T12:33:52Z</time>
      </trkpt>
      <trkpt lat="48.7329" lon="2.17">
        <ele>152.6</ele>
        <time>2022-05-03T12:33:57Z</time>
      </trkpt>
      <trkpt lat="48.7329" lon="2.17012">
        <ele>152.6</ele>
        <time>2022-05-03T12:34:02Z</time>
      </trkpt>
      <trkpt lat="48.73292" lon="2.17021">
        <ele>152.5</ele>
        <time>2022-05-03T12:34:26Z</time>
      </trkpt>
      <trkpt lat="48.73289" lon="2.17031">
        <ele>152.6</ele>
        <time>2022-05-03T12:34:33Z</time>
      </trkpt>
      <trkpt lat="48.73286" lon="2.17042">
        <ele>152.6</ele>
        <time>2022-05-03T12:34:39Z</time>
      </trkpt>
      <trkpt lat="48.73287" lon="2.17053">
        <ele>152.6</ele>
        <time>2022-05-03T12:34:45Z</time>
      </trkpt>
      <trkpt lat="48.73283" lon="2.17065">
        <ele>152.6</ele>
        <time>2022-05-03T12:35:41Z</time>
      </trkpt>
      <trkpt lat="48.73281" lon="2.17075">
        <ele>152.7</ele>
        <time>2022-05-03T12:35:46Z</time>
      </trkpt>
      <trkpt lat="48.73279" lon="2.17086">
        <ele>152.7</ele>
        <time>2022-05-03T12:35:52Z</time>
      </trkpt>
      <trkpt lat="48.73275" lon="2.17094">
        <ele>152.8</ele>
        <time>2022-05-03T12:35:58Z</time>
      </trkpt>
      <trkpt lat="48.73271" lon="2.17106">
        <ele>153</ele>
        <time>2022-05-03T12:36:03Z</time>
      </trkpt>
      <trkpt lat="48.73267" lon="2.17114">
        <ele>153.2</ele>
        <time>2022-05-03T12:36:08Z</time>
      </trkpt>
      <trkpt lat="48.7326" lon="2.17117">
        <ele>153.3</ele>
        <time>2022-05-03T12:36:20Z</time>
      </trkpt>
      <trkpt lat="48.73252" lon="2.1712">
        <ele>153.4</ele>
        <time>2022-05-03T12:36:25Z</time>
      </trkpt>
      <trkpt lat="48.73245" lon="2.17124">
        <ele>153.5</ele>
        <time>2022-05-03T12:36:30Z</time>
      </trkpt>
      <trkpt lat="48.73238" lon="2.17122">
        <ele>153.5</ele>
        <time>2022-05-03T12:36:35Z</time>
      </trkpt>
      <trkpt lat="48.73231" lon="2.17124">
        <ele>153.6</ele>
        <time>2022-05-03T12:36:40Z</time>
      </trkpt>
      <trkpt lat="48.73223" lon="2.17124">
        <ele>153.7</ele>
        <time>2022-05-03T12:36:45Z</time>
      </trkpt>
      <trkpt lat="48.73216" lon="2.17123">
        <ele>153.7</ele>
        <time>2022-05-03T12:36:50Z</time>
      </trkpt>
      <trkpt lat="48.73209" lon="2.17124">
        <ele>153.7</ele>
        <time>2022-05-03T12:36:55Z</time>
      </trkpt>
      <trkpt lat="48.73201" lon="2.17125">
        <ele>153.8</ele>
        <time>2022-05-03T12:37:05Z</time>
      </trkpt>
      <trkpt lat="48.73193" lon="2.17126">
        <ele>153.8</ele>
        <time>2022-05-03T12:37:10Z</time>
      </trkpt>
      <trkpt lat="48.73185" lon="2.17133">
        <ele>153.9</ele>
        <time>2022-05-03T12:37:15Z</time>
      </trkpt>
      <trkpt lat="48.73179" lon="2.17139">
        <ele>154</ele>
        <time>2022-05-03T12:37:20Z</time>
      </trkpt>
      <trkpt lat="48.73172" lon="2.17145">
        <ele>154</ele>
        <time>2022-05-03T12:37:25Z</time>
      </trkpt>
      <trkpt lat="48.73167" lon="2.1715">
        <ele>154</ele>
        <time>2022-05-03T12:37:30Z</time>
      </trkpt>
      <trkpt lat="48.73159" lon="2.17154">
        <ele>154.1</ele>
        <time>2022-05-03T12:37:36Z</time>
      </trkpt>
      <trkpt lat="48.73151" lon="2.17154">
        <ele>154.2</ele>
        <time>2022-05-03T12:37:44Z</time>
      </trkpt>
      <trkpt lat="48.73144" lon="2.17157">
        <ele>154.3</ele>
        <time>2022-05-03T12:37:50Z</time>
      </trkpt>
      <trkpt lat="48.73135" lon="2.17162">
        <ele>154.4</ele>
        <time>2022-05-03T12:37:55Z</time>
      </trkpt>
      <trkpt lat="48.73129" lon="2.17165">
        <ele>154.5</ele>
        <time>2022-05-03T12:38:01Z</time>
      </trkpt>
      <trkpt lat="48.73123" lon="2.1717">
        <ele>154.4</ele>
        <time>2022-05-03T12:38:08Z</time>
      </trkpt>
      <trkpt lat="48.73116" lon="2.17179">
        <ele>154.3</ele>
        <time>2022-05-03T12:38:13Z</time>
      </trkpt>
      <trkpt lat="48.73109" lon="2.17188">
        <ele>154.1</ele>
        <time>2022-05-03T12:38:18Z</time>
      </trkpt>
      <trkpt lat="48.73104" lon="2.17196">
        <ele>153.9</ele>
        <time>2022-05-03T12:38:25Z</time>
      </trkpt>
      <trkpt lat="48.73102" lon="2.17209">
        <ele>153.5</ele>
        <time>2022-05-03T12:38:30Z</time>
      </trkpt>
      <trkpt lat="48.73106" lon="2.17201">
        <ele>153.7</ele>
        <time>2022-05-03T12:39:20Z</time>
      </trkpt>
      <trkpt lat="48.73102" lon="2.17209">
        <ele>153.5</ele>
        <time>2022-05-03T12:39:29Z</time>
      </trkpt>
      <trkpt lat="48.73095" lon="2.17217">
        <ele>153.2</ele>
        <time>2022-05-03T12:39:34Z</time>
      </trkpt>
      <trkpt lat="48.73095" lon="2.17227">
        <ele>152.9</ele>
        <time>2022-05-03T12:39:45Z</time>
      </trkpt>
      <trkpt lat="48.73091" lon="2.17236">
        <ele>152.6</ele>
        <time>2022-05-03T12:40:07Z</time>
      </trkpt>
      <trkpt lat="48.73085" lon="2.17227">
        <ele>152.8</ele>
        <time>2022-05-03T12:40:12Z</time>
      </trkpt>
      <trkpt lat="48.73082" lon="2.17217">
        <ele>153.2</ele>
        <time>2022-05-03T12:40:19Z</time>
      </trkpt>
      <trkpt lat="48.73084" lon="2.17227">
        <ele>152.8</ele>
        <time>2022-05-03T12:40:39Z</time>
      </trkpt>
      <trkpt lat="48.73073" lon="2.17227">
        <ele>152.9</ele>
        <time>2022-05-03T12:40:44Z</time>
      </trkpt>
      <trkpt lat="48.73065" lon="2.1723">
        <ele>152.8</ele>
        <time>2022-05-03T12:40:49Z</time>
      </trkpt>
      <trkpt lat="48.73055" lon="2.17233">
        <ele>152.8</ele>
        <time>2022-05-03T12:40:54Z</time>
      </trkpt>
      <trkpt lat="48.73047" lon="2.17234">
        <ele>152.8</ele>
        <time>2022-05-03T12:40:59Z</time>
      </trkpt>
      <trkpt lat="48.7304" lon="2.17234">
        <ele>152.9</ele>
        <time>2022-05-03T12:41:04Z</time>
      </trkpt>
      <trkpt lat="48.73032" lon="2.17235">
        <ele>152.9</ele>
        <time>2022-05-03T12:41:09Z</time>
      </trkpt>
      <trkpt lat="48.73025" lon="2.17236">
        <ele>153</ele>
        <time>2022-05-03T12:41:14Z</time>
      </trkpt>
      <trkpt lat="48.73017" lon="2.17236">
        <ele>153</ele>
        <time>2022-05-03T12:41:20Z</time>
      </trkpt>
      <trkpt lat="48.73011" lon="2.17235">
        <ele>153.1</ele>
        <time>2022-05-03T12:41:26Z</time>
      </trkpt>
      <trkpt lat="48.73004" lon="2.17233">
        <ele>153.2</ele>
        <time>2022-05-03T12:41:32Z</time>
      </trkpt>
      <trkpt lat="48.72997" lon="2.17236">
        <ele>153.2</ele>
        <time>2022-05-03T12:41:49Z</time>
      </trkpt>
      <trkpt lat="48.72991" lon="2.17233">
        <ele>153.2</ele>
        <time>2022-05-03T12:42:15Z</time>
      </trkpt>
      <trkpt lat="48.72985" lon="2.17227">
        <ele>153.2</ele>
        <time>2022-05-03T12:42:22Z</time>
      </trkpt>
      <trkpt lat="48.72978" lon="2.17225">
        <ele>153.2</ele>
        <time>2022-05-03T12:42:27Z</time>
      </trkpt>
      <trkpt lat="48.72971" lon="2.17224">
        <ele>153.2</ele>
        <time>2022-05-03T12:42:36Z</time>
      </trkpt>
      <trkpt lat="48.72963" lon="2.17226">
        <ele>153.2</ele>
        <time>2022-05-03T12:42:41Z</time>
      </trkpt>
      <trkpt lat="48.7297" lon="2.17224">
        <ele>153.2</ele>
        <time>2022-05-03T12:43:18Z</time>
      </trkpt>
      <trkpt lat="48.72977" lon="2.17223">
        <ele>153.2</ele>
        <time>2022-05-03T12:43:28Z</time>
      </trkpt>
      <trkpt lat="48.7297" lon="2.17222">
        <ele>153.2</ele>
        <time>2022-05-03T12:43:33Z</time>
      </trkpt>
      <trkpt lat="48.72962" lon="2.17222">
        <ele>153.2</ele>
        <time>2022-05-03T12:43:38Z</time>
      </trkpt>
      <trkpt lat="48.72954" lon="2.17222">
        <ele>153.2</ele>
        <time>2022-05-03T12:43:43Z</time>
      </trkpt>
      <trkpt lat="48.72948" lon="2.17226">
        <ele>153.1</ele>
        <time>2022-05-03T12:43:50Z</time>
      </trkpt>
      <trkpt lat="48.72944" lon="2.17235">
        <ele>153.1</ele>
        <time>2022-05-03T12:44:01Z</time>
      </trkpt>
      <trkpt lat="48.72941" lon="2.17246">
        <ele>153</ele>
        <time>2022-05-03T12:44:06Z</time>
      </trkpt>
      <trkpt lat="48.72939" lon="2.17256">
        <ele>152.9</ele>
        <time>2022-05-03T12:44:11Z</time>
      </trkpt>
      <trkpt lat="48.72939" lon="2.17266">
        <ele>152.9</ele>
        <time>2022-05-03T12:44:17Z</time>
      </trkpt>
      <trkpt lat="48.72944" lon="2.17273">
        <ele>152.8</ele>
        <time>2022-05-03T12:44:25Z</time>
      </trkpt>
      <trkpt lat="48.72947" lon="2.17282">
        <ele>152.8</ele>
        <time>2022-05-03T12:44:50Z</time>
      </trkpt>
      <trkpt lat="48.72952" lon="2.17291">
        <ele>152.7</ele>
        <time>2022-05-03T12:44:56Z</time>
      </trkpt>
      <trkpt lat="48.72948" lon="2.17282">
        <ele>152.8</ele>
        <time>2022-05-03T12:45:11Z</time>
      </trkpt>
      <trkpt lat="48.72956" lon="2.17283">
        <ele>152.8</ele>
        <time>2022-05-03T12:45:25Z</time>
      </trkpt>
      <trkpt lat="48.7296" lon="2.17293">
        <ele>152.8</ele>
        <time>2022-05-03T12:45:31Z</time>
      </trkpt>
      <trkpt lat="48.72965" lon="2.173">
        <ele>152.7</ele>
        <time>2022-05-03T12:45:41Z</time>
      </trkpt>
      <trkpt lat="48.72972" lon="2.17302">
        <ele>152.8</ele>
        <time>2022-05-03T12:45:46Z</time>
      </trkpt>
      <trkpt lat="48.72978" lon="2.17301">
        <ele>152.8</ele>
        <time>2022-05-03T12:45:52Z</time>
      </trkpt>
      <trkpt lat="48.72985" lon="2.17302">
        <ele>152.9</ele>
        <time>2022-05-03T12:45:57Z</time>
      </trkpt>
      <trkpt lat="48.72992" lon="2.17298">
        <ele>152.9</ele>
        <time>2022-05-03T12:46:02Z</time>
      </trkpt>
      <trkpt lat="48.72998" lon="2.17291">
        <ele>153</ele>
        <time>2022-05-03T12:46:10Z</time>
      </trkpt>
      <trkpt lat="48.73003" lon="2.17283">
        <ele>153</ele>
        <time>2022-05-03T12:46:15Z</time>
      </trkpt>
      <trkpt lat="48.73007" lon="2.17273">
        <ele>152.9</ele>
        <time>2022-05-03T12:46:20Z</time>
      </trkpt>
      <trkpt lat="48.73004" lon="2.17282">
        <ele>153</ele>
        <time>2022-05-03T12:46:31Z</time>
      </trkpt>
      <trkpt lat="48.72997" lon="2.17279">
        <ele>153</ele>
        <time>2022-05-03T12:46:40Z</time>
      </trkpt>
      <trkpt lat="48.72994" lon="2.17269">
        <ele>153</ele>
        <time>2022-05-03T12:47:10Z</time>
      </trkpt>
      <trkpt lat="48.73" lon="2.17264">
        <ele>153</ele>
        <time>2022-05-03T12:47:26Z</time>
      </trkpt>
      <trkpt lat="48.73005" lon="2.17253">
        <ele>152.9</ele>
        <time>2022-05-03T12:47:31Z</time>
      </trkpt>
      <trkpt lat="48.73006" lon="2.17242">
        <ele>153</ele>
        <time>2022-05-03T12:47:36Z</time>
      </trkpt>
      <trkpt lat="48.73011" lon="2.17234">
        <ele>153.1</ele>
        <time>2022-05-03T12:47:42Z</time>
      </trkpt>
      <trkpt lat="48.73015" lon="2.17226">
        <ele>153.2</ele>
        <time>2022-05-03T12:47:48Z</time>
      </trkpt>
      <trkpt lat="48.73026" lon="2.17227">
        <ele>153.1</ele>
        <time>2022-05-03T12:47:53Z</time>
      </trkpt>
      <trkpt lat="48.73034" lon="2.17231">
        <ele>153</ele>
        <time>2022-05-03T12:47:59Z</time>
      </trkpt>
      <trkpt lat="48.73041" lon="2.17232">
        <ele>152.9</ele>
        <time>2022-05-03T12:48:04Z</time>
      </trkpt>
      <trkpt lat="48.7305" lon="2.17231">
        <ele>152.9</ele>
        <time>2022-05-03T12:48:09Z</time>
      </trkpt>
      <trkpt lat="48.73057" lon="2.17234">
        <ele>152.8</ele>
        <time>2022-05-03T12:48:15Z</time>
      </trkpt>
      <trkpt lat="48.73065" lon="2.17231">
        <ele>152.8</ele>
        <time>2022-05-03T12:48:20Z</time>
      </trkpt>
      <trkpt lat="48.73076" lon="2.17233">
        <ele>152.7</ele>
        <time>2022-05-03T12:48:25Z</time>
      </trkpt>
      <trkpt lat="48.73083" lon="2.17232">
        <ele>152.7</ele>
        <time>2022-05-03T12:48:32Z</time>
      </trkpt>
      <trkpt lat="48.7309" lon="2.1723">
        <ele>152.8</ele>
        <time>2022-05-03T12:48:38Z</time>
      </trkpt>
      <trkpt lat="48.73098" lon="2.17231">
        <ele>152.8</ele>
        <time>2022-05-03T12:48:48Z</time>
      </trkpt>
      <trkpt lat="48.73108" lon="2.17232">
        <ele>152.8</ele>
        <time>2022-05-03T12:48:53Z</time>
      </trkpt>
      <trkpt lat="48.73116" lon="2.17227">
        <ele>153</ele>
        <time>2022-05-03T12:48:58Z</time>
      </trkpt>
      <trkpt lat="48.73122" lon="2.17222">
        <ele>153.2</ele>
        <time>2022-05-03T12:49:03Z</time>
      </trkpt>
      <trkpt lat="48.73135" lon="2.17224">
        <ele>153.2</ele>
        <time>2022-05-03T12:49:08Z</time>
      </trkpt>
      <trkpt lat="48.73142" lon="2.17226">
        <ele>153.2</ele>
        <time>2022-05-03T12:49:13Z</time>
      </trkpt>
      <trkpt lat="48.7315" lon="2.1723">
        <ele>153.1</ele>
        <time>2022-05-03T12:49:18Z</time>
      </trkpt>
      <trkpt lat="48.73156" lon="2.17228">
        <ele>153.2</ele>
        <time>2022-05-03T12:49:25Z</time>
      </trkpt>
      <trkpt lat="48.73164" lon="2.17232">
        <ele>153.2</ele>
        <time>2022-05-03T12:49:32Z</time>
      </trkpt>
      <trkpt lat="48.73175" lon="2.17233">
        <ele>153.3</ele>
        <time>2022-05-03T12:49:37Z</time>
      </trkpt>
      <trkpt lat="48.73183" lon="2.17233">
        <ele>153.4</ele>
        <time>2022-05-03T12:49:42Z</time>
      </trkpt>
      <trkpt lat="48.7319" lon="2.17235">
        <ele>153.4</ele>
        <time>2022-05-03T12:49:47Z</time>
      </trkpt>
      <trkpt lat="48.73197" lon="2.17233">
        <ele>153.5</ele>
        <time>2022-05-03T12:49:52Z</time>
      </trkpt>
      <trkpt lat="48.73203" lon="2.17235">
        <ele>153.5</ele>
        <time>2022-05-03T12:49:58Z</time>
      </trkpt>
      <trkpt lat="48.7321" lon="2.17241">
        <ele>153.6</ele>
        <time>2022-05-03T12:50:03Z</time>
      </trkpt>
      <trkpt lat="48.73217" lon="2.17245">
        <ele>153.6</ele>
        <time>2022-05-03T12:50:08Z</time>
      </trkpt>
      <trkpt lat="48.73225" lon="2.17252">
        <ele>153.7</ele>
        <time>2022-05-03T12:50:13Z</time>
      </trkpt>
      <trkpt lat="48.73231" lon="2.17254">
        <ele>153.8</ele>
        <time>2022-05-03T12:50:18Z</time>
      </trkpt>
      <trkpt lat="48.73242" lon="2.17256">
        <ele>153.9</ele>
        <time>2022-05-03T12:50:23Z</time>
      </trkpt>
      <trkpt lat="48.73243" lon="2.17267">
        <ele>153.9</ele>
        <time>2022-05-03T12:50:28Z</time>
      </trkpt>
      <trkpt lat="48.73249" lon="2.17276">
        <ele>154</ele>
        <time>2022-05-03T12:50:33Z</time>
      </trkpt>
      <trkpt lat="48.73252" lon="2.17287">
        <ele>154</ele>
        <time>2022-05-03T12:50:38Z</time>
      </trkpt>
      <trkpt lat="48.73257" lon="2.17296">
        <ele>154</ele>
        <time>2022-05-03T12:50:43Z</time>
      </trkpt>
      <trkpt lat="48.73265" lon="2.173">
        <ele>153.9</ele>
        <time>2022-05-03T12:50:49Z</time>
      </trkpt>
      <trkpt lat="48.73272" lon="2.17302">
        <ele>153.8</ele>
        <time>2022-05-03T12:50:54Z</time>
      </trkpt>
      <trkpt lat="48.73279" lon="2.17303">
        <ele>153.8</ele>
        <time>2022-05-03T12:50:59Z</time>
      </trkpt>
      <trkpt lat="48.73285" lon="2.17307">
        <ele>153.7</ele>
        <time>2022-05-03T12:51:04Z</time>
      </trkpt>
      <trkpt lat="48.73292" lon="2.17309">
        <ele>153.6</ele>
        <time>2022-05-03T12:51:11Z</time>
      </trkpt>
      <trkpt lat="48.73299" lon="2.17313">
        <ele>153.6</ele>
        <time>2022-05-03T12:51:17Z</time>
      </trkpt>
      <trkpt lat="48.73307" lon="2.17317">
        <ele>153.5</ele>
        <time>2022-05-03T12:51:22Z</time>
      </trkpt>
      <trkpt lat="48.73312" lon="2.1733">
        <ele>153.3</ele>
        <time>2022-05-03T12:51:27Z</time>
      </trkpt>
      <trkpt lat="48.73312" lon="2.1734">
        <ele>153.3</ele>
        <time>2022-05-03T12:51:32Z</time>
      </trkpt>
      <trkpt lat="48.73313" lon="2.1735">
        <ele>153.2</ele>
        <time>2022-05-03T12:51:38Z</time>
      </trkpt>
      <trkpt lat="48.73313" lon="2.17361">
        <ele>153.2</ele>
        <time>2022-05-03T12:51:44Z</time>
      </trkpt>
      <trkpt lat="48.73313" lon="2.17371">
        <ele>153.2</ele>
        <time>2022-05-03T12:51:49Z</time>
      </trkpt>
      <trkpt lat="48.73313" lon="2.17381">
        <ele>153.2</ele>
        <time>2022-05-03T12:51:54Z</time>
      </trkpt>
      <trkpt lat="48.73313" lon="2.17392">
        <ele>153.2</ele>
        <time>2022-05-03T12:52:00Z</time>
      </trkpt>
      <trkpt lat="48.73314" lon="2.17404">
        <ele>153.2</ele>
        <time>2022-05-03T12:52:05Z</time>
      </trkpt>
      <trkpt lat="48.73317" lon="2.17418">
        <ele>153.2</ele>
        <time>2022-05-03T12:52:10Z</time>
      </trkpt>
      <trkpt lat="48.7332" lon="2.17428">
        <ele>153.1</ele>
        <time>2022-05-03T12:52:18Z</time>
      </trkpt>
      <trkpt lat="48.73327" lon="2.17432">
        <ele>153</ele>
        <time>2022-05-03T12:52:24Z</time>
      </trkpt>
      <trkpt lat="48.73331" lon="2.1744">
        <ele>153</ele>
        <time>2022-05-03T12:52:29Z</time>
      </trkpt>
      <trkpt lat="48.73339" lon="2.17443">
        <ele>152.9</ele>
        <time>2022-05-03T12:52:34Z</time>
      </trkpt>
      <trkpt lat="48.73348" lon="2.17454">
        <ele>152.6</ele>
        <time>2022-05-03T12:52:39Z</time>
      </trkpt>
      <trkpt lat="48.73354" lon="2.17465">
        <ele>152.5</ele>
        <time>2022-05-03T12:52:44Z</time>
      </trkpt>
      <trkpt lat="48.73362" lon="2.17476">
        <ele>152.3</ele>
        <time>2022-05-03T12:52:49Z</time>
      </trkpt>
      <trkpt lat="48.73365" lon="2.17485">
        <ele>152.2</ele>
        <time>2022-05-03T12:52:54Z</time>
      </trkpt>
      <trkpt lat="48.73371" lon="2.17494">
        <ele>152.1</ele>
        <time>2022-05-03T12:52:59Z</time>
      </trkpt>
      <trkpt lat="48.73376" lon="2.17503">
        <ele>151.9</ele>
        <time>2022-05-03T12:53:04Z</time>
      </trkpt>
      <trkpt lat="48.73378" lon="2.17513">
        <ele>151.6</ele>
        <time>2022-05-03T12:53:10Z</time>
      </trkpt>
      <trkpt lat="48.73384" lon="2.1752">
        <ele>151.3</ele>
        <time>2022-05-03T12:53:17Z</time>
      </trkpt>
      <trkpt lat="48.73389" lon="2.17532">
        <ele>150.9</ele>
        <time>2022-05-03T12:53:22Z</time>
      </trkpt>
      <trkpt lat="48.73392" lon="2.1754">
        <ele>150.6</ele>
        <time>2022-05-03T12:53:30Z</time>
      </trkpt>
      <trkpt lat="48.73394" lon="2.1755">
        <ele>150.3</ele>
        <time>2022-05-03T12:53:36Z</time>
      </trkpt>
      <trkpt lat="48.73401" lon="2.17557">
        <ele>150</ele>
        <time>2022-05-03T12:53:41Z</time>
      </trkpt>
      <trkpt lat="48.73406" lon="2.17566">
        <ele>149.7</ele>
        <time>2022-05-03T12:53:48Z</time>
      </trkpt>
      <trkpt lat="48.73413" lon="2.17574">
        <ele>149.3</ele>
        <time>2022-05-03T12:53:53Z</time>
      </trkpt>
      <trkpt lat="48.73412" lon="2.17584">
        <ele>149.1</ele>
        <time>2022-05-03T12:54:18Z</time>
      </trkpt>
      <trkpt lat="48.7342" lon="2.17583">
        <ele>148.9</ele>
        <time>2022-05-03T12:54:24Z</time>
      </trkpt>
      <trkpt lat="48.73413" lon="2.17581">
        <ele>149.1</ele>
        <time>2022-05-03T12:54:39Z</time>
      </trkpt>
      <trkpt lat="48.7342" lon="2.17584">
        <ele>148.9</ele>
        <time>2022-05-03T12:55:14Z</time>
      </trkpt>
      <trkpt lat="48.73421" lon="2.17574">
        <ele>149.1</ele>
        <time>2022-05-03T12:55:23Z</time>
      </trkpt>
      <trkpt lat="48.73426" lon="2.1758">
        <ele>148.8</ele>
        <time>2022-05-03T12:55:43Z</time>
      </trkpt>
      <trkpt lat="48.73432" lon="2.17585">
        <ele>148.6</ele>
        <time>2022-05-03T12:55:49Z</time>
      </trkpt>
      <trkpt lat="48.73435" lon="2.17595">
        <ele>148.4</ele>
        <time>2022-05-03T12:55:56Z</time>
      </trkpt>
      <trkpt lat="48.73441" lon="2.17605">
        <ele>148.2</ele>
        <time>2022-05-03T12:56:01Z</time>
      </trkpt>
      <trkpt lat="48.73446" lon="2.17614">
        <ele>147.9</ele>
        <time>2022-05-03T12:56:06Z</time>
      </trkpt>
      <trkpt lat="48.7345" lon="2.17622">
        <ele>147.7</ele>
        <time>2022-05-03T12:56:11Z</time>
      </trkpt>
      <trkpt lat="48.73456" lon="2.17632">
        <ele>147.5</ele>
        <time>2022-05-03T12:56:16Z</time>
      </trkpt>
      <trkpt lat="48.73461" lon="2.17642">
        <ele>147.2</ele>
        <time>2022-05-03T12:56:21Z</time>
      </trkpt>
      <trkpt lat="48.73464" lon="2.17652">
        <ele>147</ele>
        <time>2022-05-03T12:56:37Z</time>
      </trkpt>
      <trkpt lat="48.73463" lon="2.17661">
        <ele>147</ele>
        <time>2022-05-03T12:56:50Z</time>
      </trkpt>
      <trkpt lat="48.73469" lon="2.17671">
        <ele>146.7</ele>
        <time>2022-05-03T12:56:55Z</time>
      </trkpt>
      <trkpt lat="48.73474" lon="2.17678">
        <ele>146.5</ele>
        <time>2022-05-03T12:57:00Z</time>
      </trkpt>
      <trkpt lat="48.73478" lon="2.17688">
        <ele>146.3</ele>
        <time>2022-05-03T12:57:05Z</time>
      </trkpt>
      <trkpt lat="48.73483" lon="2.17697">
        <ele>146</ele>
        <time>2022-05-03T12:57:10Z</time>
      </trkpt>
      <trkpt lat="48.73489" lon="2.17705">
        <ele>145.8</ele>
        <time>2022-05-03T12:57:15Z</time>
      </trkpt>
      <trkpt lat="48.73494" lon="2.17715">
        <ele>145.6</ele>
        <time>2022-05-03T12:57:20Z</time>
      </trkpt>
      <trkpt lat="48.73498" lon="2.17722">
        <ele>145.4</ele>
        <time>2022-05-03T12:57:25Z</time>
      </trkpt>
      <trkpt lat="48.73503" lon="2.17731">
        <ele>145.2</ele>
        <time>2022-05-03T12:57:30Z</time>
      </trkpt>
      <trkpt lat="48.73508" lon="2.17739">
        <ele>144.9</ele>
        <time>2022-05-03T12:57:35Z</time>
      </trkpt>
      <trkpt lat="48.73513" lon="2.1775">
        <ele>144.7</ele>
        <time>2022-05-03T12:57:40Z</time>
      </trkpt>
      <trkpt lat="48.73519" lon="2.17757">
        <ele>144.6</ele>
        <time>2022-05-03T12:57:45Z</time>
      </trkpt>
      <trkpt lat="48.73524" lon="2.17767">
        <ele>144.6</ele>
        <time>2022-05-03T12:57:50Z</time>
      </trkpt>
      <trkpt lat="48.73527" lon="2.17776">
        <ele>144.6</ele>
        <time>2022-05-03T12:57:56Z</time>
      </trkpt>
      <trkpt lat="48.73532" lon="2.17784">
        <ele>144.5</ele>
        <time>2022-05-03T12:58:01Z</time>
      </trkpt>
      <trkpt lat="48.73538" lon="2.17793">
        <ele>144.4</ele>
        <time>2022-05-03T12:58:06Z</time>
      </trkpt>
      <trkpt lat="48.73543" lon="2.17802">
        <ele>144.3</ele>
        <time>2022-05-03T12:58:11Z</time>
      </trkpt>
      <trkpt lat="48.73548" lon="2.17812">
        <ele>144.2</ele>
        <time>2022-05-03T12:58:17Z</time>
      </trkpt>
      <trkpt lat="48.73552" lon="2.17823">
        <ele>144.1</ele>
        <time>2022-05-03T12:58:23Z</time>
      </trkpt>
      <trkpt lat="48.73554" lon="2.17833">
        <ele>144.1</ele>
        <time>2022-05-03T12:58:28Z</time>
      </trkpt>
      <trkpt lat="48.73557" lon="2.17843">
        <ele>143.9</ele>
        <time>2022-05-03T12:58:33Z</time>
      </trkpt>
      <trkpt lat="48.7356" lon="2.17856">
        <ele>143.8</ele>
        <time>2022-05-03T12:58:38Z</time>
      </trkpt>
      <trkpt lat="48.73562" lon="2.17869">
        <ele>143.7</ele>
        <time>2022-05-03T12:58:43Z</time>
      </trkpt>
      <trkpt lat="48.73566" lon="2.17878">
        <ele>143.5</ele>
        <time>2022-05-03T12:58:48Z</time>
      </trkpt>
      <trkpt lat="48.73566" lon="2.17889">
        <ele>143.5</ele>
        <time>2022-05-03T12:58:53Z</time>
      </trkpt>
      <trkpt lat="48.73568" lon="2.17899">
        <ele>143.4</ele>
        <time>2022-05-03T12:58:58Z</time>
      </trkpt>
      <trkpt lat="48.7357" lon="2.17909">
        <ele>143.3</ele>
        <time>2022-05-03T12:59:03Z</time>
      </trkpt>
      <trkpt lat="48.73574" lon="2.17919">
        <ele>143.2</ele>
        <time>2022-05-03T12:59:08Z</time>
      </trkpt>
      <trkpt lat="48.73576" lon="2.17932">
        <ele>143</ele>
        <time>2022-05-03T12:59:13Z</time>
      </trkpt>
      <trkpt lat="48.73579" lon="2.17943">
        <ele>142.8</ele>
        <time>2022-05-03T12:59:18Z</time>
      </trkpt>
      <trkpt lat="48.73582" lon="2.17953">
        <ele>142.6</ele>
        <time>2022-05-03T12:59:23Z</time>
      </trkpt>
      <trkpt lat="48.73584" lon="2.17963">
        <ele>142.4</ele>
        <time>2022-05-03T12:59:28Z</time>
      </trkpt>
      <trkpt lat="48.73587" lon="2.17974">
        <ele>142.3</ele>
        <time>2022-05-03T12:59:33Z</time>
      </trkpt>
      <trkpt lat="48.73588" lon="2.17985">
        <ele>142.2</ele>
        <time>2022-05-03T12:59:38Z</time>
      </trkpt>
      <trkpt lat="48.73592" lon="2.17994">
        <ele>142.1</ele>
        <time>2022-05-03T12:59:43Z</time>
      </trkpt>
      <trkpt lat="48.73592" lon="2.18007">
        <ele>142</ele>
        <time>2022-05-03T12:59:48Z</time>
      </trkpt>
      <trkpt lat="48.73596" lon="2.18018">
        <ele>142</ele>
        <time>2022-05-03T12:59:53Z</time>
      </trkpt>
      <trkpt lat="48.73599" lon="2.18032">
        <ele>142.1</ele>
        <time>2022-05-03T12:59:58Z</time>
      </trkpt>
      <trkpt lat="48.736" lon="2.18043">
        <ele>142.1</ele>
        <time>2022-05-03T13:00:04Z</time>
      </trkpt>
      <trkpt lat="48.73602" lon="2.18056">
        <ele>142.2</ele>
        <time>2022-05-03T13:00:09Z</time>
      </trkpt>
      <trkpt lat="48.73604" lon="2.18066">
        <ele>142.2</ele>
        <time>2022-05-03T13:00:14Z</time>
      </trkpt>
      <trkpt lat="48.73604" lon="2.18076">
        <ele>142.2</ele>
        <time>2022-05-03T13:00:19Z</time>
      </trkpt>
      <trkpt lat="48.73605" lon="2.18087">
        <ele>142.2</ele>
        <time>2022-05-03T13:00:24Z</time>
      </trkpt>
      <trkpt lat="48.73604" lon="2.18099">
        <ele>142</ele>
        <time>2022-05-03T13:00:29Z</time>
      </trkpt>
      <trkpt lat="48.73608" lon="2.18111">
        <ele>141.9</ele>
        <time>2022-05-03T13:00:34Z</time>
      </trkpt>
      <trkpt lat="48.73609" lon="2.18126">
        <ele>141.6</ele>
        <time>2022-05-03T13:00:39Z</time>
      </trkpt>
      <trkpt lat="48.73609" lon="2.18136">
        <ele>141.5</ele>
        <time>2022-05-03T13:00:44Z</time>
      </trkpt>
      <trkpt lat="48.73611" lon="2.18148">
        <ele>141.3</ele>
        <time>2022-05-03T13:00:49Z</time>
      </trkpt>
      <trkpt lat="48.73612" lon="2.18158">
        <ele>141.1</ele>
        <time>2022-05-03T13:00:54Z</time>
      </trkpt>
      <trkpt lat="48.73612" lon="2.1817">
        <ele>141</ele>
        <time>2022-05-03T13:01:01Z</time>
      </trkpt>
      <trkpt lat="48.73613" lon="2.18182">
        <ele>141.2</ele>
        <time>2022-05-03T13:01:06Z</time>
      </trkpt>
      <trkpt lat="48.73615" lon="2.18193">
        <ele>141.3</ele>
        <time>2022-05-03T13:01:11Z</time>
      </trkpt>
      <trkpt lat="48.73617" lon="2.18205">
        <ele>141.5</ele>
        <time>2022-05-03T13:01:17Z</time>
      </trkpt>
      <trkpt lat="48.73619" lon="2.18219">
        <ele>141.6</ele>
        <time>2022-05-03T13:01:22Z</time>
      </trkpt>
      <trkpt lat="48.7362" lon="2.18236">
        <ele>141.8</ele>
        <time>2022-05-03T13:01:27Z</time>
      </trkpt>
      <trkpt lat="48.7362" lon="2.18245">
        <ele>141.9</ele>
        <time>2022-05-03T13:01:32Z</time>
      </trkpt>
      <trkpt lat="48.7362" lon="2.18255">
        <ele>141.9</ele>
        <time>2022-05-03T13:01:37Z</time>
      </trkpt>
      <trkpt lat="48.73621" lon="2.18265">
        <ele>141.8</ele>
        <time>2022-05-03T13:01:42Z</time>
      </trkpt>
      <trkpt lat="48.73622" lon="2.18277">
        <ele>141.7</ele>
        <time>2022-05-03T13:01:48Z</time>
      </trkpt>
      <trkpt lat="48.73625" lon="2.18288">
        <ele>141.5</ele>
        <time>2022-05-03T13:01:54Z</time>
      </trkpt>
      <trkpt lat="48.73624" lon="2.18299">
        <ele>141.4</ele>
        <time>2022-05-03T13:02:00Z</time>
      </trkpt>
      <trkpt lat="48.73625" lon="2.18309">
        <ele>141.3</ele>
        <time>2022-05-03T13:02:05Z</time>
      </trkpt>
      <trkpt lat="48.73628" lon="2.1832">
        <ele>141.1</ele>
        <time>2022-05-03T13:02:10Z</time>
      </trkpt>
      <trkpt lat="48.73628" lon="2.18331">
        <ele>141</ele>
        <time>2022-05-03T13:02:15Z</time>
      </trkpt>
      <trkpt lat="48.7363" lon="2.18342">
        <ele>140.9</ele>
        <time>2022-05-03T13:02:20Z</time>
      </trkpt>
      <trkpt lat="48.73632" lon="2.18354">
        <ele>140.9</ele>
        <time>2022-05-03T13:02:25Z</time>
      </trkpt>
      <trkpt lat="48.73633" lon="2.18363">
        <ele>140.9</ele>
        <time>2022-05-03T13:02:30Z</time>
      </trkpt>
      <trkpt lat="48.73634" lon="2.18375">
        <ele>140.9</ele>
        <time>2022-05-03T13:02:35Z</time>
      </trkpt>
      <trkpt lat="48.73635" lon="2.18386">
        <ele>140.9</ele>
        <time>2022-05-03T13:02:41Z</time>
      </trkpt>
      <trkpt lat="48.73637" lon="2.18397">
        <ele>140.9</ele>
        <time>2022-05-03T13:02:46Z</time>
      </trkpt>
      <trkpt lat="48.73638" lon="2.18408">
        <ele>141</ele>
        <time>2022-05-03T13:02:51Z</time>
      </trkpt>
      <trkpt lat="48.73639" lon="2.1842">
        <ele>141</ele>
        <time>2022-05-03T13:02:56Z</time>
      </trkpt>
      <trkpt lat="48.73639" lon="2.1843">
        <ele>141</ele>
        <time>2022-05-03T13:03:01Z</time>
      </trkpt>
      <trkpt lat="48.73643" lon="2.1844">
        <ele>141</ele>
        <time>2022-05-03T13:03:26Z</time>
      </trkpt>
      <trkpt lat="48.73646" lon="2.1845">
        <ele>141</ele>
        <time>2022-05-03T13:03:32Z</time>
      </trkpt>
      <trkpt lat="48.73648" lon="2.18462">
        <ele>141</ele>
        <time>2022-05-03T13:03:37Z</time>
      </trkpt>
      <trkpt lat="48.73651" lon="2.18475">
        <ele>141</ele>
        <time>2022-05-03T13:03:42Z</time>
      </trkpt>
      <trkpt lat="48.73655" lon="2.18483">
        <ele>141</ele>
        <time>2022-05-03T13:03:47Z</time>
      </trkpt>
      <trkpt lat="48.73658" lon="2.18494">
        <ele>141</ele>
        <time>2022-05-03T13:03:52Z</time>
      </trkpt>
      <trkpt lat="48.73658" lon="2.18505">
        <ele>140.9</ele>
        <time>2022-05-03T13:03:58Z</time>
      </trkpt>
      <trkpt lat="48.73661" lon="2.18518">
        <ele>140.8</ele>
        <time>2022-05-03T13:04:03Z</time>
      </trkpt>
      <trkpt lat="48.73664" lon="2.18529">
        <ele>140.7</ele>
        <time>2022-05-03T13:04:08Z</time>
      </trkpt>
      <trkpt lat="48.73664" lon="2.18539">
        <ele>140.5</ele>
        <time>2022-05-03T13:04:13Z</time>
      </trkpt>
      <trkpt lat="48.73669" lon="2.1855">
        <ele>140.3</ele>
        <time>2022-05-03T13:04:18Z</time>
      </trkpt>
      <trkpt lat="48.73673" lon="2.1856">
        <ele>140.2</ele>
        <time>2022-05-03T13:04:23Z</time>
      </trkpt>
      <trkpt lat="48.73677" lon="2.18572">
        <ele>140</ele>
        <time>2022-05-03T13:04:28Z</time>
      </trkpt>
      <trkpt lat="48.73681" lon="2.1858">
        <ele>139.9</ele>
        <time>2022-05-03T13:04:33Z</time>
      </trkpt>
      <trkpt lat="48.73686" lon="2.18588">
        <ele>139.7</ele>
        <time>2022-05-03T13:04:38Z</time>
      </trkpt>
      <trkpt lat="48.73691" lon="2.18596">
        <ele>139.6</ele>
        <time>2022-05-03T13:04:43Z</time>
      </trkpt>
      <trkpt lat="48.73694" lon="2.18609">
        <ele>139.6</ele>
        <time>2022-05-03T13:04:48Z</time>
      </trkpt>
      <trkpt lat="48.73696" lon="2.18619">
        <ele>139.5</ele>
        <time>2022-05-03T13:04:53Z</time>
      </trkpt>
      <trkpt lat="48.73702" lon="2.18627">
        <ele>139.5</ele>
        <time>2022-05-03T13:04:58Z</time>
      </trkpt>
      <trkpt lat="48.73709" lon="2.18636">
        <ele>139.5</ele>
        <time>2022-05-03T13:05:03Z</time>
      </trkpt>
      <trkpt lat="48.73715" lon="2.18644">
        <ele>139.5</ele>
        <time>2022-05-03T13:05:08Z</time>
      </trkpt>
      <trkpt lat="48.73721" lon="2.18652">
        <ele>139.6</ele>
        <time>2022-05-03T13:05:13Z</time>
      </trkpt>
      <trkpt lat="48.73726" lon="2.1866">
        <ele>139.7</ele>
        <time>2022-05-03T13:05:19Z</time>
      </trkpt>
      <trkpt lat="48.73732" lon="2.18667">
        <ele>139.8</ele>
        <time>2022-05-03T13:05:24Z</time>
      </trkpt>
      <trkpt lat="48.73737" lon="2.18675">
        <ele>139.9</ele>
        <time>2022-05-03T13:05:30Z</time>
      </trkpt>
      <trkpt lat="48.73743" lon="2.18683">
        <ele>139.9</ele>
        <time>2022-05-03T13:05:35Z</time>
      </trkpt>
      <trkpt lat="48.73751" lon="2.18691">
        <ele>139.9</ele>
        <time>2022-05-03T13:05:40Z</time>
      </trkpt>
      <trkpt lat="48.73756" lon="2.18697">
        <ele>139.7</ele>
        <time>2022-05-03T13:05:45Z</time>
      </trkpt>
      <trkpt lat="48.73762" lon="2.18704">
        <ele>139.4</ele>
        <time>2022-05-03T13:05:50Z</time>
      </trkpt>
      <trkpt lat="48.73768" lon="2.18711">
        <ele>139</ele>
        <time>2022-05-03T13:05:55Z</time>
      </trkpt>
      <trkpt lat="48.73775" lon="2.18717">
        <ele>138.6</ele>
        <time>2022-05-03T13:06:00Z</time>
      </trkpt>
      <trkpt lat="48.7378" lon="2.18724">
        <ele>138.3</ele>
        <time>2022-05-03T13:06:05Z</time>
      </trkpt>
      <trkpt lat="48.73786" lon="2.18731">
        <ele>137.9</ele>
        <time>2022-05-03T13:06:10Z</time>
      </trkpt>
      <trkpt lat="48.73791" lon="2.18738">
        <ele>137.6</ele>
        <time>2022-05-03T13:06:15Z</time>
      </trkpt>
      <trkpt lat="48.73797" lon="2.18742">
        <ele>137.2</ele>
        <time>2022-05-03T13:06:20Z</time>
      </trkpt>
      <trkpt lat="48.73802" lon="2.1875">
        <ele>136.9</ele>
        <time>2022-05-03T13:06:25Z</time>
      </trkpt>
      <trkpt lat="48.73809" lon="2.18754">
        <ele>136.5</ele>
        <time>2022-05-03T13:06:38Z</time>
      </trkpt>
      <trkpt lat="48.73813" lon="2.18762">
        <ele>136.3</ele>
        <time>2022-05-03T13:06:46Z</time>
      </trkpt>
      <trkpt lat="48.7382" lon="2.18767">
        <ele>135.9</ele>
        <time>2022-05-03T13:06:56Z</time>
      </trkpt>
      <trkpt lat="48.73826" lon="2.1877">
        <ele>135.6</ele>
        <time>2022-05-03T13:07:01Z</time>
      </trkpt>
      <trkpt lat="48.73832" lon="2.18777">
        <ele>135.4</ele>
        <time>2022-05-03T13:07:08Z</time>
      </trkpt>
      <trkpt lat="48.73835" lon="2.18787">
        <ele>135.4</ele>
        <time>2022-05-03T13:07:13Z</time>
      </trkpt>
      <trkpt lat="48.7384" lon="2.18794">
        <ele>135.4</ele>
        <time>2022-05-03T13:07:19Z</time>
      </trkpt>
      <trkpt lat="48.73845" lon="2.18802">
        <ele>135.3</ele>
        <time>2022-05-03T13:07:25Z</time>
      </trkpt>
      <trkpt lat="48.73849" lon="2.18811">
        <ele>135.4</ele>
        <time>2022-05-03T13:07:30Z</time>
      </trkpt>
      <trkpt lat="48.73852" lon="2.18821">
        <ele>135.4</ele>
        <time>2022-05-03T13:07:35Z</time>
      </trkpt>
      <trkpt lat="48.73854" lon="2.18832">
        <ele>135.5</ele>
        <time>2022-05-03T13:07:41Z</time>
      </trkpt>
      <trkpt lat="48.73859" lon="2.18838">
        <ele>135.4</ele>
        <time>2022-05-03T13:07:47Z</time>
      </trkpt>
      <trkpt lat="48.73863" lon="2.18847">
        <ele>135.2</ele>
        <time>2022-05-03T13:07:52Z</time>
      </trkpt>
      <trkpt lat="48.73866" lon="2.1886">
        <ele>135.1</ele>
        <time>2022-05-03T13:07:57Z</time>
      </trkpt>
      <trkpt lat="48.73866" lon="2.1887">
        <ele>135.1</ele>
        <time>2022-05-03T13:08:02Z</time>
      </trkpt>
      <trkpt lat="48.73863" lon="2.1888">
        <ele>135.1</ele>
        <time>2022-05-03T13:08:11Z</time>
      </trkpt>
      <trkpt lat="48.73868" lon="2.18888">
        <ele>135.1</ele>
        <time>2022-05-03T13:08:18Z</time>
      </trkpt>
      <trkpt lat="48.73874" lon="2.18896">
        <ele>135</ele>
        <time>2022-05-03T13:08:24Z</time>
      </trkpt>
      <trkpt lat="48.73876" lon="2.18906">
        <ele>135</ele>
        <time>2022-05-03T13:10:28Z</time>
      </trkpt>
      <trkpt lat="48.73881" lon="2.18914">
        <ele>135</ele>
        <time>2022-05-03T13:10:35Z</time>
      </trkpt>
      <trkpt lat="48.73884" lon="2.18924">
        <ele>135</ele>
        <time>2022-05-03T13:10:42Z</time>
      </trkpt>
      <trkpt lat="48.73887" lon="2.18935">
        <ele>135</ele>
        <time>2022-05-03T13:10:49Z</time>
      </trkpt>
      <trkpt lat="48.73892" lon="2.18943">
        <ele>135</ele>
        <time>2022-05-03T13:10:55Z</time>
      </trkpt>
      <trkpt lat="48.73896" lon="2.18952">
        <ele>135.1</ele>
        <time>2022-05-03T13:11:01Z</time>
      </trkpt>
      <trkpt lat="48.73902" lon="2.18959">
        <ele>135.2</ele>
        <time>2022-05-03T13:11:06Z</time>
      </trkpt>
      <trkpt lat="48.73904" lon="2.18969">
        <ele>135.3</ele>
        <time>2022-05-03T13:11:13Z</time>
      </trkpt>
      <trkpt lat="48.73905" lon="2.18979">
        <ele>135.4</ele>
        <time>2022-05-03T13:11:18Z</time>
      </trkpt>
      <trkpt lat="48.73907" lon="2.18989">
        <ele>135.6</ele>
        <time>2022-05-03T13:11:23Z</time>
      </trkpt>
      <trkpt lat="48.73911" lon="2.18996">
        <ele>135.8</ele>
        <time>2022-05-03T13:11:28Z</time>
      </trkpt>
      <trkpt lat="48.73916" lon="2.19003">
        <ele>136</ele>
        <time>2022-05-03T13:11:33Z</time>
      </trkpt>
      <trkpt lat="48.73921" lon="2.19012">
        <ele>136.7</ele>
        <time>2022-05-03T13:11:40Z</time>
      </trkpt>
      <trkpt lat="48.73922" lon="2.19022">
        <ele>137.1</ele>
        <time>2022-05-03T13:11:52Z</time>
      </trkpt>
      <trkpt lat="48.73921" lon="2.19032">
        <ele>137.2</ele>
        <time>2022-05-03T13:12:02Z</time>
      </trkpt>
      <trkpt lat="48.7392" lon="2.19043">
        <ele>137.4</ele>
        <time>2022-05-03T13:12:11Z</time>
      </trkpt>
      <trkpt lat="48.73923" lon="2.19053">
        <ele>137.9</ele>
        <time>2022-05-03T13:12:49Z</time>
      </trkpt>
      <trkpt lat="48.73931" lon="2.19058">
        <ele>138.9</ele>
        <time>2022-05-03T13:13:27Z</time>
      </trkpt>
      <trkpt lat="48.73928" lon="2.19067">
        <ele>138.8</ele>
        <time>2022-05-03T13:13:35Z</time>
      </trkpt>
      <trkpt lat="48.73924" lon="2.19076">
        <ele>138.6</ele>
        <time>2022-05-03T13:13:49Z</time>
      </trkpt>
      <trkpt lat="48.73918" lon="2.19083">
        <ele>138.1</ele>
        <time>2022-05-03T13:13:54Z</time>
      </trkpt>
      <trkpt lat="48.73914" lon="2.19091">
        <ele>138.3</ele>
        <time>2022-05-03T13:14:01Z</time>
      </trkpt>
      <trkpt lat="48.73909" lon="2.19101">
        <ele>138.5</ele>
        <time>2022-05-03T13:14:06Z</time>
      </trkpt>
      <trkpt lat="48.73902" lon="2.19107">
        <ele>138.3</ele>
        <time>2022-05-03T13:14:11Z</time>
      </trkpt>
      <trkpt lat="48.73898" lon="2.19118">
        <ele>138.6</ele>
        <time>2022-05-03T13:14:28Z</time>
      </trkpt>
      <trkpt lat="48.73896" lon="2.19128">
        <ele>138.9</ele>
        <time>2022-05-03T13:14:34Z</time>
      </trkpt>
      <trkpt lat="48.73891" lon="2.19135">
        <ele>138.8</ele>
        <time>2022-05-03T13:14:40Z</time>
      </trkpt>
      <trkpt lat="48.73885" lon="2.19143">
        <ele>138.5</ele>
        <time>2022-05-03T13:14:45Z</time>
      </trkpt>
      <trkpt lat="48.7388" lon="2.19151">
        <ele>138.4</ele>
        <time>2022-05-03T13:14:50Z</time>
      </trkpt>
      <trkpt lat="48.73875" lon="2.19161">
        <ele>138.2</ele>
        <time>2022-05-03T13:14:55Z</time>
      </trkpt>
      <trkpt lat="48.73871" lon="2.19172">
        <ele>138.3</ele>
        <time>2022-05-03T13:15:00Z</time>
      </trkpt>
      <trkpt lat="48.73865" lon="2.19184">
        <ele>138.1</ele>
        <time>2022-05-03T13:15:05Z</time>
      </trkpt>
      <trkpt lat="48.73859" lon="2.19194">
        <ele>137.9</ele>
        <time>2022-05-03T13:15:10Z</time>
      </trkpt>
      <trkpt lat="48.73857" lon="2.19204">
        <ele>138.2</ele>
        <time>2022-05-03T13:15:15Z</time>
      </trkpt>
      <trkpt lat="48.73853" lon="2.19213">
        <ele>138.2</ele>
        <time>2022-05-03T13:15:20Z</time>
      </trkpt>
      <trkpt lat="48.73848" lon="2.19222">
        <ele>138.1</ele>
        <time>2022-05-03T13:15:25Z</time>
      </trkpt>
      <trkpt lat="48.73843" lon="2.19234">
        <ele>138.2</ele>
        <time>2022-05-03T13:15:30Z</time>
      </trkpt>
      <trkpt lat="48.7384" lon="2.19248">
        <ele>138.7</ele>
        <time>2022-05-03T13:15:35Z</time>
      </trkpt>
      <trkpt lat="48.73838" lon="2.19258">
        <ele>139</ele>
        <time>2022-05-03T13:15:40Z</time>
      </trkpt>
      <trkpt lat="48.73836" lon="2.19269">
        <ele>139.5</ele>
        <time>2022-05-03T13:15:45Z</time>
      </trkpt>
      <trkpt lat="48.73832" lon="2.19279">
        <ele>139.6</ele>
        <time>2022-05-03T13:15:51Z</time>
      </trkpt>
      <trkpt lat="48.73827" lon="2.1929">
        <ele>139.5</ele>
        <time>2022-05-03T13:15:56Z</time>
      </trkpt>
      <trkpt lat="48.73824" lon="2.19302">
        <ele>139.8</ele>
        <time>2022-05-03T13:16:01Z</time>
      </trkpt>
      <trkpt lat="48.7382" lon="2.19312">
        <ele>139.7</ele>
        <time>2022-05-03T13:16:06Z</time>
      </trkpt>
      <trkpt lat="48.73814" lon="2.1932">
        <ele>139.1</ele>
        <time>2022-05-03T13:16:11Z</time>
      </trkpt>
      <trkpt lat="48.73808" lon="2.19315">
        <ele>138</ele>
        <time>2022-05-03T13:16:16Z</time>
      </trkpt>
      <trkpt lat="48.73805" lon="2.19323">
        <ele>137.8</ele>
        <time>2022-05-03T13:16:37Z</time>
      </trkpt>
      <trkpt lat="48.738" lon="2.1933">
        <ele>137.3</ele>
        <time>2022-05-03T13:16:42Z</time>
      </trkpt>
      <trkpt lat="48.73796" lon="2.1934">
        <ele>136.9</ele>
        <time>2022-05-03T13:16:48Z</time>
      </trkpt>
      <trkpt lat="48.73791" lon="2.19349">
        <ele>136.4</ele>
        <time>2022-05-03T13:16:53Z</time>
      </trkpt>
      <trkpt lat="48.73785" lon="2.19359">
        <ele>135.6</ele>
        <time>2022-05-03T13:16:58Z</time>
      </trkpt>
      <trkpt lat="48.73782" lon="2.19369">
        <ele>135.3</ele>
        <time>2022-05-03T13:17:03Z</time>
      </trkpt>
      <trkpt lat="48.73782" lon="2.19379">
        <ele>135.6</ele>
        <time>2022-05-03T13:17:12Z</time>
      </trkpt>
      <trkpt lat="48.73779" lon="2.19388">
        <ele>135.2</ele>
        <time>2022-05-03T13:17:19Z</time>
      </trkpt>
      <trkpt lat="48.73778" lon="2.194">
        <ele>135.3</ele>
        <time>2022-05-03T13:17:39Z</time>
      </trkpt>
      <trkpt lat="48.73772" lon="2.1941">
        <ele>134.3</ele>
        <time>2022-05-03T13:17:44Z</time>
      </trkpt>
      <trkpt lat="48.73767" lon="2.1942">
        <ele>133.6</ele>
        <time>2022-05-03T13:17:49Z</time>
      </trkpt>
      <trkpt lat="48.73763" lon="2.19429">
        <ele>133.2</ele>
        <time>2022-05-03T13:17:54Z</time>
      </trkpt>
      <trkpt lat="48.73761" lon="2.19439">
        <ele>133.2</ele>
        <time>2022-05-03T13:17:59Z</time>
      </trkpt>
      <trkpt lat="48.7376" lon="2.1945">
        <ele>133.5</ele>
        <time>2022-05-03T13:18:05Z</time>
      </trkpt>
      <trkpt lat="48.73757" lon="2.19462">
        <ele>133.5</ele>
        <time>2022-05-03T13:18:10Z</time>
      </trkpt>
      <trkpt lat="48.73756" lon="2.19473">
        <ele>133.8</ele>
        <time>2022-05-03T13:18:15Z</time>
      </trkpt>
      <trkpt lat="48.73754" lon="2.19484">
        <ele>134</ele>
        <time>2022-05-03T13:18:22Z</time>
      </trkpt>
      <trkpt lat="48.7375" lon="2.19492">
        <ele>133.6</ele>
        <time>2022-05-03T13:18:27Z</time>
      </trkpt>
      <trkpt lat="48.73747" lon="2.19503">
        <ele>133.7</ele>
        <time>2022-05-03T13:18:35Z</time>
      </trkpt>
      <trkpt lat="48.73747" lon="2.19514">
        <ele>134.5</ele>
        <time>2022-05-03T13:18:40Z</time>
      </trkpt>
      <trkpt lat="48.73743" lon="2.19524">
        <ele>134.5</ele>
        <time>2022-05-03T13:18:45Z</time>
      </trkpt>
      <trkpt lat="48.73739" lon="2.19532">
        <ele>134.3</ele>
        <time>2022-05-03T13:18:50Z</time>
      </trkpt>
      <trkpt lat="48.73736" lon="2.19543">
        <ele>134.5</ele>
        <time>2022-05-03T13:18:55Z</time>
      </trkpt>
      <trkpt lat="48.73735" lon="2.19553">
        <ele>135</ele>
        <time>2022-05-03T13:19:01Z</time>
      </trkpt>
      <trkpt lat="48.73731" lon="2.19563">
        <ele>134.8</ele>
        <time>2022-05-03T13:19:08Z</time>
      </trkpt>
      <trkpt lat="48.73727" lon="2.19575">
        <ele>134.8</ele>
        <time>2022-05-03T13:19:13Z</time>
      </trkpt>
      <trkpt lat="48.73722" lon="2.19586">
        <ele>134.4</ele>
        <time>2022-05-03T13:19:18Z</time>
      </trkpt>
      <trkpt lat="48.73723" lon="2.19596">
        <ele>135.2</ele>
        <time>2022-05-03T13:19:24Z</time>
      </trkpt>
      <trkpt lat="48.73718" lon="2.19604">
        <ele>134.6</ele>
        <time>2022-05-03T13:19:51Z</time>
      </trkpt>
      <trkpt lat="48.73718" lon="2.19614">
        <ele>135.2</ele>
        <time>2022-05-03T13:19:57Z</time>
      </trkpt>
      <trkpt lat="48.73717" lon="2.19625">
        <ele>135.6</ele>
        <time>2022-05-03T13:20:02Z</time>
      </trkpt>
      <trkpt lat="48.73713" lon="2.19637">
        <ele>135.4</ele>
        <time>2022-05-03T13:20:07Z</time>
      </trkpt>
      <trkpt lat="48.73709" lon="2.19651">
        <ele>135.3</ele>
        <time>2022-05-03T13:20:12Z</time>
      </trkpt>
      <trkpt lat="48.73706" lon="2.19661">
        <ele>135.2</ele>
        <time>2022-05-03T13:20:17Z</time>
      </trkpt>
      <trkpt lat="48.73703" lon="2.19671">
        <ele>135.2</ele>
        <time>2022-05-03T13:20:22Z</time>
      </trkpt>
      <trkpt lat="48.73699" lon="2.19681">
        <ele>135.1</ele>
        <time>2022-05-03T13:20:28Z</time>
      </trkpt>
      <trkpt lat="48.73694" lon="2.19688">
        <ele>134.7</ele>
        <time>2022-05-03T13:20:33Z</time>
      </trkpt>
      <trkpt lat="48.73689" lon="2.19697">
        <ele>134.5</ele>
        <time>2022-05-03T13:20:38Z</time>
      </trkpt>
      <trkpt lat="48.73686" lon="2.19707">
        <ele>134.9</ele>
        <time>2022-05-03T13:20:43Z</time>
      </trkpt>
      <trkpt lat="48.73683" lon="2.19717">
        <ele>135.3</ele>
        <time>2022-05-03T13:20:48Z</time>
      </trkpt>
      <trkpt lat="48.73679" lon="2.19728">
        <ele>135.6</ele>
        <time>2022-05-03T13:20:53Z</time>
      </trkpt>
      <trkpt lat="48.73674" lon="2.19739">
        <ele>135.9</ele>
        <time>2022-05-03T13:20:58Z</time>
      </trkpt>
      <trkpt lat="48.73671" lon="2.19749">
        <ele>136.5</ele>
        <time>2022-05-03T13:21:03Z</time>
      </trkpt>
      <trkpt lat="48.73669" lon="2.19759">
        <ele>137</ele>
        <time>2022-05-03T13:21:12Z</time>
      </trkpt>
      <trkpt lat="48.73667" lon="2.19772">
        <ele>137.6</ele>
        <time>2022-05-03T13:21:17Z</time>
      </trkpt>
      <trkpt lat="48.73664" lon="2.19784">
        <ele>137.7</ele>
        <time>2022-05-03T13:21:22Z</time>
      </trkpt>
      <trkpt lat="48.73658" lon="2.19792">
        <ele>136.6</ele>
        <time>2022-05-03T13:21:27Z</time>
      </trkpt>
      <trkpt lat="48.73654" lon="2.198">
        <ele>136.1</ele>
        <time>2022-05-03T13:21:32Z</time>
      </trkpt>
      <trkpt lat="48.7365" lon="2.19808">
        <ele>135.5</ele>
        <time>2022-05-03T13:21:38Z</time>
      </trkpt>
      <trkpt lat="48.73646" lon="2.19818">
        <ele>135</ele>
        <time>2022-05-03T13:21:43Z</time>
      </trkpt>
      <trkpt lat="48.73643" lon="2.19829">
        <ele>134.9</ele>
        <time>2022-05-03T13:21:48Z</time>
      </trkpt>
      <trkpt lat="48.7364" lon="2.19839">
        <ele>134.5</ele>
        <time>2022-05-03T13:21:53Z</time>
      </trkpt>
      <trkpt lat="48.73637" lon="2.1985">
        <ele>134</ele>
        <time>2022-05-03T13:21:58Z</time>
      </trkpt>
      <trkpt lat="48.73636" lon="2.1986">
        <ele>134</ele>
        <time>2022-05-03T13:22:03Z</time>
      </trkpt>
      <trkpt lat="48.73637" lon="2.19871">
        <ele>134.7</ele>
        <time>2022-05-03T13:22:08Z</time>
      </trkpt>
      <trkpt lat="48.73632" lon="2.19879">
        <ele>133.6</ele>
        <time>2022-05-03T13:22:27Z</time>
      </trkpt>
      <trkpt lat="48.73632" lon="2.19894">
        <ele>134.1</ele>
        <time>2022-05-03T13:22:32Z</time>
      </trkpt>
      <trkpt lat="48.73631" lon="2.19904">
        <ele>134.1</ele>
        <time>2022-05-03T13:22:38Z</time>
      </trkpt>
      <trkpt lat="48.73629" lon="2.19914">
        <ele>134</ele>
        <time>2022-05-03T13:22:45Z</time>
      </trkpt>
      <trkpt lat="48.73628" lon="2.19925">
        <ele>133.6</ele>
        <time>2022-05-03T13:22:50Z</time>
      </trkpt>
      <trkpt lat="48.73627" lon="2.19938">
        <ele>133.2</ele>
        <time>2022-05-03T13:22:55Z</time>
      </trkpt>
      <trkpt lat="48.73625" lon="2.19953">
        <ele>132.3</ele>
        <time>2022-05-03T13:23:00Z</time>
      </trkpt>
      <trkpt lat="48.73626" lon="2.19965">
        <ele>132.4</ele>
        <time>2022-05-03T13:23:05Z</time>
      </trkpt>
      <trkpt lat="48.73629" lon="2.19975">
        <ele>133</ele>
        <time>2022-05-03T13:23:11Z</time>
      </trkpt>
      <trkpt lat="48.73631" lon="2.19988">
        <ele>133.4</ele>
        <time>2022-05-03T13:23:16Z</time>
      </trkpt>
      <trkpt lat="48.73631" lon="2.2">
        <ele>133.2</ele>
        <time>2022-05-03T13:23:21Z</time>
      </trkpt>
      <trkpt lat="48.73631" lon="2.20013">
        <ele>133</ele>
        <time>2022-05-03T13:23:26Z</time>
      </trkpt>
      <trkpt lat="48.73631" lon="2.20024">
        <ele>132.9</ele>
        <time>2022-05-03T13:23:31Z</time>
      </trkpt>
      <trkpt lat="48.7363" lon="2.20036">
        <ele>132.5</ele>
        <time>2022-05-03T13:23:36Z</time>
      </trkpt>
      <trkpt lat="48.73629" lon="2.20047">
        <ele>132.1</ele>
        <time>2022-05-03T13:23:42Z</time>
      </trkpt>
      <trkpt lat="48.73628" lon="2.20058">
        <ele>131.7</ele>
        <time>2022-05-03T13:23:47Z</time>
      </trkpt>
      <trkpt lat="48.7363" lon="2.2007">
        <ele>132.1</ele>
        <time>2022-05-03T13:23:53Z</time>
      </trkpt>
      <trkpt lat="48.73633" lon="2.20084">
        <ele>132.9</ele>
        <time>2022-05-03T13:23:58Z</time>
      </trkpt>
      <trkpt lat="48.73633" lon="2.20098">
        <ele>131.8</ele>
        <time>2022-05-03T13:24:03Z</time>
      </trkpt>
      <trkpt lat="48.73632" lon="2.2011">
        <ele>130.7</ele>
        <time>2022-05-03T13:24:08Z</time>
      </trkpt>
      <trkpt lat="48.73632" lon="2.2012">
        <ele>130</ele>
        <time>2022-05-03T13:24:14Z</time>
      </trkpt>
      <trkpt lat="48.73637" lon="2.20131">
        <ele>130.7</ele>
        <time>2022-05-03T13:25:00Z</time>
      </trkpt>
      <trkpt lat="48.73638" lon="2.20142">
        <ele>130.2</ele>
        <time>2022-05-03T13:25:06Z</time>
      </trkpt>
      <trkpt lat="48.73636" lon="2.20151">
        <ele>128.9</ele>
        <time>2022-05-03T13:25:12Z</time>
      </trkpt>
      <trkpt lat="48.73635" lon="2.20162">
        <ele>127.8</ele>
        <time>2022-05-03T13:25:19Z</time>
      </trkpt>
      <trkpt lat="48.73634" lon="2.20174">
        <ele>126.6</ele>
        <time>2022-05-03T13:25:24Z</time>
      </trkpt>
      <trkpt lat="48.73636" lon="2.20186">
        <ele>126.3</ele>
        <time>2022-05-03T13:25:29Z</time>
      </trkpt>
      <trkpt lat="48.73637" lon="2.20197">
        <ele>125.7</ele>
        <time>2022-05-03T13:25:34Z</time>
      </trkpt>
      <trkpt lat="48.73639" lon="2.20207">
        <ele>125.5</ele>
        <time>2022-05-03T13:25:39Z</time>
      </trkpt>
      <trkpt lat="48.7364" lon="2.20217">
        <ele>125</ele>
        <time>2022-05-03T13:25:44Z</time>
      </trkpt>
      <trkpt lat="48.73643" lon="2.20228">
        <ele>125</ele>
        <time>2022-05-03T13:25:49Z</time>
      </trkpt>
      <trkpt lat="48.73646" lon="2.20237">
        <ele>125.1</ele>
        <time>2022-05-03T13:25:54Z</time>
      </trkpt>
      <trkpt lat="48.73648" lon="2.20247">
        <ele>124.9</ele>
        <time>2022-05-03T13:25:59Z</time>
      </trkpt>
      <trkpt lat="48.73652" lon="2.20259">
        <ele>125.6</ele>
        <time>2022-05-03T13:26:04Z</time>
      </trkpt>
      <trkpt lat="48.73652" lon="2.20271">
        <ele>125.4</ele>
        <time>2022-05-03T13:26:10Z</time>
      </trkpt>
      <trkpt lat="48.73651" lon="2.20282">
        <ele>124.9</ele>
        <time>2022-05-03T13:26:15Z</time>
      </trkpt>
      <trkpt lat="48.7365" lon="2.20295">
        <ele>124.4</ele>
        <time>2022-05-03T13:26:20Z</time>
      </trkpt>
      <trkpt lat="48.73648" lon="2.20305">
        <ele>123.7</ele>
        <time>2022-05-03T13:26:25Z</time>
      </trkpt>
      <trkpt lat="48.73648" lon="2.20315">
        <ele>123.6</ele>
        <time>2022-05-03T13:26:31Z</time>
      </trkpt>
      <trkpt lat="48.7365" lon="2.20326">
        <ele>123.9</ele>
        <time>2022-05-03T13:26:37Z</time>
      </trkpt>
      <trkpt lat="48.7365" lon="2.20337">
        <ele>124</ele>
        <time>2022-05-03T13:27:10Z</time>
      </trkpt>
      <trkpt lat="48.73655" lon="2.20346">
        <ele>125.8</ele>
        <time>2022-05-03T13:27:19Z</time>
      </trkpt>
      <trkpt lat="48.73656" lon="2.20356">
        <ele>126.6</ele>
        <time>2022-05-03T13:27:27Z</time>
      </trkpt>
      <trkpt lat="48.73653" lon="2.20367">
        <ele>126.5</ele>
        <time>2022-05-03T13:27:32Z</time>
      </trkpt>
      <trkpt lat="48.73651" lon="2.20377">
        <ele>126.6</ele>
        <time>2022-05-03T13:27:38Z</time>
      </trkpt>
      <trkpt lat="48.73646" lon="2.20389">
        <ele>126</ele>
        <time>2022-05-03T13:27:43Z</time>
      </trkpt>
      <trkpt lat="48.73642" lon="2.20398">
        <ele>125.4</ele>
        <time>2022-05-03T13:27:48Z</time>
      </trkpt>
      <trkpt lat="48.73636" lon="2.20405">
        <ele>124.3</ele>
        <time>2022-05-03T13:27:53Z</time>
      </trkpt>
      <trkpt lat="48.73629" lon="2.20411">
        <ele>122.7</ele>
        <time>2022-05-03T13:27:58Z</time>
      </trkpt>
      <trkpt lat="48.73624" lon="2.20417">
        <ele>121.8</ele>
        <time>2022-05-03T13:28:03Z</time>
      </trkpt>
      <trkpt lat="48.73619" lon="2.20424">
        <ele>121.1</ele>
        <time>2022-05-03T13:28:08Z</time>
      </trkpt>
      <trkpt lat="48.73615" lon="2.20435">
        <ele>121</ele>
        <time>2022-05-03T13:28:18Z</time>
      </trkpt>
      <trkpt lat="48.73619" lon="2.20444">
        <ele>122.9</ele>
        <time>2022-05-03T13:28:36Z</time>
      </trkpt>
      <trkpt lat="48.73613" lon="2.2045">
        <ele>121.8</ele>
        <time>2022-05-03T13:28:43Z</time>
      </trkpt>
      <trkpt lat="48.73608" lon="2.20456">
        <ele>120.9</ele>
        <time>2022-05-03T13:28:48Z</time>
      </trkpt>
      <trkpt lat="48.73604" lon="2.20465">
        <ele>120.5</ele>
        <time>2022-05-03T13:28:53Z</time>
      </trkpt>
      <trkpt lat="48.73602" lon="2.20475">
        <ele>120.8</ele>
        <time>2022-05-03T13:28:58Z</time>
      </trkpt>
      <trkpt lat="48.73601" lon="2.20485">
        <ele>121.3</ele>
        <time>2022-05-03T13:29:04Z</time>
      </trkpt>
      <trkpt lat="48.73597" lon="2.20494">
        <ele>120.8</ele>
        <time>2022-05-03T13:29:09Z</time>
      </trkpt>
      <trkpt lat="48.73594" lon="2.20505">
        <ele>120.5</ele>
        <time>2022-05-03T13:29:15Z</time>
      </trkpt>
      <trkpt lat="48.73594" lon="2.20515">
        <ele>120.9</ele>
        <time>2022-05-03T13:29:21Z</time>
      </trkpt>
      <trkpt lat="48.73594" lon="2.20525">
        <ele>121.3</ele>
        <time>2022-05-03T13:29:27Z</time>
      </trkpt>
      <trkpt lat="48.73597" lon="2.20536">
        <ele>122.6</ele>
        <time>2022-05-03T13:29:32Z</time>
      </trkpt>
      <trkpt lat="48.73601" lon="2.20546">
        <ele>124.3</ele>
        <time>2022-05-03T13:29:37Z</time>
      </trkpt>
      <trkpt lat="48.73603" lon="2.20558">
        <ele>125.4</ele>
        <time>2022-05-03T13:29:42Z</time>
      </trkpt>
      <trkpt lat="48.73605" lon="2.20568">
        <ele>126.4</ele>
        <time>2022-05-03T13:29:47Z</time>
      </trkpt>
      <trkpt lat="48.73607" lon="2.20579">
        <ele>127.5</ele>
        <time>2022-05-03T13:29:52Z</time>
      </trkpt>
      <trkpt lat="48.73609" lon="2.20589">
        <ele>128.5</ele>
        <time>2022-05-03T13:29:57Z</time>
      </trkpt>
      <trkpt lat="48.7361" lon="2.206">
        <ele>129.1</ele>
        <time>2022-05-03T13:30:22Z</time>
      </trkpt>
      <trkpt lat="48.73616" lon="2.20607">
        <ele>131</ele>
        <time>2022-05-03T13:30:27Z</time>
      </trkpt>
      <trkpt lat="48.7362" lon="2.20617">
        <ele>132.3</ele>
        <time>2022-05-03T13:30:32Z</time>
      </trkpt>
      <trkpt lat="48.73622" lon="2.20627">
        <ele>133</ele>
        <time>2022-05-03T13:30:37Z</time>
      </trkpt>
      <trkpt lat="48.73624" lon="2.20637">
        <ele>133.6</ele>
        <time>2022-05-03T13:30:42Z</time>
      </trkpt>
      <trkpt lat="48.73625" lon="2.20648">
        <ele>133.9</ele>
        <time>2022-05-03T13:30:47Z</time>
      </trkpt>
      <trkpt lat="48.73631" lon="2.20653">
        <ele>135.3</ele>
        <time>2022-05-03T13:30:56Z</time>
      </trkpt>
      <trkpt lat="48.73637" lon="2.20652">
        <ele>136.7</ele>
        <time>2022-05-03T13:31:04Z</time>
      </trkpt>
      <trkpt lat="48.73638" lon="2.20662">
        <ele>136.9</ele>
        <time>2022-05-03T13:31:19Z</time>
      </trkpt>
      <trkpt lat="48.73641" lon="2.20674">
        <ele>137</ele>
        <time>2022-05-03T13:31:25Z</time>
      </trkpt>
      <trkpt lat="48.73642" lon="2.20684">
        <ele>136.6</ele>
        <time>2022-05-03T13:31:31Z</time>
      </trkpt>
      <trkpt lat="48.73646" lon="2.20691">
        <ele>137.1</ele>
        <time>2022-05-03T13:31:37Z</time>
      </trkpt>
      <trkpt lat="48.73646" lon="2.20703">
        <ele>136.4</ele>
        <time>2022-05-03T13:31:42Z</time>
      </trkpt>
      <trkpt lat="48.73648" lon="2.20713">
        <ele>136.2</ele>
        <time>2022-05-03T13:31:47Z</time>
      </trkpt>
      <trkpt lat="48.73644" lon="2.20727">
        <ele>134.5</ele>
        <time>2022-05-03T13:31:52Z</time>
      </trkpt>
      <trkpt lat="48.73642" lon="2.20737">
        <ele>133.5</ele>
        <time>2022-05-03T13:31:58Z</time>
      </trkpt>
      <trkpt lat="48.73639" lon="2.20747">
        <ele>132.2</ele>
        <time>2022-05-03T13:32:05Z</time>
      </trkpt>
      <trkpt lat="48.7364" lon="2.20736">
        <ele>133.1</ele>
        <time>2022-05-03T13:32:14Z</time>
      </trkpt>
      <trkpt lat="48.73633" lon="2.2074">
        <ele>131.3</ele>
        <time>2022-05-03T13:32:20Z</time>
      </trkpt>
      <trkpt lat="48.7363" lon="2.2075">
        <ele>130.1</ele>
        <time>2022-05-03T13:32:27Z</time>
      </trkpt>
      <trkpt lat="48.73626" lon="2.20759">
        <ele>128.8</ele>
        <time>2022-05-03T13:32:35Z</time>
      </trkpt>
      <trkpt lat="48.73622" lon="2.20768">
        <ele>127.6</ele>
        <time>2022-05-03T13:32:41Z</time>
      </trkpt>
      <trkpt lat="48.73619" lon="2.20778">
        <ele>126.4</ele>
        <time>2022-05-03T13:32:47Z</time>
      </trkpt>
      <trkpt lat="48.73613" lon="2.20785">
        <ele>124.6</ele>
        <time>2022-05-03T13:32:53Z</time>
      </trkpt>
      <trkpt lat="48.73612" lon="2.20795">
        <ele>123.9</ele>
        <time>2022-05-03T13:33:00Z</time>
      </trkpt>
      <trkpt lat="48.73608" lon="2.20804">
        <ele>122.4</ele>
        <time>2022-05-03T13:33:07Z</time>
      </trkpt>
      <trkpt lat="48.73603" lon="2.20817">
        <ele>120.4</ele>
        <time>2022-05-03T13:33:12Z</time>
      </trkpt>
      <trkpt lat="48.73597" lon="2.20829">
        <ele>118</ele>
        <time>2022-05-03T13:33:17Z</time>
      </trkpt>
      <trkpt lat="48.73594" lon="2.20842">
        <ele>116.2</ele>
        <time>2022-05-03T13:33:22Z</time>
      </trkpt>
      <trkpt lat="48.73593" lon="2.20855">
        <ele>114.7</ele>
        <time>2022-05-03T13:33:27Z</time>
      </trkpt>
      <trkpt lat="48.73591" lon="2.20871">
        <ele>112.7</ele>
        <time>2022-05-03T13:33:32Z</time>
      </trkpt>
      <trkpt lat="48.73589" lon="2.20882">
        <ele>111.1</ele>
        <time>2022-05-03T13:33:37Z</time>
      </trkpt>
      <trkpt lat="48.73588" lon="2.20893">
        <ele>109.7</ele>
        <time>2022-05-03T13:33:43Z</time>
      </trkpt>
      <trkpt lat="48.73586" lon="2.20906">
        <ele>107.9</ele>
        <time>2022-05-03T13:33:48Z</time>
      </trkpt>
      <trkpt lat="48.73584" lon="2.20916">
        <ele>106.3</ele>
        <time>2022-05-03T13:33:55Z</time>
      </trkpt>
      <trkpt lat="48.7359" lon="2.20922">
        <ele>107.6</ele>
        <time>2022-05-03T13:34:04Z</time>
      </trkpt>
      <trkpt lat="48.73598" lon="2.20921">
        <ele>110.3</ele>
        <time>2022-05-03T13:34:10Z</time>
      </trkpt>
      <trkpt lat="48.73604" lon="2.20919">
        <ele>112.5</ele>
        <time>2022-05-03T13:34:19Z</time>
      </trkpt>
      <trkpt lat="48.7361" lon="2.20915">
        <ele>114.8</ele>
        <time>2022-05-03T13:34:25Z</time>
      </trkpt>
      <trkpt lat="48.73618" lon="2.20918">
        <ele>117.1</ele>
        <time>2022-05-03T13:34:31Z</time>
      </trkpt>
      <trkpt lat="48.73624" lon="2.20923">
        <ele>118.6</ele>
        <time>2022-05-03T13:34:40Z</time>
      </trkpt>
      <trkpt lat="48.73631" lon="2.20923">
        <ele>120.8</ele>
        <time>2022-05-03T13:34:47Z</time>
      </trkpt>
      <trkpt lat="48.73637" lon="2.2092">
        <ele>123.1</ele>
        <time>2022-05-03T13:35:05Z</time>
      </trkpt>
      <trkpt lat="48.73644" lon="2.20923">
        <ele>125</ele>
        <time>2022-05-03T13:35:13Z</time>
      </trkpt>
      <trkpt lat="48.73648" lon="2.20932">
        <ele>125.5</ele>
        <time>2022-05-03T13:35:18Z</time>
      </trkpt>
      <trkpt lat="48.73651" lon="2.20942">
        <ele>125.5</ele>
        <time>2022-05-03T13:35:23Z</time>
      </trkpt>
      <trkpt lat="48.73654" lon="2.20954">
        <ele>125.3</ele>
        <time>2022-05-03T13:35:28Z</time>
      </trkpt>
      <trkpt lat="48.7366" lon="2.20961">
        <ele>126.6</ele>
        <time>2022-05-03T13:35:37Z</time>
      </trkpt>
      <trkpt lat="48.73665" lon="2.2097">
        <ele>127.3</ele>
        <time>2022-05-03T13:35:42Z</time>
      </trkpt>
      <trkpt lat="48.7367" lon="2.20977">
        <ele>128.1</ele>
        <time>2022-05-03T13:35:47Z</time>
      </trkpt>
      <trkpt lat="48.73674" lon="2.20987">
        <ele>128.4</ele>
        <time>2022-05-03T13:35:53Z</time>
      </trkpt>
      <trkpt lat="48.7368" lon="2.20994">
        <ele>129.5</ele>
        <time>2022-05-03T13:35:59Z</time>
      </trkpt>
      <trkpt lat="48.73684" lon="2.21003">
        <ele>129.8</ele>
        <time>2022-05-03T13:36:04Z</time>
      </trkpt>
      <trkpt lat="48.73687" lon="2.21013">
        <ele>129.3</ele>
        <time>2022-05-03T13:36:09Z</time>
      </trkpt>
      <trkpt lat="48.73689" lon="2.21023">
        <ele>128.6</ele>
        <time>2022-05-03T13:36:14Z</time>
      </trkpt>
      <trkpt lat="48.73693" lon="2.21034">
        <ele>128.4</ele>
        <time>2022-05-03T13:36:19Z</time>
      </trkpt>
      <trkpt lat="48.73697" lon="2.21044">
        <ele>128.3</ele>
        <time>2022-05-03T13:36:24Z</time>
      </trkpt>
      <trkpt lat="48.737" lon="2.21057">
        <ele>127.6</ele>
        <time>2022-05-03T13:36:29Z</time>
      </trkpt>
      <trkpt lat="48.73703" lon="2.21068">
        <ele>127.2</ele>
        <time>2022-05-03T13:36:34Z</time>
      </trkpt>
      <trkpt lat="48.73706" lon="2.2108">
        <ele>126.6</ele>
        <time>2022-05-03T13:36:39Z</time>
      </trkpt>
      <trkpt lat="48.73706" lon="2.21092">
        <ele>125.4</ele>
        <time>2022-05-03T13:36:44Z</time>
      </trkpt>
      <trkpt lat="48.73705" lon="2.21103">
        <ele>124</ele>
        <time>2022-05-03T13:36:51Z</time>
      </trkpt>
      <trkpt lat="48.73712" lon="2.21099">
        <ele>126.7</ele>
        <time>2022-05-03T13:37:13Z</time>
      </trkpt>
      <trkpt lat="48.73713" lon="2.21111">
        <ele>125.9</ele>
        <time>2022-05-03T13:37:19Z</time>
      </trkpt>
      <trkpt lat="48.73714" lon="2.21123">
        <ele>125</ele>
        <time>2022-05-03T13:37:24Z</time>
      </trkpt>
      <trkpt lat="48.73714" lon="2.21136">
        <ele>123.8</ele>
        <time>2022-05-03T13:37:29Z</time>
      </trkpt>
      <trkpt lat="48.73716" lon="2.21149">
        <ele>123.1</ele>
        <time>2022-05-03T13:37:34Z</time>
      </trkpt>
      <trkpt lat="48.73719" lon="2.21159">
        <ele>123.1</ele>
        <time>2022-05-03T13:37:39Z</time>
      </trkpt>
      <trkpt lat="48.7372" lon="2.21172">
        <ele>122.2</ele>
        <time>2022-05-03T13:37:44Z</time>
      </trkpt>
      <trkpt lat="48.73724" lon="2.21184">
        <ele>122.6</ele>
        <time>2022-05-03T13:37:49Z</time>
      </trkpt>
      <trkpt lat="48.73724" lon="2.21195">
        <ele>121.7</ele>
        <time>2022-05-03T13:37:55Z</time>
      </trkpt>
      <trkpt lat="48.73728" lon="2.21205">
        <ele>122.2</ele>
        <time>2022-05-03T13:38:01Z</time>
      </trkpt>
      <trkpt lat="48.73733" lon="2.21216">
        <ele>122.8</ele>
        <time>2022-05-03T13:38:06Z</time>
      </trkpt>
      <trkpt lat="48.73737" lon="2.21225">
        <ele>123.3</ele>
        <time>2022-05-03T13:38:11Z</time>
      </trkpt>
      <trkpt lat="48.73743" lon="2.21234">
        <ele>124.3</ele>
        <time>2022-05-03T13:38:16Z</time>
      </trkpt>
      <trkpt lat="48.73749" lon="2.21242">
        <ele>125.4</ele>
        <time>2022-05-03T13:38:21Z</time>
      </trkpt>
      <trkpt lat="48.73752" lon="2.21251">
        <ele>125.4</ele>
        <time>2022-05-03T13:38:27Z</time>
      </trkpt>
      <trkpt lat="48.73755" lon="2.21263">
        <ele>125.1</ele>
        <time>2022-05-03T13:38:34Z</time>
      </trkpt>
      <trkpt lat="48.73757" lon="2.21274">
        <ele>124.6</ele>
        <time>2022-05-03T13:38:40Z</time>
      </trkpt>
      <trkpt lat="48.7376" lon="2.21283">
        <ele>124.7</ele>
        <time>2022-05-03T13:38:45Z</time>
      </trkpt>
      <trkpt lat="48.73764" lon="2.21294">
        <ele>124.8</ele>
        <time>2022-05-03T13:38:50Z</time>
      </trkpt>
      <trkpt lat="48.7377" lon="2.21305">
        <ele>125.6</ele>
        <time>2022-05-03T13:38:55Z</time>
      </trkpt>
      <trkpt lat="48.73776" lon="2.21315">
        <ele>126.6</ele>
        <time>2022-05-03T13:39:00Z</time>
      </trkpt>
      <trkpt lat="48.7378" lon="2.21326">
        <ele>126.9</ele>
        <time>2022-05-03T13:39:05Z</time>
      </trkpt>
      <trkpt lat="48.73785" lon="2.21335">
        <ele>127.8</ele>
        <time>2022-05-03T13:39:10Z</time>
      </trkpt>
      <trkpt lat="48.73791" lon="2.21342">
        <ele>128.9</ele>
        <time>2022-05-03T13:39:15Z</time>
      </trkpt>
      <trkpt lat="48.73797" lon="2.21352">
        <ele>129.7</ele>
        <time>2022-05-03T13:39:20Z</time>
      </trkpt>
      <trkpt lat="48.73802" lon="2.2136">
        <ele>130.3</ele>
        <time>2022-05-03T13:39:25Z</time>
      </trkpt>
      <trkpt lat="48.73808" lon="2.2137">
        <ele>130.9</ele>
        <time>2022-05-03T13:39:30Z</time>
      </trkpt>
      <trkpt lat="48.73813" lon="2.21377">
        <ele>131.5</ele>
        <time>2022-05-03T13:39:35Z</time>
      </trkpt>
      <trkpt lat="48.73817" lon="2.21387">
        <ele>131.5</ele>
        <time>2022-05-03T13:39:40Z</time>
      </trkpt>
      <trkpt lat="48.73821" lon="2.21395">
        <ele>131.6</ele>
        <time>2022-05-03T13:39:45Z</time>
      </trkpt>
      <trkpt lat="48.73826" lon="2.21404">
        <ele>131.8</ele>
        <time>2022-05-03T13:39:50Z</time>
      </trkpt>
      <trkpt lat="48.7383" lon="2.21415">
        <ele>131.4</ele>
        <time>2022-05-03T13:39:55Z</time>
      </trkpt>
      <trkpt lat="48.73833" lon="2.21425">
        <ele>131.1</ele>
        <time>2022-05-03T13:40:00Z</time>
      </trkpt>
      <trkpt lat="48.73836" lon="2.21435">
        <ele>130.8</ele>
        <time>2022-05-03T13:40:05Z</time>
      </trkpt>
      <trkpt lat="48.73839" lon="2.21445">
        <ele>130.6</ele>
        <time>2022-05-03T13:40:10Z</time>
      </trkpt>
      <trkpt lat="48.73842" lon="2.21456">
        <ele>130.4</ele>
        <time>2022-05-03T13:40:15Z</time>
      </trkpt>
      <trkpt lat="48.73843" lon="2.21469">
        <ele>129.6</ele>
        <time>2022-05-03T13:40:20Z</time>
      </trkpt>
      <trkpt lat="48.73842" lon="2.21482">
        <ele>128.2</ele>
        <time>2022-05-03T13:40:26Z</time>
      </trkpt>
      <trkpt lat="48.7384" lon="2.21491">
        <ele>126.9</ele>
        <time>2022-05-03T13:40:33Z</time>
      </trkpt>
      <trkpt lat="48.73835" lon="2.21499">
        <ele>124.6</ele>
        <time>2022-05-03T13:40:42Z</time>
      </trkpt>
      <trkpt lat="48.73834" lon="2.2151">
        <ele>123.8</ele>
        <time>2022-05-03T13:40:48Z</time>
      </trkpt>
      <trkpt lat="48.7383" lon="2.21525">
        <ele>122.4</ele>
        <time>2022-05-03T13:40:53Z</time>
      </trkpt>
      <trkpt lat="48.73829" lon="2.21537">
        <ele>121.8</ele>
        <time>2022-05-03T13:40:59Z</time>
      </trkpt>
      <trkpt lat="48.73822" lon="2.21539">
        <ele>120.2</ele>
        <time>2022-05-03T13:41:07Z</time>
      </trkpt>
      <trkpt lat="48.73815" lon="2.21529">
        <ele>119.1</ele>
        <time>2022-05-03T13:42:42Z</time>
      </trkpt>
      <trkpt lat="48.73822" lon="2.21537">
        <ele>120.3</ele>
        <time>2022-05-03T13:43:33Z</time>
      </trkpt>
      <trkpt lat="48.73819" lon="2.21528">
        <ele>120</ele>
        <time>2022-05-03T13:44:04Z</time>
      </trkpt>
      <trkpt lat="48.73824" lon="2.21535">
        <ele>120.8</ele>
        <time>2022-05-03T13:44:26Z</time>
      </trkpt>
      <trkpt lat="48.73824" lon="2.21546">
        <ele>120.4</ele>
        <time>2022-05-03T13:44:32Z</time>
      </trkpt>
      <trkpt lat="48.73823" lon="2.21557">
        <ele>119.8</ele>
        <time>2022-05-03T13:44:42Z</time>
      </trkpt>
      <trkpt lat="48.7382" lon="2.21567">
        <ele>118.8</ele>
        <time>2022-05-03T13:44:49Z</time>
      </trkpt>
      <trkpt lat="48.73816" lon="2.21576">
        <ele>117.7</ele>
        <time>2022-05-03T13:44:57Z</time>
      </trkpt>
      <trkpt lat="48.7382" lon="2.21586">
        <ele>118.2</ele>
        <time>2022-05-03T13:45:03Z</time>
      </trkpt>
      <trkpt lat="48.73825" lon="2.21593">
        <ele>118.9</ele>
        <time>2022-05-03T13:45:08Z</time>
      </trkpt>
      <trkpt lat="48.73832" lon="2.21593">
        <ele>120.3</ele>
        <time>2022-05-03T13:45:15Z</time>
      </trkpt>
      <trkpt lat="48.73838" lon="2.21592">
        <ele>121.9</ele>
        <time>2022-05-03T13:45:22Z</time>
      </trkpt>
      <trkpt lat="48.73845" lon="2.2159">
        <ele>124.1</ele>
        <time>2022-05-03T13:45:27Z</time>
      </trkpt>
      <trkpt lat="48.73852" lon="2.2159">
        <ele>126.1</ele>
        <time>2022-05-03T13:45:35Z</time>
      </trkpt>
      <trkpt lat="48.73859" lon="2.21589">
        <ele>128.3</ele>
        <time>2022-05-03T13:45:40Z</time>
      </trkpt>
      <trkpt lat="48.73866" lon="2.2159">
        <ele>130.2</ele>
        <time>2022-05-03T13:45:47Z</time>
      </trkpt>
      <trkpt lat="48.73872" lon="2.21595">
        <ele>131.5</ele>
        <time>2022-05-03T13:45:59Z</time>
      </trkpt>
      <trkpt lat="48.73876" lon="2.21604">
        <ele>131.8</ele>
        <time>2022-05-03T13:46:04Z</time>
      </trkpt>
      <trkpt lat="48.73883" lon="2.2161">
        <ele>133.1</ele>
        <time>2022-05-03T13:46:09Z</time>
      </trkpt>
      <trkpt lat="48.73888" lon="2.21616">
        <ele>133.8</ele>
        <time>2022-05-03T13:46:14Z</time>
      </trkpt>
      <trkpt lat="48.73893" lon="2.21624">
        <ele>134.2</ele>
        <time>2022-05-03T13:46:19Z</time>
      </trkpt>
      <trkpt lat="48.739" lon="2.2163">
        <ele>135.2</ele>
        <time>2022-05-03T13:46:24Z</time>
      </trkpt>
      <trkpt lat="48.73907" lon="2.21639">
        <ele>135.7</ele>
        <time>2022-05-03T13:46:29Z</time>
      </trkpt>
      <trkpt lat="48.73912" lon="2.21648">
        <ele>135.6</ele>
        <time>2022-05-03T13:46:34Z</time>
      </trkpt>
      <trkpt lat="48.73918" lon="2.21655">
        <ele>135.8</ele>
        <time>2022-05-03T13:46:39Z</time>
      </trkpt>
      <trkpt lat="48.73923" lon="2.21664">
        <ele>135.2</ele>
        <time>2022-05-03T13:46:44Z</time>
      </trkpt>
      <trkpt lat="48.73928" lon="2.21672">
        <ele>134.5</ele>
        <time>2022-05-03T13:46:50Z</time>
      </trkpt>
      <trkpt lat="48.73936" lon="2.21676">
        <ele>134.8</ele>
        <time>2022-05-03T13:46:58Z</time>
      </trkpt>
      <trkpt lat="48.73944" lon="2.21676">
        <ele>136</ele>
        <time>2022-05-03T13:47:03Z</time>
      </trkpt>
      <trkpt lat="48.73951" lon="2.21674">
        <ele>137.3</ele>
        <time>2022-05-03T13:47:11Z</time>
      </trkpt>
      <trkpt lat="48.73959" lon="2.21673">
        <ele>138.6</ele>
        <time>2022-05-03T13:47:18Z</time>
      </trkpt>
      <trkpt lat="48.73964" lon="2.2168">
        <ele>138.2</ele>
        <time>2022-05-03T13:47:23Z</time>
      </trkpt>
      <trkpt lat="48.73969" lon="2.21687">
        <ele>137.8</ele>
        <time>2022-05-03T13:47:29Z</time>
      </trkpt>
      <trkpt lat="48.73978" lon="2.21689">
        <ele>138.9</ele>
        <time>2022-05-03T13:47:34Z</time>
      </trkpt>
      <trkpt lat="48.73985" lon="2.21689">
        <ele>140</ele>
        <time>2022-05-03T13:47:40Z</time>
      </trkpt>
      <trkpt lat="48.73993" lon="2.21687">
        <ele>141.5</ele>
        <time>2022-05-03T13:47:46Z</time>
      </trkpt>
      <trkpt lat="48.74002" lon="2.21682">
        <ele>143.3</ele>
        <time>2022-05-03T13:47:51Z</time>
      </trkpt>
      <trkpt lat="48.7401" lon="2.2168">
        <ele>144.3</ele>
        <time>2022-05-03T13:47:56Z</time>
      </trkpt>
      <trkpt lat="48.74015" lon="2.21673">
        <ele>145.4</ele>
        <time>2022-05-03T13:48:13Z</time>
      </trkpt>
      <trkpt lat="48.74021" lon="2.21666">
        <ele>146.6</ele>
        <time>2022-05-03T13:48:21Z</time>
      </trkpt>
      <trkpt lat="48.74021" lon="2.21655">
        <ele>147.3</ele>
        <time>2022-05-03T13:48:27Z</time>
      </trkpt>
      <trkpt lat="48.74024" lon="2.21645">
        <ele>148.1</ele>
        <time>2022-05-03T13:48:34Z</time>
      </trkpt>
      <trkpt lat="48.74026" lon="2.21636">
        <ele>148.8</ele>
        <time>2022-05-03T13:48:39Z</time>
      </trkpt>
      <trkpt lat="48.7403" lon="2.21626">
        <ele>149.5</ele>
        <time>2022-05-03T13:48:44Z</time>
      </trkpt>
      <trkpt lat="48.74033" lon="2.21618">
        <ele>150.1</ele>
        <time>2022-05-03T13:48:49Z</time>
      </trkpt>
      <trkpt lat="48.74036" lon="2.21607">
        <ele>150.7</ele>
        <time>2022-05-03T13:48:54Z</time>
      </trkpt>
      <trkpt lat="48.74042" lon="2.21598">
        <ele>151.3</ele>
        <time>2022-05-03T13:48:59Z</time>
      </trkpt>
      <trkpt lat="48.74046" lon="2.2159">
        <ele>151.7</ele>
        <time>2022-05-03T13:49:04Z</time>
      </trkpt>
      <trkpt lat="48.74048" lon="2.2158">
        <ele>152.1</ele>
        <time>2022-05-03T13:49:09Z</time>
      </trkpt>
      <trkpt lat="48.74052" lon="2.21569">
        <ele>152.2</ele>
        <time>2022-05-03T13:49:14Z</time>
      </trkpt>
      <trkpt lat="48.74054" lon="2.21559">
        <ele>152.4</ele>
        <time>2022-05-03T13:49:19Z</time>
      </trkpt>
      <trkpt lat="48.74056" lon="2.21549">
        <ele>152.5</ele>
        <time>2022-05-03T13:49:25Z</time>
      </trkpt>
      <trkpt lat="48.74061" lon="2.21538">
        <ele>152.7</ele>
        <time>2022-05-03T13:49:30Z</time>
      </trkpt>
      <trkpt lat="48.74065" lon="2.21528">
        <ele>152.8</ele>
        <time>2022-05-03T13:49:35Z</time>
      </trkpt>
      <trkpt lat="48.74068" lon="2.21516">
        <ele>153</ele>
        <time>2022-05-03T13:49:40Z</time>
      </trkpt>
      <trkpt lat="48.74068" lon="2.21505">
        <ele>153.1</ele>
        <time>2022-05-03T13:49:46Z</time>
      </trkpt>
      <trkpt lat="48.74071" lon="2.21494">
        <ele>153.2</ele>
        <time>2022-05-03T13:49:51Z</time>
      </trkpt>
      <trkpt lat="48.74072" lon="2.21483">
        <ele>153.2</ele>
        <time>2022-05-03T13:49:56Z</time>
      </trkpt>
      <trkpt lat="48.74076" lon="2.21472">
        <ele>153.3</ele>
        <time>2022-05-03T13:50:01Z</time>
      </trkpt>
      <trkpt lat="48.74081" lon="2.21462">
        <ele>153.4</ele>
        <time>2022-05-03T13:50:06Z</time>
      </trkpt>
      <trkpt lat="48.74084" lon="2.21452">
        <ele>153.6</ele>
        <time>2022-05-03T13:50:11Z</time>
      </trkpt>
      <trkpt lat="48.74088" lon="2.21443">
        <ele>153.6</ele>
        <time>2022-05-03T13:50:16Z</time>
      </trkpt>
      <trkpt lat="48.74091" lon="2.21434">
        <ele>153.7</ele>
        <time>2022-05-03T13:50:27Z</time>
      </trkpt>
      <trkpt lat="48.7409" lon="2.21423">
        <ele>153.8</ele>
        <time>2022-05-03T13:50:34Z</time>
      </trkpt>
      <trkpt lat="48.74094" lon="2.21416">
        <ele>153.7</ele>
        <time>2022-05-03T13:50:41Z</time>
      </trkpt>
      <trkpt lat="48.741" lon="2.21421">
        <ele>153.6</ele>
        <time>2022-05-03T13:50:46Z</time>
      </trkpt>
      <trkpt lat="48.74101" lon="2.21432">
        <ele>153.5</ele>
        <time>2022-05-03T13:50:52Z</time>
      </trkpt>
      <trkpt lat="48.74105" lon="2.21442">
        <ele>153.4</ele>
        <time>2022-05-03T13:51:00Z</time>
      </trkpt>
      <trkpt lat="48.74109" lon="2.21452">
        <ele>153.4</ele>
        <time>2022-05-03T13:51:07Z</time>
      </trkpt>
      <trkpt lat="48.74117" lon="2.21457">
        <ele>153.3</ele>
        <time>2022-05-03T13:51:12Z</time>
      </trkpt>
      <trkpt lat="48.74125" lon="2.21458">
        <ele>153.2</ele>
        <time>2022-05-03T13:51:17Z</time>
      </trkpt>
      <trkpt lat="48.74134" lon="2.21461">
        <ele>153.2</ele>
        <time>2022-05-03T13:51:22Z</time>
      </trkpt>
      <trkpt lat="48.74143" lon="2.21463">
        <ele>153.2</ele>
        <time>2022-05-03T13:51:27Z</time>
      </trkpt>
      <trkpt lat="48.74151" lon="2.21462">
        <ele>153.2</ele>
        <time>2022-05-03T13:51:32Z</time>
      </trkpt>
      <trkpt lat="48.74158" lon="2.21459">
        <ele>153.1</ele>
        <time>2022-05-03T13:51:37Z</time>
      </trkpt>
      <trkpt lat="48.74161" lon="2.2145">
        <ele>152.9</ele>
        <time>2022-05-03T13:51:42Z</time>
      </trkpt>
      <trkpt lat="48.74166" lon="2.21441">
        <ele>152.6</ele>
        <time>2022-05-03T13:51:47Z</time>
      </trkpt>
      <trkpt lat="48.7417" lon="2.2143">
        <ele>152.3</ele>
        <time>2022-05-03T13:51:52Z</time>
      </trkpt>
      <trkpt lat="48.74175" lon="2.21419">
        <ele>152.1</ele>
        <time>2022-05-03T13:51:57Z</time>
      </trkpt>
      <trkpt lat="48.7418" lon="2.21409">
        <ele>152.3</ele>
        <time>2022-05-03T13:52:03Z</time>
      </trkpt>
      <trkpt lat="48.74184" lon="2.21401">
        <ele>152.5</ele>
        <time>2022-05-03T13:52:08Z</time>
      </trkpt>
      <trkpt lat="48.7419" lon="2.21394">
        <ele>152.8</ele>
        <time>2022-05-03T13:52:13Z</time>
      </trkpt>
      <trkpt lat="48.74196" lon="2.21388">
        <ele>153.1</ele>
        <time>2022-05-03T13:52:18Z</time>
      </trkpt>
      <trkpt lat="48.74203" lon="2.21379">
        <ele>153.5</ele>
        <time>2022-05-03T13:52:23Z</time>
      </trkpt>
      <trkpt lat="48.74209" lon="2.21371">
        <ele>153.9</ele>
        <time>2022-05-03T13:52:28Z</time>
      </trkpt>
      <trkpt lat="48.74214" lon="2.21363">
        <ele>154.3</ele>
        <time>2022-05-03T13:52:35Z</time>
      </trkpt>
      <trkpt lat="48.7422" lon="2.21357">
        <ele>154.7</ele>
        <time>2022-05-03T13:52:46Z</time>
      </trkpt>
      <trkpt lat="48.74229" lon="2.21346">
        <ele>155.5</ele>
        <time>2022-05-03T13:52:51Z</time>
      </trkpt>
      <trkpt lat="48.74234" lon="2.21338">
        <ele>156</ele>
        <time>2022-05-03T13:52:56Z</time>
      </trkpt>
      <trkpt lat="48.74241" lon="2.21336">
        <ele>156.5</ele>
        <time>2022-05-03T13:53:01Z</time>
      </trkpt>
      <trkpt lat="48.74247" lon="2.21331">
        <ele>156.8</ele>
        <time>2022-05-03T13:53:06Z</time>
      </trkpt>
      <trkpt lat="48.74254" lon="2.2133">
        <ele>156.6</ele>
        <time>2022-05-03T13:53:12Z</time>
      </trkpt>
      <trkpt lat="48.74263" lon="2.21331">
        <ele>155.7</ele>
        <time>2022-05-03T13:53:17Z</time>
      </trkpt>
      <trkpt lat="48.74269" lon="2.21333">
        <ele>155.2</ele>
        <time>2022-05-03T13:53:22Z</time>
      </trkpt>
      <trkpt lat="48.74276" lon="2.21336">
        <ele>154.3</ele>
        <time>2022-05-03T13:53:27Z</time>
      </trkpt>
      <trkpt lat="48.74283" lon="2.21341">
        <ele>153.3</ele>
        <time>2022-05-03T13:53:33Z</time>
      </trkpt>
      <trkpt lat="48.7429" lon="2.21348">
        <ele>152.1</ele>
        <time>2022-05-03T13:53:39Z</time>
      </trkpt>
      <trkpt lat="48.74297" lon="2.21358">
        <ele>150.6</ele>
        <time>2022-05-03T13:53:44Z</time>
      </trkpt>
      <trkpt lat="48.74298" lon="2.21369">
        <ele>149.7</ele>
        <time>2022-05-03T13:53:49Z</time>
      </trkpt>
      <trkpt lat="48.74299" lon="2.2138">
        <ele>148.7</ele>
        <time>2022-05-03T13:53:55Z</time>
      </trkpt>
      <trkpt lat="48.74302" lon="2.21392">
        <ele>147.4</ele>
        <time>2022-05-03T13:54:00Z</time>
      </trkpt>
      <trkpt lat="48.74304" lon="2.21403">
        <ele>146.3</ele>
        <time>2022-05-03T13:54:05Z</time>
      </trkpt>
      <trkpt lat="48.74306" lon="2.21413">
        <ele>145.2</ele>
        <time>2022-05-03T13:54:10Z</time>
      </trkpt>
      <trkpt lat="48.7431" lon="2.21424">
        <ele>144.2</ele>
        <time>2022-05-03T13:54:16Z</time>
      </trkpt>
      <trkpt lat="48.74311" lon="2.21433">
        <ele>143.9</ele>
        <time>2022-05-03T13:54:21Z</time>
      </trkpt>
      <trkpt lat="48.74311" lon="2.21444">
        <ele>143.6</ele>
        <time>2022-05-03T13:54:26Z</time>
      </trkpt>
      <trkpt lat="48.74316" lon="2.21458">
        <ele>142.6</ele>
        <time>2022-05-03T13:54:31Z</time>
      </trkpt>
      <trkpt lat="48.74318" lon="2.21471">
        <ele>142</ele>
        <time>2022-05-03T13:54:36Z</time>
      </trkpt>
      <trkpt lat="48.74322" lon="2.21481">
        <ele>141.2</ele>
        <time>2022-05-03T13:54:41Z</time>
      </trkpt>
      <trkpt lat="48.74327" lon="2.21488">
        <ele>140.3</ele>
        <time>2022-05-03T13:54:47Z</time>
      </trkpt>
      <trkpt lat="48.74332" lon="2.21498">
        <ele>139.3</ele>
        <time>2022-05-03T13:54:52Z</time>
      </trkpt>
      <trkpt lat="48.7433" lon="2.2151">
        <ele>139.7</ele>
        <time>2022-05-03T13:55:02Z</time>
      </trkpt>
      <trkpt lat="48.74334" lon="2.21517">
        <ele>139.3</ele>
        <time>2022-05-03T13:55:08Z</time>
      </trkpt>
      <trkpt lat="48.74338" lon="2.21526">
        <ele>138.7</ele>
        <time>2022-05-03T13:55:13Z</time>
      </trkpt>
      <trkpt lat="48.74342" lon="2.21538">
        <ele>138.1</ele>
        <time>2022-05-03T13:55:18Z</time>
      </trkpt>
      <trkpt lat="48.74346" lon="2.21547">
        <ele>137.5</ele>
        <time>2022-05-03T13:55:26Z</time>
      </trkpt>
      <trkpt lat="48.74352" lon="2.21547">
        <ele>136.3</ele>
        <time>2022-05-03T13:55:31Z</time>
      </trkpt>
      <trkpt lat="48.74352" lon="2.21557">
        <ele>136.6</ele>
        <time>2022-05-03T13:55:52Z</time>
      </trkpt>
      <trkpt lat="48.74355" lon="2.21566">
        <ele>136.2</ele>
        <time>2022-05-03T13:56:02Z</time>
      </trkpt>
      <trkpt lat="48.74357" lon="2.21578">
        <ele>136</ele>
        <time>2022-05-03T13:56:08Z</time>
      </trkpt>
      <trkpt lat="48.7436" lon="2.21588">
        <ele>135.5</ele>
        <time>2022-05-03T13:56:13Z</time>
      </trkpt>
      <trkpt lat="48.74363" lon="2.21598">
        <ele>134.7</ele>
        <time>2022-05-03T13:56:19Z</time>
      </trkpt>
      <trkpt lat="48.74363" lon="2.2161">
        <ele>134.4</ele>
        <time>2022-05-03T13:56:25Z</time>
      </trkpt>
      <trkpt lat="48.74361" lon="2.21621">
        <ele>134.6</ele>
        <time>2022-05-03T13:56:31Z</time>
      </trkpt>
      <trkpt lat="48.74364" lon="2.21632">
        <ele>133.9</ele>
        <time>2022-05-03T13:56:39Z</time>
      </trkpt>
      <trkpt lat="48.74364" lon="2.21644">
        <ele>133.6</ele>
        <time>2022-05-03T13:56:44Z</time>
      </trkpt>
      <trkpt lat="48.74363" lon="2.21654">
        <ele>133.6</ele>
        <time>2022-05-03T13:56:49Z</time>
      </trkpt>
      <trkpt lat="48.74364" lon="2.21664">
        <ele>133.3</ele>
        <time>2022-05-03T13:56:55Z</time>
      </trkpt>
      <trkpt lat="48.74361" lon="2.21673">
        <ele>133.2</ele>
        <time>2022-05-03T13:57:01Z</time>
      </trkpt>
      <trkpt lat="48.74359" lon="2.21684">
        <ele>132.7</ele>
        <time>2022-05-03T13:57:06Z</time>
      </trkpt>
      <trkpt lat="48.74355" lon="2.21696">
        <ele>132.5</ele>
        <time>2022-05-03T13:57:11Z</time>
      </trkpt>
      <trkpt lat="48.74352" lon="2.21709">
        <ele>132.1</ele>
        <time>2022-05-03T13:57:16Z</time>
      </trkpt>
      <trkpt lat="48.74349" lon="2.21723">
        <ele>131.7</ele>
        <time>2022-05-03T13:57:21Z</time>
      </trkpt>
      <trkpt lat="48.74345" lon="2.21732">
        <ele>131.8</ele>
        <time>2022-05-03T13:57:26Z</time>
      </trkpt>
      <trkpt lat="48.74341" lon="2.2174">
        <ele>132.1</ele>
        <time>2022-05-03T13:57:33Z</time>
      </trkpt>
      <trkpt lat="48.74335" lon="2.21742">
        <ele>133.1</ele>
        <time>2022-05-03T13:57:40Z</time>
      </trkpt>
      <trkpt lat="48.74328" lon="2.21744">
        <ele>134.2</ele>
        <time>2022-05-03T13:57:46Z</time>
      </trkpt>
      <trkpt lat="48.7432" lon="2.21742">
        <ele>135.7</ele>
        <time>2022-05-03T13:57:52Z</time>
      </trkpt>
      <trkpt lat="48.74312" lon="2.21738">
        <ele>137.2</ele>
        <time>2022-05-03T13:57:58Z</time>
      </trkpt>
      <trkpt lat="48.74305" lon="2.21736">
        <ele>138.4</ele>
        <time>2022-05-03T13:58:03Z</time>
      </trkpt>
      <trkpt lat="48.74298" lon="2.21734">
        <ele>139.6</ele>
        <time>2022-05-03T13:58:10Z</time>
      </trkpt>
      <trkpt lat="48.74291" lon="2.21733">
        <ele>140.7</ele>
        <time>2022-05-03T13:58:17Z</time>
      </trkpt>
      <trkpt lat="48.74285" lon="2.21732">
        <ele>141.7</ele>
        <time>2022-05-03T13:58:23Z</time>
      </trkpt>
      <trkpt lat="48.74279" lon="2.2174">
        <ele>142.4</ele>
        <time>2022-05-03T13:58:42Z</time>
      </trkpt>
      <trkpt lat="48.74274" lon="2.21748">
        <ele>143</ele>
        <time>2022-05-03T13:58:49Z</time>
      </trkpt>
      <trkpt lat="48.74271" lon="2.21757">
        <ele>143.5</ele>
        <time>2022-05-03T13:58:57Z</time>
      </trkpt>
      <trkpt lat="48.74268" lon="2.21767">
        <ele>144.1</ele>
        <time>2022-05-03T13:59:06Z</time>
      </trkpt>
      <trkpt lat="48.74268" lon="2.21777">
        <ele>144.2</ele>
        <time>2022-05-03T13:59:12Z</time>
      </trkpt>
      <trkpt lat="48.7427" lon="2.21787">
        <ele>144</ele>
        <time>2022-05-03T13:59:20Z</time>
      </trkpt>
      <trkpt lat="48.7427" lon="2.21798">
        <ele>144.1</ele>
        <time>2022-05-03T13:59:30Z</time>
      </trkpt>
      <trkpt lat="48.74273" lon="2.21807">
        <ele>143.6</ele>
        <time>2022-05-03T13:59:38Z</time>
      </trkpt>
      <trkpt lat="48.74274" lon="2.21817">
        <ele>143.5</ele>
        <time>2022-05-03T13:59:47Z</time>
      </trkpt>
      <trkpt lat="48.7427" lon="2.21824">
        <ele>144.3</ele>
        <time>2022-05-03T13:59:55Z</time>
      </trkpt>
      <trkpt lat="48.74267" lon="2.21834">
        <ele>145</ele>
        <time>2022-05-03T14:00:03Z</time>
      </trkpt>
      <trkpt lat="48.74268" lon="2.21844">
        <ele>145.2</ele>
        <time>2022-05-03T14:00:09Z</time>
      </trkpt>
      <trkpt lat="48.74266" lon="2.21855">
        <ele>145.9</ele>
        <time>2022-05-03T14:00:15Z</time>
      </trkpt>
      <trkpt lat="48.74264" lon="2.21866">
        <ele>146.6</ele>
        <time>2022-05-03T14:00:22Z</time>
      </trkpt>
      <trkpt lat="48.74263" lon="2.21877">
        <ele>147.1</ele>
        <time>2022-05-03T14:00:28Z</time>
      </trkpt>
      <trkpt lat="48.74262" lon="2.21888">
        <ele>147.6</ele>
        <time>2022-05-03T14:01:21Z</time>
      </trkpt>
      <trkpt lat="48.74258" lon="2.21896">
        <ele>148.4</ele>
        <time>2022-05-03T14:01:29Z</time>
      </trkpt>
      <trkpt lat="48.74252" lon="2.21902">
        <ele>149.4</ele>
        <time>2022-05-03T14:01:35Z</time>
      </trkpt>
      <trkpt lat="48.74245" lon="2.21907">
        <ele>149.6</ele>
        <time>2022-05-03T14:01:41Z</time>
      </trkpt>
      <trkpt lat="48.74239" lon="2.21913">
        <ele>149.6</ele>
        <time>2022-05-03T14:01:49Z</time>
      </trkpt>
      <trkpt lat="48.74244" lon="2.2192">
        <ele>149.8</ele>
        <time>2022-05-03T14:02:10Z</time>
      </trkpt>
      <trkpt lat="48.74248" lon="2.21927">
        <ele>150</ele>
        <time>2022-05-03T14:02:16Z</time>
      </trkpt>
      <trkpt lat="48.74243" lon="2.21921">
        <ele>149.8</ele>
        <time>2022-05-03T14:02:38Z</time>
      </trkpt>
      <trkpt lat="48.74236" lon="2.21918">
        <ele>149.5</ele>
        <time>2022-05-03T14:02:44Z</time>
      </trkpt>
      <trkpt lat="48.74229" lon="2.21921">
        <ele>149.2</ele>
        <time>2022-05-03T14:02:52Z</time>
      </trkpt>
      <trkpt lat="48.74221" lon="2.21922">
        <ele>148.9</ele>
        <time>2022-05-03T14:02:57Z</time>
      </trkpt>
      <trkpt lat="48.74214" lon="2.21923">
        <ele>148.6</ele>
        <time>2022-05-03T14:03:03Z</time>
      </trkpt>
      <trkpt lat="48.74207" lon="2.21923">
        <ele>148.4</ele>
        <time>2022-05-03T14:03:10Z</time>
      </trkpt>
      <trkpt lat="48.74199" lon="2.21925">
        <ele>148</ele>
        <time>2022-05-03T14:03:15Z</time>
      </trkpt>
      <trkpt lat="48.74192" lon="2.21925">
        <ele>147.7</ele>
        <time>2022-05-03T14:03:20Z</time>
      </trkpt>
      <trkpt lat="48.74186" lon="2.21926">
        <ele>147.5</ele>
        <time>2022-05-03T14:03:25Z</time>
      </trkpt>
      <trkpt lat="48.74177" lon="2.2193">
        <ele>147</ele>
        <time>2022-05-03T14:03:30Z</time>
      </trkpt>
      <trkpt lat="48.74167" lon="2.21935">
        <ele>146.4</ele>
        <time>2022-05-03T14:03:35Z</time>
      </trkpt>
      <trkpt lat="48.74158" lon="2.21938">
        <ele>144.9</ele>
        <time>2022-05-03T14:03:40Z</time>
      </trkpt>
      <trkpt lat="48.74151" lon="2.21942">
        <ele>143.7</ele>
        <time>2022-05-03T14:03:45Z</time>
      </trkpt>
      <trkpt lat="48.74143" lon="2.21946">
        <ele>142.2</ele>
        <time>2022-05-03T14:03:50Z</time>
      </trkpt>
      <trkpt lat="48.74136" lon="2.21955">
        <ele>140.6</ele>
        <time>2022-05-03T14:03:55Z</time>
      </trkpt>
      <trkpt lat="48.74133" lon="2.21964">
        <ele>139.5</ele>
        <time>2022-05-03T14:04:03Z</time>
      </trkpt>
      <trkpt lat="48.7414" lon="2.21963">
        <ele>140.7</ele>
        <time>2022-05-03T14:04:22Z</time>
      </trkpt>
      <trkpt lat="48.74147" lon="2.21968">
        <ele>141.7</ele>
        <time>2022-05-03T14:04:27Z</time>
      </trkpt>
      <trkpt lat="48.74154" lon="2.21973">
        <ele>142.7</ele>
        <time>2022-05-03T14:04:33Z</time>
      </trkpt>
      <trkpt lat="48.74158" lon="2.21982">
        <ele>143</ele>
        <time>2022-05-03T14:04:38Z</time>
      </trkpt>
      <trkpt lat="48.74165" lon="2.21993">
        <ele>143.9</ele>
        <time>2022-05-03T14:04:43Z</time>
      </trkpt>
      <trkpt lat="48.74172" lon="2.22006">
        <ele>144.1</ele>
        <time>2022-05-03T14:04:48Z</time>
      </trkpt>
      <trkpt lat="48.74179" lon="2.22017">
        <ele>144.1</ele>
        <time>2022-05-03T14:04:53Z</time>
      </trkpt>
      <trkpt lat="48.74179" lon="2.22029">
        <ele>143.5</ele>
        <time>2022-05-03T14:04:58Z</time>
      </trkpt>
      <trkpt lat="48.74179" lon="2.2204">
        <ele>142.9</ele>
        <time>2022-05-03T14:05:03Z</time>
      </trkpt>
      <trkpt lat="48.74185" lon="2.22051">
        <ele>143</ele>
        <time>2022-05-03T14:05:08Z</time>
      </trkpt>
      <trkpt lat="48.74188" lon="2.22063">
        <ele>142.8</ele>
        <time>2022-05-03T14:05:13Z</time>
      </trkpt>
      <trkpt lat="48.74192" lon="2.22073">
        <ele>142.8</ele>
        <time>2022-05-03T14:05:18Z</time>
      </trkpt>
      <trkpt lat="48.74195" lon="2.22085">
        <ele>142.7</ele>
        <time>2022-05-03T14:05:23Z</time>
      </trkpt>
      <trkpt lat="48.74196" lon="2.22096">
        <ele>142.3</ele>
        <time>2022-05-03T14:05:28Z</time>
      </trkpt>
      <trkpt lat="48.74194" lon="2.22107">
        <ele>141.6</ele>
        <time>2022-05-03T14:05:33Z</time>
      </trkpt>
      <trkpt lat="48.74193" lon="2.22117">
        <ele>141</ele>
        <time>2022-05-03T14:05:38Z</time>
      </trkpt>
      <trkpt lat="48.7419" lon="2.22128">
        <ele>140.1</ele>
        <time>2022-05-03T14:05:48Z</time>
      </trkpt>
      <trkpt lat="48.74186" lon="2.22143">
        <ele>138.9</ele>
        <time>2022-05-03T14:05:53Z</time>
      </trkpt>
      <trkpt lat="48.74181" lon="2.22156">
        <ele>137.6</ele>
        <time>2022-05-03T14:05:58Z</time>
      </trkpt>
      <trkpt lat="48.74177" lon="2.22166">
        <ele>136.5</ele>
        <time>2022-05-03T14:06:04Z</time>
      </trkpt>
      <trkpt lat="48.74174" lon="2.22177">
        <ele>135.5</ele>
        <time>2022-05-03T14:06:09Z</time>
      </trkpt>
      <trkpt lat="48.74171" lon="2.22188">
        <ele>134.5</ele>
        <time>2022-05-03T14:06:14Z</time>
      </trkpt>
      <trkpt lat="48.74172" lon="2.22199">
        <ele>134.1</ele>
        <time>2022-05-03T14:06:19Z</time>
      </trkpt>
      <trkpt lat="48.74175" lon="2.22209">
        <ele>134</ele>
        <time>2022-05-03T14:06:24Z</time>
      </trkpt>
      <trkpt lat="48.7418" lon="2.22218">
        <ele>134.1</ele>
        <time>2022-05-03T14:06:29Z</time>
      </trkpt>
      <trkpt lat="48.74185" lon="2.22223">
        <ele>134.3</ele>
        <time>2022-05-03T14:06:36Z</time>
      </trkpt>
      <trkpt lat="48.74192" lon="2.22229">
        <ele>134.7</ele>
        <time>2022-05-03T14:06:41Z</time>
      </trkpt>
      <trkpt lat="48.742" lon="2.2223">
        <ele>135.5</ele>
        <time>2022-05-03T14:06:47Z</time>
      </trkpt>
      <trkpt lat="48.74209" lon="2.22229">
        <ele>136.6</ele>
        <time>2022-05-03T14:06:52Z</time>
      </trkpt>
      <trkpt lat="48.74217" lon="2.22222">
        <ele>138</ele>
        <time>2022-05-03T14:06:57Z</time>
      </trkpt>
      <trkpt lat="48.74223" lon="2.22215">
        <ele>139.2</ele>
        <time>2022-05-03T14:07:02Z</time>
      </trkpt>
      <trkpt lat="48.74229" lon="2.22206">
        <ele>140.7</ele>
        <time>2022-05-03T14:07:07Z</time>
      </trkpt>
      <trkpt lat="48.74235" lon="2.22198">
        <ele>142.1</ele>
        <time>2022-05-03T14:07:12Z</time>
      </trkpt>
      <trkpt lat="48.74242" lon="2.22193">
        <ele>143.4</ele>
        <time>2022-05-03T14:07:19Z</time>
      </trkpt>
      <trkpt lat="48.74248" lon="2.22187">
        <ele>144.8</ele>
        <time>2022-05-03T14:07:24Z</time>
      </trkpt>
      <trkpt lat="48.74253" lon="2.2218">
        <ele>145.5</ele>
        <time>2022-05-03T14:07:29Z</time>
      </trkpt>
      <trkpt lat="48.74259" lon="2.22172">
        <ele>146</ele>
        <time>2022-05-03T14:07:34Z</time>
      </trkpt>
      <trkpt lat="48.74264" lon="2.22163">
        <ele>146.5</ele>
        <time>2022-05-03T14:07:39Z</time>
      </trkpt>
      <trkpt lat="48.74269" lon="2.22153">
        <ele>146.7</ele>
        <time>2022-05-03T14:07:44Z</time>
      </trkpt>
      <trkpt lat="48.74275" lon="2.22145">
        <ele>146.7</ele>
        <time>2022-05-03T14:07:50Z</time>
      </trkpt>
      <trkpt lat="48.74278" lon="2.22136">
        <ele>147</ele>
        <time>2022-05-03T14:07:56Z</time>
      </trkpt>
      <trkpt lat="48.74281" lon="2.22126">
        <ele>147.3</ele>
        <time>2022-05-03T14:08:01Z</time>
      </trkpt>
      <trkpt lat="48.74286" lon="2.22117">
        <ele>147.6</ele>
        <time>2022-05-03T14:08:06Z</time>
      </trkpt>
      <trkpt lat="48.7429" lon="2.22108">
        <ele>147.9</ele>
        <time>2022-05-03T14:08:11Z</time>
      </trkpt>
      <trkpt lat="48.74293" lon="2.22099">
        <ele>148.2</ele>
        <time>2022-05-03T14:08:19Z</time>
      </trkpt>
      <trkpt lat="48.74299" lon="2.22095">
        <ele>148.2</ele>
        <time>2022-05-03T14:08:32Z</time>
      </trkpt>
      <trkpt lat="48.74306" lon="2.22094">
        <ele>148.1</ele>
        <time>2022-05-03T14:08:39Z</time>
      </trkpt>
      <trkpt lat="48.74311" lon="2.22101">
        <ele>147.6</ele>
        <time>2022-05-03T14:08:45Z</time>
      </trkpt>
      <trkpt lat="48.74317" lon="2.22107">
        <ele>147.1</ele>
        <time>2022-05-03T14:08:51Z</time>
      </trkpt>
      <trkpt lat="48.74323" lon="2.22105">
        <ele>147</ele>
        <time>2022-05-03T14:08:57Z</time>
      </trkpt>
      <trkpt lat="48.7433" lon="2.22102">
        <ele>147</ele>
        <time>2022-05-03T14:09:02Z</time>
      </trkpt>
      <trkpt lat="48.74338" lon="2.22103">
        <ele>145.5</ele>
        <time>2022-05-03T14:09:07Z</time>
      </trkpt>
      <trkpt lat="48.74342" lon="2.22095">
        <ele>144.8</ele>
        <time>2022-05-03T14:09:14Z</time>
      </trkpt>
      <trkpt lat="48.74346" lon="2.22085">
        <ele>144.4</ele>
        <time>2022-05-03T14:09:21Z</time>
      </trkpt>
      <trkpt lat="48.74349" lon="2.22076">
        <ele>143.6</ele>
        <time>2022-05-03T14:09:28Z</time>
      </trkpt>
      <trkpt lat="48.74352" lon="2.22067">
        <ele>142.7</ele>
        <time>2022-05-03T14:09:36Z</time>
      </trkpt>
      <trkpt lat="48.74357" lon="2.2206">
        <ele>141.3</ele>
        <time>2022-05-03T14:09:43Z</time>
      </trkpt>
      <trkpt lat="48.74361" lon="2.22068">
        <ele>140.2</ele>
        <time>2022-05-03T14:09:51Z</time>
      </trkpt>
      <trkpt lat="48.74369" lon="2.22074">
        <ele>138.1</ele>
        <time>2022-05-03T14:09:56Z</time>
      </trkpt>
      <trkpt lat="48.74375" lon="2.22079">
        <ele>136.5</ele>
        <time>2022-05-03T14:10:01Z</time>
      </trkpt>
      <trkpt lat="48.74378" lon="2.22087">
        <ele>135.4</ele>
        <time>2022-05-03T14:10:06Z</time>
      </trkpt>
      <trkpt lat="48.74383" lon="2.22096">
        <ele>133.2</ele>
        <time>2022-05-03T14:10:11Z</time>
      </trkpt>
      <trkpt lat="48.74388" lon="2.22106">
        <ele>130.8</ele>
        <time>2022-05-03T14:10:16Z</time>
      </trkpt>
      <trkpt lat="48.74391" lon="2.22115">
        <ele>129.1</ele>
        <time>2022-05-03T14:10:21Z</time>
      </trkpt>
      <trkpt lat="48.74394" lon="2.22126">
        <ele>127.2</ele>
        <time>2022-05-03T14:10:28Z</time>
      </trkpt>
      <trkpt lat="48.74396" lon="2.22137">
        <ele>125.5</ele>
        <time>2022-05-03T14:10:33Z</time>
      </trkpt>
      <trkpt lat="48.74399" lon="2.22148">
        <ele>123.6</ele>
        <time>2022-05-03T14:10:38Z</time>
      </trkpt>
      <trkpt lat="48.74401" lon="2.22158">
        <ele>121.9</ele>
        <time>2022-05-03T14:10:43Z</time>
      </trkpt>
      <trkpt lat="48.74403" lon="2.22168">
        <ele>120.3</ele>
        <time>2022-05-03T14:10:49Z</time>
      </trkpt>
      <trkpt lat="48.74403" lon="2.22179">
        <ele>118.8</ele>
        <time>2022-05-03T14:10:54Z</time>
      </trkpt>
      <trkpt lat="48.74403" lon="2.22189">
        <ele>117.5</ele>
        <time>2022-05-03T14:10:59Z</time>
      </trkpt>
      <trkpt lat="48.74402" lon="2.22199">
        <ele>116.5</ele>
        <time>2022-05-03T14:11:04Z</time>
      </trkpt>
      <trkpt lat="48.74404" lon="2.2221">
        <ele>114.4</ele>
        <time>2022-05-03T14:11:09Z</time>
      </trkpt>
      <trkpt lat="48.74402" lon="2.22222">
        <ele>113.4</ele>
        <time>2022-05-03T14:11:14Z</time>
      </trkpt>
      <trkpt lat="48.744" lon="2.22236">
        <ele>112.1</ele>
        <time>2022-05-03T14:11:19Z</time>
      </trkpt>
      <trkpt lat="48.74399" lon="2.22247">
        <ele>110.9</ele>
        <time>2022-05-03T14:11:24Z</time>
      </trkpt>
      <trkpt lat="48.74394" lon="2.22255">
        <ele>111.2</ele>
        <time>2022-05-03T14:11:29Z</time>
      </trkpt>
      <trkpt lat="48.74391" lon="2.22264">
        <ele>110.9</ele>
        <time>2022-05-03T14:11:34Z</time>
      </trkpt>
      <trkpt lat="48.74387" lon="2.22274">
        <ele>110.7</ele>
        <time>2022-05-03T14:11:39Z</time>
      </trkpt>
      <trkpt lat="48.74385" lon="2.22284">
        <ele>110</ele>
        <time>2022-05-03T14:11:44Z</time>
      </trkpt>
      <trkpt lat="48.74387" lon="2.22294">
        <ele>108.5</ele>
        <time>2022-05-03T14:11:50Z</time>
      </trkpt>
      <trkpt lat="48.74388" lon="2.22304">
        <ele>107.1</ele>
        <time>2022-05-03T14:11:55Z</time>
      </trkpt>
      <trkpt lat="48.74382" lon="2.22312">
        <ele>107.4</ele>
        <time>2022-05-03T14:12:00Z</time>
      </trkpt>
      <trkpt lat="48.74386" lon="2.22334">
        <ele>104.1</ele>
        <time>2022-05-03T14:12:05Z</time>
      </trkpt>
      <trkpt lat="48.74384" lon="2.22347">
        <ele>102.9</ele>
        <time>2022-05-03T14:12:10Z</time>
      </trkpt>
      <trkpt lat="48.74383" lon="2.22357">
        <ele>101.8</ele>
        <time>2022-05-03T14:12:15Z</time>
      </trkpt>
      <trkpt lat="48.74381" lon="2.22367">
        <ele>100.8</ele>
        <time>2022-05-03T14:12:20Z</time>
      </trkpt>
      <trkpt lat="48.74378" lon="2.22376">
        <ele>100</ele>
        <time>2022-05-03T14:12:25Z</time>
      </trkpt>
      <trkpt lat="48.74371" lon="2.22385">
        <ele>99.6</ele>
        <time>2022-05-03T14:12:30Z</time>
      </trkpt>
      <trkpt lat="48.74366" lon="2.22392">
        <ele>99</ele>
        <time>2022-05-03T14:12:35Z</time>
      </trkpt>
      <trkpt lat="48.74363" lon="2.22402">
        <ele>97.8</ele>
        <time>2022-05-03T14:12:43Z</time>
      </trkpt>
      <trkpt lat="48.74357" lon="2.2241">
        <ele>96.9</ele>
        <time>2022-05-03T14:12:48Z</time>
      </trkpt>
      <trkpt lat="48.74351" lon="2.2242">
        <ele>95.7</ele>
        <time>2022-05-03T14:12:53Z</time>
      </trkpt>
      <trkpt lat="48.74345" lon="2.22431">
        <ele>94.6</ele>
        <time>2022-05-03T14:12:58Z</time>
      </trkpt>
      <trkpt lat="48.74338" lon="2.22437">
        <ele>94.1</ele>
        <time>2022-05-03T14:13:03Z</time>
      </trkpt>
      <trkpt lat="48.74332" lon="2.2244">
        <ele>94</ele>
        <time>2022-05-03T14:13:09Z</time>
      </trkpt>
      <trkpt lat="48.74325" lon="2.2245">
        <ele>92.8</ele>
        <time>2022-05-03T14:13:14Z</time>
      </trkpt>
      <trkpt lat="48.74318" lon="2.22459">
        <ele>91.9</ele>
        <time>2022-05-03T14:13:19Z</time>
      </trkpt>
      <trkpt lat="48.7431" lon="2.22461">
        <ele>91.9</ele>
        <time>2022-05-03T14:13:24Z</time>
      </trkpt>
      <trkpt lat="48.74302" lon="2.22465">
        <ele>91.6</ele>
        <time>2022-05-03T14:13:29Z</time>
      </trkpt>
      <trkpt lat="48.74294" lon="2.22466">
        <ele>91.7</ele>
        <time>2022-05-03T14:13:36Z</time>
      </trkpt>
      <trkpt lat="48.74286" lon="2.22469">
        <ele>91.6</ele>
        <time>2022-05-03T14:13:41Z</time>
      </trkpt>
      <trkpt lat="48.74281" lon="2.22475">
        <ele>91</ele>
        <time>2022-05-03T14:13:46Z</time>
      </trkpt>
      <trkpt lat="48.74275" lon="2.22482">
        <ele>90.3</ele>
        <time>2022-05-03T14:13:51Z</time>
      </trkpt>
      <trkpt lat="48.74266" lon="2.22489">
        <ele>89.8</ele>
        <time>2022-05-03T14:13:56Z</time>
      </trkpt>
      <trkpt lat="48.74257" lon="2.22496">
        <ele>89.2</ele>
        <time>2022-05-03T14:14:01Z</time>
      </trkpt>
      <trkpt lat="48.7425" lon="2.22499">
        <ele>89.1</ele>
        <time>2022-05-03T14:14:07Z</time>
      </trkpt>
      <trkpt lat="48.74243" lon="2.22507">
        <ele>90</ele>
        <time>2022-05-03T14:14:12Z</time>
      </trkpt>
      <trkpt lat="48.74239" lon="2.22516">
        <ele>90.4</ele>
        <time>2022-05-03T14:14:19Z</time>
      </trkpt>
      <trkpt lat="48.74234" lon="2.22524">
        <ele>91</ele>
        <time>2022-05-03T14:14:25Z</time>
      </trkpt>
      <trkpt lat="48.74228" lon="2.2253">
        <ele>91.8</ele>
        <time>2022-05-03T14:14:30Z</time>
      </trkpt>
      <trkpt lat="48.74222" lon="2.22535">
        <ele>92.5</ele>
        <time>2022-05-03T14:14:40Z</time>
      </trkpt>
      <trkpt lat="48.74214" lon="2.2254">
        <ele>93.5</ele>
        <time>2022-05-03T14:14:45Z</time>
      </trkpt>
      <trkpt lat="48.74207" lon="2.22543">
        <ele>94.4</ele>
        <time>2022-05-03T14:14:50Z</time>
      </trkpt>
      <trkpt lat="48.74201" lon="2.22547">
        <ele>95.1</ele>
        <time>2022-05-03T14:14:55Z</time>
      </trkpt>
      <trkpt lat="48.74196" lon="2.22554">
        <ele>95.5</ele>
        <time>2022-05-03T14:15:02Z</time>
      </trkpt>
      <trkpt lat="48.7419" lon="2.2256">
        <ele>96.1</ele>
        <time>2022-05-03T14:15:08Z</time>
      </trkpt>
      <trkpt lat="48.74185" lon="2.22569">
        <ele>96.4</ele>
        <time>2022-05-03T14:15:13Z</time>
      </trkpt>
      <trkpt lat="48.74182" lon="2.22579">
        <ele>96.3</ele>
        <time>2022-05-03T14:15:18Z</time>
      </trkpt>
      <trkpt lat="48.74183" lon="2.22591">
        <ele>95.3</ele>
        <time>2022-05-03T14:15:23Z</time>
      </trkpt>
      <trkpt lat="48.74183" lon="2.22602">
        <ele>94.2</ele>
        <time>2022-05-03T14:15:28Z</time>
      </trkpt>
      <trkpt lat="48.74183" lon="2.22614">
        <ele>92.9</ele>
        <time>2022-05-03T14:15:33Z</time>
      </trkpt>
      <trkpt lat="48.74184" lon="2.22624">
        <ele>91.8</ele>
        <time>2022-05-03T14:15:39Z</time>
      </trkpt>
      <trkpt lat="48.74184" lon="2.22636">
        <ele>90.6</ele>
        <time>2022-05-03T14:15:44Z</time>
      </trkpt>
      <trkpt lat="48.74181" lon="2.22645">
        <ele>90</ele>
        <time>2022-05-03T14:15:50Z</time>
      </trkpt>
      <trkpt lat="48.74173" lon="2.2265">
        <ele>90.2</ele>
        <time>2022-05-03T14:15:55Z</time>
      </trkpt>
      <trkpt lat="48.74167" lon="2.22655">
        <ele>90.2</ele>
        <time>2022-05-03T14:16:00Z</time>
      </trkpt>
      <trkpt lat="48.7416" lon="2.2266">
        <ele>90</ele>
        <time>2022-05-03T14:16:06Z</time>
      </trkpt>
      <trkpt lat="48.74153" lon="2.22663">
        <ele>89.9</ele>
        <time>2022-05-03T14:16:13Z</time>
      </trkpt>
      <trkpt lat="48.74146" lon="2.22666">
        <ele>89.8</ele>
        <time>2022-05-03T14:16:18Z</time>
      </trkpt>
      <trkpt lat="48.74149" lon="2.22677">
        <ele>89</ele>
        <time>2022-05-03T14:16:27Z</time>
      </trkpt>
      <trkpt lat="48.74156" lon="2.22686">
        <ele>88.2</ele>
        <time>2022-05-03T14:16:32Z</time>
      </trkpt>
      <trkpt lat="48.74159" lon="2.22696">
        <ele>87.5</ele>
        <time>2022-05-03T14:16:37Z</time>
      </trkpt>
      <trkpt lat="48.74155" lon="2.22709">
        <ele>86.9</ele>
        <time>2022-05-03T14:16:42Z</time>
      </trkpt>
      <trkpt lat="48.74151" lon="2.22719">
        <ele>86.4</ele>
        <time>2022-05-03T14:16:48Z</time>
      </trkpt>
      <trkpt lat="48.74149" lon="2.22728">
        <ele>86</ele>
        <time>2022-05-03T14:16:53Z</time>
      </trkpt>
      <trkpt lat="48.74145" lon="2.22741">
        <ele>85.3</ele>
        <time>2022-05-03T14:16:58Z</time>
      </trkpt>
      <trkpt lat="48.74142" lon="2.22753">
        <ele>84.8</ele>
        <time>2022-05-03T14:17:03Z</time>
      </trkpt>
      <trkpt lat="48.74141" lon="2.22763">
        <ele>84.5</ele>
        <time>2022-05-03T14:17:08Z</time>
      </trkpt>
      <trkpt lat="48.74136" lon="2.22775">
        <ele>84.3</ele>
        <time>2022-05-03T14:17:13Z</time>
      </trkpt>
      <trkpt lat="48.74132" lon="2.22784">
        <ele>84.2</ele>
        <time>2022-05-03T14:17:19Z</time>
      </trkpt>
      <trkpt lat="48.74129" lon="2.22793">
        <ele>84</ele>
        <time>2022-05-03T14:17:24Z</time>
      </trkpt>
      <trkpt lat="48.74126" lon="2.22804">
        <ele>83.8</ele>
        <time>2022-05-03T14:17:29Z</time>
      </trkpt>
      <trkpt lat="48.74124" lon="2.22814">
        <ele>83.6</ele>
        <time>2022-05-03T14:17:34Z</time>
      </trkpt>
      <trkpt lat="48.74118" lon="2.2282">
        <ele>83.7</ele>
        <time>2022-05-03T14:17:39Z</time>
      </trkpt>
      <trkpt lat="48.74113" lon="2.22829">
        <ele>83.7</ele>
        <time>2022-05-03T14:17:44Z</time>
      </trkpt>
      <trkpt lat="48.74108" lon="2.22841">
        <ele>83.4</ele>
        <time>2022-05-03T14:17:49Z</time>
      </trkpt>
      <trkpt lat="48.74103" lon="2.2285">
        <ele>83.1</ele>
        <time>2022-05-03T14:17:54Z</time>
      </trkpt>
      <trkpt lat="48.741" lon="2.22859">
        <ele>82.7</ele>
        <time>2022-05-03T14:18:00Z</time>
      </trkpt>
      <trkpt lat="48.74096" lon="2.22869">
        <ele>82.3</ele>
        <time>2022-05-03T14:18:05Z</time>
      </trkpt>
      <trkpt lat="48.74092" lon="2.22882">
        <ele>81.7</ele>
        <time>2022-05-03T14:18:10Z</time>
      </trkpt>
      <trkpt lat="48.74088" lon="2.22889">
        <ele>81.5</ele>
        <time>2022-05-03T14:18:50Z</time>
      </trkpt>
      <trkpt lat="48.74084" lon="2.22897">
        <ele>81.2</ele>
        <time>2022-05-03T14:18:55Z</time>
      </trkpt>
      <trkpt lat="48.74079" lon="2.22905">
        <ele>80.8</ele>
        <time>2022-05-03T14:19:01Z</time>
      </trkpt>
      <trkpt lat="48.74075" lon="2.22913">
        <ele>80.4</ele>
        <time>2022-05-03T14:19:06Z</time>
      </trkpt>
      <trkpt lat="48.7407" lon="2.22923">
        <ele>80.1</ele>
        <time>2022-05-03T14:19:11Z</time>
      </trkpt>
      <trkpt lat="48.74066" lon="2.22935">
        <ele>79.8</ele>
        <time>2022-05-03T14:19:16Z</time>
      </trkpt>
      <trkpt lat="48.74061" lon="2.22944">
        <ele>79.6</ele>
        <time>2022-05-03T14:19:22Z</time>
      </trkpt>
      <trkpt lat="48.74055" lon="2.22954">
        <ele>79.3</ele>
        <time>2022-05-03T14:19:27Z</time>
      </trkpt>
      <trkpt lat="48.74051" lon="2.22964">
        <ele>79.1</ele>
        <time>2022-05-03T14:19:32Z</time>
      </trkpt>
      <trkpt lat="48.74045" lon="2.22972">
        <ele>78.9</ele>
        <time>2022-05-03T14:19:38Z</time>
      </trkpt>
      <trkpt lat="48.74041" lon="2.2298">
        <ele>78.7</ele>
        <time>2022-05-03T14:19:43Z</time>
      </trkpt>
      <trkpt lat="48.74037" lon="2.2299">
        <ele>78.5</ele>
        <time>2022-05-03T14:19:48Z</time>
      </trkpt>
      <trkpt lat="48.74033" lon="2.22998">
        <ele>78.3</ele>
        <time>2022-05-03T14:19:53Z</time>
      </trkpt>
      <trkpt lat="48.7403" lon="2.23011">
        <ele>77.9</ele>
        <time>2022-05-03T14:19:58Z</time>
      </trkpt>
      <trkpt lat="48.74027" lon="2.23019">
        <ele>77.7</ele>
        <time>2022-05-03T14:20:05Z</time>
      </trkpt>
      <trkpt lat="48.74022" lon="2.23034">
        <ele>77.2</ele>
        <time>2022-05-03T14:20:10Z</time>
      </trkpt>
      <trkpt lat="48.74015" lon="2.23048">
        <ele>76.9</ele>
        <time>2022-05-03T14:20:15Z</time>
      </trkpt>
      <trkpt lat="48.74009" lon="2.23057">
        <ele>76.7</ele>
        <time>2022-05-03T14:20:20Z</time>
      </trkpt>
      <trkpt lat="48.74005" lon="2.23066">
        <ele>76.5</ele>
        <time>2022-05-03T14:20:25Z</time>
      </trkpt>
      <trkpt lat="48.73999" lon="2.23078">
        <ele>76.2</ele>
        <time>2022-05-03T14:20:30Z</time>
      </trkpt>
      <trkpt lat="48.73996" lon="2.23089">
        <ele>75.9</ele>
        <time>2022-05-03T14:20:52Z</time>
      </trkpt>
      <trkpt lat="48.74003" lon="2.23089">
        <ele>75.7</ele>
        <time>2022-05-03T14:21:08Z</time>
      </trkpt>
      <trkpt lat="48.74004" lon="2.23079">
        <ele>76.1</ele>
        <time>2022-05-03T14:21:21Z</time>
      </trkpt>
    </trkseg>
  </trk>
</gpx>